<?xml version="1.0" encoding="UTF-8" standalone="no" ?>
<gpx xmlns="http://www.topografix.com/GPX/1/1" xmlns:xsi="http://www.w3.org/2001/XMLSchema-instance" xsi:schemaLocation="http://www.topografix.com/GPX/1/1 http://www.topografix.com/GPX/1/1/gpx.xsd" version="1.1" creator="VisuGPX - https://www.visugpx.com">
  <metadata>
    <name>Kerlaz/Nevet</name>
    <desc><![CDATA[Parking et départ de cette rando plage du Ry sur la D7. 
Départ, la mer à droite, remonter la rte et tourner à gauche au pied de la grande et dernière maison, continuer la montée par l'Allée de Maner Lak pour débouché sur la D39, passer le château d'eau, et traverser le lotissement à droite pour déboucher sur Lanugat. Prendre le sentier en sous bois après l'ancienne voie ferrée. Poursuivre ensuite vers Keroustillic, Keralec, suivre la rte vers Poulhon, retrouver la D39 et descendre à droite, dans le virage, suivre le GR38 vers Clémentec, poursuivre la descente sur la D39 et  tourner à gauche vers le bassin de Kératry, continuer sur le GR, pour rejoindre Kerlard. Suivre le GR pour rejoindre Park Lann, et Kerlaz. Entrer dans le village en passant au pied de l'église, poursuivre en face la rue bordée de maisons au bout de la rue, prendre à gauche et suivre le panneau Sentier Côtier qui mêne à la plage de Trezmalaouen ou l'on retrouve le GR 34 qui ramène au parking en surplombes la baie de Douarnenez.
ch ]]></desc>
  </metadata>
  <trk>
    <name><![CDATA[KerlazNévet 22/04/17]]></name>
    <trkseg>
      <trkpt lat="48.08612" lon="-4.29871">
        <ele>64.545654296875</ele>
        <time>2017-04-22T11:23:51Z</time>
      </trkpt>
      <trkpt lat="48.08612" lon="-4.29871">
        <ele>65.0263671875</ele>
        <time>2017-04-22T11:23:52Z</time>
      </trkpt>
      <trkpt lat="48.08606" lon="-4.29868">
        <ele>66.46826171875</ele>
        <time>2017-04-22T11:23:58Z</time>
      </trkpt>
      <trkpt lat="48.08603" lon="-4.29865">
        <ele>66.948974609375</ele>
        <time>2017-04-22T11:24:01Z</time>
      </trkpt>
      <trkpt lat="48.08592" lon="-4.2986">
        <ele>67.910278320312</ele>
        <time>2017-04-22T11:24:10Z</time>
      </trkpt>
      <trkpt lat="48.08589" lon="-4.29859">
        <ele>67.910278320312</ele>
        <time>2017-04-22T11:24:12Z</time>
      </trkpt>
      <trkpt lat="48.08583" lon="-4.29852">
        <ele>65.987670898438</ele>
        <time>2017-04-22T11:24:18Z</time>
      </trkpt>
      <trkpt lat="48.08577" lon="-4.29843">
        <ele>66.948974609375</ele>
        <time>2017-04-22T11:24:25Z</time>
      </trkpt>
      <trkpt lat="48.08569" lon="-4.29834">
        <ele>64.545654296875</ele>
        <time>2017-04-22T11:24:33Z</time>
      </trkpt>
      <trkpt lat="48.0856" lon="-4.29827">
        <ele>63.584350585938</ele>
        <time>2017-04-22T11:24:41Z</time>
      </trkpt>
      <trkpt lat="48.08553" lon="-4.29832">
        <ele>63.584350585938</ele>
        <time>2017-04-22T11:24:47Z</time>
      </trkpt>
      <trkpt lat="48.08546" lon="-4.29837">
        <ele>65.987670898438</ele>
        <time>2017-04-22T11:24:54Z</time>
      </trkpt>
      <trkpt lat="48.08538" lon="-4.29833">
        <ele>65.507080078125</ele>
        <time>2017-04-22T11:24:59Z</time>
      </trkpt>
      <trkpt lat="48.08528" lon="-4.29832">
        <ele>65.0263671875</ele>
        <time>2017-04-22T11:25:07Z</time>
      </trkpt>
      <trkpt lat="48.08526" lon="-4.29832">
        <ele>65.507080078125</ele>
        <time>2017-04-22T11:25:08Z</time>
      </trkpt>
      <trkpt lat="48.08522" lon="-4.29831">
        <ele>65.0263671875</ele>
        <time>2017-04-22T11:25:12Z</time>
      </trkpt>
      <trkpt lat="48.08511" lon="-4.29829">
        <ele>65.507080078125</ele>
        <time>2017-04-22T11:25:20Z</time>
      </trkpt>
      <trkpt lat="48.08504" lon="-4.29828">
        <ele>65.987670898438</ele>
        <time>2017-04-22T11:25:26Z</time>
      </trkpt>
      <trkpt lat="48.085" lon="-4.29819">
        <ele>64.065063476562</ele>
        <time>2017-04-22T11:25:32Z</time>
      </trkpt>
      <trkpt lat="48.08499" lon="-4.29818">
        <ele>63.584350585938</ele>
        <time>2017-04-22T11:25:33Z</time>
      </trkpt>
      <trkpt lat="48.08496" lon="-4.29806">
        <ele>62.142333984375</ele>
        <time>2017-04-22T11:25:40Z</time>
      </trkpt>
      <trkpt lat="48.08495" lon="-4.29804">
        <ele>62.142333984375</ele>
        <time>2017-04-22T11:25:42Z</time>
      </trkpt>
      <trkpt lat="48.08489" lon="-4.29795">
        <ele>63.584350585938</ele>
        <time>2017-04-22T11:25:49Z</time>
      </trkpt>
      <trkpt lat="48.0848" lon="-4.29794">
        <ele>65.0263671875</ele>
        <time>2017-04-22T11:25:56Z</time>
      </trkpt>
      <trkpt lat="48.08472" lon="-4.29795">
        <ele>65.0263671875</ele>
        <time>2017-04-22T11:26:02Z</time>
      </trkpt>
      <trkpt lat="48.08464" lon="-4.29797">
        <ele>64.545654296875</ele>
        <time>2017-04-22T11:26:08Z</time>
      </trkpt>
      <trkpt lat="48.08457" lon="-4.29797">
        <ele>66.46826171875</ele>
        <time>2017-04-22T11:26:14Z</time>
      </trkpt>
      <trkpt lat="48.08442" lon="-4.29799">
        <ele>65.987670898438</ele>
        <time>2017-04-22T11:26:25Z</time>
      </trkpt>
      <trkpt lat="48.08434" lon="-4.298">
        <ele>64.545654296875</ele>
        <time>2017-04-22T11:26:31Z</time>
      </trkpt>
      <trkpt lat="48.08429" lon="-4.29791">
        <ele>63.584350585938</ele>
        <time>2017-04-22T11:26:37Z</time>
      </trkpt>
      <trkpt lat="48.08426" lon="-4.29777">
        <ele>64.065063476562</ele>
        <time>2017-04-22T11:26:45Z</time>
      </trkpt>
      <trkpt lat="48.08422" lon="-4.29768">
        <ele>63.584350585938</ele>
        <time>2017-04-22T11:26:51Z</time>
      </trkpt>
      <trkpt lat="48.08418" lon="-4.29756">
        <ele>63.584350585938</ele>
        <time>2017-04-22T11:26:58Z</time>
      </trkpt>
      <trkpt lat="48.08413" lon="-4.29745">
        <ele>64.065063476562</ele>
        <time>2017-04-22T11:27:05Z</time>
      </trkpt>
      <trkpt lat="48.08407" lon="-4.29733">
        <ele>64.065063476562</ele>
        <time>2017-04-22T11:27:12Z</time>
      </trkpt>
      <trkpt lat="48.08403" lon="-4.2972">
        <ele>64.065063476562</ele>
        <time>2017-04-22T11:27:20Z</time>
      </trkpt>
      <trkpt lat="48.08398" lon="-4.29705">
        <ele>63.103637695312</ele>
        <time>2017-04-22T11:27:29Z</time>
      </trkpt>
      <trkpt lat="48.08392" lon="-4.29689">
        <ele>62.142333984375</ele>
        <time>2017-04-22T11:27:39Z</time>
      </trkpt>
      <trkpt lat="48.08387" lon="-4.29674">
        <ele>62.142333984375</ele>
        <time>2017-04-22T11:27:48Z</time>
      </trkpt>
      <trkpt lat="48.08383" lon="-4.29662">
        <ele>61.661743164062</ele>
        <time>2017-04-22T11:27:55Z</time>
      </trkpt>
      <trkpt lat="48.08383" lon="-4.2966">
        <ele>61.661743164062</ele>
        <time>2017-04-22T11:27:56Z</time>
      </trkpt>
      <trkpt lat="48.08379" lon="-4.2965">
        <ele>61.661743164062</ele>
        <time>2017-04-22T11:28:02Z</time>
      </trkpt>
      <trkpt lat="48.08367" lon="-4.29645">
        <ele>62.142333984375</ele>
        <time>2017-04-22T11:28:11Z</time>
      </trkpt>
      <trkpt lat="48.08364" lon="-4.29643">
        <ele>61.661743164062</ele>
        <time>2017-04-22T11:28:14Z</time>
      </trkpt>
      <trkpt lat="48.08363" lon="-4.29635">
        <ele>62.142333984375</ele>
        <time>2017-04-22T11:28:18Z</time>
      </trkpt>
      <trkpt lat="48.08362" lon="-4.29627">
        <ele>63.103637695312</ele>
        <time>2017-04-22T11:28:22Z</time>
      </trkpt>
      <trkpt lat="48.08362" lon="-4.29619">
        <ele>63.103637695312</ele>
        <time>2017-04-22T11:28:26Z</time>
      </trkpt>
      <trkpt lat="48.08361" lon="-4.29611">
        <ele>63.103637695312</ele>
        <time>2017-04-22T11:28:30Z</time>
      </trkpt>
      <trkpt lat="48.0836" lon="-4.29603">
        <ele>62.142333984375</ele>
        <time>2017-04-22T11:28:35Z</time>
      </trkpt>
      <trkpt lat="48.08356" lon="-4.29601">
        <ele>62.142333984375</ele>
        <time>2017-04-22T11:28:39Z</time>
      </trkpt>
      <trkpt lat="48.08352" lon="-4.29602">
        <ele>61.661743164062</ele>
        <time>2017-04-22T11:28:42Z</time>
      </trkpt>
      <trkpt lat="48.08341" lon="-4.29604">
        <ele>65.0263671875</ele>
        <time>2017-04-22T11:28:50Z</time>
      </trkpt>
      <trkpt lat="48.08326" lon="-4.29608">
        <ele>67.910278320312</ele>
        <time>2017-04-22T11:29:00Z</time>
      </trkpt>
      <trkpt lat="48.08319" lon="-4.29608">
        <ele>65.507080078125</ele>
        <time>2017-04-22T11:29:06Z</time>
      </trkpt>
      <trkpt lat="48.08314" lon="-4.29608">
        <ele>64.065063476562</ele>
        <time>2017-04-22T11:29:09Z</time>
      </trkpt>
      <trkpt lat="48.08307" lon="-4.29609">
        <ele>63.584350585938</ele>
        <time>2017-04-22T11:29:15Z</time>
      </trkpt>
      <trkpt lat="48.083" lon="-4.29611">
        <ele>63.584350585938</ele>
        <time>2017-04-22T11:29:20Z</time>
      </trkpt>
      <trkpt lat="48.08291" lon="-4.29616">
        <ele>63.584350585938</ele>
        <time>2017-04-22T11:29:27Z</time>
      </trkpt>
      <trkpt lat="48.08284" lon="-4.29618">
        <ele>62.622924804688</ele>
        <time>2017-04-22T11:29:33Z</time>
      </trkpt>
      <trkpt lat="48.08278" lon="-4.29621">
        <ele>63.103637695312</ele>
        <time>2017-04-22T11:29:38Z</time>
      </trkpt>
      <trkpt lat="48.08268" lon="-4.29625">
        <ele>62.622924804688</ele>
        <time>2017-04-22T11:29:46Z</time>
      </trkpt>
      <trkpt lat="48.08267" lon="-4.29625">
        <ele>62.622924804688</ele>
        <time>2017-04-22T11:29:47Z</time>
      </trkpt>
      <trkpt lat="48.08261" lon="-4.29626">
        <ele>63.584350585938</ele>
        <time>2017-04-22T11:29:51Z</time>
      </trkpt>
      <trkpt lat="48.08254" lon="-4.29628">
        <ele>64.545654296875</ele>
        <time>2017-04-22T11:29:56Z</time>
      </trkpt>
      <trkpt lat="48.08245" lon="-4.29628">
        <ele>64.065063476562</ele>
        <time>2017-04-22T11:30:03Z</time>
      </trkpt>
      <trkpt lat="48.08238" lon="-4.29632">
        <ele>63.103637695312</ele>
        <time>2017-04-22T11:30:09Z</time>
      </trkpt>
      <trkpt lat="48.0823" lon="-4.29634">
        <ele>62.622924804688</ele>
        <time>2017-04-22T11:30:15Z</time>
      </trkpt>
      <trkpt lat="48.08219" lon="-4.29638">
        <ele>61.181030273438</ele>
        <time>2017-04-22T11:30:24Z</time>
      </trkpt>
      <trkpt lat="48.08209" lon="-4.2964">
        <ele>60.700317382812</ele>
        <time>2017-04-22T11:30:32Z</time>
      </trkpt>
      <trkpt lat="48.082" lon="-4.29642">
        <ele>59.258422851562</ele>
        <time>2017-04-22T11:30:39Z</time>
      </trkpt>
      <trkpt lat="48.08185" lon="-4.29645">
        <ele>57.335815429688</ele>
        <time>2017-04-22T11:30:51Z</time>
      </trkpt>
      <trkpt lat="48.08173" lon="-4.29649">
        <ele>55.893798828125</ele>
        <time>2017-04-22T11:31:00Z</time>
      </trkpt>
      <trkpt lat="48.08157" lon="-4.29651">
        <ele>56.855102539062</ele>
        <time>2017-04-22T11:31:11Z</time>
      </trkpt>
      <trkpt lat="48.08145" lon="-4.29654">
        <ele>56.37451171875</ele>
        <time>2017-04-22T11:31:20Z</time>
      </trkpt>
      <trkpt lat="48.08133" lon="-4.29656">
        <ele>56.37451171875</ele>
        <time>2017-04-22T11:31:29Z</time>
      </trkpt>
      <trkpt lat="48.08121" lon="-4.29659">
        <ele>55.4130859375</ele>
        <time>2017-04-22T11:31:38Z</time>
      </trkpt>
      <trkpt lat="48.0811" lon="-4.29661">
        <ele>55.893798828125</ele>
        <time>2017-04-22T11:31:47Z</time>
      </trkpt>
      <trkpt lat="48.08098" lon="-4.29663">
        <ele>55.4130859375</ele>
        <time>2017-04-22T11:31:56Z</time>
      </trkpt>
      <trkpt lat="48.08088" lon="-4.29666">
        <ele>53.97119140625</ele>
        <time>2017-04-22T11:32:04Z</time>
      </trkpt>
      <trkpt lat="48.08071" lon="-4.2967">
        <ele>54.932373046875</ele>
        <time>2017-04-22T11:32:16Z</time>
      </trkpt>
      <trkpt lat="48.08061" lon="-4.29671">
        <ele>53.009765625</ele>
        <time>2017-04-22T11:32:25Z</time>
      </trkpt>
      <trkpt lat="48.0805" lon="-4.29673">
        <ele>51.087158203125</ele>
        <time>2017-04-22T11:32:34Z</time>
      </trkpt>
      <trkpt lat="48.08038" lon="-4.29677">
        <ele>51.087158203125</ele>
        <time>2017-04-22T11:32:43Z</time>
      </trkpt>
      <trkpt lat="48.08025" lon="-4.2968">
        <ele>51.087158203125</ele>
        <time>2017-04-22T11:32:53Z</time>
      </trkpt>
      <trkpt lat="48.08012" lon="-4.29683">
        <ele>51.087158203125</ele>
        <time>2017-04-22T11:33:02Z</time>
      </trkpt>
      <trkpt lat="48.07999" lon="-4.29686">
        <ele>50.606567382812</ele>
        <time>2017-04-22T11:33:12Z</time>
      </trkpt>
      <trkpt lat="48.07987" lon="-4.29689">
        <ele>50.1259765625</ele>
        <time>2017-04-22T11:33:22Z</time>
      </trkpt>
      <trkpt lat="48.07976" lon="-4.29692">
        <ele>50.1259765625</ele>
        <time>2017-04-22T11:33:30Z</time>
      </trkpt>
      <trkpt lat="48.07966" lon="-4.29695">
        <ele>49.645263671875</ele>
        <time>2017-04-22T11:33:38Z</time>
      </trkpt>
      <trkpt lat="48.07956" lon="-4.29699">
        <ele>48.203369140625</ele>
        <time>2017-04-22T11:33:46Z</time>
      </trkpt>
      <trkpt lat="48.07946" lon="-4.29702">
        <ele>49.16455078125</ele>
        <time>2017-04-22T11:33:54Z</time>
      </trkpt>
      <trkpt lat="48.07934" lon="-4.29704">
        <ele>49.645263671875</ele>
        <time>2017-04-22T11:34:03Z</time>
      </trkpt>
      <trkpt lat="48.07924" lon="-4.2971">
        <ele>49.16455078125</ele>
        <time>2017-04-22T11:34:12Z</time>
      </trkpt>
      <trkpt lat="48.07917" lon="-4.2972">
        <ele>48.203369140625</ele>
        <time>2017-04-22T11:34:20Z</time>
      </trkpt>
      <trkpt lat="48.07914" lon="-4.29727">
        <ele>47.722534179688</ele>
        <time>2017-04-22T11:34:24Z</time>
      </trkpt>
      <trkpt lat="48.07906" lon="-4.29727">
        <ele>47.241821289062</ele>
        <time>2017-04-22T11:34:31Z</time>
      </trkpt>
      <trkpt lat="48.07898" lon="-4.2972">
        <ele>46.76123046875</ele>
        <time>2017-04-22T11:34:38Z</time>
      </trkpt>
      <trkpt lat="48.07895" lon="-4.29716">
        <ele>46.76123046875</ele>
        <time>2017-04-22T11:34:41Z</time>
      </trkpt>
      <trkpt lat="48.07886" lon="-4.29718">
        <ele>45.799926757812</ele>
        <time>2017-04-22T11:34:48Z</time>
      </trkpt>
      <trkpt lat="48.07875" lon="-4.29721">
        <ele>45.319213867188</ele>
        <time>2017-04-22T11:34:57Z</time>
      </trkpt>
      <trkpt lat="48.07866" lon="-4.29723">
        <ele>44.838623046875</ele>
        <time>2017-04-22T11:35:04Z</time>
      </trkpt>
      <trkpt lat="48.07859" lon="-4.29726">
        <ele>43.877319335938</ele>
        <time>2017-04-22T11:35:10Z</time>
      </trkpt>
      <trkpt lat="48.07849" lon="-4.29727">
        <ele>43.877319335938</ele>
        <time>2017-04-22T11:35:18Z</time>
      </trkpt>
      <trkpt lat="48.07835" lon="-4.29731">
        <ele>44.358032226562</ele>
        <time>2017-04-22T11:35:28Z</time>
      </trkpt>
      <trkpt lat="48.07822" lon="-4.29733">
        <ele>44.358032226562</ele>
        <time>2017-04-22T11:35:38Z</time>
      </trkpt>
      <trkpt lat="48.07814" lon="-4.29734">
        <ele>44.838623046875</ele>
        <time>2017-04-22T11:35:45Z</time>
      </trkpt>
      <trkpt lat="48.0781" lon="-4.29735">
        <ele>44.838623046875</ele>
        <time>2017-04-22T11:35:48Z</time>
      </trkpt>
      <trkpt lat="48.07799" lon="-4.29738">
        <ele>44.358032226562</ele>
        <time>2017-04-22T11:35:57Z</time>
      </trkpt>
      <trkpt lat="48.07788" lon="-4.29741">
        <ele>43.396606445312</ele>
        <time>2017-04-22T11:36:06Z</time>
      </trkpt>
      <trkpt lat="48.0778" lon="-4.29744">
        <ele>42.916015625</ele>
        <time>2017-04-22T11:36:13Z</time>
      </trkpt>
      <trkpt lat="48.0777" lon="-4.29749">
        <ele>41.954711914062</ele>
        <time>2017-04-22T11:36:21Z</time>
      </trkpt>
      <trkpt lat="48.07767" lon="-4.29753">
        <ele>41.473999023438</ele>
        <time>2017-04-22T11:36:27Z</time>
      </trkpt>
      <trkpt lat="48.07764" lon="-4.29753">
        <ele>40.993408203125</ele>
        <time>2017-04-22T11:36:33Z</time>
      </trkpt>
      <trkpt lat="48.07758" lon="-4.29755">
        <ele>39.55126953125</ele>
        <time>2017-04-22T11:36:39Z</time>
      </trkpt>
      <trkpt lat="48.07748" lon="-4.29757">
        <ele>37.628662109375</ele>
        <time>2017-04-22T11:36:47Z</time>
      </trkpt>
      <trkpt lat="48.0774" lon="-4.2976">
        <ele>36.66748046875</ele>
        <time>2017-04-22T11:36:53Z</time>
      </trkpt>
      <trkpt lat="48.07729" lon="-4.29761">
        <ele>37.148071289062</ele>
        <time>2017-04-22T11:37:01Z</time>
      </trkpt>
      <trkpt lat="48.0772" lon="-4.29764">
        <ele>36.66748046875</ele>
        <time>2017-04-22T11:37:08Z</time>
      </trkpt>
      <trkpt lat="48.07714" lon="-4.29769">
        <ele>36.186767578125</ele>
        <time>2017-04-22T11:37:14Z</time>
      </trkpt>
      <trkpt lat="48.07712" lon="-4.29772">
        <ele>36.186767578125</ele>
        <time>2017-04-22T11:37:16Z</time>
      </trkpt>
      <trkpt lat="48.0771" lon="-4.29776">
        <ele>35.7060546875</ele>
        <time>2017-04-22T11:37:19Z</time>
      </trkpt>
      <trkpt lat="48.07707" lon="-4.29786">
        <ele>36.186767578125</ele>
        <time>2017-04-22T11:37:24Z</time>
      </trkpt>
      <trkpt lat="48.07707" lon="-4.29788">
        <ele>36.186767578125</ele>
        <time>2017-04-22T11:37:26Z</time>
      </trkpt>
      <trkpt lat="48.07706" lon="-4.29791">
        <ele>36.66748046875</ele>
        <time>2017-04-22T11:37:28Z</time>
      </trkpt>
      <trkpt lat="48.07703" lon="-4.29798">
        <ele>34.744873046875</ele>
        <time>2017-04-22T11:37:33Z</time>
      </trkpt>
      <trkpt lat="48.07703" lon="-4.298">
        <ele>34.26416015625</ele>
        <time>2017-04-22T11:37:34Z</time>
      </trkpt>
      <trkpt lat="48.07703" lon="-4.29816">
        <ele>34.26416015625</ele>
        <time>2017-04-22T11:37:42Z</time>
      </trkpt>
      <trkpt lat="48.07702" lon="-4.29822">
        <ele>36.186767578125</ele>
        <time>2017-04-22T11:37:45Z</time>
      </trkpt>
      <trkpt lat="48.07703" lon="-4.29827">
        <ele>36.66748046875</ele>
        <time>2017-04-22T11:37:48Z</time>
      </trkpt>
      <trkpt lat="48.07704" lon="-4.29838">
        <ele>36.66748046875</ele>
        <time>2017-04-22T11:37:54Z</time>
      </trkpt>
      <trkpt lat="48.07705" lon="-4.29841">
        <ele>36.66748046875</ele>
        <time>2017-04-22T11:37:56Z</time>
      </trkpt>
      <trkpt lat="48.07706" lon="-4.29851">
        <ele>35.7060546875</ele>
        <time>2017-04-22T11:38:01Z</time>
      </trkpt>
      <trkpt lat="48.07707" lon="-4.29854">
        <ele>35.225463867188</ele>
        <time>2017-04-22T11:38:03Z</time>
      </trkpt>
      <trkpt lat="48.07708" lon="-4.29856">
        <ele>34.26416015625</ele>
        <time>2017-04-22T11:38:05Z</time>
      </trkpt>
      <trkpt lat="48.07709" lon="-4.29866">
        <ele>33.783447265625</ele>
        <time>2017-04-22T11:38:10Z</time>
      </trkpt>
      <trkpt lat="48.07711" lon="-4.29877">
        <ele>34.744873046875</ele>
        <time>2017-04-22T11:38:16Z</time>
      </trkpt>
      <trkpt lat="48.07714" lon="-4.29887">
        <ele>34.744873046875</ele>
        <time>2017-04-22T11:38:22Z</time>
      </trkpt>
      <trkpt lat="48.07715" lon="-4.29895">
        <ele>35.7060546875</ele>
        <time>2017-04-22T11:38:26Z</time>
      </trkpt>
      <trkpt lat="48.07718" lon="-4.29909">
        <ele>35.225463867188</ele>
        <time>2017-04-22T11:38:33Z</time>
      </trkpt>
      <trkpt lat="48.07716" lon="-4.29916">
        <ele>36.186767578125</ele>
        <time>2017-04-22T11:38:37Z</time>
      </trkpt>
      <trkpt lat="48.07715" lon="-4.29921">
        <ele>37.148071289062</ele>
        <time>2017-04-22T11:38:40Z</time>
      </trkpt>
      <trkpt lat="48.07713" lon="-4.29924">
        <ele>37.628662109375</ele>
        <time>2017-04-22T11:38:45Z</time>
      </trkpt>
      <trkpt lat="48.07713" lon="-4.29926">
        <ele>39.55126953125</ele>
        <time>2017-04-22T11:38:59Z</time>
      </trkpt>
      <trkpt lat="48.07713" lon="-4.29923">
        <ele>38.590087890625</ele>
        <time>2017-04-22T11:39:12Z</time>
      </trkpt>
      <trkpt lat="48.07714" lon="-4.29923">
        <ele>36.66748046875</ele>
        <time>2017-04-22T11:39:20Z</time>
      </trkpt>
      <trkpt lat="48.07713" lon="-4.29924">
        <ele>40.512817382812</ele>
        <time>2017-04-22T11:39:34Z</time>
      </trkpt>
      <trkpt lat="48.07713" lon="-4.29925">
        <ele>38.590087890625</ele>
        <time>2017-04-22T11:39:45Z</time>
      </trkpt>
      <trkpt lat="48.07712" lon="-4.29928">
        <ele>37.148071289062</ele>
        <time>2017-04-22T11:39:56Z</time>
      </trkpt>
      <trkpt lat="48.07708" lon="-4.29928">
        <ele>37.148071289062</ele>
        <time>2017-04-22T11:40:02Z</time>
      </trkpt>
      <trkpt lat="48.07704" lon="-4.29928">
        <ele>38.590087890625</ele>
        <time>2017-04-22T11:40:07Z</time>
      </trkpt>
      <trkpt lat="48.07698" lon="-4.29926">
        <ele>41.473999023438</ele>
        <time>2017-04-22T11:40:12Z</time>
      </trkpt>
      <trkpt lat="48.0769" lon="-4.29924">
        <ele>43.877319335938</ele>
        <time>2017-04-22T11:40:18Z</time>
      </trkpt>
      <trkpt lat="48.07689" lon="-4.29924">
        <ele>43.396606445312</ele>
        <time>2017-04-22T11:40:19Z</time>
      </trkpt>
      <trkpt lat="48.07684" lon="-4.29924">
        <ele>43.396606445312</ele>
        <time>2017-04-22T11:40:23Z</time>
      </trkpt>
      <trkpt lat="48.07675" lon="-4.29921">
        <ele>44.838623046875</ele>
        <time>2017-04-22T11:40:31Z</time>
      </trkpt>
      <trkpt lat="48.07667" lon="-4.29919">
        <ele>42.916015625</ele>
        <time>2017-04-22T11:40:38Z</time>
      </trkpt>
      <trkpt lat="48.07666" lon="-4.29919">
        <ele>42.916015625</ele>
        <time>2017-04-22T11:40:39Z</time>
      </trkpt>
      <trkpt lat="48.07656" lon="-4.29915">
        <ele>44.838623046875</ele>
        <time>2017-04-22T11:40:47Z</time>
      </trkpt>
      <trkpt lat="48.07647" lon="-4.29911">
        <ele>45.319213867188</ele>
        <time>2017-04-22T11:40:54Z</time>
      </trkpt>
      <trkpt lat="48.07646" lon="-4.29911">
        <ele>45.319213867188</ele>
        <time>2017-04-22T11:40:55Z</time>
      </trkpt>
      <trkpt lat="48.0764" lon="-4.29907">
        <ele>44.358032226562</ele>
        <time>2017-04-22T11:41:01Z</time>
      </trkpt>
      <trkpt lat="48.07632" lon="-4.29904">
        <ele>43.877319335938</ele>
        <time>2017-04-22T11:41:08Z</time>
      </trkpt>
      <trkpt lat="48.07628" lon="-4.29903">
        <ele>42.916015625</ele>
        <time>2017-04-22T11:41:11Z</time>
      </trkpt>
      <trkpt lat="48.07621" lon="-4.29901">
        <ele>44.358032226562</ele>
        <time>2017-04-22T11:41:17Z</time>
      </trkpt>
      <trkpt lat="48.07618" lon="-4.29899">
        <ele>43.877319335938</ele>
        <time>2017-04-22T11:41:19Z</time>
      </trkpt>
      <trkpt lat="48.07616" lon="-4.29899">
        <ele>44.358032226562</ele>
        <time>2017-04-22T11:41:21Z</time>
      </trkpt>
      <trkpt lat="48.07609" lon="-4.29896">
        <ele>44.358032226562</ele>
        <time>2017-04-22T11:41:27Z</time>
      </trkpt>
      <trkpt lat="48.07608" lon="-4.29895">
        <ele>44.358032226562</ele>
        <time>2017-04-22T11:41:28Z</time>
      </trkpt>
      <trkpt lat="48.07599" lon="-4.29893">
        <ele>44.358032226562</ele>
        <time>2017-04-22T11:41:35Z</time>
      </trkpt>
      <trkpt lat="48.07592" lon="-4.29891">
        <ele>46.280639648438</ele>
        <time>2017-04-22T11:41:41Z</time>
      </trkpt>
      <trkpt lat="48.07588" lon="-4.29893">
        <ele>45.799926757812</ele>
        <time>2017-04-22T11:41:45Z</time>
      </trkpt>
      <trkpt lat="48.07584" lon="-4.29899">
        <ele>46.280639648438</ele>
        <time>2017-04-22T11:41:50Z</time>
      </trkpt>
      <trkpt lat="48.07582" lon="-4.2991">
        <ele>46.280639648438</ele>
        <time>2017-04-22T11:41:57Z</time>
      </trkpt>
      <trkpt lat="48.0758" lon="-4.29918">
        <ele>46.280639648438</ele>
        <time>2017-04-22T11:42:02Z</time>
      </trkpt>
      <trkpt lat="48.07581" lon="-4.29928">
        <ele>42.435424804688</ele>
        <time>2017-04-22T11:42:09Z</time>
      </trkpt>
      <trkpt lat="48.07581" lon="-4.29933">
        <ele>41.473999023438</ele>
        <time>2017-04-22T11:42:12Z</time>
      </trkpt>
      <trkpt lat="48.0758" lon="-4.29941">
        <ele>42.435424804688</ele>
        <time>2017-04-22T11:42:16Z</time>
      </trkpt>
      <trkpt lat="48.07577" lon="-4.29952">
        <ele>40.993408203125</ele>
        <time>2017-04-22T11:42:23Z</time>
      </trkpt>
      <trkpt lat="48.07578" lon="-4.29959">
        <ele>38.590087890625</ele>
        <time>2017-04-22T11:42:28Z</time>
      </trkpt>
      <trkpt lat="48.07578" lon="-4.29968">
        <ele>37.148071289062</ele>
        <time>2017-04-22T11:42:34Z</time>
      </trkpt>
      <trkpt lat="48.07578" lon="-4.2997">
        <ele>37.148071289062</ele>
        <time>2017-04-22T11:42:35Z</time>
      </trkpt>
      <trkpt lat="48.07574" lon="-4.29983">
        <ele>40.512817382812</ele>
        <time>2017-04-22T11:42:41Z</time>
      </trkpt>
      <trkpt lat="48.07572" lon="-4.29989">
        <ele>41.473999023438</ele>
        <time>2017-04-22T11:42:44Z</time>
      </trkpt>
      <trkpt lat="48.07568" lon="-4.29995">
        <ele>43.877319335938</ele>
        <time>2017-04-22T11:42:48Z</time>
      </trkpt>
      <trkpt lat="48.07566" lon="-4.3">
        <ele>45.319213867188</ele>
        <time>2017-04-22T11:42:52Z</time>
      </trkpt>
      <trkpt lat="48.07558" lon="-4.30008">
        <ele>47.241821289062</ele>
        <time>2017-04-22T11:43:00Z</time>
      </trkpt>
      <trkpt lat="48.07557" lon="-4.30009">
        <ele>47.241821289062</ele>
        <time>2017-04-22T11:43:01Z</time>
      </trkpt>
      <trkpt lat="48.07553" lon="-4.30012">
        <ele>47.241821289062</ele>
        <time>2017-04-22T11:43:06Z</time>
      </trkpt>
      <trkpt lat="48.07546" lon="-4.30018">
        <ele>48.683959960938</ele>
        <time>2017-04-22T11:43:12Z</time>
      </trkpt>
      <trkpt lat="48.07542" lon="-4.3002">
        <ele>49.645263671875</ele>
        <time>2017-04-22T11:43:15Z</time>
      </trkpt>
      <trkpt lat="48.07535" lon="-4.30022">
        <ele>51.087158203125</ele>
        <time>2017-04-22T11:43:21Z</time>
      </trkpt>
      <trkpt lat="48.07531" lon="-4.30023">
        <ele>52.048583984375</ele>
        <time>2017-04-22T11:43:24Z</time>
      </trkpt>
      <trkpt lat="48.07521" lon="-4.30023">
        <ele>53.009765625</ele>
        <time>2017-04-22T11:43:32Z</time>
      </trkpt>
      <trkpt lat="48.0752" lon="-4.30023">
        <ele>53.009765625</ele>
        <time>2017-04-22T11:43:33Z</time>
      </trkpt>
      <trkpt lat="48.07513" lon="-4.30021">
        <ele>52.529174804688</ele>
        <time>2017-04-22T11:43:40Z</time>
      </trkpt>
      <trkpt lat="48.07504" lon="-4.30019">
        <ele>52.529174804688</ele>
        <time>2017-04-22T11:43:47Z</time>
      </trkpt>
      <trkpt lat="48.07495" lon="-4.30017">
        <ele>53.490478515625</ele>
        <time>2017-04-22T11:43:54Z</time>
      </trkpt>
      <trkpt lat="48.07486" lon="-4.30014">
        <ele>54.932373046875</ele>
        <time>2017-04-22T11:44:01Z</time>
      </trkpt>
      <trkpt lat="48.07477" lon="-4.30012">
        <ele>55.4130859375</ele>
        <time>2017-04-22T11:44:08Z</time>
      </trkpt>
      <trkpt lat="48.07476" lon="-4.30012">
        <ele>55.4130859375</ele>
        <time>2017-04-22T11:44:09Z</time>
      </trkpt>
      <trkpt lat="48.07467" lon="-4.30011">
        <ele>55.4130859375</ele>
        <time>2017-04-22T11:44:16Z</time>
      </trkpt>
      <trkpt lat="48.07457" lon="-4.30008">
        <ele>54.932373046875</ele>
        <time>2017-04-22T11:44:24Z</time>
      </trkpt>
      <trkpt lat="48.07449" lon="-4.30005">
        <ele>54.932373046875</ele>
        <time>2017-04-22T11:44:31Z</time>
      </trkpt>
      <trkpt lat="48.0744" lon="-4.3">
        <ele>55.4130859375</ele>
        <time>2017-04-22T11:44:39Z</time>
      </trkpt>
      <trkpt lat="48.0743" lon="-4.29992">
        <ele>54.932373046875</ele>
        <time>2017-04-22T11:44:48Z</time>
      </trkpt>
      <trkpt lat="48.07422" lon="-4.29984">
        <ele>55.4130859375</ele>
        <time>2017-04-22T11:44:56Z</time>
      </trkpt>
      <trkpt lat="48.07413" lon="-4.29975">
        <ele>54.932373046875</ele>
        <time>2017-04-22T11:45:05Z</time>
      </trkpt>
      <trkpt lat="48.07407" lon="-4.29967">
        <ele>55.4130859375</ele>
        <time>2017-04-22T11:45:12Z</time>
      </trkpt>
      <trkpt lat="48.07398" lon="-4.29956">
        <ele>55.4130859375</ele>
        <time>2017-04-22T11:45:21Z</time>
      </trkpt>
      <trkpt lat="48.0739" lon="-4.29947">
        <ele>55.893798828125</ele>
        <time>2017-04-22T11:45:29Z</time>
      </trkpt>
      <trkpt lat="48.07381" lon="-4.29936">
        <ele>56.37451171875</ele>
        <time>2017-04-22T11:45:38Z</time>
      </trkpt>
      <trkpt lat="48.07374" lon="-4.29928">
        <ele>56.37451171875</ele>
        <time>2017-04-22T11:45:45Z</time>
      </trkpt>
      <trkpt lat="48.07367" lon="-4.29922">
        <ele>56.37451171875</ele>
        <time>2017-04-22T11:45:52Z</time>
      </trkpt>
      <trkpt lat="48.07357" lon="-4.29916">
        <ele>56.855102539062</ele>
        <time>2017-04-22T11:46:00Z</time>
      </trkpt>
      <trkpt lat="48.07348" lon="-4.29911">
        <ele>56.855102539062</ele>
        <time>2017-04-22T11:46:08Z</time>
      </trkpt>
      <trkpt lat="48.07337" lon="-4.29908">
        <ele>56.37451171875</ele>
        <time>2017-04-22T11:46:16Z</time>
      </trkpt>
      <trkpt lat="48.07327" lon="-4.29906">
        <ele>57.335815429688</ele>
        <time>2017-04-22T11:46:24Z</time>
      </trkpt>
      <trkpt lat="48.07317" lon="-4.29903">
        <ele>56.37451171875</ele>
        <time>2017-04-22T11:46:31Z</time>
      </trkpt>
      <trkpt lat="48.07308" lon="-4.29902">
        <ele>55.893798828125</ele>
        <time>2017-04-22T11:46:38Z</time>
      </trkpt>
      <trkpt lat="48.07298" lon="-4.29901">
        <ele>54.451782226562</ele>
        <time>2017-04-22T11:46:46Z</time>
      </trkpt>
      <trkpt lat="48.07287" lon="-4.29898">
        <ele>53.009765625</ele>
        <time>2017-04-22T11:46:56Z</time>
      </trkpt>
      <trkpt lat="48.07281" lon="-4.29894">
        <ele>52.529174804688</ele>
        <time>2017-04-22T11:47:01Z</time>
      </trkpt>
      <trkpt lat="48.07275" lon="-4.29889">
        <ele>52.048583984375</ele>
        <time>2017-04-22T11:47:07Z</time>
      </trkpt>
      <trkpt lat="48.07272" lon="-4.29883">
        <ele>50.1259765625</ele>
        <time>2017-04-22T11:47:13Z</time>
      </trkpt>
      <trkpt lat="48.07272" lon="-4.29878">
        <ele>48.203369140625</ele>
        <time>2017-04-22T11:47:19Z</time>
      </trkpt>
      <trkpt lat="48.07268" lon="-4.29865">
        <ele>51.087158203125</ele>
        <time>2017-04-22T11:47:25Z</time>
      </trkpt>
      <trkpt lat="48.07265" lon="-4.29853">
        <ele>53.009765625</ele>
        <time>2017-04-22T11:47:31Z</time>
      </trkpt>
      <trkpt lat="48.07262" lon="-4.2984">
        <ele>53.97119140625</ele>
        <time>2017-04-22T11:47:38Z</time>
      </trkpt>
      <trkpt lat="48.0726" lon="-4.29825">
        <ele>54.451782226562</ele>
        <time>2017-04-22T11:47:46Z</time>
      </trkpt>
      <trkpt lat="48.07256" lon="-4.29808">
        <ele>55.4130859375</ele>
        <time>2017-04-22T11:47:54Z</time>
      </trkpt>
      <trkpt lat="48.07253" lon="-4.29798">
        <ele>52.529174804688</ele>
        <time>2017-04-22T11:48:02Z</time>
      </trkpt>
      <trkpt lat="48.0725" lon="-4.29787">
        <ele>49.16455078125</ele>
        <time>2017-04-22T11:48:10Z</time>
      </trkpt>
      <trkpt lat="48.07249" lon="-4.29785">
        <ele>49.645263671875</ele>
        <time>2017-04-22T11:48:11Z</time>
      </trkpt>
      <trkpt lat="48.07248" lon="-4.29774">
        <ele>50.1259765625</ele>
        <time>2017-04-22T11:48:17Z</time>
      </trkpt>
      <trkpt lat="48.07246" lon="-4.29767">
        <ele>51.56787109375</ele>
        <time>2017-04-22T11:48:20Z</time>
      </trkpt>
      <trkpt lat="48.07242" lon="-4.29759">
        <ele>53.490478515625</ele>
        <time>2017-04-22T11:48:25Z</time>
      </trkpt>
      <trkpt lat="48.07238" lon="-4.29751">
        <ele>53.009765625</ele>
        <time>2017-04-22T11:48:31Z</time>
      </trkpt>
      <trkpt lat="48.07236" lon="-4.29749">
        <ele>52.048583984375</ele>
        <time>2017-04-22T11:48:34Z</time>
      </trkpt>
      <trkpt lat="48.07232" lon="-4.29744">
        <ele>50.1259765625</ele>
        <time>2017-04-22T11:48:39Z</time>
      </trkpt>
      <trkpt lat="48.07228" lon="-4.29736">
        <ele>49.16455078125</ele>
        <time>2017-04-22T11:48:45Z</time>
      </trkpt>
      <trkpt lat="48.07225" lon="-4.29727">
        <ele>51.56787109375</ele>
        <time>2017-04-22T11:48:50Z</time>
      </trkpt>
      <trkpt lat="48.07221" lon="-4.29717">
        <ele>53.490478515625</ele>
        <time>2017-04-22T11:48:55Z</time>
      </trkpt>
      <trkpt lat="48.07218" lon="-4.29712">
        <ele>53.97119140625</ele>
        <time>2017-04-22T11:48:57Z</time>
      </trkpt>
      <trkpt lat="48.07215" lon="-4.29705">
        <ele>54.932373046875</ele>
        <time>2017-04-22T11:49:02Z</time>
      </trkpt>
      <trkpt lat="48.07212" lon="-4.29697">
        <ele>54.932373046875</ele>
        <time>2017-04-22T11:49:07Z</time>
      </trkpt>
      <trkpt lat="48.07208" lon="-4.2969">
        <ele>54.932373046875</ele>
        <time>2017-04-22T11:49:11Z</time>
      </trkpt>
      <trkpt lat="48.07203" lon="-4.29682">
        <ele>55.4130859375</ele>
        <time>2017-04-22T11:49:17Z</time>
      </trkpt>
      <trkpt lat="48.07197" lon="-4.29672">
        <ele>55.4130859375</ele>
        <time>2017-04-22T11:49:24Z</time>
      </trkpt>
      <trkpt lat="48.07189" lon="-4.29662">
        <ele>55.893798828125</ele>
        <time>2017-04-22T11:49:32Z</time>
      </trkpt>
      <trkpt lat="48.07185" lon="-4.29659">
        <ele>55.893798828125</ele>
        <time>2017-04-22T11:49:37Z</time>
      </trkpt>
      <trkpt lat="48.07179" lon="-4.29654">
        <ele>55.893798828125</ele>
        <time>2017-04-22T11:49:42Z</time>
      </trkpt>
      <trkpt lat="48.07169" lon="-4.29647">
        <ele>55.893798828125</ele>
        <time>2017-04-22T11:49:50Z</time>
      </trkpt>
      <trkpt lat="48.07162" lon="-4.29639">
        <ele>57.816528320312</ele>
        <time>2017-04-22T11:49:56Z</time>
      </trkpt>
      <trkpt lat="48.07162" lon="-4.29627">
        <ele>58.297119140625</ele>
        <time>2017-04-22T11:50:02Z</time>
      </trkpt>
      <trkpt lat="48.07164" lon="-4.29615">
        <ele>58.297119140625</ele>
        <time>2017-04-22T11:50:08Z</time>
      </trkpt>
      <trkpt lat="48.07164" lon="-4.29611">
        <ele>58.297119140625</ele>
        <time>2017-04-22T11:50:10Z</time>
      </trkpt>
      <trkpt lat="48.07168" lon="-4.29596">
        <ele>56.37451171875</ele>
        <time>2017-04-22T11:50:19Z</time>
      </trkpt>
      <trkpt lat="48.07168" lon="-4.29591">
        <ele>55.893798828125</ele>
        <time>2017-04-22T11:50:22Z</time>
      </trkpt>
      <trkpt lat="48.07162" lon="-4.29578">
        <ele>54.932373046875</ele>
        <time>2017-04-22T11:50:30Z</time>
      </trkpt>
      <trkpt lat="48.07161" lon="-4.29574">
        <ele>54.451782226562</ele>
        <time>2017-04-22T11:50:32Z</time>
      </trkpt>
      <trkpt lat="48.07158" lon="-4.29564">
        <ele>54.932373046875</ele>
        <time>2017-04-22T11:50:39Z</time>
      </trkpt>
      <trkpt lat="48.07158" lon="-4.29561">
        <ele>55.4130859375</ele>
        <time>2017-04-22T11:50:41Z</time>
      </trkpt>
      <trkpt lat="48.07153" lon="-4.29548">
        <ele>56.37451171875</ele>
        <time>2017-04-22T11:50:48Z</time>
      </trkpt>
      <trkpt lat="48.07152" lon="-4.29543">
        <ele>55.4130859375</ele>
        <time>2017-04-22T11:50:53Z</time>
      </trkpt>
      <trkpt lat="48.07147" lon="-4.29533">
        <ele>55.4130859375</ele>
        <time>2017-04-22T11:50:59Z</time>
      </trkpt>
      <trkpt lat="48.07147" lon="-4.29532">
        <ele>55.4130859375</ele>
        <time>2017-04-22T11:51:00Z</time>
      </trkpt>
      <trkpt lat="48.07143" lon="-4.29524">
        <ele>54.932373046875</ele>
        <time>2017-04-22T11:51:07Z</time>
      </trkpt>
      <trkpt lat="48.0714" lon="-4.29513">
        <ele>51.56787109375</ele>
        <time>2017-04-22T11:51:16Z</time>
      </trkpt>
      <trkpt lat="48.07138" lon="-4.29507">
        <ele>48.203369140625</ele>
        <time>2017-04-22T11:51:22Z</time>
      </trkpt>
      <trkpt lat="48.07136" lon="-4.29499">
        <ele>45.319213867188</ele>
        <time>2017-04-22T11:51:28Z</time>
      </trkpt>
      <trkpt lat="48.07134" lon="-4.29492">
        <ele>43.396606445312</ele>
        <time>2017-04-22T11:51:34Z</time>
      </trkpt>
      <trkpt lat="48.0713" lon="-4.29481">
        <ele>41.954711914062</ele>
        <time>2017-04-22T11:51:42Z</time>
      </trkpt>
      <trkpt lat="48.0713" lon="-4.2948">
        <ele>41.954711914062</ele>
        <time>2017-04-22T11:51:43Z</time>
      </trkpt>
      <trkpt lat="48.07128" lon="-4.29472">
        <ele>41.954711914062</ele>
        <time>2017-04-22T11:51:47Z</time>
      </trkpt>
      <trkpt lat="48.07127" lon="-4.29466">
        <ele>42.916015625</ele>
        <time>2017-04-22T11:51:51Z</time>
      </trkpt>
      <trkpt lat="48.07124" lon="-4.29454">
        <ele>43.396606445312</ele>
        <time>2017-04-22T11:51:58Z</time>
      </trkpt>
      <trkpt lat="48.07122" lon="-4.29447">
        <ele>42.916015625</ele>
        <time>2017-04-22T11:52:02Z</time>
      </trkpt>
      <trkpt lat="48.0712" lon="-4.29436">
        <ele>41.473999023438</ele>
        <time>2017-04-22T11:52:09Z</time>
      </trkpt>
      <trkpt lat="48.07117" lon="-4.29423">
        <ele>43.877319335938</ele>
        <time>2017-04-22T11:52:16Z</time>
      </trkpt>
      <trkpt lat="48.07116" lon="-4.29408">
        <ele>47.722534179688</ele>
        <time>2017-04-22T11:52:22Z</time>
      </trkpt>
      <trkpt lat="48.07116" lon="-4.29403">
        <ele>47.722534179688</ele>
        <time>2017-04-22T11:52:24Z</time>
      </trkpt>
      <trkpt lat="48.07115" lon="-4.29391">
        <ele>49.645263671875</ele>
        <time>2017-04-22T11:52:30Z</time>
      </trkpt>
      <trkpt lat="48.07115" lon="-4.29382">
        <ele>48.203369140625</ele>
        <time>2017-04-22T11:52:36Z</time>
      </trkpt>
      <trkpt lat="48.07114" lon="-4.29371">
        <ele>47.241821289062</ele>
        <time>2017-04-22T11:52:42Z</time>
      </trkpt>
      <trkpt lat="48.07113" lon="-4.29361">
        <ele>48.683959960938</ele>
        <time>2017-04-22T11:52:47Z</time>
      </trkpt>
      <trkpt lat="48.07112" lon="-4.29355">
        <ele>48.683959960938</ele>
        <time>2017-04-22T11:52:50Z</time>
      </trkpt>
      <trkpt lat="48.07112" lon="-4.29348">
        <ele>47.241821289062</ele>
        <time>2017-04-22T11:52:55Z</time>
      </trkpt>
      <trkpt lat="48.0711" lon="-4.29341">
        <ele>45.319213867188</ele>
        <time>2017-04-22T11:53:02Z</time>
      </trkpt>
      <trkpt lat="48.07107" lon="-4.29332">
        <ele>45.319213867188</ele>
        <time>2017-04-22T11:53:07Z</time>
      </trkpt>
      <trkpt lat="48.07104" lon="-4.29324">
        <ele>44.358032226562</ele>
        <time>2017-04-22T11:53:12Z</time>
      </trkpt>
      <trkpt lat="48.07099" lon="-4.29306">
        <ele>47.722534179688</ele>
        <time>2017-04-22T11:53:20Z</time>
      </trkpt>
      <trkpt lat="48.07096" lon="-4.29297">
        <ele>46.280639648438</ele>
        <time>2017-04-22T11:53:26Z</time>
      </trkpt>
      <trkpt lat="48.07092" lon="-4.29283">
        <ele>47.722534179688</ele>
        <time>2017-04-22T11:53:33Z</time>
      </trkpt>
      <trkpt lat="48.07089" lon="-4.29271">
        <ele>48.203369140625</ele>
        <time>2017-04-22T11:53:40Z</time>
      </trkpt>
      <trkpt lat="48.07085" lon="-4.29256">
        <ele>50.1259765625</ele>
        <time>2017-04-22T11:53:47Z</time>
      </trkpt>
      <trkpt lat="48.07084" lon="-4.29252">
        <ele>49.16455078125</ele>
        <time>2017-04-22T11:53:51Z</time>
      </trkpt>
      <trkpt lat="48.07082" lon="-4.29241">
        <ele>52.048583984375</ele>
        <time>2017-04-22T11:53:56Z</time>
      </trkpt>
      <trkpt lat="48.07082" lon="-4.29228">
        <ele>52.529174804688</ele>
        <time>2017-04-22T11:54:03Z</time>
      </trkpt>
      <trkpt lat="48.07081" lon="-4.29226">
        <ele>52.048583984375</ele>
        <time>2017-04-22T11:54:04Z</time>
      </trkpt>
      <trkpt lat="48.07082" lon="-4.29218">
        <ele>48.203369140625</ele>
        <time>2017-04-22T11:54:10Z</time>
      </trkpt>
      <trkpt lat="48.07083" lon="-4.29213">
        <ele>45.319213867188</ele>
        <time>2017-04-22T11:54:13Z</time>
      </trkpt>
      <trkpt lat="48.07084" lon="-4.29207">
        <ele>45.799926757812</ele>
        <time>2017-04-22T11:54:17Z</time>
      </trkpt>
      <trkpt lat="48.07083" lon="-4.292">
        <ele>44.358032226562</ele>
        <time>2017-04-22T11:54:21Z</time>
      </trkpt>
      <trkpt lat="48.07083" lon="-4.29189">
        <ele>43.396606445312</ele>
        <time>2017-04-22T11:54:27Z</time>
      </trkpt>
      <trkpt lat="48.07083" lon="-4.29179">
        <ele>43.396606445312</ele>
        <time>2017-04-22T11:54:34Z</time>
      </trkpt>
      <trkpt lat="48.07084" lon="-4.29173">
        <ele>42.916015625</ele>
        <time>2017-04-22T11:54:39Z</time>
      </trkpt>
      <trkpt lat="48.07085" lon="-4.29163">
        <ele>40.993408203125</ele>
        <time>2017-04-22T11:54:45Z</time>
      </trkpt>
      <trkpt lat="48.07085" lon="-4.2916">
        <ele>39.55126953125</ele>
        <time>2017-04-22T11:54:47Z</time>
      </trkpt>
      <trkpt lat="48.07086" lon="-4.29157">
        <ele>38.109375</ele>
        <time>2017-04-22T11:54:50Z</time>
      </trkpt>
      <trkpt lat="48.07086" lon="-4.29147">
        <ele>36.66748046875</ele>
        <time>2017-04-22T11:54:55Z</time>
      </trkpt>
      <trkpt lat="48.07085" lon="-4.29143">
        <ele>35.7060546875</ele>
        <time>2017-04-22T11:54:57Z</time>
      </trkpt>
      <trkpt lat="48.07085" lon="-4.29133">
        <ele>34.26416015625</ele>
        <time>2017-04-22T11:55:02Z</time>
      </trkpt>
      <trkpt lat="48.07086" lon="-4.29124">
        <ele>34.26416015625</ele>
        <time>2017-04-22T11:55:07Z</time>
      </trkpt>
      <trkpt lat="48.07086" lon="-4.29118">
        <ele>34.744873046875</ele>
        <time>2017-04-22T11:55:10Z</time>
      </trkpt>
      <trkpt lat="48.07086" lon="-4.29101">
        <ele>39.070678710938</ele>
        <time>2017-04-22T11:55:15Z</time>
      </trkpt>
      <trkpt lat="48.07084" lon="-4.29092">
        <ele>43.877319335938</ele>
        <time>2017-04-22T11:55:17Z</time>
      </trkpt>
      <trkpt lat="48.07085" lon="-4.29075">
        <ele>49.645263671875</ele>
        <time>2017-04-22T11:55:23Z</time>
      </trkpt>
      <trkpt lat="48.07085" lon="-4.2906">
        <ele>51.56787109375</ele>
        <time>2017-04-22T11:55:30Z</time>
      </trkpt>
      <trkpt lat="48.07085" lon="-4.29058">
        <ele>51.56787109375</ele>
        <time>2017-04-22T11:55:31Z</time>
      </trkpt>
      <trkpt lat="48.07084" lon="-4.29045">
        <ele>52.529174804688</ele>
        <time>2017-04-22T11:55:37Z</time>
      </trkpt>
      <trkpt lat="48.07084" lon="-4.29032">
        <ele>54.451782226562</ele>
        <time>2017-04-22T11:55:43Z</time>
      </trkpt>
      <trkpt lat="48.07085" lon="-4.29028">
        <ele>54.932373046875</ele>
        <time>2017-04-22T11:55:45Z</time>
      </trkpt>
      <trkpt lat="48.07085" lon="-4.29021">
        <ele>55.893798828125</ele>
        <time>2017-04-22T11:55:49Z</time>
      </trkpt>
      <trkpt lat="48.07086" lon="-4.29007">
        <ele>58.297119140625</ele>
        <time>2017-04-22T11:55:57Z</time>
      </trkpt>
      <trkpt lat="48.07085" lon="-4.29005">
        <ele>57.816528320312</ele>
        <time>2017-04-22T11:55:58Z</time>
      </trkpt>
      <trkpt lat="48.07085" lon="-4.28993">
        <ele>57.335815429688</ele>
        <time>2017-04-22T11:56:05Z</time>
      </trkpt>
      <trkpt lat="48.07085" lon="-4.28983">
        <ele>55.4130859375</ele>
        <time>2017-04-22T11:56:11Z</time>
      </trkpt>
      <trkpt lat="48.07084" lon="-4.28971">
        <ele>53.97119140625</ele>
        <time>2017-04-22T11:56:17Z</time>
      </trkpt>
      <trkpt lat="48.07084" lon="-4.28963">
        <ele>53.009765625</ele>
        <time>2017-04-22T11:56:21Z</time>
      </trkpt>
      <trkpt lat="48.07084" lon="-4.28955">
        <ele>53.009765625</ele>
        <time>2017-04-22T11:56:26Z</time>
      </trkpt>
      <trkpt lat="48.07084" lon="-4.28946">
        <ele>53.009765625</ele>
        <time>2017-04-22T11:56:31Z</time>
      </trkpt>
      <trkpt lat="48.07083" lon="-4.28938">
        <ele>53.009765625</ele>
        <time>2017-04-22T11:56:35Z</time>
      </trkpt>
      <trkpt lat="48.07083" lon="-4.28929">
        <ele>52.529174804688</ele>
        <time>2017-04-22T11:56:39Z</time>
      </trkpt>
      <trkpt lat="48.07083" lon="-4.28926">
        <ele>53.009765625</ele>
        <time>2017-04-22T11:56:40Z</time>
      </trkpt>
      <trkpt lat="48.07082" lon="-4.28911">
        <ele>53.97119140625</ele>
        <time>2017-04-22T11:56:48Z</time>
      </trkpt>
      <trkpt lat="48.07081" lon="-4.28897">
        <ele>54.451782226562</ele>
        <time>2017-04-22T11:56:56Z</time>
      </trkpt>
      <trkpt lat="48.07081" lon="-4.28887">
        <ele>54.932373046875</ele>
        <time>2017-04-22T11:57:01Z</time>
      </trkpt>
      <trkpt lat="48.0708" lon="-4.28871">
        <ele>55.4130859375</ele>
        <time>2017-04-22T11:57:09Z</time>
      </trkpt>
      <trkpt lat="48.07079" lon="-4.28865">
        <ele>55.893798828125</ele>
        <time>2017-04-22T11:57:12Z</time>
      </trkpt>
      <trkpt lat="48.07078" lon="-4.28858">
        <ele>55.4130859375</ele>
        <time>2017-04-22T11:57:16Z</time>
      </trkpt>
      <trkpt lat="48.07076" lon="-4.28843">
        <ele>55.893798828125</ele>
        <time>2017-04-22T11:57:24Z</time>
      </trkpt>
      <trkpt lat="48.07074" lon="-4.28834">
        <ele>55.893798828125</ele>
        <time>2017-04-22T11:57:29Z</time>
      </trkpt>
      <trkpt lat="48.07073" lon="-4.28822">
        <ele>56.37451171875</ele>
        <time>2017-04-22T11:57:35Z</time>
      </trkpt>
      <trkpt lat="48.07071" lon="-4.2881">
        <ele>56.37451171875</ele>
        <time>2017-04-22T11:57:42Z</time>
      </trkpt>
      <trkpt lat="48.0707" lon="-4.28798">
        <ele>57.335815429688</ele>
        <time>2017-04-22T11:57:49Z</time>
      </trkpt>
      <trkpt lat="48.07069" lon="-4.28786">
        <ele>57.816528320312</ele>
        <time>2017-04-22T11:57:55Z</time>
      </trkpt>
      <trkpt lat="48.07069" lon="-4.28776">
        <ele>57.816528320312</ele>
        <time>2017-04-22T11:58:00Z</time>
      </trkpt>
      <trkpt lat="48.07068" lon="-4.28764">
        <ele>58.297119140625</ele>
        <time>2017-04-22T11:58:07Z</time>
      </trkpt>
      <trkpt lat="48.07068" lon="-4.28752">
        <ele>58.777709960938</ele>
        <time>2017-04-22T11:58:14Z</time>
      </trkpt>
      <trkpt lat="48.07067" lon="-4.2875">
        <ele>58.777709960938</ele>
        <time>2017-04-22T11:58:15Z</time>
      </trkpt>
      <trkpt lat="48.07067" lon="-4.28737">
        <ele>59.258422851562</ele>
        <time>2017-04-22T11:58:22Z</time>
      </trkpt>
      <trkpt lat="48.07066" lon="-4.28724">
        <ele>59.258422851562</ele>
        <time>2017-04-22T11:58:29Z</time>
      </trkpt>
      <trkpt lat="48.07063" lon="-4.28709">
        <ele>60.700317382812</ele>
        <time>2017-04-22T11:58:37Z</time>
      </trkpt>
      <trkpt lat="48.07062" lon="-4.28697">
        <ele>60.700317382812</ele>
        <time>2017-04-22T11:58:43Z</time>
      </trkpt>
      <trkpt lat="48.07061" lon="-4.28685">
        <ele>61.661743164062</ele>
        <time>2017-04-22T11:58:50Z</time>
      </trkpt>
      <trkpt lat="48.0706" lon="-4.28673">
        <ele>61.181030273438</ele>
        <time>2017-04-22T11:58:57Z</time>
      </trkpt>
      <trkpt lat="48.0706" lon="-4.28659">
        <ele>62.142333984375</ele>
        <time>2017-04-22T11:59:04Z</time>
      </trkpt>
      <trkpt lat="48.07058" lon="-4.28644">
        <ele>62.622924804688</ele>
        <time>2017-04-22T11:59:12Z</time>
      </trkpt>
      <trkpt lat="48.07057" lon="-4.2863">
        <ele>63.584350585938</ele>
        <time>2017-04-22T11:59:20Z</time>
      </trkpt>
      <trkpt lat="48.07056" lon="-4.2862">
        <ele>63.584350585938</ele>
        <time>2017-04-22T11:59:25Z</time>
      </trkpt>
      <trkpt lat="48.07056" lon="-4.28614">
        <ele>63.103637695312</ele>
        <time>2017-04-22T11:59:28Z</time>
      </trkpt>
      <trkpt lat="48.07057" lon="-4.28604">
        <ele>64.065063476562</ele>
        <time>2017-04-22T11:59:34Z</time>
      </trkpt>
      <trkpt lat="48.07057" lon="-4.28592">
        <ele>64.065063476562</ele>
        <time>2017-04-22T11:59:41Z</time>
      </trkpt>
      <trkpt lat="48.07058" lon="-4.28582">
        <ele>62.142333984375</ele>
        <time>2017-04-22T11:59:47Z</time>
      </trkpt>
      <trkpt lat="48.0706" lon="-4.28568">
        <ele>61.181030273438</ele>
        <time>2017-04-22T11:59:55Z</time>
      </trkpt>
      <trkpt lat="48.07059" lon="-4.28562">
        <ele>61.181030273438</ele>
        <time>2017-04-22T11:59:57Z</time>
      </trkpt>
      <trkpt lat="48.07061" lon="-4.28553">
        <ele>61.181030273438</ele>
        <time>2017-04-22T12:00:02Z</time>
      </trkpt>
      <trkpt lat="48.07062" lon="-4.28551">
        <ele>61.181030273438</ele>
        <time>2017-04-22T12:00:03Z</time>
      </trkpt>
      <trkpt lat="48.07064" lon="-4.28544">
        <ele>61.181030273438</ele>
        <time>2017-04-22T12:00:08Z</time>
      </trkpt>
      <trkpt lat="48.07064" lon="-4.28542">
        <ele>61.181030273438</ele>
        <time>2017-04-22T12:00:09Z</time>
      </trkpt>
      <trkpt lat="48.07068" lon="-4.28535">
        <ele>60.2197265625</ele>
        <time>2017-04-22T12:00:14Z</time>
      </trkpt>
      <trkpt lat="48.07073" lon="-4.28526">
        <ele>60.2197265625</ele>
        <time>2017-04-22T12:00:20Z</time>
      </trkpt>
      <trkpt lat="48.07076" lon="-4.28518">
        <ele>59.739135742188</ele>
        <time>2017-04-22T12:00:24Z</time>
      </trkpt>
      <trkpt lat="48.07079" lon="-4.28517">
        <ele>59.258422851562</ele>
        <time>2017-04-22T12:00:26Z</time>
      </trkpt>
      <trkpt lat="48.07085" lon="-4.2851">
        <ele>59.258422851562</ele>
        <time>2017-04-22T12:00:32Z</time>
      </trkpt>
      <trkpt lat="48.07087" lon="-4.28507">
        <ele>58.777709960938</ele>
        <time>2017-04-22T12:00:34Z</time>
      </trkpt>
      <trkpt lat="48.07094" lon="-4.28498">
        <ele>59.258422851562</ele>
        <time>2017-04-22T12:00:42Z</time>
      </trkpt>
      <trkpt lat="48.07096" lon="-4.28496">
        <ele>58.777709960938</ele>
        <time>2017-04-22T12:00:44Z</time>
      </trkpt>
      <trkpt lat="48.07101" lon="-4.28492">
        <ele>59.258422851562</ele>
        <time>2017-04-22T12:00:49Z</time>
      </trkpt>
      <trkpt lat="48.07105" lon="-4.2849">
        <ele>59.739135742188</ele>
        <time>2017-04-22T12:00:53Z</time>
      </trkpt>
      <trkpt lat="48.07113" lon="-4.28488">
        <ele>60.2197265625</ele>
        <time>2017-04-22T12:00:59Z</time>
      </trkpt>
      <trkpt lat="48.07119" lon="-4.28486">
        <ele>60.700317382812</ele>
        <time>2017-04-22T12:01:04Z</time>
      </trkpt>
      <trkpt lat="48.07129" lon="-4.28483">
        <ele>60.2197265625</ele>
        <time>2017-04-22T12:01:12Z</time>
      </trkpt>
      <trkpt lat="48.07139" lon="-4.28479">
        <ele>60.700317382812</ele>
        <time>2017-04-22T12:01:20Z</time>
      </trkpt>
      <trkpt lat="48.07151" lon="-4.28474">
        <ele>59.739135742188</ele>
        <time>2017-04-22T12:01:30Z</time>
      </trkpt>
      <trkpt lat="48.0716" lon="-4.2847">
        <ele>59.258422851562</ele>
        <time>2017-04-22T12:01:38Z</time>
      </trkpt>
      <trkpt lat="48.07173" lon="-4.28465">
        <ele>59.258422851562</ele>
        <time>2017-04-22T12:01:49Z</time>
      </trkpt>
      <trkpt lat="48.07185" lon="-4.28462">
        <ele>58.777709960938</ele>
        <time>2017-04-22T12:01:59Z</time>
      </trkpt>
      <trkpt lat="48.07193" lon="-4.28461">
        <ele>58.777709960938</ele>
        <time>2017-04-22T12:02:06Z</time>
      </trkpt>
      <trkpt lat="48.07207" lon="-4.28461">
        <ele>58.777709960938</ele>
        <time>2017-04-22T12:02:17Z</time>
      </trkpt>
      <trkpt lat="48.07216" lon="-4.28462">
        <ele>58.777709960938</ele>
        <time>2017-04-22T12:02:24Z</time>
      </trkpt>
      <trkpt lat="48.07224" lon="-4.28464">
        <ele>58.777709960938</ele>
        <time>2017-04-22T12:02:30Z</time>
      </trkpt>
      <trkpt lat="48.07234" lon="-4.28464">
        <ele>60.2197265625</ele>
        <time>2017-04-22T12:02:38Z</time>
      </trkpt>
      <trkpt lat="48.07245" lon="-4.28466">
        <ele>61.181030273438</ele>
        <time>2017-04-22T12:02:46Z</time>
      </trkpt>
      <trkpt lat="48.07256" lon="-4.28467">
        <ele>62.622924804688</ele>
        <time>2017-04-22T12:02:54Z</time>
      </trkpt>
      <trkpt lat="48.07266" lon="-4.28468">
        <ele>63.103637695312</ele>
        <time>2017-04-22T12:03:02Z</time>
      </trkpt>
      <trkpt lat="48.07277" lon="-4.28469">
        <ele>63.584350585938</ele>
        <time>2017-04-22T12:03:11Z</time>
      </trkpt>
      <trkpt lat="48.07287" lon="-4.28469">
        <ele>64.065063476562</ele>
        <time>2017-04-22T12:03:19Z</time>
      </trkpt>
      <trkpt lat="48.07296" lon="-4.28469">
        <ele>65.0263671875</ele>
        <time>2017-04-22T12:03:26Z</time>
      </trkpt>
      <trkpt lat="48.07305" lon="-4.28473">
        <ele>65.987670898438</ele>
        <time>2017-04-22T12:03:33Z</time>
      </trkpt>
      <trkpt lat="48.07317" lon="-4.28476">
        <ele>65.987670898438</ele>
        <time>2017-04-22T12:03:42Z</time>
      </trkpt>
      <trkpt lat="48.07327" lon="-4.28479">
        <ele>65.507080078125</ele>
        <time>2017-04-22T12:03:50Z</time>
      </trkpt>
      <trkpt lat="48.07337" lon="-4.28481">
        <ele>65.987670898438</ele>
        <time>2017-04-22T12:03:58Z</time>
      </trkpt>
      <trkpt lat="48.07344" lon="-4.28483">
        <ele>65.987670898438</ele>
        <time>2017-04-22T12:04:04Z</time>
      </trkpt>
      <trkpt lat="48.07353" lon="-4.28487">
        <ele>66.948974609375</ele>
        <time>2017-04-22T12:04:11Z</time>
      </trkpt>
      <trkpt lat="48.07365" lon="-4.28491">
        <ele>68.390869140625</ele>
        <time>2017-04-22T12:04:20Z</time>
      </trkpt>
      <trkpt lat="48.07369" lon="-4.28493">
        <ele>68.390869140625</ele>
        <time>2017-04-22T12:04:23Z</time>
      </trkpt>
      <trkpt lat="48.07377" lon="-4.28496">
        <ele>67.910278320312</ele>
        <time>2017-04-22T12:04:30Z</time>
      </trkpt>
      <trkpt lat="48.07387" lon="-4.28499">
        <ele>68.390869140625</ele>
        <time>2017-04-22T12:04:38Z</time>
      </trkpt>
      <trkpt lat="48.07394" lon="-4.28502">
        <ele>67.910278320312</ele>
        <time>2017-04-22T12:04:44Z</time>
      </trkpt>
      <trkpt lat="48.07403" lon="-4.28507">
        <ele>67.910278320312</ele>
        <time>2017-04-22T12:04:52Z</time>
      </trkpt>
      <trkpt lat="48.07409" lon="-4.2851">
        <ele>67.4296875</ele>
        <time>2017-04-22T12:04:56Z</time>
      </trkpt>
      <trkpt lat="48.07414" lon="-4.28513">
        <ele>67.4296875</ele>
        <time>2017-04-22T12:05:01Z</time>
      </trkpt>
      <trkpt lat="48.07422" lon="-4.28521">
        <ele>67.4296875</ele>
        <time>2017-04-22T12:05:08Z</time>
      </trkpt>
      <trkpt lat="48.0743" lon="-4.28529">
        <ele>67.4296875</ele>
        <time>2017-04-22T12:05:15Z</time>
      </trkpt>
      <trkpt lat="48.07436" lon="-4.28536">
        <ele>66.948974609375</ele>
        <time>2017-04-22T12:05:21Z</time>
      </trkpt>
      <trkpt lat="48.07444" lon="-4.28545">
        <ele>65.987670898438</ele>
        <time>2017-04-22T12:05:30Z</time>
      </trkpt>
      <trkpt lat="48.0745" lon="-4.28554">
        <ele>65.507080078125</ele>
        <time>2017-04-22T12:05:37Z</time>
      </trkpt>
      <trkpt lat="48.07453" lon="-4.28562">
        <ele>62.622924804688</ele>
        <time>2017-04-22T12:05:44Z</time>
      </trkpt>
      <trkpt lat="48.07456" lon="-4.28568">
        <ele>61.661743164062</ele>
        <time>2017-04-22T12:05:49Z</time>
      </trkpt>
      <trkpt lat="48.07462" lon="-4.28576">
        <ele>61.661743164062</ele>
        <time>2017-04-22T12:05:54Z</time>
      </trkpt>
      <trkpt lat="48.07465" lon="-4.28584">
        <ele>61.661743164062</ele>
        <time>2017-04-22T12:05:59Z</time>
      </trkpt>
      <trkpt lat="48.07465" lon="-4.28586">
        <ele>60.700317382812</ele>
        <time>2017-04-22T12:06:00Z</time>
      </trkpt>
      <trkpt lat="48.07466" lon="-4.28589">
        <ele>59.258422851562</ele>
        <time>2017-04-22T12:06:02Z</time>
      </trkpt>
      <trkpt lat="48.07467" lon="-4.28592">
        <ele>59.258422851562</ele>
        <time>2017-04-22T12:06:04Z</time>
      </trkpt>
      <trkpt lat="48.07471" lon="-4.28604">
        <ele>58.297119140625</ele>
        <time>2017-04-22T12:06:10Z</time>
      </trkpt>
      <trkpt lat="48.07473" lon="-4.28612">
        <ele>59.739135742188</ele>
        <time>2017-04-22T12:06:14Z</time>
      </trkpt>
      <trkpt lat="48.07476" lon="-4.28621">
        <ele>60.700317382812</ele>
        <time>2017-04-22T12:06:18Z</time>
      </trkpt>
      <trkpt lat="48.07477" lon="-4.28625">
        <ele>60.700317382812</ele>
        <time>2017-04-22T12:06:20Z</time>
      </trkpt>
      <trkpt lat="48.0748" lon="-4.28632">
        <ele>62.622924804688</ele>
        <time>2017-04-22T12:06:24Z</time>
      </trkpt>
      <trkpt lat="48.07481" lon="-4.28636">
        <ele>62.622924804688</ele>
        <time>2017-04-22T12:06:26Z</time>
      </trkpt>
      <trkpt lat="48.07483" lon="-4.28641">
        <ele>62.622924804688</ele>
        <time>2017-04-22T12:06:29Z</time>
      </trkpt>
      <trkpt lat="48.07486" lon="-4.28647">
        <ele>62.622924804688</ele>
        <time>2017-04-22T12:06:33Z</time>
      </trkpt>
      <trkpt lat="48.0749" lon="-4.28658">
        <ele>61.181030273438</ele>
        <time>2017-04-22T12:06:40Z</time>
      </trkpt>
      <trkpt lat="48.07492" lon="-4.28668">
        <ele>60.700317382812</ele>
        <time>2017-04-22T12:06:46Z</time>
      </trkpt>
      <trkpt lat="48.07494" lon="-4.28676">
        <ele>60.700317382812</ele>
        <time>2017-04-22T12:06:50Z</time>
      </trkpt>
      <trkpt lat="48.07494" lon="-4.28685">
        <ele>61.181030273438</ele>
        <time>2017-04-22T12:06:54Z</time>
      </trkpt>
      <trkpt lat="48.07498" lon="-4.28697">
        <ele>60.700317382812</ele>
        <time>2017-04-22T12:07:00Z</time>
      </trkpt>
      <trkpt lat="48.07499" lon="-4.28707">
        <ele>59.258422851562</ele>
        <time>2017-04-22T12:07:06Z</time>
      </trkpt>
      <trkpt lat="48.075" lon="-4.28715">
        <ele>59.258422851562</ele>
        <time>2017-04-22T12:07:10Z</time>
      </trkpt>
      <trkpt lat="48.07504" lon="-4.28733">
        <ele>57.816528320312</ele>
        <time>2017-04-22T12:07:20Z</time>
      </trkpt>
      <trkpt lat="48.07505" lon="-4.28738">
        <ele>56.855102539062</ele>
        <time>2017-04-22T12:07:23Z</time>
      </trkpt>
      <trkpt lat="48.07508" lon="-4.28749">
        <ele>54.932373046875</ele>
        <time>2017-04-22T12:07:29Z</time>
      </trkpt>
      <trkpt lat="48.0751" lon="-4.28754">
        <ele>53.97119140625</ele>
        <time>2017-04-22T12:07:32Z</time>
      </trkpt>
      <trkpt lat="48.07513" lon="-4.28763">
        <ele>51.56787109375</ele>
        <time>2017-04-22T12:07:37Z</time>
      </trkpt>
      <trkpt lat="48.07515" lon="-4.28769">
        <ele>50.1259765625</ele>
        <time>2017-04-22T12:07:40Z</time>
      </trkpt>
      <trkpt lat="48.07518" lon="-4.28781">
        <ele>48.683959960938</ele>
        <time>2017-04-22T12:07:48Z</time>
      </trkpt>
      <trkpt lat="48.07518" lon="-4.28782">
        <ele>48.203369140625</ele>
        <time>2017-04-22T12:07:49Z</time>
      </trkpt>
      <trkpt lat="48.07519" lon="-4.28789">
        <ele>47.241821289062</ele>
        <time>2017-04-22T12:07:53Z</time>
      </trkpt>
      <trkpt lat="48.07517" lon="-4.28795">
        <ele>46.76123046875</ele>
        <time>2017-04-22T12:07:56Z</time>
      </trkpt>
      <trkpt lat="48.07514" lon="-4.28802">
        <ele>49.16455078125</ele>
        <time>2017-04-22T12:07:59Z</time>
      </trkpt>
      <trkpt lat="48.07518" lon="-4.28815">
        <ele>51.56787109375</ele>
        <time>2017-04-22T12:08:05Z</time>
      </trkpt>
      <trkpt lat="48.07523" lon="-4.28825">
        <ele>52.048583984375</ele>
        <time>2017-04-22T12:08:11Z</time>
      </trkpt>
      <trkpt lat="48.07533" lon="-4.28829">
        <ele>51.56787109375</ele>
        <time>2017-04-22T12:08:18Z</time>
      </trkpt>
      <trkpt lat="48.07537" lon="-4.28829">
        <ele>51.56787109375</ele>
        <time>2017-04-22T12:08:20Z</time>
      </trkpt>
      <trkpt lat="48.07544" lon="-4.2882">
        <ele>50.606567382812</ele>
        <time>2017-04-22T12:08:27Z</time>
      </trkpt>
      <trkpt lat="48.07552" lon="-4.28818">
        <ele>51.56787109375</ele>
        <time>2017-04-22T12:08:31Z</time>
      </trkpt>
      <trkpt lat="48.07556" lon="-4.28808">
        <ele>50.1259765625</ele>
        <time>2017-04-22T12:08:38Z</time>
      </trkpt>
      <trkpt lat="48.07561" lon="-4.28802">
        <ele>50.606567382812</ele>
        <time>2017-04-22T12:08:43Z</time>
      </trkpt>
      <trkpt lat="48.07569" lon="-4.28798">
        <ele>51.56787109375</ele>
        <time>2017-04-22T12:08:48Z</time>
      </trkpt>
      <trkpt lat="48.07574" lon="-4.28791">
        <ele>51.56787109375</ele>
        <time>2017-04-22T12:08:54Z</time>
      </trkpt>
      <trkpt lat="48.07579" lon="-4.28784">
        <ele>51.56787109375</ele>
        <time>2017-04-22T12:08:59Z</time>
      </trkpt>
      <trkpt lat="48.0758" lon="-4.28783">
        <ele>51.56787109375</ele>
        <time>2017-04-22T12:09:00Z</time>
      </trkpt>
      <trkpt lat="48.07586" lon="-4.28772">
        <ele>51.56787109375</ele>
        <time>2017-04-22T12:09:07Z</time>
      </trkpt>
      <trkpt lat="48.07589" lon="-4.28769">
        <ele>52.048583984375</ele>
        <time>2017-04-22T12:09:10Z</time>
      </trkpt>
      <trkpt lat="48.07593" lon="-4.2876">
        <ele>52.048583984375</ele>
        <time>2017-04-22T12:09:16Z</time>
      </trkpt>
      <trkpt lat="48.07596" lon="-4.28755">
        <ele>51.56787109375</ele>
        <time>2017-04-22T12:09:19Z</time>
      </trkpt>
      <trkpt lat="48.07603" lon="-4.28748">
        <ele>51.56787109375</ele>
        <time>2017-04-22T12:09:25Z</time>
      </trkpt>
      <trkpt lat="48.07608" lon="-4.28744">
        <ele>52.048583984375</ele>
        <time>2017-04-22T12:09:29Z</time>
      </trkpt>
      <trkpt lat="48.07617" lon="-4.28735">
        <ele>53.009765625</ele>
        <time>2017-04-22T12:09:37Z</time>
      </trkpt>
      <trkpt lat="48.07622" lon="-4.2873">
        <ele>52.529174804688</ele>
        <time>2017-04-22T12:09:42Z</time>
      </trkpt>
      <trkpt lat="48.0763" lon="-4.2872">
        <ele>53.490478515625</ele>
        <time>2017-04-22T12:09:50Z</time>
      </trkpt>
      <trkpt lat="48.07637" lon="-4.28711">
        <ele>53.97119140625</ele>
        <time>2017-04-22T12:09:58Z</time>
      </trkpt>
      <trkpt lat="48.07648" lon="-4.28707">
        <ele>55.893798828125</ele>
        <time>2017-04-22T12:10:06Z</time>
      </trkpt>
      <trkpt lat="48.07652" lon="-4.28705">
        <ele>55.893798828125</ele>
        <time>2017-04-22T12:10:09Z</time>
      </trkpt>
      <trkpt lat="48.07662" lon="-4.28697">
        <ele>55.4130859375</ele>
        <time>2017-04-22T12:10:18Z</time>
      </trkpt>
      <trkpt lat="48.07664" lon="-4.28694">
        <ele>55.4130859375</ele>
        <time>2017-04-22T12:10:20Z</time>
      </trkpt>
      <trkpt lat="48.07672" lon="-4.28688">
        <ele>55.893798828125</ele>
        <time>2017-04-22T12:10:28Z</time>
      </trkpt>
      <trkpt lat="48.07679" lon="-4.28681">
        <ele>55.4130859375</ele>
        <time>2017-04-22T12:10:36Z</time>
      </trkpt>
      <trkpt lat="48.07684" lon="-4.28676">
        <ele>55.4130859375</ele>
        <time>2017-04-22T12:10:41Z</time>
      </trkpt>
      <trkpt lat="48.07689" lon="-4.28673">
        <ele>56.855102539062</ele>
        <time>2017-04-22T12:10:45Z</time>
      </trkpt>
      <trkpt lat="48.07699" lon="-4.28671">
        <ele>59.258422851562</ele>
        <time>2017-04-22T12:10:53Z</time>
      </trkpt>
      <trkpt lat="48.07704" lon="-4.28667">
        <ele>59.258422851562</ele>
        <time>2017-04-22T12:10:57Z</time>
      </trkpt>
      <trkpt lat="48.07711" lon="-4.2866">
        <ele>59.258422851562</ele>
        <time>2017-04-22T12:11:04Z</time>
      </trkpt>
      <trkpt lat="48.07714" lon="-4.28659">
        <ele>59.258422851562</ele>
        <time>2017-04-22T12:11:06Z</time>
      </trkpt>
      <trkpt lat="48.0772" lon="-4.28655">
        <ele>59.258422851562</ele>
        <time>2017-04-22T12:11:11Z</time>
      </trkpt>
      <trkpt lat="48.0773" lon="-4.28655">
        <ele>58.777709960938</ele>
        <time>2017-04-22T12:11:19Z</time>
      </trkpt>
      <trkpt lat="48.07733" lon="-4.28654">
        <ele>58.297119140625</ele>
        <time>2017-04-22T12:11:22Z</time>
      </trkpt>
      <trkpt lat="48.0774" lon="-4.28653">
        <ele>57.335815429688</ele>
        <time>2017-04-22T12:11:28Z</time>
      </trkpt>
      <trkpt lat="48.0775" lon="-4.28652">
        <ele>57.816528320312</ele>
        <time>2017-04-22T12:11:36Z</time>
      </trkpt>
      <trkpt lat="48.07758" lon="-4.28652">
        <ele>56.855102539062</ele>
        <time>2017-04-22T12:11:42Z</time>
      </trkpt>
      <trkpt lat="48.07763" lon="-4.28653">
        <ele>56.855102539062</ele>
        <time>2017-04-22T12:11:45Z</time>
      </trkpt>
      <trkpt lat="48.07769" lon="-4.28655">
        <ele>56.37451171875</ele>
        <time>2017-04-22T12:11:50Z</time>
      </trkpt>
      <trkpt lat="48.07776" lon="-4.28655">
        <ele>57.816528320312</ele>
        <time>2017-04-22T12:11:55Z</time>
      </trkpt>
      <trkpt lat="48.07783" lon="-4.28656">
        <ele>58.297119140625</ele>
        <time>2017-04-22T12:12:02Z</time>
      </trkpt>
      <trkpt lat="48.0779" lon="-4.28658">
        <ele>58.777709960938</ele>
        <time>2017-04-22T12:12:08Z</time>
      </trkpt>
      <trkpt lat="48.07798" lon="-4.28659">
        <ele>59.739135742188</ele>
        <time>2017-04-22T12:12:15Z</time>
      </trkpt>
      <trkpt lat="48.07805" lon="-4.28663">
        <ele>60.700317382812</ele>
        <time>2017-04-22T12:12:21Z</time>
      </trkpt>
      <trkpt lat="48.07809" lon="-4.28665">
        <ele>61.181030273438</ele>
        <time>2017-04-22T12:12:24Z</time>
      </trkpt>
      <trkpt lat="48.07815" lon="-4.28667">
        <ele>62.622924804688</ele>
        <time>2017-04-22T12:12:28Z</time>
      </trkpt>
      <trkpt lat="48.0782" lon="-4.2867">
        <ele>62.142333984375</ele>
        <time>2017-04-22T12:12:32Z</time>
      </trkpt>
      <trkpt lat="48.07826" lon="-4.2867">
        <ele>61.661743164062</ele>
        <time>2017-04-22T12:12:36Z</time>
      </trkpt>
      <trkpt lat="48.07837" lon="-4.28672">
        <ele>61.181030273438</ele>
        <time>2017-04-22T12:12:45Z</time>
      </trkpt>
      <trkpt lat="48.07841" lon="-4.28673">
        <ele>60.700317382812</ele>
        <time>2017-04-22T12:12:48Z</time>
      </trkpt>
      <trkpt lat="48.07845" lon="-4.28675">
        <ele>60.2197265625</ele>
        <time>2017-04-22T12:12:52Z</time>
      </trkpt>
      <trkpt lat="48.07855" lon="-4.28678">
        <ele>60.2197265625</ele>
        <time>2017-04-22T12:13:00Z</time>
      </trkpt>
      <trkpt lat="48.07862" lon="-4.28681">
        <ele>60.2197265625</ele>
        <time>2017-04-22T12:13:05Z</time>
      </trkpt>
      <trkpt lat="48.0787" lon="-4.28686">
        <ele>59.739135742188</ele>
        <time>2017-04-22T12:13:12Z</time>
      </trkpt>
      <trkpt lat="48.07876" lon="-4.28689">
        <ele>59.739135742188</ele>
        <time>2017-04-22T12:13:18Z</time>
      </trkpt>
      <trkpt lat="48.07881" lon="-4.28692">
        <ele>59.258422851562</ele>
        <time>2017-04-22T12:13:23Z</time>
      </trkpt>
      <trkpt lat="48.07887" lon="-4.28696">
        <ele>58.297119140625</ele>
        <time>2017-04-22T12:13:30Z</time>
      </trkpt>
      <trkpt lat="48.07891" lon="-4.287">
        <ele>57.335815429688</ele>
        <time>2017-04-22T12:13:36Z</time>
      </trkpt>
      <trkpt lat="48.07897" lon="-4.28703">
        <ele>56.37451171875</ele>
        <time>2017-04-22T12:13:41Z</time>
      </trkpt>
      <trkpt lat="48.07903" lon="-4.28706">
        <ele>55.4130859375</ele>
        <time>2017-04-22T12:13:48Z</time>
      </trkpt>
      <trkpt lat="48.07908" lon="-4.28709">
        <ele>53.490478515625</ele>
        <time>2017-04-22T12:13:55Z</time>
      </trkpt>
      <trkpt lat="48.07919" lon="-4.28715">
        <ele>56.855102539062</ele>
        <time>2017-04-22T12:14:01Z</time>
      </trkpt>
      <trkpt lat="48.07924" lon="-4.28719">
        <ele>58.777709960938</ele>
        <time>2017-04-22T12:14:05Z</time>
      </trkpt>
      <trkpt lat="48.07927" lon="-4.28721">
        <ele>59.258422851562</ele>
        <time>2017-04-22T12:14:07Z</time>
      </trkpt>
      <trkpt lat="48.07935" lon="-4.28728">
        <ele>62.142333984375</ele>
        <time>2017-04-22T12:14:13Z</time>
      </trkpt>
      <trkpt lat="48.0794" lon="-4.28731">
        <ele>62.622924804688</ele>
        <time>2017-04-22T12:14:17Z</time>
      </trkpt>
      <trkpt lat="48.07953" lon="-4.28737">
        <ele>64.065063476562</ele>
        <time>2017-04-22T12:14:26Z</time>
      </trkpt>
      <trkpt lat="48.07967" lon="-4.28741">
        <ele>66.46826171875</ele>
        <time>2017-04-22T12:14:35Z</time>
      </trkpt>
      <trkpt lat="48.07975" lon="-4.28743">
        <ele>65.987670898438</ele>
        <time>2017-04-22T12:14:42Z</time>
      </trkpt>
      <trkpt lat="48.07984" lon="-4.28743">
        <ele>65.987670898438</ele>
        <time>2017-04-22T12:14:49Z</time>
      </trkpt>
      <trkpt lat="48.07989" lon="-4.28741">
        <ele>65.0263671875</ele>
        <time>2017-04-22T12:14:54Z</time>
      </trkpt>
      <trkpt lat="48.07995" lon="-4.2874">
        <ele>64.545654296875</ele>
        <time>2017-04-22T12:14:59Z</time>
      </trkpt>
      <trkpt lat="48.07997" lon="-4.28739">
        <ele>64.545654296875</ele>
        <time>2017-04-22T12:15:01Z</time>
      </trkpt>
      <trkpt lat="48.08003" lon="-4.28739">
        <ele>64.065063476562</ele>
        <time>2017-04-22T12:15:06Z</time>
      </trkpt>
      <trkpt lat="48.08012" lon="-4.28737">
        <ele>64.065063476562</ele>
        <time>2017-04-22T12:15:14Z</time>
      </trkpt>
      <trkpt lat="48.08018" lon="-4.28734">
        <ele>62.622924804688</ele>
        <time>2017-04-22T12:15:20Z</time>
      </trkpt>
      <trkpt lat="48.08026" lon="-4.2873">
        <ele>62.142333984375</ele>
        <time>2017-04-22T12:15:27Z</time>
      </trkpt>
      <trkpt lat="48.08032" lon="-4.28725">
        <ele>61.181030273438</ele>
        <time>2017-04-22T12:15:33Z</time>
      </trkpt>
      <trkpt lat="48.08037" lon="-4.28723">
        <ele>60.700317382812</ele>
        <time>2017-04-22T12:15:36Z</time>
      </trkpt>
      <trkpt lat="48.08042" lon="-4.2872">
        <ele>60.2197265625</ele>
        <time>2017-04-22T12:15:40Z</time>
      </trkpt>
      <trkpt lat="48.08051" lon="-4.28713">
        <ele>61.181030273438</ele>
        <time>2017-04-22T12:15:47Z</time>
      </trkpt>
      <trkpt lat="48.08052" lon="-4.28712">
        <ele>61.181030273438</ele>
        <time>2017-04-22T12:15:48Z</time>
      </trkpt>
      <trkpt lat="48.08058" lon="-4.28708">
        <ele>61.181030273438</ele>
        <time>2017-04-22T12:15:54Z</time>
      </trkpt>
      <trkpt lat="48.08065" lon="-4.28703">
        <ele>61.181030273438</ele>
        <time>2017-04-22T12:16:01Z</time>
      </trkpt>
      <trkpt lat="48.08073" lon="-4.28702">
        <ele>61.661743164062</ele>
        <time>2017-04-22T12:16:07Z</time>
      </trkpt>
      <trkpt lat="48.08083" lon="-4.28701">
        <ele>64.065063476562</ele>
        <time>2017-04-22T12:16:14Z</time>
      </trkpt>
      <trkpt lat="48.08092" lon="-4.287">
        <ele>65.507080078125</ele>
        <time>2017-04-22T12:16:20Z</time>
      </trkpt>
      <trkpt lat="48.08101" lon="-4.287">
        <ele>66.948974609375</ele>
        <time>2017-04-22T12:16:27Z</time>
      </trkpt>
      <trkpt lat="48.0811" lon="-4.28702">
        <ele>67.910278320312</ele>
        <time>2017-04-22T12:16:34Z</time>
      </trkpt>
      <trkpt lat="48.08118" lon="-4.28701">
        <ele>68.390869140625</ele>
        <time>2017-04-22T12:16:41Z</time>
      </trkpt>
      <trkpt lat="48.08122" lon="-4.28701">
        <ele>68.390869140625</ele>
        <time>2017-04-22T12:16:44Z</time>
      </trkpt>
      <trkpt lat="48.08127" lon="-4.287">
        <ele>68.390869140625</ele>
        <time>2017-04-22T12:16:48Z</time>
      </trkpt>
      <trkpt lat="48.08137" lon="-4.28699">
        <ele>69.352294921875</ele>
        <time>2017-04-22T12:16:56Z</time>
      </trkpt>
      <trkpt lat="48.08147" lon="-4.28698">
        <ele>69.832885742188</ele>
        <time>2017-04-22T12:17:04Z</time>
      </trkpt>
      <trkpt lat="48.08156" lon="-4.28698">
        <ele>71.27490234375</ele>
        <time>2017-04-22T12:17:11Z</time>
      </trkpt>
      <trkpt lat="48.08166" lon="-4.28698">
        <ele>71.755493164062</ele>
        <time>2017-04-22T12:17:18Z</time>
      </trkpt>
      <trkpt lat="48.08174" lon="-4.28695">
        <ele>70.794189453125</ele>
        <time>2017-04-22T12:17:25Z</time>
      </trkpt>
      <trkpt lat="48.08184" lon="-4.28692">
        <ele>70.794189453125</ele>
        <time>2017-04-22T12:17:33Z</time>
      </trkpt>
      <trkpt lat="48.08193" lon="-4.2869">
        <ele>70.794189453125</ele>
        <time>2017-04-22T12:17:40Z</time>
      </trkpt>
      <trkpt lat="48.08202" lon="-4.28689">
        <ele>70.794189453125</ele>
        <time>2017-04-22T12:17:47Z</time>
      </trkpt>
      <trkpt lat="48.08212" lon="-4.28688">
        <ele>70.794189453125</ele>
        <time>2017-04-22T12:17:55Z</time>
      </trkpt>
      <trkpt lat="48.0822" lon="-4.28686">
        <ele>70.3134765625</ele>
        <time>2017-04-22T12:18:02Z</time>
      </trkpt>
      <trkpt lat="48.0823" lon="-4.28683">
        <ele>70.3134765625</ele>
        <time>2017-04-22T12:18:10Z</time>
      </trkpt>
      <trkpt lat="48.0824" lon="-4.28681">
        <ele>69.832885742188</ele>
        <time>2017-04-22T12:18:18Z</time>
      </trkpt>
      <trkpt lat="48.08248" lon="-4.28679">
        <ele>68.87158203125</ele>
        <time>2017-04-22T12:18:25Z</time>
      </trkpt>
      <trkpt lat="48.08254" lon="-4.28674">
        <ele>68.390869140625</ele>
        <time>2017-04-22T12:18:31Z</time>
      </trkpt>
      <trkpt lat="48.08258" lon="-4.2867">
        <ele>67.910278320312</ele>
        <time>2017-04-22T12:18:34Z</time>
      </trkpt>
      <trkpt lat="48.08256" lon="-4.28663">
        <ele>67.910278320312</ele>
        <time>2017-04-22T12:18:39Z</time>
      </trkpt>
      <trkpt lat="48.08254" lon="-4.28658">
        <ele>67.4296875</ele>
        <time>2017-04-22T12:18:41Z</time>
      </trkpt>
      <trkpt lat="48.08251" lon="-4.28643">
        <ele>67.910278320312</ele>
        <time>2017-04-22T12:18:49Z</time>
      </trkpt>
      <trkpt lat="48.08248" lon="-4.28631">
        <ele>68.390869140625</ele>
        <time>2017-04-22T12:18:57Z</time>
      </trkpt>
      <trkpt lat="48.08246" lon="-4.2862">
        <ele>67.910278320312</ele>
        <time>2017-04-22T12:19:03Z</time>
      </trkpt>
      <trkpt lat="48.08243" lon="-4.28604">
        <ele>67.910278320312</ele>
        <time>2017-04-22T12:19:12Z</time>
      </trkpt>
      <trkpt lat="48.0824" lon="-4.28585">
        <ele>68.390869140625</ele>
        <time>2017-04-22T12:19:23Z</time>
      </trkpt>
      <trkpt lat="48.08239" lon="-4.28572">
        <ele>69.352294921875</ele>
        <time>2017-04-22T12:19:30Z</time>
      </trkpt>
      <trkpt lat="48.08238" lon="-4.28565">
        <ele>70.3134765625</ele>
        <time>2017-04-22T12:19:34Z</time>
      </trkpt>
      <trkpt lat="48.08233" lon="-4.28547">
        <ele>69.352294921875</ele>
        <time>2017-04-22T12:19:44Z</time>
      </trkpt>
      <trkpt lat="48.0823" lon="-4.28534">
        <ele>68.390869140625</ele>
        <time>2017-04-22T12:19:51Z</time>
      </trkpt>
      <trkpt lat="48.08228" lon="-4.28523">
        <ele>68.390869140625</ele>
        <time>2017-04-22T12:19:57Z</time>
      </trkpt>
      <trkpt lat="48.08225" lon="-4.28511">
        <ele>67.4296875</ele>
        <time>2017-04-22T12:20:04Z</time>
      </trkpt>
      <trkpt lat="48.08225" lon="-4.2851">
        <ele>67.4296875</ele>
        <time>2017-04-22T12:20:05Z</time>
      </trkpt>
      <trkpt lat="48.08221" lon="-4.28497">
        <ele>64.545654296875</ele>
        <time>2017-04-22T12:20:12Z</time>
      </trkpt>
      <trkpt lat="48.08219" lon="-4.28489">
        <ele>64.065063476562</ele>
        <time>2017-04-22T12:20:16Z</time>
      </trkpt>
      <trkpt lat="48.08216" lon="-4.28479">
        <ele>62.142333984375</ele>
        <time>2017-04-22T12:20:23Z</time>
      </trkpt>
      <trkpt lat="48.08216" lon="-4.28474">
        <ele>62.142333984375</ele>
        <time>2017-04-22T12:20:26Z</time>
      </trkpt>
      <trkpt lat="48.08215" lon="-4.2847">
        <ele>61.661743164062</ele>
        <time>2017-04-22T12:20:29Z</time>
      </trkpt>
      <trkpt lat="48.08214" lon="-4.2846">
        <ele>61.181030273438</ele>
        <time>2017-04-22T12:20:34Z</time>
      </trkpt>
      <trkpt lat="48.08211" lon="-4.28456">
        <ele>60.700317382812</ele>
        <time>2017-04-22T12:20:37Z</time>
      </trkpt>
      <trkpt lat="48.08209" lon="-4.28446">
        <ele>60.2197265625</ele>
        <time>2017-04-22T12:20:42Z</time>
      </trkpt>
      <trkpt lat="48.08206" lon="-4.28434">
        <ele>61.181030273438</ele>
        <time>2017-04-22T12:20:48Z</time>
      </trkpt>
      <trkpt lat="48.08204" lon="-4.28429">
        <ele>60.2197265625</ele>
        <time>2017-04-22T12:20:51Z</time>
      </trkpt>
      <trkpt lat="48.08199" lon="-4.28414">
        <ele>61.181030273438</ele>
        <time>2017-04-22T12:20:59Z</time>
      </trkpt>
      <trkpt lat="48.08199" lon="-4.28413">
        <ele>61.181030273438</ele>
        <time>2017-04-22T12:21:00Z</time>
      </trkpt>
      <trkpt lat="48.08198" lon="-4.28404">
        <ele>60.700317382812</ele>
        <time>2017-04-22T12:21:05Z</time>
      </trkpt>
      <trkpt lat="48.08195" lon="-4.28394">
        <ele>60.700317382812</ele>
        <time>2017-04-22T12:21:10Z</time>
      </trkpt>
      <trkpt lat="48.08193" lon="-4.28384">
        <ele>61.181030273438</ele>
        <time>2017-04-22T12:21:15Z</time>
      </trkpt>
      <trkpt lat="48.08193" lon="-4.2838">
        <ele>61.181030273438</ele>
        <time>2017-04-22T12:21:17Z</time>
      </trkpt>
      <trkpt lat="48.08193" lon="-4.28366">
        <ele>61.181030273438</ele>
        <time>2017-04-22T12:21:24Z</time>
      </trkpt>
      <trkpt lat="48.08195" lon="-4.28355">
        <ele>60.700317382812</ele>
        <time>2017-04-22T12:21:30Z</time>
      </trkpt>
      <trkpt lat="48.08195" lon="-4.28351">
        <ele>60.700317382812</ele>
        <time>2017-04-22T12:21:32Z</time>
      </trkpt>
      <trkpt lat="48.08196" lon="-4.2834">
        <ele>60.700317382812</ele>
        <time>2017-04-22T12:21:37Z</time>
      </trkpt>
      <trkpt lat="48.08196" lon="-4.28338">
        <ele>60.700317382812</ele>
        <time>2017-04-22T12:21:38Z</time>
      </trkpt>
      <trkpt lat="48.08192" lon="-4.28324">
        <ele>62.142333984375</ele>
        <time>2017-04-22T12:21:47Z</time>
      </trkpt>
      <trkpt lat="48.08189" lon="-4.28316">
        <ele>62.142333984375</ele>
        <time>2017-04-22T12:21:52Z</time>
      </trkpt>
      <trkpt lat="48.08189" lon="-4.28312">
        <ele>62.142333984375</ele>
        <time>2017-04-22T12:21:57Z</time>
      </trkpt>
      <trkpt lat="48.08187" lon="-4.28308">
        <ele>62.142333984375</ele>
        <time>2017-04-22T12:22:00Z</time>
      </trkpt>
      <trkpt lat="48.08181" lon="-4.28295">
        <ele>63.103637695312</ele>
        <time>2017-04-22T12:22:08Z</time>
      </trkpt>
      <trkpt lat="48.08177" lon="-4.28283">
        <ele>64.065063476562</ele>
        <time>2017-04-22T12:22:15Z</time>
      </trkpt>
      <trkpt lat="48.08174" lon="-4.28272">
        <ele>64.065063476562</ele>
        <time>2017-04-22T12:22:21Z</time>
      </trkpt>
      <trkpt lat="48.08171" lon="-4.28262">
        <ele>63.584350585938</ele>
        <time>2017-04-22T12:22:27Z</time>
      </trkpt>
      <trkpt lat="48.08166" lon="-4.2825">
        <ele>64.545654296875</ele>
        <time>2017-04-22T12:22:35Z</time>
      </trkpt>
      <trkpt lat="48.08163" lon="-4.28237">
        <ele>65.507080078125</ele>
        <time>2017-04-22T12:22:43Z</time>
      </trkpt>
      <trkpt lat="48.08159" lon="-4.28223">
        <ele>66.948974609375</ele>
        <time>2017-04-22T12:22:51Z</time>
      </trkpt>
      <trkpt lat="48.08155" lon="-4.28212">
        <ele>67.910278320312</ele>
        <time>2017-04-22T12:22:58Z</time>
      </trkpt>
      <trkpt lat="48.08151" lon="-4.28197">
        <ele>69.832885742188</ele>
        <time>2017-04-22T12:23:07Z</time>
      </trkpt>
      <trkpt lat="48.08146" lon="-4.28181">
        <ele>71.27490234375</ele>
        <time>2017-04-22T12:23:16Z</time>
      </trkpt>
      <trkpt lat="48.08142" lon="-4.28167">
        <ele>72.236206054688</ele>
        <time>2017-04-22T12:23:24Z</time>
      </trkpt>
      <trkpt lat="48.08139" lon="-4.28159">
        <ele>72.716918945312</ele>
        <time>2017-04-22T12:23:29Z</time>
      </trkpt>
      <trkpt lat="48.08135" lon="-4.28148">
        <ele>72.236206054688</ele>
        <time>2017-04-22T12:23:35Z</time>
      </trkpt>
      <trkpt lat="48.0813" lon="-4.28131">
        <ele>72.716918945312</ele>
        <time>2017-04-22T12:23:44Z</time>
      </trkpt>
      <trkpt lat="48.08126" lon="-4.28119">
        <ele>72.716918945312</ele>
        <time>2017-04-22T12:23:51Z</time>
      </trkpt>
      <trkpt lat="48.08121" lon="-4.28106">
        <ele>72.716918945312</ele>
        <time>2017-04-22T12:23:59Z</time>
      </trkpt>
      <trkpt lat="48.08115" lon="-4.28088">
        <ele>72.716918945312</ele>
        <time>2017-04-22T12:24:09Z</time>
      </trkpt>
      <trkpt lat="48.08109" lon="-4.28073">
        <ele>72.236206054688</ele>
        <time>2017-04-22T12:24:18Z</time>
      </trkpt>
      <trkpt lat="48.08105" lon="-4.2806">
        <ele>71.755493164062</ele>
        <time>2017-04-22T12:24:26Z</time>
      </trkpt>
      <trkpt lat="48.081" lon="-4.28046">
        <ele>71.27490234375</ele>
        <time>2017-04-22T12:24:34Z</time>
      </trkpt>
      <trkpt lat="48.08096" lon="-4.28033">
        <ele>70.3134765625</ele>
        <time>2017-04-22T12:24:41Z</time>
      </trkpt>
      <trkpt lat="48.08091" lon="-4.28011">
        <ele>65.987670898438</ele>
        <time>2017-04-22T12:24:53Z</time>
      </trkpt>
      <trkpt lat="48.08091" lon="-4.28003">
        <ele>64.545654296875</ele>
        <time>2017-04-22T12:24:57Z</time>
      </trkpt>
      <trkpt lat="48.0809" lon="-4.27996">
        <ele>62.622924804688</ele>
        <time>2017-04-22T12:25:00Z</time>
      </trkpt>
      <trkpt lat="48.08091" lon="-4.27986">
        <ele>61.181030273438</ele>
        <time>2017-04-22T12:25:06Z</time>
      </trkpt>
      <trkpt lat="48.08092" lon="-4.27978">
        <ele>60.700317382812</ele>
        <time>2017-04-22T12:25:10Z</time>
      </trkpt>
      <trkpt lat="48.08093" lon="-4.27972">
        <ele>60.2197265625</ele>
        <time>2017-04-22T12:25:15Z</time>
      </trkpt>
      <trkpt lat="48.08094" lon="-4.27969">
        <ele>59.739135742188</ele>
        <time>2017-04-22T12:25:17Z</time>
      </trkpt>
      <trkpt lat="48.08096" lon="-4.27959">
        <ele>59.258422851562</ele>
        <time>2017-04-22T12:25:22Z</time>
      </trkpt>
      <trkpt lat="48.08096" lon="-4.27954">
        <ele>59.258422851562</ele>
        <time>2017-04-22T12:25:25Z</time>
      </trkpt>
      <trkpt lat="48.08098" lon="-4.27939">
        <ele>58.297119140625</ele>
        <time>2017-04-22T12:25:33Z</time>
      </trkpt>
      <trkpt lat="48.081" lon="-4.27928">
        <ele>57.816528320312</ele>
        <time>2017-04-22T12:25:39Z</time>
      </trkpt>
      <trkpt lat="48.08103" lon="-4.27921">
        <ele>56.855102539062</ele>
        <time>2017-04-22T12:25:44Z</time>
      </trkpt>
      <trkpt lat="48.08107" lon="-4.27912">
        <ele>56.37451171875</ele>
        <time>2017-04-22T12:25:50Z</time>
      </trkpt>
      <trkpt lat="48.08108" lon="-4.27912">
        <ele>55.893798828125</ele>
        <time>2017-04-22T12:25:51Z</time>
      </trkpt>
      <trkpt lat="48.0811" lon="-4.27911">
        <ele>55.893798828125</ele>
        <time>2017-04-22T12:25:53Z</time>
      </trkpt>
      <trkpt lat="48.08115" lon="-4.27909">
        <ele>55.4130859375</ele>
        <time>2017-04-22T12:25:59Z</time>
      </trkpt>
      <trkpt lat="48.08122" lon="-4.27912">
        <ele>55.893798828125</ele>
        <time>2017-04-22T12:26:05Z</time>
      </trkpt>
      <trkpt lat="48.08125" lon="-4.27913">
        <ele>56.855102539062</ele>
        <time>2017-04-22T12:26:07Z</time>
      </trkpt>
      <trkpt lat="48.08128" lon="-4.27914">
        <ele>56.855102539062</ele>
        <time>2017-04-22T12:26:09Z</time>
      </trkpt>
      <trkpt lat="48.08139" lon="-4.2792">
        <ele>57.816528320312</ele>
        <time>2017-04-22T12:26:18Z</time>
      </trkpt>
      <trkpt lat="48.0815" lon="-4.27923">
        <ele>56.855102539062</ele>
        <time>2017-04-22T12:26:26Z</time>
      </trkpt>
      <trkpt lat="48.08159" lon="-4.27925">
        <ele>56.37451171875</ele>
        <time>2017-04-22T12:26:34Z</time>
      </trkpt>
      <trkpt lat="48.08167" lon="-4.27928">
        <ele>57.816528320312</ele>
        <time>2017-04-22T12:26:40Z</time>
      </trkpt>
      <trkpt lat="48.08175" lon="-4.27932">
        <ele>57.335815429688</ele>
        <time>2017-04-22T12:26:46Z</time>
      </trkpt>
      <trkpt lat="48.08177" lon="-4.27933">
        <ele>57.816528320312</ele>
        <time>2017-04-22T12:26:48Z</time>
      </trkpt>
      <trkpt lat="48.08186" lon="-4.27936">
        <ele>56.855102539062</ele>
        <time>2017-04-22T12:26:55Z</time>
      </trkpt>
      <trkpt lat="48.08188" lon="-4.27938">
        <ele>56.855102539062</ele>
        <time>2017-04-22T12:26:57Z</time>
      </trkpt>
      <trkpt lat="48.08193" lon="-4.2794">
        <ele>57.335815429688</ele>
        <time>2017-04-22T12:27:01Z</time>
      </trkpt>
      <trkpt lat="48.08199" lon="-4.27943">
        <ele>57.335815429688</ele>
        <time>2017-04-22T12:27:06Z</time>
      </trkpt>
      <trkpt lat="48.08207" lon="-4.27948">
        <ele>58.297119140625</ele>
        <time>2017-04-22T12:27:12Z</time>
      </trkpt>
      <trkpt lat="48.08213" lon="-4.27949">
        <ele>57.335815429688</ele>
        <time>2017-04-22T12:27:16Z</time>
      </trkpt>
      <trkpt lat="48.08217" lon="-4.27952">
        <ele>57.816528320312</ele>
        <time>2017-04-22T12:27:20Z</time>
      </trkpt>
      <trkpt lat="48.08223" lon="-4.27953">
        <ele>57.816528320312</ele>
        <time>2017-04-22T12:27:24Z</time>
      </trkpt>
      <trkpt lat="48.08231" lon="-4.27957">
        <ele>56.855102539062</ele>
        <time>2017-04-22T12:27:31Z</time>
      </trkpt>
      <trkpt lat="48.08242" lon="-4.27967">
        <ele>57.335815429688</ele>
        <time>2017-04-22T12:27:41Z</time>
      </trkpt>
      <trkpt lat="48.08249" lon="-4.27975">
        <ele>57.816528320312</ele>
        <time>2017-04-22T12:27:48Z</time>
      </trkpt>
      <trkpt lat="48.08254" lon="-4.2798">
        <ele>56.855102539062</ele>
        <time>2017-04-22T12:27:53Z</time>
      </trkpt>
      <trkpt lat="48.08257" lon="-4.27983">
        <ele>55.893798828125</ele>
        <time>2017-04-22T12:27:56Z</time>
      </trkpt>
      <trkpt lat="48.08263" lon="-4.27986">
        <ele>54.451782226562</ele>
        <time>2017-04-22T12:28:02Z</time>
      </trkpt>
      <trkpt lat="48.08269" lon="-4.2799">
        <ele>53.009765625</ele>
        <time>2017-04-22T12:28:07Z</time>
      </trkpt>
      <trkpt lat="48.08274" lon="-4.27996">
        <ele>52.529174804688</ele>
        <time>2017-04-22T12:28:13Z</time>
      </trkpt>
      <trkpt lat="48.08281" lon="-4.28">
        <ele>51.56787109375</ele>
        <time>2017-04-22T12:28:19Z</time>
      </trkpt>
      <trkpt lat="48.08284" lon="-4.28001">
        <ele>51.087158203125</ele>
        <time>2017-04-22T12:28:23Z</time>
      </trkpt>
      <trkpt lat="48.08293" lon="-4.28005">
        <ele>50.1259765625</ele>
        <time>2017-04-22T12:28:30Z</time>
      </trkpt>
      <trkpt lat="48.08296" lon="-4.28007">
        <ele>49.16455078125</ele>
        <time>2017-04-22T12:28:33Z</time>
      </trkpt>
      <trkpt lat="48.08297" lon="-4.28008">
        <ele>49.16455078125</ele>
        <time>2017-04-22T12:28:35Z</time>
      </trkpt>
      <trkpt lat="48.08303" lon="-4.28011">
        <ele>49.645263671875</ele>
        <time>2017-04-22T12:28:40Z</time>
      </trkpt>
      <trkpt lat="48.08305" lon="-4.28012">
        <ele>49.645263671875</ele>
        <time>2017-04-22T12:28:42Z</time>
      </trkpt>
      <trkpt lat="48.0831" lon="-4.28014">
        <ele>49.16455078125</ele>
        <time>2017-04-22T12:28:46Z</time>
      </trkpt>
      <trkpt lat="48.08316" lon="-4.28017">
        <ele>47.722534179688</ele>
        <time>2017-04-22T12:28:52Z</time>
      </trkpt>
      <trkpt lat="48.08323" lon="-4.28011">
        <ele>46.280639648438</ele>
        <time>2017-04-22T12:28:58Z</time>
      </trkpt>
      <trkpt lat="48.08326" lon="-4.28006">
        <ele>46.280639648438</ele>
        <time>2017-04-22T12:29:01Z</time>
      </trkpt>
      <trkpt lat="48.08334" lon="-4.27992">
        <ele>45.799926757812</ele>
        <time>2017-04-22T12:29:10Z</time>
      </trkpt>
      <trkpt lat="48.0834" lon="-4.27983">
        <ele>46.280639648438</ele>
        <time>2017-04-22T12:29:16Z</time>
      </trkpt>
      <trkpt lat="48.08347" lon="-4.27972">
        <ele>47.722534179688</ele>
        <time>2017-04-22T12:29:23Z</time>
      </trkpt>
      <trkpt lat="48.08354" lon="-4.27961">
        <ele>48.683959960938</ele>
        <time>2017-04-22T12:29:31Z</time>
      </trkpt>
      <trkpt lat="48.0836" lon="-4.27948">
        <ele>48.203369140625</ele>
        <time>2017-04-22T12:29:39Z</time>
      </trkpt>
      <trkpt lat="48.08364" lon="-4.27939">
        <ele>46.76123046875</ele>
        <time>2017-04-22T12:29:45Z</time>
      </trkpt>
      <trkpt lat="48.08367" lon="-4.27927">
        <ele>43.877319335938</ele>
        <time>2017-04-22T12:29:52Z</time>
      </trkpt>
      <trkpt lat="48.08369" lon="-4.27918">
        <ele>43.877319335938</ele>
        <time>2017-04-22T12:29:58Z</time>
      </trkpt>
      <trkpt lat="48.08371" lon="-4.2791">
        <ele>42.435424804688</ele>
        <time>2017-04-22T12:30:02Z</time>
      </trkpt>
      <trkpt lat="48.08374" lon="-4.27899">
        <ele>40.993408203125</ele>
        <time>2017-04-22T12:30:08Z</time>
      </trkpt>
      <trkpt lat="48.08377" lon="-4.27888">
        <ele>40.512817382812</ele>
        <time>2017-04-22T12:30:14Z</time>
      </trkpt>
      <trkpt lat="48.08381" lon="-4.2787">
        <ele>39.55126953125</ele>
        <time>2017-04-22T12:30:23Z</time>
      </trkpt>
      <trkpt lat="48.08382" lon="-4.27865">
        <ele>39.070678710938</ele>
        <time>2017-04-22T12:30:26Z</time>
      </trkpt>
      <trkpt lat="48.08384" lon="-4.27854">
        <ele>38.109375</ele>
        <time>2017-04-22T12:30:32Z</time>
      </trkpt>
      <trkpt lat="48.08385" lon="-4.2785">
        <ele>38.109375</ele>
        <time>2017-04-22T12:30:34Z</time>
      </trkpt>
      <trkpt lat="48.08389" lon="-4.27833">
        <ele>37.628662109375</ele>
        <time>2017-04-22T12:30:43Z</time>
      </trkpt>
      <trkpt lat="48.08393" lon="-4.27817">
        <ele>37.148071289062</ele>
        <time>2017-04-22T12:30:51Z</time>
      </trkpt>
      <trkpt lat="48.08393" lon="-4.27815">
        <ele>37.148071289062</ele>
        <time>2017-04-22T12:30:52Z</time>
      </trkpt>
      <trkpt lat="48.08397" lon="-4.27804">
        <ele>37.628662109375</ele>
        <time>2017-04-22T12:30:58Z</time>
      </trkpt>
      <trkpt lat="48.08399" lon="-4.27799">
        <ele>37.628662109375</ele>
        <time>2017-04-22T12:31:01Z</time>
      </trkpt>
      <trkpt lat="48.08404" lon="-4.27784">
        <ele>39.070678710938</ele>
        <time>2017-04-22T12:31:10Z</time>
      </trkpt>
      <trkpt lat="48.08407" lon="-4.27777">
        <ele>39.55126953125</ele>
        <time>2017-04-22T12:31:14Z</time>
      </trkpt>
      <trkpt lat="48.08409" lon="-4.2777">
        <ele>39.55126953125</ele>
        <time>2017-04-22T12:31:19Z</time>
      </trkpt>
      <trkpt lat="48.08411" lon="-4.27767">
        <ele>39.55126953125</ele>
        <time>2017-04-22T12:31:22Z</time>
      </trkpt>
      <trkpt lat="48.08413" lon="-4.27766">
        <ele>39.55126953125</ele>
        <time>2017-04-22T12:31:24Z</time>
      </trkpt>
      <trkpt lat="48.08419" lon="-4.27762">
        <ele>38.590087890625</ele>
        <time>2017-04-22T12:31:31Z</time>
      </trkpt>
      <trkpt lat="48.08426" lon="-4.27756">
        <ele>35.7060546875</ele>
        <time>2017-04-22T12:31:37Z</time>
      </trkpt>
      <trkpt lat="48.0843" lon="-4.27751">
        <ele>32.341552734375</ele>
        <time>2017-04-22T12:31:42Z</time>
      </trkpt>
      <trkpt lat="48.08433" lon="-4.27749">
        <ele>29.938110351562</ele>
        <time>2017-04-22T12:31:46Z</time>
      </trkpt>
      <trkpt lat="48.08443" lon="-4.2775">
        <ele>28.015502929688</ele>
        <time>2017-04-22T12:31:54Z</time>
      </trkpt>
      <trkpt lat="48.08445" lon="-4.27751">
        <ele>27.534912109375</ele>
        <time>2017-04-22T12:31:56Z</time>
      </trkpt>
      <trkpt lat="48.0845" lon="-4.27757">
        <ele>26.573608398438</ele>
        <time>2017-04-22T12:32:01Z</time>
      </trkpt>
      <trkpt lat="48.08451" lon="-4.2776">
        <ele>25.6123046875</ele>
        <time>2017-04-22T12:32:03Z</time>
      </trkpt>
      <trkpt lat="48.08452" lon="-4.27764">
        <ele>24.651000976562</ele>
        <time>2017-04-22T12:32:06Z</time>
      </trkpt>
      <trkpt lat="48.08455" lon="-4.27772">
        <ele>23.208984375</ele>
        <time>2017-04-22T12:32:12Z</time>
      </trkpt>
      <trkpt lat="48.08458" lon="-4.27781">
        <ele>24.651000976562</ele>
        <time>2017-04-22T12:32:17Z</time>
      </trkpt>
      <trkpt lat="48.0846" lon="-4.27787">
        <ele>25.131713867188</ele>
        <time>2017-04-22T12:32:21Z</time>
      </trkpt>
      <trkpt lat="48.08462" lon="-4.27793">
        <ele>25.131713867188</ele>
        <time>2017-04-22T12:32:25Z</time>
      </trkpt>
      <trkpt lat="48.08464" lon="-4.27799">
        <ele>24.651000976562</ele>
        <time>2017-04-22T12:32:29Z</time>
      </trkpt>
      <trkpt lat="48.08466" lon="-4.27806">
        <ele>23.689575195312</ele>
        <time>2017-04-22T12:32:34Z</time>
      </trkpt>
      <trkpt lat="48.08467" lon="-4.2781">
        <ele>22.728271484375</ele>
        <time>2017-04-22T12:32:37Z</time>
      </trkpt>
      <trkpt lat="48.08467" lon="-4.27822">
        <ele>19.36376953125</ele>
        <time>2017-04-22T12:32:44Z</time>
      </trkpt>
      <trkpt lat="48.08468" lon="-4.27827">
        <ele>17.441162109375</ele>
        <time>2017-04-22T12:32:47Z</time>
      </trkpt>
      <trkpt lat="48.08469" lon="-4.27832">
        <ele>13.595825195312</ele>
        <time>2017-04-22T12:32:51Z</time>
      </trkpt>
      <trkpt lat="48.08464" lon="-4.27843">
        <ele>7.34716796875</ele>
        <time>2017-04-22T12:32:58Z</time>
      </trkpt>
      <trkpt lat="48.08463" lon="-4.2785">
        <ele>6.3858642578125</ele>
        <time>2017-04-22T12:33:02Z</time>
      </trkpt>
      <trkpt lat="48.0846" lon="-4.27857">
        <ele>3.982666015625</ele>
        <time>2017-04-22T12:33:06Z</time>
      </trkpt>
      <trkpt lat="48.08458" lon="-4.27869">
        <ele>4.4632568359375</ele>
        <time>2017-04-22T12:33:13Z</time>
      </trkpt>
      <trkpt lat="48.08458" lon="-4.27871">
        <ele>4.4632568359375</ele>
        <time>2017-04-22T12:33:14Z</time>
      </trkpt>
      <trkpt lat="48.08456" lon="-4.27874">
        <ele>4.4632568359375</ele>
        <time>2017-04-22T12:33:16Z</time>
      </trkpt>
      <trkpt lat="48.08455" lon="-4.27881">
        <ele>3.021240234375</ele>
        <time>2017-04-22T12:33:20Z</time>
      </trkpt>
      <trkpt lat="48.08454" lon="-4.27886">
        <ele>2.06005859375</ele>
        <time>2017-04-22T12:33:23Z</time>
      </trkpt>
      <trkpt lat="48.08457" lon="-4.27896">
        <ele>1.579345703125</ele>
        <time>2017-04-22T12:33:29Z</time>
      </trkpt>
      <trkpt lat="48.08465" lon="-4.279">
        <ele>3.982666015625</ele>
        <time>2017-04-22T12:33:36Z</time>
      </trkpt>
      <trkpt lat="48.08473" lon="-4.27892">
        <ele>4.94384765625</ele>
        <time>2017-04-22T12:33:46Z</time>
      </trkpt>
      <trkpt lat="48.08475" lon="-4.27885">
        <ele>3.501953125</ele>
        <time>2017-04-22T12:33:50Z</time>
      </trkpt>
      <trkpt lat="48.08477" lon="-4.27881">
        <ele>2.5406494140625</ele>
        <time>2017-04-22T12:33:53Z</time>
      </trkpt>
      <trkpt lat="48.0848" lon="-4.27872">
        <ele>1.0986328125</ele>
        <time>2017-04-22T12:33:59Z</time>
      </trkpt>
      <trkpt lat="48.08483" lon="-4.27867">
        <ele>0.6180419921875</ele>
        <time>2017-04-22T12:34:02Z</time>
      </trkpt>
      <trkpt lat="48.08486" lon="-4.27856">
        <ele>-0.3433837890625</ele>
        <time>2017-04-22T12:34:09Z</time>
      </trkpt>
      <trkpt lat="48.08491" lon="-4.27845">
        <ele>0.6180419921875</ele>
        <time>2017-04-22T12:34:16Z</time>
      </trkpt>
      <trkpt lat="48.08492" lon="-4.27844">
        <ele>0.6180419921875</ele>
        <time>2017-04-22T12:34:17Z</time>
      </trkpt>
      <trkpt lat="48.08494" lon="-4.27833">
        <ele>0.6180419921875</ele>
        <time>2017-04-22T12:34:23Z</time>
      </trkpt>
      <trkpt lat="48.08496" lon="-4.27825">
        <ele>0.6180419921875</ele>
        <time>2017-04-22T12:34:28Z</time>
      </trkpt>
      <trkpt lat="48.08498" lon="-4.27816">
        <ele>0.137451171875</ele>
        <time>2017-04-22T12:34:33Z</time>
      </trkpt>
      <trkpt lat="48.08498" lon="-4.27807">
        <ele>0.6180419921875</ele>
        <time>2017-04-22T12:34:38Z</time>
      </trkpt>
      <trkpt lat="48.08502" lon="-4.27794">
        <ele>3.501953125</ele>
        <time>2017-04-22T12:34:45Z</time>
      </trkpt>
      <trkpt lat="48.08506" lon="-4.2778">
        <ele>5.424560546875</ele>
        <time>2017-04-22T12:34:53Z</time>
      </trkpt>
      <trkpt lat="48.08509" lon="-4.27773">
        <ele>6.866455078125</ele>
        <time>2017-04-22T12:34:57Z</time>
      </trkpt>
      <trkpt lat="48.08511" lon="-4.27767">
        <ele>7.34716796875</ele>
        <time>2017-04-22T12:35:01Z</time>
      </trkpt>
      <trkpt lat="48.08515" lon="-4.27761">
        <ele>7.34716796875</ele>
        <time>2017-04-22T12:35:06Z</time>
      </trkpt>
      <trkpt lat="48.08514" lon="-4.27759">
        <ele>6.3858642578125</ele>
        <time>2017-04-22T12:35:13Z</time>
      </trkpt>
      <trkpt lat="48.08514" lon="-4.27755">
        <ele>5.9052734375</ele>
        <time>2017-04-22T12:35:20Z</time>
      </trkpt>
      <trkpt lat="48.08515" lon="-4.27753">
        <ele>6.3858642578125</ele>
        <time>2017-04-22T12:35:25Z</time>
      </trkpt>
      <trkpt lat="48.08519" lon="-4.2775">
        <ele>6.866455078125</ele>
        <time>2017-04-22T12:35:31Z</time>
      </trkpt>
      <trkpt lat="48.08525" lon="-4.27747">
        <ele>6.866455078125</ele>
        <time>2017-04-22T12:35:37Z</time>
      </trkpt>
      <trkpt lat="48.0853" lon="-4.27741">
        <ele>6.866455078125</ele>
        <time>2017-04-22T12:35:43Z</time>
      </trkpt>
      <trkpt lat="48.08535" lon="-4.27735">
        <ele>5.9052734375</ele>
        <time>2017-04-22T12:35:48Z</time>
      </trkpt>
      <trkpt lat="48.0854" lon="-4.27728">
        <ele>4.4632568359375</ele>
        <time>2017-04-22T12:35:54Z</time>
      </trkpt>
      <trkpt lat="48.08546" lon="-4.27722">
        <ele>3.501953125</ele>
        <time>2017-04-22T12:36:01Z</time>
      </trkpt>
      <trkpt lat="48.08553" lon="-4.27713">
        <ele>2.5406494140625</ele>
        <time>2017-04-22T12:36:09Z</time>
      </trkpt>
      <trkpt lat="48.08559" lon="-4.27706">
        <ele>2.5406494140625</ele>
        <time>2017-04-22T12:36:16Z</time>
      </trkpt>
      <trkpt lat="48.08569" lon="-4.27694">
        <ele>3.501953125</ele>
        <time>2017-04-22T12:36:25Z</time>
      </trkpt>
      <trkpt lat="48.08573" lon="-4.27688">
        <ele>3.982666015625</ele>
        <time>2017-04-22T12:36:31Z</time>
      </trkpt>
      <trkpt lat="48.08576" lon="-4.27682">
        <ele>3.501953125</ele>
        <time>2017-04-22T12:36:35Z</time>
      </trkpt>
      <trkpt lat="48.08583" lon="-4.27672">
        <ele>3.982666015625</ele>
        <time>2017-04-22T12:36:44Z</time>
      </trkpt>
      <trkpt lat="48.08586" lon="-4.27665">
        <ele>4.4632568359375</ele>
        <time>2017-04-22T12:36:50Z</time>
      </trkpt>
      <trkpt lat="48.08585" lon="-4.2766">
        <ele>3.982666015625</ele>
        <time>2017-04-22T12:36:55Z</time>
      </trkpt>
      <trkpt lat="48.08582" lon="-4.27656">
        <ele>4.4632568359375</ele>
        <time>2017-04-22T12:37:01Z</time>
      </trkpt>
      <trkpt lat="48.08577" lon="-4.27649">
        <ele>5.9052734375</ele>
        <time>2017-04-22T12:37:08Z</time>
      </trkpt>
      <trkpt lat="48.08575" lon="-4.27644">
        <ele>7.34716796875</ele>
        <time>2017-04-22T12:37:13Z</time>
      </trkpt>
      <trkpt lat="48.08571" lon="-4.27639">
        <ele>7.34716796875</ele>
        <time>2017-04-22T12:37:19Z</time>
      </trkpt>
      <trkpt lat="48.08569" lon="-4.27632">
        <ele>7.34716796875</ele>
        <time>2017-04-22T12:37:24Z</time>
      </trkpt>
      <trkpt lat="48.08566" lon="-4.27626">
        <ele>7.34716796875</ele>
        <time>2017-04-22T12:37:29Z</time>
      </trkpt>
      <trkpt lat="48.08561" lon="-4.27617">
        <ele>7.827880859375</ele>
        <time>2017-04-22T12:37:35Z</time>
      </trkpt>
      <trkpt lat="48.0856" lon="-4.27614">
        <ele>7.827880859375</ele>
        <time>2017-04-22T12:37:37Z</time>
      </trkpt>
      <trkpt lat="48.08556" lon="-4.27605">
        <ele>8.30859375</ele>
        <time>2017-04-22T12:37:43Z</time>
      </trkpt>
      <trkpt lat="48.08552" lon="-4.27602">
        <ele>7.827880859375</ele>
        <time>2017-04-22T12:37:47Z</time>
      </trkpt>
      <trkpt lat="48.08549" lon="-4.27595">
        <ele>7.34716796875</ele>
        <time>2017-04-22T12:37:53Z</time>
      </trkpt>
      <trkpt lat="48.08546" lon="-4.27588">
        <ele>7.34716796875</ele>
        <time>2017-04-22T12:37:59Z</time>
      </trkpt>
      <trkpt lat="48.08542" lon="-4.27582">
        <ele>6.866455078125</ele>
        <time>2017-04-22T12:38:05Z</time>
      </trkpt>
      <trkpt lat="48.08536" lon="-4.27571">
        <ele>6.866455078125</ele>
        <time>2017-04-22T12:38:12Z</time>
      </trkpt>
      <trkpt lat="48.08533" lon="-4.27567">
        <ele>6.3858642578125</ele>
        <time>2017-04-22T12:38:15Z</time>
      </trkpt>
      <trkpt lat="48.08527" lon="-4.27556">
        <ele>4.4632568359375</ele>
        <time>2017-04-22T12:38:24Z</time>
      </trkpt>
      <trkpt lat="48.08524" lon="-4.27548">
        <ele>4.4632568359375</ele>
        <time>2017-04-22T12:38:29Z</time>
      </trkpt>
      <trkpt lat="48.0852" lon="-4.27541">
        <ele>5.424560546875</ele>
        <time>2017-04-22T12:38:34Z</time>
      </trkpt>
      <trkpt lat="48.08514" lon="-4.27532">
        <ele>6.866455078125</ele>
        <time>2017-04-22T12:38:41Z</time>
      </trkpt>
      <trkpt lat="48.0851" lon="-4.2752">
        <ele>7.34716796875</ele>
        <time>2017-04-22T12:38:48Z</time>
      </trkpt>
      <trkpt lat="48.08505" lon="-4.27513">
        <ele>7.34716796875</ele>
        <time>2017-04-22T12:38:53Z</time>
      </trkpt>
      <trkpt lat="48.08499" lon="-4.27504">
        <ele>7.827880859375</ele>
        <time>2017-04-22T12:39:00Z</time>
      </trkpt>
      <trkpt lat="48.08494" lon="-4.27494">
        <ele>7.827880859375</ele>
        <time>2017-04-22T12:39:07Z</time>
      </trkpt>
      <trkpt lat="48.08491" lon="-4.27488">
        <ele>8.7891845703125</ele>
        <time>2017-04-22T12:39:12Z</time>
      </trkpt>
      <trkpt lat="48.08488" lon="-4.27479">
        <ele>9.2698974609375</ele>
        <time>2017-04-22T12:39:18Z</time>
      </trkpt>
      <trkpt lat="48.08485" lon="-4.27469">
        <ele>10.711791992188</ele>
        <time>2017-04-22T12:39:24Z</time>
      </trkpt>
      <trkpt lat="48.08481" lon="-4.27461">
        <ele>10.711791992188</ele>
        <time>2017-04-22T12:39:30Z</time>
      </trkpt>
      <trkpt lat="48.08478" lon="-4.2745">
        <ele>11.673217773438</ele>
        <time>2017-04-22T12:39:37Z</time>
      </trkpt>
      <trkpt lat="48.08475" lon="-4.27441">
        <ele>12.634399414062</ele>
        <time>2017-04-22T12:39:43Z</time>
      </trkpt>
      <trkpt lat="48.08473" lon="-4.27433">
        <ele>13.115112304688</ele>
        <time>2017-04-22T12:39:49Z</time>
      </trkpt>
      <trkpt lat="48.0847" lon="-4.27424">
        <ele>13.595825195312</ele>
        <time>2017-04-22T12:39:55Z</time>
      </trkpt>
      <trkpt lat="48.08467" lon="-4.27415">
        <ele>13.115112304688</ele>
        <time>2017-04-22T12:40:02Z</time>
      </trkpt>
      <trkpt lat="48.08464" lon="-4.27405">
        <ele>13.115112304688</ele>
        <time>2017-04-22T12:40:09Z</time>
      </trkpt>
      <trkpt lat="48.08462" lon="-4.27395">
        <ele>13.595825195312</ele>
        <time>2017-04-22T12:40:15Z</time>
      </trkpt>
      <trkpt lat="48.08458" lon="-4.27382">
        <ele>14.076416015625</ele>
        <time>2017-04-22T12:40:22Z</time>
      </trkpt>
      <trkpt lat="48.08458" lon="-4.27373">
        <ele>15.037719726562</ele>
        <time>2017-04-22T12:40:27Z</time>
      </trkpt>
      <trkpt lat="48.08456" lon="-4.27367">
        <ele>15.037719726562</ele>
        <time>2017-04-22T12:40:31Z</time>
      </trkpt>
      <trkpt lat="48.08454" lon="-4.27355">
        <ele>15.037719726562</ele>
        <time>2017-04-22T12:40:39Z</time>
      </trkpt>
      <trkpt lat="48.08453" lon="-4.27349">
        <ele>15.9990234375</ele>
        <time>2017-04-22T12:40:43Z</time>
      </trkpt>
      <trkpt lat="48.08457" lon="-4.27343">
        <ele>15.9990234375</ele>
        <time>2017-04-22T12:40:50Z</time>
      </trkpt>
      <trkpt lat="48.08462" lon="-4.27342">
        <ele>17.441162109375</ele>
        <time>2017-04-22T12:40:56Z</time>
      </trkpt>
      <trkpt lat="48.08468" lon="-4.27341">
        <ele>18.883056640625</ele>
        <time>2017-04-22T12:41:03Z</time>
      </trkpt>
      <trkpt lat="48.08473" lon="-4.2734">
        <ele>20.324951171875</ele>
        <time>2017-04-22T12:41:09Z</time>
      </trkpt>
      <trkpt lat="48.08479" lon="-4.2734">
        <ele>22.24755859375</ele>
        <time>2017-04-22T12:41:16Z</time>
      </trkpt>
      <trkpt lat="48.08485" lon="-4.27338">
        <ele>24.170288085938</ele>
        <time>2017-04-22T12:41:23Z</time>
      </trkpt>
      <trkpt lat="48.0849" lon="-4.27337">
        <ele>25.6123046875</ele>
        <time>2017-04-22T12:41:29Z</time>
      </trkpt>
      <trkpt lat="48.08495" lon="-4.27336">
        <ele>27.534912109375</ele>
        <time>2017-04-22T12:41:35Z</time>
      </trkpt>
      <trkpt lat="48.08501" lon="-4.27333">
        <ele>28.015502929688</ele>
        <time>2017-04-22T12:41:41Z</time>
      </trkpt>
      <trkpt lat="48.08503" lon="-4.27331">
        <ele>28.976928710938</ele>
        <time>2017-04-22T12:41:46Z</time>
      </trkpt>
      <trkpt lat="48.08505" lon="-4.2733">
        <ele>28.976928710938</ele>
        <time>2017-04-22T12:41:54Z</time>
      </trkpt>
      <trkpt lat="48.08511" lon="-4.27329">
        <ele>29.45751953125</ele>
        <time>2017-04-22T12:42:01Z</time>
      </trkpt>
      <trkpt lat="48.08517" lon="-4.27328">
        <ele>30.418823242188</ele>
        <time>2017-04-22T12:42:07Z</time>
      </trkpt>
      <trkpt lat="48.08521" lon="-4.27322">
        <ele>31.860717773438</ele>
        <time>2017-04-22T12:42:13Z</time>
      </trkpt>
      <trkpt lat="48.08521" lon="-4.27316">
        <ele>31.860717773438</ele>
        <time>2017-04-22T12:42:20Z</time>
      </trkpt>
      <trkpt lat="48.08523" lon="-4.27313">
        <ele>31.380126953125</ele>
        <time>2017-04-22T12:42:25Z</time>
      </trkpt>
      <trkpt lat="48.08526" lon="-4.27308">
        <ele>28.015502929688</ele>
        <time>2017-04-22T12:42:30Z</time>
      </trkpt>
      <trkpt lat="48.08529" lon="-4.27301">
        <ele>23.689575195312</ele>
        <time>2017-04-22T12:42:35Z</time>
      </trkpt>
      <trkpt lat="48.08533" lon="-4.27297">
        <ele>24.651000976562</ele>
        <time>2017-04-22T12:42:41Z</time>
      </trkpt>
      <trkpt lat="48.08536" lon="-4.27289">
        <ele>26.092895507812</ele>
        <time>2017-04-22T12:42:48Z</time>
      </trkpt>
      <trkpt lat="48.08538" lon="-4.27287">
        <ele>25.6123046875</ele>
        <time>2017-04-22T12:42:50Z</time>
      </trkpt>
      <trkpt lat="48.08543" lon="-4.2728">
        <ele>27.054321289062</ele>
        <time>2017-04-22T12:42:56Z</time>
      </trkpt>
      <trkpt lat="48.08544" lon="-4.27277">
        <ele>25.6123046875</ele>
        <time>2017-04-22T12:43:00Z</time>
      </trkpt>
      <trkpt lat="48.08546" lon="-4.27275">
        <ele>26.573608398438</ele>
        <time>2017-04-22T12:43:03Z</time>
      </trkpt>
      <trkpt lat="48.08549" lon="-4.27272">
        <ele>27.534912109375</ele>
        <time>2017-04-22T12:43:06Z</time>
      </trkpt>
      <trkpt lat="48.08553" lon="-4.27267">
        <ele>28.976928710938</ele>
        <time>2017-04-22T12:43:13Z</time>
      </trkpt>
      <trkpt lat="48.08555" lon="-4.27264">
        <ele>29.938110351562</ele>
        <time>2017-04-22T12:43:19Z</time>
      </trkpt>
      <trkpt lat="48.08557" lon="-4.27259">
        <ele>30.418823242188</ele>
        <time>2017-04-22T12:43:26Z</time>
      </trkpt>
      <trkpt lat="48.08559" lon="-4.27256">
        <ele>32.341552734375</ele>
        <time>2017-04-22T12:43:33Z</time>
      </trkpt>
      <trkpt lat="48.08562" lon="-4.27249">
        <ele>31.860717773438</ele>
        <time>2017-04-22T12:43:44Z</time>
      </trkpt>
      <trkpt lat="48.08562" lon="-4.27243">
        <ele>30.418823242188</ele>
        <time>2017-04-22T12:43:49Z</time>
      </trkpt>
      <trkpt lat="48.08561" lon="-4.27237">
        <ele>28.496215820312</ele>
        <time>2017-04-22T12:43:55Z</time>
      </trkpt>
      <trkpt lat="48.08564" lon="-4.27231">
        <ele>24.651000976562</ele>
        <time>2017-04-22T12:44:02Z</time>
      </trkpt>
      <trkpt lat="48.08564" lon="-4.27225">
        <ele>24.170288085938</ele>
        <time>2017-04-22T12:44:06Z</time>
      </trkpt>
      <trkpt lat="48.08565" lon="-4.27221">
        <ele>25.131713867188</ele>
        <time>2017-04-22T12:44:09Z</time>
      </trkpt>
      <trkpt lat="48.08569" lon="-4.27216">
        <ele>28.496215820312</ele>
        <time>2017-04-22T12:44:16Z</time>
      </trkpt>
      <trkpt lat="48.08573" lon="-4.27212">
        <ele>28.015502929688</ele>
        <time>2017-04-22T12:44:24Z</time>
      </trkpt>
      <trkpt lat="48.08576" lon="-4.27207">
        <ele>26.573608398438</ele>
        <time>2017-04-22T12:44:29Z</time>
      </trkpt>
      <trkpt lat="48.08578" lon="-4.27201">
        <ele>27.054321289062</ele>
        <time>2017-04-22T12:44:35Z</time>
      </trkpt>
      <trkpt lat="48.08581" lon="-4.27195">
        <ele>27.054321289062</ele>
        <time>2017-04-22T12:44:40Z</time>
      </trkpt>
      <trkpt lat="48.08581" lon="-4.27191">
        <ele>28.015502929688</ele>
        <time>2017-04-22T12:44:45Z</time>
      </trkpt>
      <trkpt lat="48.08583" lon="-4.27182">
        <ele>25.6123046875</ele>
        <time>2017-04-22T12:44:50Z</time>
      </trkpt>
      <trkpt lat="48.08584" lon="-4.27179">
        <ele>26.573608398438</ele>
        <time>2017-04-22T12:44:53Z</time>
      </trkpt>
      <trkpt lat="48.08585" lon="-4.27171">
        <ele>29.938110351562</ele>
        <time>2017-04-22T12:44:58Z</time>
      </trkpt>
      <trkpt lat="48.08585" lon="-4.27168">
        <ele>29.938110351562</ele>
        <time>2017-04-22T12:45:00Z</time>
      </trkpt>
      <trkpt lat="48.08587" lon="-4.2716">
        <ele>30.899536132812</ele>
        <time>2017-04-22T12:45:07Z</time>
      </trkpt>
      <trkpt lat="48.08589" lon="-4.27153">
        <ele>31.380126953125</ele>
        <time>2017-04-22T12:45:12Z</time>
      </trkpt>
      <trkpt lat="48.08589" lon="-4.27143">
        <ele>31.860717773438</ele>
        <time>2017-04-22T12:45:18Z</time>
      </trkpt>
      <trkpt lat="48.08589" lon="-4.27142">
        <ele>31.860717773438</ele>
        <time>2017-04-22T12:45:19Z</time>
      </trkpt>
      <trkpt lat="48.08593" lon="-4.27131">
        <ele>29.938110351562</ele>
        <time>2017-04-22T12:45:28Z</time>
      </trkpt>
      <trkpt lat="48.08595" lon="-4.27127">
        <ele>29.45751953125</ele>
        <time>2017-04-22T12:45:31Z</time>
      </trkpt>
      <trkpt lat="48.08599" lon="-4.27115">
        <ele>26.573608398438</ele>
        <time>2017-04-22T12:45:37Z</time>
      </trkpt>
      <trkpt lat="48.08603" lon="-4.27106">
        <ele>26.573608398438</ele>
        <time>2017-04-22T12:45:44Z</time>
      </trkpt>
      <trkpt lat="48.08604" lon="-4.27099">
        <ele>26.573608398438</ele>
        <time>2017-04-22T12:45:50Z</time>
      </trkpt>
      <trkpt lat="48.08608" lon="-4.27092">
        <ele>26.573608398438</ele>
        <time>2017-04-22T12:45:55Z</time>
      </trkpt>
      <trkpt lat="48.08611" lon="-4.27084">
        <ele>28.976928710938</ele>
        <time>2017-04-22T12:46:02Z</time>
      </trkpt>
      <trkpt lat="48.08613" lon="-4.27075">
        <ele>31.380126953125</ele>
        <time>2017-04-22T12:46:09Z</time>
      </trkpt>
      <trkpt lat="48.08616" lon="-4.27068">
        <ele>32.341552734375</ele>
        <time>2017-04-22T12:46:15Z</time>
      </trkpt>
      <trkpt lat="48.08619" lon="-4.27061">
        <ele>30.899536132812</ele>
        <time>2017-04-22T12:46:21Z</time>
      </trkpt>
      <trkpt lat="48.08622" lon="-4.27055">
        <ele>30.899536132812</ele>
        <time>2017-04-22T12:46:27Z</time>
      </trkpt>
      <trkpt lat="48.08624" lon="-4.27047">
        <ele>31.380126953125</ele>
        <time>2017-04-22T12:46:33Z</time>
      </trkpt>
      <trkpt lat="48.08626" lon="-4.2704">
        <ele>32.822265625</ele>
        <time>2017-04-22T12:46:38Z</time>
      </trkpt>
      <trkpt lat="48.08625" lon="-4.2703">
        <ele>33.302856445312</ele>
        <time>2017-04-22T12:46:43Z</time>
      </trkpt>
      <trkpt lat="48.08625" lon="-4.27026">
        <ele>32.822265625</ele>
        <time>2017-04-22T12:46:46Z</time>
      </trkpt>
      <trkpt lat="48.08623" lon="-4.27021">
        <ele>31.860717773438</ele>
        <time>2017-04-22T12:46:49Z</time>
      </trkpt>
      <trkpt lat="48.0862" lon="-4.27013">
        <ele>31.380126953125</ele>
        <time>2017-04-22T12:46:54Z</time>
      </trkpt>
      <trkpt lat="48.08618" lon="-4.26997">
        <ele>31.860717773438</ele>
        <time>2017-04-22T12:47:03Z</time>
      </trkpt>
      <trkpt lat="48.08618" lon="-4.26994">
        <ele>31.860717773438</ele>
        <time>2017-04-22T12:47:04Z</time>
      </trkpt>
      <trkpt lat="48.08617" lon="-4.26985">
        <ele>31.380126953125</ele>
        <time>2017-04-22T12:47:10Z</time>
      </trkpt>
      <trkpt lat="48.08615" lon="-4.26974">
        <ele>30.418823242188</ele>
        <time>2017-04-22T12:47:17Z</time>
      </trkpt>
      <trkpt lat="48.08613" lon="-4.2697">
        <ele>30.418823242188</ele>
        <time>2017-04-22T12:47:19Z</time>
      </trkpt>
      <trkpt lat="48.08611" lon="-4.26961">
        <ele>30.418823242188</ele>
        <time>2017-04-22T12:47:25Z</time>
      </trkpt>
      <trkpt lat="48.08609" lon="-4.26955">
        <ele>28.496215820312</ele>
        <time>2017-04-22T12:47:29Z</time>
      </trkpt>
      <trkpt lat="48.08608" lon="-4.26952">
        <ele>28.496215820312</ele>
        <time>2017-04-22T12:47:31Z</time>
      </trkpt>
      <trkpt lat="48.08606" lon="-4.26941">
        <ele>27.534912109375</ele>
        <time>2017-04-22T12:47:39Z</time>
      </trkpt>
      <trkpt lat="48.08603" lon="-4.26936">
        <ele>28.015502929688</ele>
        <time>2017-04-22T12:47:43Z</time>
      </trkpt>
      <trkpt lat="48.08597" lon="-4.26927">
        <ele>29.45751953125</ele>
        <time>2017-04-22T12:47:51Z</time>
      </trkpt>
      <trkpt lat="48.08592" lon="-4.26921">
        <ele>29.938110351562</ele>
        <time>2017-04-22T12:47:57Z</time>
      </trkpt>
      <trkpt lat="48.08587" lon="-4.26915">
        <ele>31.860717773438</ele>
        <time>2017-04-22T12:48:02Z</time>
      </trkpt>
      <trkpt lat="48.08582" lon="-4.26909">
        <ele>32.822265625</ele>
        <time>2017-04-22T12:48:08Z</time>
      </trkpt>
      <trkpt lat="48.08576" lon="-4.26904">
        <ele>32.822265625</ele>
        <time>2017-04-22T12:48:15Z</time>
      </trkpt>
      <trkpt lat="48.08574" lon="-4.26901">
        <ele>33.783447265625</ele>
        <time>2017-04-22T12:48:18Z</time>
      </trkpt>
      <trkpt lat="48.08567" lon="-4.26901">
        <ele>33.302856445312</ele>
        <time>2017-04-22T12:48:24Z</time>
      </trkpt>
      <trkpt lat="48.0856" lon="-4.26904">
        <ele>32.341552734375</ele>
        <time>2017-04-22T12:48:30Z</time>
      </trkpt>
      <trkpt lat="48.08553" lon="-4.26906">
        <ele>31.380126953125</ele>
        <time>2017-04-22T12:48:37Z</time>
      </trkpt>
      <trkpt lat="48.08548" lon="-4.26908">
        <ele>29.938110351562</ele>
        <time>2017-04-22T12:48:42Z</time>
      </trkpt>
      <trkpt lat="48.08542" lon="-4.26911">
        <ele>27.534912109375</ele>
        <time>2017-04-22T12:48:48Z</time>
      </trkpt>
      <trkpt lat="48.0854" lon="-4.26911">
        <ele>27.054321289062</ele>
        <time>2017-04-22T12:48:49Z</time>
      </trkpt>
      <trkpt lat="48.08535" lon="-4.26913">
        <ele>26.573608398438</ele>
        <time>2017-04-22T12:48:54Z</time>
      </trkpt>
      <trkpt lat="48.08527" lon="-4.26916">
        <ele>26.573608398438</ele>
        <time>2017-04-22T12:49:00Z</time>
      </trkpt>
      <trkpt lat="48.08519" lon="-4.26918">
        <ele>25.6123046875</ele>
        <time>2017-04-22T12:49:07Z</time>
      </trkpt>
      <trkpt lat="48.08513" lon="-4.26921">
        <ele>25.6123046875</ele>
        <time>2017-04-22T12:49:12Z</time>
      </trkpt>
      <trkpt lat="48.08511" lon="-4.26921">
        <ele>25.131713867188</ele>
        <time>2017-04-22T12:49:14Z</time>
      </trkpt>
      <trkpt lat="48.08506" lon="-4.26913">
        <ele>23.689575195312</ele>
        <time>2017-04-22T12:49:18Z</time>
      </trkpt>
      <trkpt lat="48.08503" lon="-4.26913">
        <ele>23.208984375</ele>
        <time>2017-04-22T12:49:21Z</time>
      </trkpt>
      <trkpt lat="48.08502" lon="-4.26913">
        <ele>23.208984375</ele>
        <time>2017-04-22T12:49:22Z</time>
      </trkpt>
      <trkpt lat="48.08493" lon="-4.26913">
        <ele>24.651000976562</ele>
        <time>2017-04-22T12:49:27Z</time>
      </trkpt>
      <trkpt lat="48.08492" lon="-4.26913">
        <ele>24.651000976562</ele>
        <time>2017-04-22T12:49:28Z</time>
      </trkpt>
      <trkpt lat="48.08485" lon="-4.26918">
        <ele>21.766967773438</ele>
        <time>2017-04-22T12:49:36Z</time>
      </trkpt>
      <trkpt lat="48.08484" lon="-4.26918">
        <ele>21.286376953125</ele>
        <time>2017-04-22T12:49:37Z</time>
      </trkpt>
      <trkpt lat="48.08473" lon="-4.26921">
        <ele>19.844360351562</ele>
        <time>2017-04-22T12:49:46Z</time>
      </trkpt>
      <trkpt lat="48.08464" lon="-4.26923">
        <ele>22.24755859375</ele>
        <time>2017-04-22T12:49:52Z</time>
      </trkpt>
      <trkpt lat="48.08456" lon="-4.26926">
        <ele>21.286376953125</ele>
        <time>2017-04-22T12:49:58Z</time>
      </trkpt>
      <trkpt lat="48.08454" lon="-4.26927">
        <ele>21.286376953125</ele>
        <time>2017-04-22T12:50:00Z</time>
      </trkpt>
      <trkpt lat="48.08443" lon="-4.26929">
        <ele>15.9990234375</ele>
        <time>2017-04-22T12:50:11Z</time>
      </trkpt>
      <trkpt lat="48.08439" lon="-4.2693">
        <ele>14.557006835938</ele>
        <time>2017-04-22T12:50:15Z</time>
      </trkpt>
      <trkpt lat="48.08434" lon="-4.26931">
        <ele>12.634399414062</ele>
        <time>2017-04-22T12:50:19Z</time>
      </trkpt>
      <trkpt lat="48.08428" lon="-4.26932">
        <ele>9.2698974609375</ele>
        <time>2017-04-22T12:50:25Z</time>
      </trkpt>
      <trkpt lat="48.08422" lon="-4.26934">
        <ele>3.501953125</ele>
        <time>2017-04-22T12:50:33Z</time>
      </trkpt>
      <trkpt lat="48.08415" lon="-4.26937">
        <ele>3.021240234375</ele>
        <time>2017-04-22T12:50:38Z</time>
      </trkpt>
      <trkpt lat="48.08409" lon="-4.26937">
        <ele>2.06005859375</ele>
        <time>2017-04-22T12:50:44Z</time>
      </trkpt>
      <trkpt lat="48.08403" lon="-4.26936">
        <ele>2.5406494140625</ele>
        <time>2017-04-22T12:50:50Z</time>
      </trkpt>
      <trkpt lat="48.08397" lon="-4.26937">
        <ele>2.5406494140625</ele>
        <time>2017-04-22T12:50:55Z</time>
      </trkpt>
      <trkpt lat="48.08391" lon="-4.26939">
        <ele>5.424560546875</ele>
        <time>2017-04-22T12:50:59Z</time>
      </trkpt>
      <trkpt lat="48.08384" lon="-4.26938">
        <ele>7.827880859375</ele>
        <time>2017-04-22T12:51:04Z</time>
      </trkpt>
      <trkpt lat="48.08375" lon="-4.2694">
        <ele>10.231201171875</ele>
        <time>2017-04-22T12:51:11Z</time>
      </trkpt>
      <trkpt lat="48.08365" lon="-4.26943">
        <ele>13.115112304688</ele>
        <time>2017-04-22T12:51:18Z</time>
      </trkpt>
      <trkpt lat="48.08356" lon="-4.26944">
        <ele>10.711791992188</ele>
        <time>2017-04-22T12:51:24Z</time>
      </trkpt>
      <trkpt lat="48.08355" lon="-4.26945">
        <ele>10.711791992188</ele>
        <time>2017-04-22T12:51:25Z</time>
      </trkpt>
      <trkpt lat="48.08348" lon="-4.26946">
        <ele>11.673217773438</ele>
        <time>2017-04-22T12:51:30Z</time>
      </trkpt>
      <trkpt lat="48.08338" lon="-4.26949">
        <ele>10.711791992188</ele>
        <time>2017-04-22T12:51:35Z</time>
      </trkpt>
      <trkpt lat="48.08337" lon="-4.26949">
        <ele>10.231201171875</ele>
        <time>2017-04-22T12:51:36Z</time>
      </trkpt>
      <trkpt lat="48.08327" lon="-4.26951">
        <ele>10.711791992188</ele>
        <time>2017-04-22T12:51:44Z</time>
      </trkpt>
      <trkpt lat="48.08322" lon="-4.26948">
        <ele>11.673217773438</ele>
        <time>2017-04-22T12:51:48Z</time>
      </trkpt>
      <trkpt lat="48.0832" lon="-4.26937">
        <ele>12.15380859375</ele>
        <time>2017-04-22T12:51:55Z</time>
      </trkpt>
      <trkpt lat="48.08322" lon="-4.26924">
        <ele>14.076416015625</ele>
        <time>2017-04-22T12:52:03Z</time>
      </trkpt>
      <trkpt lat="48.08322" lon="-4.26921">
        <ele>14.076416015625</ele>
        <time>2017-04-22T12:52:05Z</time>
      </trkpt>
      <trkpt lat="48.08324" lon="-4.26913">
        <ele>13.595825195312</ele>
        <time>2017-04-22T12:52:11Z</time>
      </trkpt>
      <trkpt lat="48.08325" lon="-4.26901">
        <ele>14.076416015625</ele>
        <time>2017-04-22T12:52:18Z</time>
      </trkpt>
      <trkpt lat="48.08325" lon="-4.26891">
        <ele>13.115112304688</ele>
        <time>2017-04-22T12:52:24Z</time>
      </trkpt>
      <trkpt lat="48.08325" lon="-4.26888">
        <ele>13.115112304688</ele>
        <time>2017-04-22T12:52:26Z</time>
      </trkpt>
      <trkpt lat="48.08327" lon="-4.26876">
        <ele>13.115112304688</ele>
        <time>2017-04-22T12:52:34Z</time>
      </trkpt>
      <trkpt lat="48.08328" lon="-4.26871">
        <ele>13.115112304688</ele>
        <time>2017-04-22T12:52:37Z</time>
      </trkpt>
      <trkpt lat="48.08333" lon="-4.26862">
        <ele>15.518432617188</ele>
        <time>2017-04-22T12:52:43Z</time>
      </trkpt>
      <trkpt lat="48.08336" lon="-4.26851">
        <ele>18.40234375</ele>
        <time>2017-04-22T12:52:49Z</time>
      </trkpt>
      <trkpt lat="48.08339" lon="-4.26843">
        <ele>18.883056640625</ele>
        <time>2017-04-22T12:52:54Z</time>
      </trkpt>
      <trkpt lat="48.08341" lon="-4.26838">
        <ele>18.883056640625</ele>
        <time>2017-04-22T12:52:58Z</time>
      </trkpt>
      <trkpt lat="48.08344" lon="-4.26832">
        <ele>19.844360351562</ele>
        <time>2017-04-22T12:53:02Z</time>
      </trkpt>
      <trkpt lat="48.08348" lon="-4.26823">
        <ele>21.286376953125</ele>
        <time>2017-04-22T12:53:08Z</time>
      </trkpt>
      <trkpt lat="48.08349" lon="-4.2682">
        <ele>21.766967773438</ele>
        <time>2017-04-22T12:53:10Z</time>
      </trkpt>
      <trkpt lat="48.08351" lon="-4.2681">
        <ele>22.24755859375</ele>
        <time>2017-04-22T12:53:17Z</time>
      </trkpt>
      <trkpt lat="48.08354" lon="-4.26803">
        <ele>21.766967773438</ele>
        <time>2017-04-22T12:53:23Z</time>
      </trkpt>
      <trkpt lat="48.08355" lon="-4.268">
        <ele>21.766967773438</ele>
        <time>2017-04-22T12:53:25Z</time>
      </trkpt>
      <trkpt lat="48.08358" lon="-4.26789">
        <ele>22.728271484375</ele>
        <time>2017-04-22T12:53:33Z</time>
      </trkpt>
      <trkpt lat="48.0836" lon="-4.26783">
        <ele>23.689575195312</ele>
        <time>2017-04-22T12:53:38Z</time>
      </trkpt>
      <trkpt lat="48.0836" lon="-4.26781">
        <ele>23.689575195312</ele>
        <time>2017-04-22T12:53:39Z</time>
      </trkpt>
      <trkpt lat="48.08364" lon="-4.26772">
        <ele>25.131713867188</ele>
        <time>2017-04-22T12:53:46Z</time>
      </trkpt>
      <trkpt lat="48.08365" lon="-4.26771">
        <ele>25.6123046875</ele>
        <time>2017-04-22T12:53:47Z</time>
      </trkpt>
      <trkpt lat="48.08369" lon="-4.26767">
        <ele>26.573608398438</ele>
        <time>2017-04-22T12:53:52Z</time>
      </trkpt>
      <trkpt lat="48.08376" lon="-4.26759">
        <ele>27.054321289062</ele>
        <time>2017-04-22T12:53:59Z</time>
      </trkpt>
      <trkpt lat="48.08379" lon="-4.26756">
        <ele>26.573608398438</ele>
        <time>2017-04-22T12:54:02Z</time>
      </trkpt>
      <trkpt lat="48.08383" lon="-4.26748">
        <ele>27.054321289062</ele>
        <time>2017-04-22T12:54:08Z</time>
      </trkpt>
      <trkpt lat="48.08385" lon="-4.26746">
        <ele>27.534912109375</ele>
        <time>2017-04-22T12:54:10Z</time>
      </trkpt>
      <trkpt lat="48.08389" lon="-4.26739">
        <ele>27.054321289062</ele>
        <time>2017-04-22T12:54:16Z</time>
      </trkpt>
      <trkpt lat="48.08391" lon="-4.26737">
        <ele>27.054321289062</ele>
        <time>2017-04-22T12:54:18Z</time>
      </trkpt>
      <trkpt lat="48.08391" lon="-4.26733">
        <ele>26.573608398438</ele>
        <time>2017-04-22T12:54:21Z</time>
      </trkpt>
      <trkpt lat="48.08393" lon="-4.26726">
        <ele>24.170288085938</ele>
        <time>2017-04-22T12:54:25Z</time>
      </trkpt>
      <trkpt lat="48.08398" lon="-4.26718">
        <ele>23.689575195312</ele>
        <time>2017-04-22T12:54:31Z</time>
      </trkpt>
      <trkpt lat="48.08405" lon="-4.26706">
        <ele>24.170288085938</ele>
        <time>2017-04-22T12:54:38Z</time>
      </trkpt>
      <trkpt lat="48.08406" lon="-4.26705">
        <ele>24.651000976562</ele>
        <time>2017-04-22T12:54:39Z</time>
      </trkpt>
      <trkpt lat="48.08408" lon="-4.26691">
        <ele>27.534912109375</ele>
        <time>2017-04-22T12:54:47Z</time>
      </trkpt>
      <trkpt lat="48.08406" lon="-4.26681">
        <ele>29.45751953125</ele>
        <time>2017-04-22T12:54:53Z</time>
      </trkpt>
      <trkpt lat="48.08402" lon="-4.26674">
        <ele>34.744873046875</ele>
        <time>2017-04-22T12:54:58Z</time>
      </trkpt>
      <trkpt lat="48.08398" lon="-4.26667">
        <ele>38.590087890625</ele>
        <time>2017-04-22T12:55:04Z</time>
      </trkpt>
      <trkpt lat="48.08394" lon="-4.26658">
        <ele>40.993408203125</ele>
        <time>2017-04-22T12:55:11Z</time>
      </trkpt>
      <trkpt lat="48.08391" lon="-4.26651">
        <ele>40.993408203125</ele>
        <time>2017-04-22T12:55:16Z</time>
      </trkpt>
      <trkpt lat="48.08393" lon="-4.26641">
        <ele>39.070678710938</ele>
        <time>2017-04-22T12:55:22Z</time>
      </trkpt>
      <trkpt lat="48.08394" lon="-4.26632">
        <ele>39.070678710938</ele>
        <time>2017-04-22T12:55:28Z</time>
      </trkpt>
      <trkpt lat="48.08393" lon="-4.26632">
        <ele>39.070678710938</ele>
        <time>2017-04-22T12:55:29Z</time>
      </trkpt>
      <trkpt lat="48.08392" lon="-4.26629">
        <ele>38.590087890625</ele>
        <time>2017-04-22T12:55:31Z</time>
      </trkpt>
      <trkpt lat="48.08387" lon="-4.26624">
        <ele>37.148071289062</ele>
        <time>2017-04-22T12:55:37Z</time>
      </trkpt>
      <trkpt lat="48.08385" lon="-4.2662">
        <ele>39.070678710938</ele>
        <time>2017-04-22T12:55:41Z</time>
      </trkpt>
      <trkpt lat="48.08384" lon="-4.26616">
        <ele>40.032104492188</ele>
        <time>2017-04-22T12:55:45Z</time>
      </trkpt>
      <trkpt lat="48.08383" lon="-4.26611">
        <ele>39.55126953125</ele>
        <time>2017-04-22T12:55:50Z</time>
      </trkpt>
      <trkpt lat="48.08382" lon="-4.26605">
        <ele>43.396606445312</ele>
        <time>2017-04-22T12:55:55Z</time>
      </trkpt>
      <trkpt lat="48.0838" lon="-4.26602">
        <ele>41.473999023438</ele>
        <time>2017-04-22T12:55:59Z</time>
      </trkpt>
      <trkpt lat="48.08381" lon="-4.26608">
        <ele>60.2197265625</ele>
        <time>2017-04-22T12:56:13Z</time>
      </trkpt>
      <trkpt lat="48.08377" lon="-4.266">
        <ele>59.258422851562</ele>
        <time>2017-04-22T12:56:18Z</time>
      </trkpt>
      <trkpt lat="48.08376" lon="-4.26599">
        <ele>58.777709960938</ele>
        <time>2017-04-22T12:56:19Z</time>
      </trkpt>
      <trkpt lat="48.08377" lon="-4.26587">
        <ele>51.56787109375</ele>
        <time>2017-04-22T12:56:27Z</time>
      </trkpt>
      <trkpt lat="48.08377" lon="-4.26581">
        <ele>52.048583984375</ele>
        <time>2017-04-22T12:56:32Z</time>
      </trkpt>
      <trkpt lat="48.08376" lon="-4.26576">
        <ele>52.048583984375</ele>
        <time>2017-04-22T12:56:36Z</time>
      </trkpt>
      <trkpt lat="48.08377" lon="-4.26568">
        <ele>50.606567382812</ele>
        <time>2017-04-22T12:56:41Z</time>
      </trkpt>
      <trkpt lat="48.08377" lon="-4.26563">
        <ele>49.16455078125</ele>
        <time>2017-04-22T12:56:45Z</time>
      </trkpt>
      <trkpt lat="48.08377" lon="-4.26557">
        <ele>47.722534179688</ele>
        <time>2017-04-22T12:56:50Z</time>
      </trkpt>
      <trkpt lat="48.08377" lon="-4.26549">
        <ele>46.76123046875</ele>
        <time>2017-04-22T12:56:56Z</time>
      </trkpt>
      <trkpt lat="48.08377" lon="-4.26543">
        <ele>45.799926757812</ele>
        <time>2017-04-22T12:57:01Z</time>
      </trkpt>
      <trkpt lat="48.08377" lon="-4.26536">
        <ele>46.280639648438</ele>
        <time>2017-04-22T12:57:07Z</time>
      </trkpt>
      <trkpt lat="48.08377" lon="-4.26532">
        <ele>49.645263671875</ele>
        <time>2017-04-22T12:57:12Z</time>
      </trkpt>
      <trkpt lat="48.08376" lon="-4.26524">
        <ele>47.722534179688</ele>
        <time>2017-04-22T12:57:20Z</time>
      </trkpt>
      <trkpt lat="48.08373" lon="-4.2652">
        <ele>47.241821289062</ele>
        <time>2017-04-22T12:57:26Z</time>
      </trkpt>
      <trkpt lat="48.08371" lon="-4.26517">
        <ele>51.56787109375</ele>
        <time>2017-04-22T12:57:31Z</time>
      </trkpt>
      <trkpt lat="48.08372" lon="-4.26511">
        <ele>52.529174804688</ele>
        <time>2017-04-22T12:57:37Z</time>
      </trkpt>
      <trkpt lat="48.08371" lon="-4.26505">
        <ele>54.932373046875</ele>
        <time>2017-04-22T12:57:45Z</time>
      </trkpt>
      <trkpt lat="48.0837" lon="-4.26501">
        <ele>58.297119140625</ele>
        <time>2017-04-22T12:57:50Z</time>
      </trkpt>
      <trkpt lat="48.08368" lon="-4.26497">
        <ele>58.297119140625</ele>
        <time>2017-04-22T12:57:54Z</time>
      </trkpt>
      <trkpt lat="48.08364" lon="-4.26496">
        <ele>61.181030273438</ele>
        <time>2017-04-22T12:58:01Z</time>
      </trkpt>
      <trkpt lat="48.08358" lon="-4.26505">
        <ele>64.545654296875</ele>
        <time>2017-04-22T12:58:12Z</time>
      </trkpt>
      <trkpt lat="48.08355" lon="-4.26507">
        <ele>63.103637695312</ele>
        <time>2017-04-22T12:58:21Z</time>
      </trkpt>
      <trkpt lat="48.08356" lon="-4.26514">
        <ele>64.065063476562</ele>
        <time>2017-04-22T12:58:26Z</time>
      </trkpt>
      <trkpt lat="48.08357" lon="-4.26522">
        <ele>62.622924804688</ele>
        <time>2017-04-22T12:58:33Z</time>
      </trkpt>
      <trkpt lat="48.08356" lon="-4.26527">
        <ele>60.2197265625</ele>
        <time>2017-04-22T12:58:38Z</time>
      </trkpt>
      <trkpt lat="48.08353" lon="-4.26525">
        <ele>62.142333984375</ele>
        <time>2017-04-22T12:58:46Z</time>
      </trkpt>
      <trkpt lat="48.08349" lon="-4.26521">
        <ele>62.622924804688</ele>
        <time>2017-04-22T12:58:53Z</time>
      </trkpt>
      <trkpt lat="48.08348" lon="-4.26518">
        <ele>63.103637695312</ele>
        <time>2017-04-22T12:58:59Z</time>
      </trkpt>
      <trkpt lat="48.08344" lon="-4.26516">
        <ele>67.4296875</ele>
        <time>2017-04-22T12:59:07Z</time>
      </trkpt>
      <trkpt lat="48.08339" lon="-4.26513">
        <ele>71.755493164062</ele>
        <time>2017-04-22T12:59:18Z</time>
      </trkpt>
      <trkpt lat="48.08337" lon="-4.26511">
        <ele>75.120239257812</ele>
        <time>2017-04-22T12:59:26Z</time>
      </trkpt>
      <trkpt lat="48.08335" lon="-4.26508">
        <ele>77.5234375</ele>
        <time>2017-04-22T12:59:36Z</time>
      </trkpt>
      <trkpt lat="48.08332" lon="-4.26506">
        <ele>80.407470703125</ele>
        <time>2017-04-22T12:59:42Z</time>
      </trkpt>
      <trkpt lat="48.08323" lon="-4.26502">
        <ele>80.407470703125</ele>
        <time>2017-04-22T12:59:50Z</time>
      </trkpt>
      <trkpt lat="48.08321" lon="-4.26501">
        <ele>80.88818359375</ele>
        <time>2017-04-22T12:59:52Z</time>
      </trkpt>
      <trkpt lat="48.08316" lon="-4.26502">
        <ele>81.368774414062</ele>
        <time>2017-04-22T12:59:58Z</time>
      </trkpt>
      <trkpt lat="48.08311" lon="-4.26496">
        <ele>83.291381835938</ele>
        <time>2017-04-22T13:00:04Z</time>
      </trkpt>
      <trkpt lat="48.0831" lon="-4.26494">
        <ele>83.291381835938</ele>
        <time>2017-04-22T13:00:06Z</time>
      </trkpt>
      <trkpt lat="48.08306" lon="-4.26493">
        <ele>82.330078125</ele>
        <time>2017-04-22T13:00:13Z</time>
      </trkpt>
      <trkpt lat="48.08302" lon="-4.26495">
        <ele>80.407470703125</ele>
        <time>2017-04-22T13:00:24Z</time>
      </trkpt>
      <trkpt lat="48.08299" lon="-4.26504">
        <ele>76.081420898438</ele>
        <time>2017-04-22T13:00:30Z</time>
      </trkpt>
      <trkpt lat="48.08297" lon="-4.26509">
        <ele>75.120239257812</ele>
        <time>2017-04-22T13:00:33Z</time>
      </trkpt>
      <trkpt lat="48.08296" lon="-4.26512">
        <ele>73.197631835938</ele>
        <time>2017-04-22T13:00:36Z</time>
      </trkpt>
      <trkpt lat="48.08291" lon="-4.26518">
        <ele>71.27490234375</ele>
        <time>2017-04-22T13:00:42Z</time>
      </trkpt>
      <trkpt lat="48.08284" lon="-4.26522">
        <ele>66.46826171875</ele>
        <time>2017-04-22T13:00:50Z</time>
      </trkpt>
      <trkpt lat="48.0828" lon="-4.26525">
        <ele>63.584350585938</ele>
        <time>2017-04-22T13:00:55Z</time>
      </trkpt>
      <trkpt lat="48.08279" lon="-4.26526">
        <ele>63.584350585938</ele>
        <time>2017-04-22T13:00:56Z</time>
      </trkpt>
      <trkpt lat="48.08273" lon="-4.26525">
        <ele>64.065063476562</ele>
        <time>2017-04-22T13:01:03Z</time>
      </trkpt>
      <trkpt lat="48.08271" lon="-4.2652">
        <ele>65.0263671875</ele>
        <time>2017-04-22T13:01:09Z</time>
      </trkpt>
      <trkpt lat="48.08271" lon="-4.26516">
        <ele>65.0263671875</ele>
        <time>2017-04-22T13:01:16Z</time>
      </trkpt>
      <trkpt lat="48.0827" lon="-4.26509">
        <ele>67.910278320312</ele>
        <time>2017-04-22T13:01:25Z</time>
      </trkpt>
      <trkpt lat="48.08268" lon="-4.26506">
        <ele>70.3134765625</ele>
        <time>2017-04-22T13:01:32Z</time>
      </trkpt>
      <trkpt lat="48.0827" lon="-4.26501">
        <ele>66.948974609375</ele>
        <time>2017-04-22T13:01:42Z</time>
      </trkpt>
      <trkpt lat="48.08271" lon="-4.26502">
        <ele>67.910278320312</ele>
        <time>2017-04-22T13:01:51Z</time>
      </trkpt>
      <trkpt lat="48.08272" lon="-4.26498">
        <ele>67.4296875</ele>
        <time>2017-04-22T13:01:58Z</time>
      </trkpt>
      <trkpt lat="48.08271" lon="-4.265">
        <ele>68.87158203125</ele>
        <time>2017-04-22T13:02:06Z</time>
      </trkpt>
      <trkpt lat="48.08272" lon="-4.26506">
        <ele>69.352294921875</ele>
        <time>2017-04-22T13:02:12Z</time>
      </trkpt>
      <trkpt lat="48.08273" lon="-4.2651">
        <ele>69.352294921875</ele>
        <time>2017-04-22T13:02:22Z</time>
      </trkpt>
      <trkpt lat="48.08273" lon="-4.26507">
        <ele>69.352294921875</ele>
        <time>2017-04-22T13:02:29Z</time>
      </trkpt>
      <trkpt lat="48.08273" lon="-4.26509">
        <ele>67.4296875</ele>
        <time>2017-04-22T13:02:35Z</time>
      </trkpt>
      <trkpt lat="48.08272" lon="-4.26507">
        <ele>65.507080078125</ele>
        <time>2017-04-22T13:02:46Z</time>
      </trkpt>
      <trkpt lat="48.08268" lon="-4.26507">
        <ele>62.142333984375</ele>
        <time>2017-04-22T13:03:32Z</time>
      </trkpt>
      <trkpt lat="48.08268" lon="-4.26513">
        <ele>63.584350585938</ele>
        <time>2017-04-22T13:03:42Z</time>
      </trkpt>
      <trkpt lat="48.08266" lon="-4.26508">
        <ele>69.832885742188</ele>
        <time>2017-04-22T13:03:51Z</time>
      </trkpt>
      <trkpt lat="48.08267" lon="-4.26509">
        <ele>65.0263671875</ele>
        <time>2017-04-22T13:04:04Z</time>
      </trkpt>
      <trkpt lat="48.08267" lon="-4.26508">
        <ele>65.507080078125</ele>
        <time>2017-04-22T13:04:14Z</time>
      </trkpt>
      <trkpt lat="48.0827" lon="-4.26511">
        <ele>67.4296875</ele>
        <time>2017-04-22T13:04:25Z</time>
      </trkpt>
      <trkpt lat="48.08276" lon="-4.26513">
        <ele>69.352294921875</ele>
        <time>2017-04-22T13:04:43Z</time>
      </trkpt>
      <trkpt lat="48.08274" lon="-4.26507">
        <ele>69.352294921875</ele>
        <time>2017-04-22T13:05:14Z</time>
      </trkpt>
      <trkpt lat="48.08271" lon="-4.26509">
        <ele>72.236206054688</ele>
        <time>2017-04-22T13:05:29Z</time>
      </trkpt>
      <trkpt lat="48.08271" lon="-4.26507">
        <ele>70.794189453125</ele>
        <time>2017-04-22T13:05:40Z</time>
      </trkpt>
      <trkpt lat="48.08269" lon="-4.26505">
        <ele>72.236206054688</ele>
        <time>2017-04-22T13:05:53Z</time>
      </trkpt>
      <trkpt lat="48.08266" lon="-4.26506">
        <ele>75.600830078125</ele>
        <time>2017-04-22T13:06:07Z</time>
      </trkpt>
      <trkpt lat="48.08268" lon="-4.26508">
        <ele>76.562133789062</ele>
        <time>2017-04-22T13:06:21Z</time>
      </trkpt>
      <trkpt lat="48.08271" lon="-4.26511">
        <ele>77.5234375</ele>
        <time>2017-04-22T13:06:37Z</time>
      </trkpt>
      <trkpt lat="48.08271" lon="-4.26511">
        <ele>75.120239257812</ele>
        <time>2017-04-22T13:06:49Z</time>
      </trkpt>
      <trkpt lat="48.08272" lon="-4.2651">
        <ele>74.158813476562</ele>
        <time>2017-04-22T13:06:55Z</time>
      </trkpt>
      <trkpt lat="48.08273" lon="-4.26511">
        <ele>74.158813476562</ele>
        <time>2017-04-22T13:07:04Z</time>
      </trkpt>
      <trkpt lat="48.08272" lon="-4.26511">
        <ele>76.081420898438</ele>
        <time>2017-04-22T13:07:14Z</time>
      </trkpt>
      <trkpt lat="48.08269" lon="-4.26512">
        <ele>75.600830078125</ele>
        <time>2017-04-22T13:07:25Z</time>
      </trkpt>
      <trkpt lat="48.08272" lon="-4.26515">
        <ele>72.236206054688</ele>
        <time>2017-04-22T13:07:31Z</time>
      </trkpt>
      <trkpt lat="48.08271" lon="-4.26522">
        <ele>70.794189453125</ele>
        <time>2017-04-22T13:07:36Z</time>
      </trkpt>
      <trkpt lat="48.08271" lon="-4.26527">
        <ele>68.390869140625</ele>
        <time>2017-04-22T13:07:40Z</time>
      </trkpt>
      <trkpt lat="48.0827" lon="-4.26534">
        <ele>65.507080078125</ele>
        <time>2017-04-22T13:07:46Z</time>
      </trkpt>
      <trkpt lat="48.08266" lon="-4.26538">
        <ele>64.545654296875</ele>
        <time>2017-04-22T13:07:51Z</time>
      </trkpt>
      <trkpt lat="48.08263" lon="-4.2654">
        <ele>64.065063476562</ele>
        <time>2017-04-22T13:07:55Z</time>
      </trkpt>
      <trkpt lat="48.08254" lon="-4.26542">
        <ele>61.181030273438</ele>
        <time>2017-04-22T13:08:03Z</time>
      </trkpt>
      <trkpt lat="48.08251" lon="-4.26543">
        <ele>60.700317382812</ele>
        <time>2017-04-22T13:08:06Z</time>
      </trkpt>
      <trkpt lat="48.08248" lon="-4.26543">
        <ele>60.700317382812</ele>
        <time>2017-04-22T13:08:10Z</time>
      </trkpt>
      <trkpt lat="48.08244" lon="-4.26543">
        <ele>60.700317382812</ele>
        <time>2017-04-22T13:08:13Z</time>
      </trkpt>
      <trkpt lat="48.08238" lon="-4.26542">
        <ele>59.258422851562</ele>
        <time>2017-04-22T13:08:18Z</time>
      </trkpt>
      <trkpt lat="48.0823" lon="-4.26542">
        <ele>57.816528320312</ele>
        <time>2017-04-22T13:08:26Z</time>
      </trkpt>
      <trkpt lat="48.08227" lon="-4.26542">
        <ele>57.816528320312</ele>
        <time>2017-04-22T13:08:28Z</time>
      </trkpt>
      <trkpt lat="48.08223" lon="-4.26541">
        <ele>59.739135742188</ele>
        <time>2017-04-22T13:08:31Z</time>
      </trkpt>
      <trkpt lat="48.08216" lon="-4.26543">
        <ele>59.258422851562</ele>
        <time>2017-04-22T13:08:37Z</time>
      </trkpt>
      <trkpt lat="48.08209" lon="-4.26544">
        <ele>61.181030273438</ele>
        <time>2017-04-22T13:08:43Z</time>
      </trkpt>
      <trkpt lat="48.08205" lon="-4.26541">
        <ele>60.2197265625</ele>
        <time>2017-04-22T13:08:48Z</time>
      </trkpt>
      <trkpt lat="48.08199" lon="-4.26541">
        <ele>59.258422851562</ele>
        <time>2017-04-22T13:08:52Z</time>
      </trkpt>
      <trkpt lat="48.08193" lon="-4.2654">
        <ele>61.661743164062</ele>
        <time>2017-04-22T13:08:57Z</time>
      </trkpt>
      <trkpt lat="48.08192" lon="-4.26531">
        <ele>63.584350585938</ele>
        <time>2017-04-22T13:09:04Z</time>
      </trkpt>
      <trkpt lat="48.0819" lon="-4.26525">
        <ele>64.545654296875</ele>
        <time>2017-04-22T13:09:08Z</time>
      </trkpt>
      <trkpt lat="48.08187" lon="-4.26514">
        <ele>65.0263671875</ele>
        <time>2017-04-22T13:09:14Z</time>
      </trkpt>
      <trkpt lat="48.08185" lon="-4.26511">
        <ele>65.0263671875</ele>
        <time>2017-04-22T13:09:17Z</time>
      </trkpt>
      <trkpt lat="48.08183" lon="-4.26502">
        <ele>63.103637695312</ele>
        <time>2017-04-22T13:09:22Z</time>
      </trkpt>
      <trkpt lat="48.08182" lon="-4.26495">
        <ele>61.661743164062</ele>
        <time>2017-04-22T13:09:29Z</time>
      </trkpt>
      <trkpt lat="48.08183" lon="-4.26494">
        <ele>58.777709960938</ele>
        <time>2017-04-22T13:09:43Z</time>
      </trkpt>
      <trkpt lat="48.08186" lon="-4.26502">
        <ele>57.816528320312</ele>
        <time>2017-04-22T13:09:49Z</time>
      </trkpt>
      <trkpt lat="48.08187" lon="-4.26507">
        <ele>57.335815429688</ele>
        <time>2017-04-22T13:09:52Z</time>
      </trkpt>
      <trkpt lat="48.0819" lon="-4.26515">
        <ele>58.297119140625</ele>
        <time>2017-04-22T13:09:57Z</time>
      </trkpt>
      <trkpt lat="48.0819" lon="-4.26518">
        <ele>58.777709960938</ele>
        <time>2017-04-22T13:09:59Z</time>
      </trkpt>
      <trkpt lat="48.0819" lon="-4.26522">
        <ele>58.777709960938</ele>
        <time>2017-04-22T13:10:01Z</time>
      </trkpt>
      <trkpt lat="48.08187" lon="-4.26532">
        <ele>58.777709960938</ele>
        <time>2017-04-22T13:10:07Z</time>
      </trkpt>
      <trkpt lat="48.08186" lon="-4.26535">
        <ele>58.777709960938</ele>
        <time>2017-04-22T13:10:09Z</time>
      </trkpt>
      <trkpt lat="48.08175" lon="-4.26535">
        <ele>57.335815429688</ele>
        <time>2017-04-22T13:10:17Z</time>
      </trkpt>
      <trkpt lat="48.08171" lon="-4.26534">
        <ele>56.855102539062</ele>
        <time>2017-04-22T13:10:20Z</time>
      </trkpt>
      <trkpt lat="48.08165" lon="-4.26534">
        <ele>55.893798828125</ele>
        <time>2017-04-22T13:10:25Z</time>
      </trkpt>
      <trkpt lat="48.08163" lon="-4.26534">
        <ele>55.4130859375</ele>
        <time>2017-04-22T13:10:26Z</time>
      </trkpt>
      <trkpt lat="48.08156" lon="-4.26535">
        <ele>54.451782226562</ele>
        <time>2017-04-22T13:10:32Z</time>
      </trkpt>
      <trkpt lat="48.0815" lon="-4.26534">
        <ele>52.529174804688</ele>
        <time>2017-04-22T13:10:38Z</time>
      </trkpt>
      <trkpt lat="48.08149" lon="-4.26534">
        <ele>52.048583984375</ele>
        <time>2017-04-22T13:10:39Z</time>
      </trkpt>
      <trkpt lat="48.08141" lon="-4.26531">
        <ele>50.1259765625</ele>
        <time>2017-04-22T13:10:47Z</time>
      </trkpt>
      <trkpt lat="48.08132" lon="-4.26531">
        <ele>49.645263671875</ele>
        <time>2017-04-22T13:10:55Z</time>
      </trkpt>
      <trkpt lat="48.0813" lon="-4.26529">
        <ele>49.16455078125</ele>
        <time>2017-04-22T13:10:57Z</time>
      </trkpt>
      <trkpt lat="48.08125" lon="-4.26527">
        <ele>48.683959960938</ele>
        <time>2017-04-22T13:11:02Z</time>
      </trkpt>
      <trkpt lat="48.08117" lon="-4.26525">
        <ele>47.722534179688</ele>
        <time>2017-04-22T13:11:10Z</time>
      </trkpt>
      <trkpt lat="48.08112" lon="-4.26524">
        <ele>50.1259765625</ele>
        <time>2017-04-22T13:11:13Z</time>
      </trkpt>
      <trkpt lat="48.08104" lon="-4.26523">
        <ele>52.529174804688</ele>
        <time>2017-04-22T13:11:18Z</time>
      </trkpt>
      <trkpt lat="48.08092" lon="-4.26521">
        <ele>57.335815429688</ele>
        <time>2017-04-22T13:11:26Z</time>
      </trkpt>
      <trkpt lat="48.08085" lon="-4.26518">
        <ele>57.335815429688</ele>
        <time>2017-04-22T13:11:32Z</time>
      </trkpt>
      <trkpt lat="48.08081" lon="-4.26516">
        <ele>56.855102539062</ele>
        <time>2017-04-22T13:11:36Z</time>
      </trkpt>
      <trkpt lat="48.08074" lon="-4.26512">
        <ele>57.816528320312</ele>
        <time>2017-04-22T13:11:42Z</time>
      </trkpt>
      <trkpt lat="48.08067" lon="-4.26508">
        <ele>58.777709960938</ele>
        <time>2017-04-22T13:11:48Z</time>
      </trkpt>
      <trkpt lat="48.08059" lon="-4.26505">
        <ele>59.258422851562</ele>
        <time>2017-04-22T13:11:55Z</time>
      </trkpt>
      <trkpt lat="48.08058" lon="-4.26504">
        <ele>59.258422851562</ele>
        <time>2017-04-22T13:11:56Z</time>
      </trkpt>
      <trkpt lat="48.08057" lon="-4.26502">
        <ele>59.258422851562</ele>
        <time>2017-04-22T13:11:58Z</time>
      </trkpt>
      <trkpt lat="48.08047" lon="-4.26495">
        <ele>60.2197265625</ele>
        <time>2017-04-22T13:12:06Z</time>
      </trkpt>
      <trkpt lat="48.08035" lon="-4.2649">
        <ele>61.181030273438</ele>
        <time>2017-04-22T13:12:14Z</time>
      </trkpt>
      <trkpt lat="48.08028" lon="-4.26483">
        <ele>61.181030273438</ele>
        <time>2017-04-22T13:12:21Z</time>
      </trkpt>
      <trkpt lat="48.08022" lon="-4.26481">
        <ele>62.142333984375</ele>
        <time>2017-04-22T13:12:26Z</time>
      </trkpt>
      <trkpt lat="48.08017" lon="-4.26478">
        <ele>62.142333984375</ele>
        <time>2017-04-22T13:12:31Z</time>
      </trkpt>
      <trkpt lat="48.0801" lon="-4.26472">
        <ele>62.622924804688</ele>
        <time>2017-04-22T13:12:37Z</time>
      </trkpt>
      <trkpt lat="48.08004" lon="-4.26462">
        <ele>62.622924804688</ele>
        <time>2017-04-22T13:12:45Z</time>
      </trkpt>
      <trkpt lat="48.08" lon="-4.26451">
        <ele>62.142333984375</ele>
        <time>2017-04-22T13:12:51Z</time>
      </trkpt>
      <trkpt lat="48.07995" lon="-4.26441">
        <ele>62.622924804688</ele>
        <time>2017-04-22T13:12:58Z</time>
      </trkpt>
      <trkpt lat="48.07988" lon="-4.26429">
        <ele>62.622924804688</ele>
        <time>2017-04-22T13:13:06Z</time>
      </trkpt>
      <trkpt lat="48.07985" lon="-4.26421">
        <ele>62.622924804688</ele>
        <time>2017-04-22T13:13:10Z</time>
      </trkpt>
      <trkpt lat="48.0798" lon="-4.26412">
        <ele>63.584350585938</ele>
        <time>2017-04-22T13:13:17Z</time>
      </trkpt>
      <trkpt lat="48.07976" lon="-4.26408">
        <ele>64.065063476562</ele>
        <time>2017-04-22T13:13:21Z</time>
      </trkpt>
      <trkpt lat="48.07971" lon="-4.26399">
        <ele>63.103637695312</ele>
        <time>2017-04-22T13:13:27Z</time>
      </trkpt>
      <trkpt lat="48.07968" lon="-4.26393">
        <ele>62.622924804688</ele>
        <time>2017-04-22T13:13:30Z</time>
      </trkpt>
      <trkpt lat="48.07965" lon="-4.26384">
        <ele>62.622924804688</ele>
        <time>2017-04-22T13:13:35Z</time>
      </trkpt>
      <trkpt lat="48.07958" lon="-4.26375">
        <ele>60.700317382812</ele>
        <time>2017-04-22T13:13:42Z</time>
      </trkpt>
      <trkpt lat="48.07955" lon="-4.26372">
        <ele>59.739135742188</ele>
        <time>2017-04-22T13:13:45Z</time>
      </trkpt>
      <trkpt lat="48.07947" lon="-4.26368">
        <ele>58.777709960938</ele>
        <time>2017-04-22T13:13:51Z</time>
      </trkpt>
      <trkpt lat="48.07939" lon="-4.26363">
        <ele>56.855102539062</ele>
        <time>2017-04-22T13:13:59Z</time>
      </trkpt>
      <trkpt lat="48.07933" lon="-4.26361">
        <ele>54.451782226562</ele>
        <time>2017-04-22T13:14:04Z</time>
      </trkpt>
      <trkpt lat="48.07927" lon="-4.26359">
        <ele>52.529174804688</ele>
        <time>2017-04-22T13:14:10Z</time>
      </trkpt>
      <trkpt lat="48.07925" lon="-4.26359">
        <ele>52.529174804688</ele>
        <time>2017-04-22T13:14:12Z</time>
      </trkpt>
      <trkpt lat="48.07919" lon="-4.26353">
        <ele>53.97119140625</ele>
        <time>2017-04-22T13:14:18Z</time>
      </trkpt>
      <trkpt lat="48.07918" lon="-4.2635">
        <ele>54.451782226562</ele>
        <time>2017-04-22T13:14:20Z</time>
      </trkpt>
      <trkpt lat="48.07919" lon="-4.26343">
        <ele>56.855102539062</ele>
        <time>2017-04-22T13:14:25Z</time>
      </trkpt>
      <trkpt lat="48.07919" lon="-4.26336">
        <ele>57.335815429688</ele>
        <time>2017-04-22T13:14:32Z</time>
      </trkpt>
      <trkpt lat="48.0792" lon="-4.2633">
        <ele>57.335815429688</ele>
        <time>2017-04-22T13:14:37Z</time>
      </trkpt>
      <trkpt lat="48.07921" lon="-4.26321">
        <ele>59.258422851562</ele>
        <time>2017-04-22T13:14:45Z</time>
      </trkpt>
      <trkpt lat="48.07921" lon="-4.26311">
        <ele>60.2197265625</ele>
        <time>2017-04-22T13:14:51Z</time>
      </trkpt>
      <trkpt lat="48.07922" lon="-4.26306">
        <ele>60.700317382812</ele>
        <time>2017-04-22T13:14:55Z</time>
      </trkpt>
      <trkpt lat="48.07924" lon="-4.26297">
        <ele>63.584350585938</ele>
        <time>2017-04-22T13:15:02Z</time>
      </trkpt>
      <trkpt lat="48.07926" lon="-4.26285">
        <ele>62.622924804688</ele>
        <time>2017-04-22T13:15:10Z</time>
      </trkpt>
      <trkpt lat="48.07928" lon="-4.26276">
        <ele>61.181030273438</ele>
        <time>2017-04-22T13:15:17Z</time>
      </trkpt>
      <trkpt lat="48.07929" lon="-4.26269">
        <ele>59.739135742188</ele>
        <time>2017-04-22T13:15:22Z</time>
      </trkpt>
      <trkpt lat="48.0793" lon="-4.26267">
        <ele>59.739135742188</ele>
        <time>2017-04-22T13:15:23Z</time>
      </trkpt>
      <trkpt lat="48.07931" lon="-4.26261">
        <ele>60.2197265625</ele>
        <time>2017-04-22T13:15:27Z</time>
      </trkpt>
      <trkpt lat="48.07934" lon="-4.2625">
        <ele>60.2197265625</ele>
        <time>2017-04-22T13:15:35Z</time>
      </trkpt>
      <trkpt lat="48.07936" lon="-4.26238">
        <ele>62.142333984375</ele>
        <time>2017-04-22T13:15:42Z</time>
      </trkpt>
      <trkpt lat="48.07937" lon="-4.26233">
        <ele>63.103637695312</ele>
        <time>2017-04-22T13:15:45Z</time>
      </trkpt>
      <trkpt lat="48.07941" lon="-4.26222">
        <ele>61.661743164062</ele>
        <time>2017-04-22T13:15:52Z</time>
      </trkpt>
      <trkpt lat="48.07942" lon="-4.26221">
        <ele>61.181030273438</ele>
        <time>2017-04-22T13:15:53Z</time>
      </trkpt>
      <trkpt lat="48.07944" lon="-4.26214">
        <ele>59.739135742188</ele>
        <time>2017-04-22T13:15:58Z</time>
      </trkpt>
      <trkpt lat="48.07945" lon="-4.26207">
        <ele>60.700317382812</ele>
        <time>2017-04-22T13:16:01Z</time>
      </trkpt>
      <trkpt lat="48.07948" lon="-4.26195">
        <ele>62.622924804688</ele>
        <time>2017-04-22T13:16:08Z</time>
      </trkpt>
      <trkpt lat="48.07948" lon="-4.26194">
        <ele>63.103637695312</ele>
        <time>2017-04-22T13:16:09Z</time>
      </trkpt>
      <trkpt lat="48.07947" lon="-4.26191">
        <ele>63.103637695312</ele>
        <time>2017-04-22T13:16:11Z</time>
      </trkpt>
      <trkpt lat="48.0795" lon="-4.26181">
        <ele>62.622924804688</ele>
        <time>2017-04-22T13:16:17Z</time>
      </trkpt>
      <trkpt lat="48.07952" lon="-4.26174">
        <ele>60.700317382812</ele>
        <time>2017-04-22T13:16:21Z</time>
      </trkpt>
      <trkpt lat="48.07951" lon="-4.26166">
        <ele>61.661743164062</ele>
        <time>2017-04-22T13:16:25Z</time>
      </trkpt>
      <trkpt lat="48.07953" lon="-4.2616">
        <ele>61.661743164062</ele>
        <time>2017-04-22T13:16:29Z</time>
      </trkpt>
      <trkpt lat="48.07955" lon="-4.26155">
        <ele>62.622924804688</ele>
        <time>2017-04-22T13:16:32Z</time>
      </trkpt>
      <trkpt lat="48.07956" lon="-4.2615">
        <ele>63.584350585938</ele>
        <time>2017-04-22T13:16:39Z</time>
      </trkpt>
      <trkpt lat="48.07957" lon="-4.2614">
        <ele>63.584350585938</ele>
        <time>2017-04-22T13:16:45Z</time>
      </trkpt>
      <trkpt lat="48.07957" lon="-4.26137">
        <ele>63.584350585938</ele>
        <time>2017-04-22T13:16:47Z</time>
      </trkpt>
      <trkpt lat="48.07958" lon="-4.26129">
        <ele>65.987670898438</ele>
        <time>2017-04-22T13:16:52Z</time>
      </trkpt>
      <trkpt lat="48.07958" lon="-4.2612">
        <ele>68.87158203125</ele>
        <time>2017-04-22T13:16:59Z</time>
      </trkpt>
      <trkpt lat="48.07958" lon="-4.26112">
        <ele>71.27490234375</ele>
        <time>2017-04-22T13:17:05Z</time>
      </trkpt>
      <trkpt lat="48.0796" lon="-4.26107">
        <ele>71.755493164062</ele>
        <time>2017-04-22T13:17:08Z</time>
      </trkpt>
      <trkpt lat="48.07961" lon="-4.26098">
        <ele>71.755493164062</ele>
        <time>2017-04-22T13:17:13Z</time>
      </trkpt>
      <trkpt lat="48.07963" lon="-4.26089">
        <ele>72.716918945312</ele>
        <time>2017-04-22T13:17:18Z</time>
      </trkpt>
      <trkpt lat="48.07964" lon="-4.26083">
        <ele>73.67822265625</ele>
        <time>2017-04-22T13:17:21Z</time>
      </trkpt>
      <trkpt lat="48.07964" lon="-4.26071">
        <ele>73.197631835938</ele>
        <time>2017-04-22T13:17:27Z</time>
      </trkpt>
      <trkpt lat="48.07965" lon="-4.26061">
        <ele>73.67822265625</ele>
        <time>2017-04-22T13:17:32Z</time>
      </trkpt>
      <trkpt lat="48.07969" lon="-4.26044">
        <ele>77.042846679688</ele>
        <time>2017-04-22T13:17:42Z</time>
      </trkpt>
      <trkpt lat="48.0797" lon="-4.26034">
        <ele>78.004028320312</ele>
        <time>2017-04-22T13:17:49Z</time>
      </trkpt>
      <trkpt lat="48.07971" lon="-4.26031">
        <ele>78.965454101562</ele>
        <time>2017-04-22T13:17:51Z</time>
      </trkpt>
      <trkpt lat="48.07973" lon="-4.26022">
        <ele>78.965454101562</ele>
        <time>2017-04-22T13:17:56Z</time>
      </trkpt>
      <trkpt lat="48.07973" lon="-4.26019">
        <ele>78.965454101562</ele>
        <time>2017-04-22T13:17:58Z</time>
      </trkpt>
      <trkpt lat="48.07974" lon="-4.26015">
        <ele>78.484741210938</ele>
        <time>2017-04-22T13:18:01Z</time>
      </trkpt>
      <trkpt lat="48.07975" lon="-4.2601">
        <ele>78.004028320312</ele>
        <time>2017-04-22T13:18:04Z</time>
      </trkpt>
      <trkpt lat="48.07976" lon="-4.26003">
        <ele>76.562133789062</ele>
        <time>2017-04-22T13:18:08Z</time>
      </trkpt>
      <trkpt lat="48.07976" lon="-4.25999">
        <ele>75.120239257812</ele>
        <time>2017-04-22T13:18:10Z</time>
      </trkpt>
      <trkpt lat="48.07978" lon="-4.25991">
        <ele>76.562133789062</ele>
        <time>2017-04-22T13:18:15Z</time>
      </trkpt>
      <trkpt lat="48.07979" lon="-4.25987">
        <ele>75.600830078125</ele>
        <time>2017-04-22T13:18:18Z</time>
      </trkpt>
      <trkpt lat="48.07982" lon="-4.25979">
        <ele>76.081420898438</ele>
        <time>2017-04-22T13:18:23Z</time>
      </trkpt>
      <trkpt lat="48.07984" lon="-4.25975">
        <ele>74.158813476562</ele>
        <time>2017-04-22T13:18:26Z</time>
      </trkpt>
      <trkpt lat="48.07988" lon="-4.25965">
        <ele>73.197631835938</ele>
        <time>2017-04-22T13:18:33Z</time>
      </trkpt>
      <trkpt lat="48.07989" lon="-4.25964">
        <ele>72.716918945312</ele>
        <time>2017-04-22T13:18:34Z</time>
      </trkpt>
      <trkpt lat="48.07991" lon="-4.25958">
        <ele>70.3134765625</ele>
        <time>2017-04-22T13:18:38Z</time>
      </trkpt>
      <trkpt lat="48.07996" lon="-4.25951">
        <ele>67.910278320312</ele>
        <time>2017-04-22T13:18:45Z</time>
      </trkpt>
      <trkpt lat="48.08001" lon="-4.25944">
        <ele>66.46826171875</ele>
        <time>2017-04-22T13:18:53Z</time>
      </trkpt>
      <trkpt lat="48.08005" lon="-4.2594">
        <ele>66.46826171875</ele>
        <time>2017-04-22T13:18:58Z</time>
      </trkpt>
      <trkpt lat="48.08008" lon="-4.25936">
        <ele>65.987670898438</ele>
        <time>2017-04-22T13:19:02Z</time>
      </trkpt>
      <trkpt lat="48.08013" lon="-4.25925">
        <ele>68.87158203125</ele>
        <time>2017-04-22T13:19:09Z</time>
      </trkpt>
      <trkpt lat="48.08013" lon="-4.25924">
        <ele>69.352294921875</ele>
        <time>2017-04-22T13:19:10Z</time>
      </trkpt>
      <trkpt lat="48.08019" lon="-4.25913">
        <ele>70.794189453125</ele>
        <time>2017-04-22T13:19:18Z</time>
      </trkpt>
      <trkpt lat="48.08025" lon="-4.25903">
        <ele>72.716918945312</ele>
        <time>2017-04-22T13:19:25Z</time>
      </trkpt>
      <trkpt lat="48.0803" lon="-4.25894">
        <ele>74.158813476562</ele>
        <time>2017-04-22T13:19:32Z</time>
      </trkpt>
      <trkpt lat="48.08032" lon="-4.25892">
        <ele>74.158813476562</ele>
        <time>2017-04-22T13:19:34Z</time>
      </trkpt>
      <trkpt lat="48.08036" lon="-4.25885">
        <ele>75.120239257812</ele>
        <time>2017-04-22T13:19:39Z</time>
      </trkpt>
      <trkpt lat="48.08042" lon="-4.25875">
        <ele>75.600830078125</ele>
        <time>2017-04-22T13:19:47Z</time>
      </trkpt>
      <trkpt lat="48.08046" lon="-4.25867">
        <ele>76.081420898438</ele>
        <time>2017-04-22T13:19:52Z</time>
      </trkpt>
      <trkpt lat="48.08048" lon="-4.25855">
        <ele>75.120239257812</ele>
        <time>2017-04-22T13:19:58Z</time>
      </trkpt>
      <trkpt lat="48.0805" lon="-4.25848">
        <ele>75.120239257812</ele>
        <time>2017-04-22T13:20:03Z</time>
      </trkpt>
      <trkpt lat="48.08055" lon="-4.25852">
        <ele>75.120239257812</ele>
        <time>2017-04-22T13:20:09Z</time>
      </trkpt>
      <trkpt lat="48.08057" lon="-4.25854">
        <ele>75.600830078125</ele>
        <time>2017-04-22T13:20:11Z</time>
      </trkpt>
      <trkpt lat="48.08066" lon="-4.25862">
        <ele>76.081420898438</ele>
        <time>2017-04-22T13:20:19Z</time>
      </trkpt>
      <trkpt lat="48.08073" lon="-4.25868">
        <ele>76.562133789062</ele>
        <time>2017-04-22T13:20:25Z</time>
      </trkpt>
      <trkpt lat="48.0808" lon="-4.2587">
        <ele>76.081420898438</ele>
        <time>2017-04-22T13:20:29Z</time>
      </trkpt>
      <trkpt lat="48.08086" lon="-4.25876">
        <ele>73.67822265625</ele>
        <time>2017-04-22T13:20:36Z</time>
      </trkpt>
      <trkpt lat="48.08087" lon="-4.25877">
        <ele>73.67822265625</ele>
        <time>2017-04-22T13:20:37Z</time>
      </trkpt>
      <trkpt lat="48.08089" lon="-4.2588">
        <ele>72.716918945312</ele>
        <time>2017-04-22T13:20:40Z</time>
      </trkpt>
      <trkpt lat="48.08098" lon="-4.25884">
        <ele>71.27490234375</ele>
        <time>2017-04-22T13:20:47Z</time>
      </trkpt>
      <trkpt lat="48.08104" lon="-4.25887">
        <ele>70.794189453125</ele>
        <time>2017-04-22T13:20:52Z</time>
      </trkpt>
      <trkpt lat="48.08111" lon="-4.25891">
        <ele>70.3134765625</ele>
        <time>2017-04-22T13:20:58Z</time>
      </trkpt>
      <trkpt lat="48.08115" lon="-4.25892">
        <ele>69.832885742188</ele>
        <time>2017-04-22T13:21:01Z</time>
      </trkpt>
      <trkpt lat="48.08122" lon="-4.25894">
        <ele>69.832885742188</ele>
        <time>2017-04-22T13:21:07Z</time>
      </trkpt>
      <trkpt lat="48.08128" lon="-4.25894">
        <ele>69.352294921875</ele>
        <time>2017-04-22T13:21:11Z</time>
      </trkpt>
      <trkpt lat="48.08137" lon="-4.25896">
        <ele>69.352294921875</ele>
        <time>2017-04-22T13:21:18Z</time>
      </trkpt>
      <trkpt lat="48.0814" lon="-4.25897">
        <ele>69.352294921875</ele>
        <time>2017-04-22T13:21:21Z</time>
      </trkpt>
      <trkpt lat="48.08145" lon="-4.25896">
        <ele>68.87158203125</ele>
        <time>2017-04-22T13:21:25Z</time>
      </trkpt>
      <trkpt lat="48.08148" lon="-4.25895">
        <ele>68.390869140625</ele>
        <time>2017-04-22T13:21:28Z</time>
      </trkpt>
      <trkpt lat="48.08156" lon="-4.2589">
        <ele>68.87158203125</ele>
        <time>2017-04-22T13:21:34Z</time>
      </trkpt>
      <trkpt lat="48.08162" lon="-4.25884">
        <ele>70.3134765625</ele>
        <time>2017-04-22T13:21:39Z</time>
      </trkpt>
      <trkpt lat="48.0817" lon="-4.25876">
        <ele>72.236206054688</ele>
        <time>2017-04-22T13:21:45Z</time>
      </trkpt>
      <trkpt lat="48.08178" lon="-4.25861">
        <ele>76.562133789062</ele>
        <time>2017-04-22T13:21:56Z</time>
      </trkpt>
      <trkpt lat="48.08187" lon="-4.25853">
        <ele>76.081420898438</ele>
        <time>2017-04-22T13:22:04Z</time>
      </trkpt>
      <trkpt lat="48.08196" lon="-4.25845">
        <ele>73.67822265625</ele>
        <time>2017-04-22T13:22:12Z</time>
      </trkpt>
      <trkpt lat="48.08203" lon="-4.2584">
        <ele>70.3134765625</ele>
        <time>2017-04-22T13:22:18Z</time>
      </trkpt>
      <trkpt lat="48.08208" lon="-4.25839">
        <ele>71.27490234375</ele>
        <time>2017-04-22T13:22:22Z</time>
      </trkpt>
      <trkpt lat="48.08209" lon="-4.25837">
        <ele>68.87158203125</ele>
        <time>2017-04-22T13:22:25Z</time>
      </trkpt>
      <trkpt lat="48.08224" lon="-4.25834">
        <ele>76.081420898438</ele>
        <time>2017-04-22T13:22:33Z</time>
      </trkpt>
      <trkpt lat="48.08233" lon="-4.25833">
        <ele>80.88818359375</ele>
        <time>2017-04-22T13:22:39Z</time>
      </trkpt>
      <trkpt lat="48.0824" lon="-4.25832">
        <ele>82.810791015625</ele>
        <time>2017-04-22T13:22:44Z</time>
      </trkpt>
      <trkpt lat="48.08246" lon="-4.25831">
        <ele>82.330078125</ele>
        <time>2017-04-22T13:22:50Z</time>
      </trkpt>
      <trkpt lat="48.08253" lon="-4.25826">
        <ele>80.88818359375</ele>
        <time>2017-04-22T13:22:57Z</time>
      </trkpt>
      <trkpt lat="48.08263" lon="-4.25819">
        <ele>80.88818359375</ele>
        <time>2017-04-22T13:23:05Z</time>
      </trkpt>
      <trkpt lat="48.08268" lon="-4.25814">
        <ele>82.810791015625</ele>
        <time>2017-04-22T13:23:11Z</time>
      </trkpt>
      <trkpt lat="48.08269" lon="-4.25813">
        <ele>82.810791015625</ele>
        <time>2017-04-22T13:23:12Z</time>
      </trkpt>
      <trkpt lat="48.08274" lon="-4.25809">
        <ele>87.136596679688</ele>
        <time>2017-04-22T13:23:18Z</time>
      </trkpt>
      <trkpt lat="48.08277" lon="-4.25806">
        <ele>87.136596679688</ele>
        <time>2017-04-22T13:23:22Z</time>
      </trkpt>
      <trkpt lat="48.08283" lon="-4.25799">
        <ele>88.578735351562</ele>
        <time>2017-04-22T13:23:28Z</time>
      </trkpt>
      <trkpt lat="48.08284" lon="-4.25796">
        <ele>88.098022460938</ele>
        <time>2017-04-22T13:23:31Z</time>
      </trkpt>
      <trkpt lat="48.08287" lon="-4.25792">
        <ele>88.578735351562</ele>
        <time>2017-04-22T13:23:35Z</time>
      </trkpt>
      <trkpt lat="48.08293" lon="-4.25789">
        <ele>88.578735351562</ele>
        <time>2017-04-22T13:23:43Z</time>
      </trkpt>
      <trkpt lat="48.08298" lon="-4.25787">
        <ele>92.904541015625</ele>
        <time>2017-04-22T13:23:48Z</time>
      </trkpt>
      <trkpt lat="48.08305" lon="-4.25781">
        <ele>94.8271484375</ele>
        <time>2017-04-22T13:23:55Z</time>
      </trkpt>
      <trkpt lat="48.0831" lon="-4.25773">
        <ele>95.788452148438</ele>
        <time>2017-04-22T13:24:02Z</time>
      </trkpt>
      <trkpt lat="48.08313" lon="-4.25772">
        <ele>96.269287109375</ele>
        <time>2017-04-22T13:24:04Z</time>
      </trkpt>
      <trkpt lat="48.0832" lon="-4.25767">
        <ele>95.788452148438</ele>
        <time>2017-04-22T13:24:10Z</time>
      </trkpt>
      <trkpt lat="48.08323" lon="-4.25762">
        <ele>93.865844726562</ele>
        <time>2017-04-22T13:24:15Z</time>
      </trkpt>
      <trkpt lat="48.08328" lon="-4.25761">
        <ele>90.501342773438</ele>
        <time>2017-04-22T13:24:19Z</time>
      </trkpt>
      <trkpt lat="48.08335" lon="-4.25759">
        <ele>91.943237304688</ele>
        <time>2017-04-22T13:24:24Z</time>
      </trkpt>
      <trkpt lat="48.08336" lon="-4.25756">
        <ele>91.462524414062</ele>
        <time>2017-04-22T13:24:26Z</time>
      </trkpt>
      <trkpt lat="48.0834" lon="-4.25754">
        <ele>92.904541015625</ele>
        <time>2017-04-22T13:24:29Z</time>
      </trkpt>
      <trkpt lat="48.08341" lon="-4.25751">
        <ele>91.462524414062</ele>
        <time>2017-04-22T13:24:31Z</time>
      </trkpt>
      <trkpt lat="48.08342" lon="-4.2575">
        <ele>91.462524414062</ele>
        <time>2017-04-22T13:24:33Z</time>
      </trkpt>
      <trkpt lat="48.08349" lon="-4.25746">
        <ele>96.269287109375</ele>
        <time>2017-04-22T13:24:38Z</time>
      </trkpt>
      <trkpt lat="48.08352" lon="-4.25741">
        <ele>95.788452148438</ele>
        <time>2017-04-22T13:24:42Z</time>
      </trkpt>
      <trkpt lat="48.08359" lon="-4.25736">
        <ele>97.711181640625</ele>
        <time>2017-04-22T13:24:49Z</time>
      </trkpt>
      <trkpt lat="48.08362" lon="-4.25732">
        <ele>98.672485351562</ele>
        <time>2017-04-22T13:24:52Z</time>
      </trkpt>
      <trkpt lat="48.08368" lon="-4.25726">
        <ele>98.19189453125</ele>
        <time>2017-04-22T13:24:58Z</time>
      </trkpt>
      <trkpt lat="48.08371" lon="-4.25724">
        <ele>97.711181640625</ele>
        <time>2017-04-22T13:25:01Z</time>
      </trkpt>
      <trkpt lat="48.08378" lon="-4.25717">
        <ele>98.19189453125</ele>
        <time>2017-04-22T13:25:08Z</time>
      </trkpt>
      <trkpt lat="48.08382" lon="-4.25711">
        <ele>95.307739257812</ele>
        <time>2017-04-22T13:25:15Z</time>
      </trkpt>
      <trkpt lat="48.08387" lon="-4.25708">
        <ele>95.788452148438</ele>
        <time>2017-04-22T13:25:20Z</time>
      </trkpt>
      <trkpt lat="48.08391" lon="-4.25704">
        <ele>98.19189453125</ele>
        <time>2017-04-22T13:25:25Z</time>
      </trkpt>
      <trkpt lat="48.08393" lon="-4.25696">
        <ele>100.11450195312</ele>
        <time>2017-04-22T13:25:33Z</time>
      </trkpt>
      <trkpt lat="48.08399" lon="-4.25694">
        <ele>101.55639648438</ele>
        <time>2017-04-22T13:25:39Z</time>
      </trkpt>
      <trkpt lat="48.084" lon="-4.25694">
        <ele>102.51770019531</ele>
        <time>2017-04-22T13:25:40Z</time>
      </trkpt>
      <trkpt lat="48.08407" lon="-4.25688">
        <ele>103.47900390625</ele>
        <time>2017-04-22T13:25:47Z</time>
      </trkpt>
      <trkpt lat="48.08412" lon="-4.25685">
        <ele>103.95971679688</ele>
        <time>2017-04-22T13:25:52Z</time>
      </trkpt>
      <trkpt lat="48.08416" lon="-4.25681">
        <ele>104.92102050781</ele>
        <time>2017-04-22T13:25:58Z</time>
      </trkpt>
      <trkpt lat="48.08422" lon="-4.25675">
        <ele>107.80505371094</ele>
        <time>2017-04-22T13:26:05Z</time>
      </trkpt>
      <trkpt lat="48.08424" lon="-4.25673">
        <ele>106.84362792969</ele>
        <time>2017-04-22T13:26:08Z</time>
      </trkpt>
      <trkpt lat="48.08428" lon="-4.2567">
        <ele>106.36303710938</ele>
        <time>2017-04-22T13:26:16Z</time>
      </trkpt>
      <trkpt lat="48.08429" lon="-4.25665">
        <ele>102.037109375</ele>
        <time>2017-04-22T13:26:23Z</time>
      </trkpt>
      <trkpt lat="48.0843" lon="-4.25665">
        <ele>101.07568359375</ele>
        <time>2017-04-22T13:26:25Z</time>
      </trkpt>
      <trkpt lat="48.08434" lon="-4.25675">
        <ele>99.153076171875</ele>
        <time>2017-04-22T13:26:33Z</time>
      </trkpt>
      <trkpt lat="48.08435" lon="-4.2568">
        <ele>97.711181640625</ele>
        <time>2017-04-22T13:26:36Z</time>
      </trkpt>
      <trkpt lat="48.08436" lon="-4.25687">
        <ele>95.788452148438</ele>
        <time>2017-04-22T13:26:41Z</time>
      </trkpt>
      <trkpt lat="48.08437" lon="-4.25691">
        <ele>94.8271484375</ele>
        <time>2017-04-22T13:26:44Z</time>
      </trkpt>
      <trkpt lat="48.08438" lon="-4.257">
        <ele>91.462524414062</ele>
        <time>2017-04-22T13:26:48Z</time>
      </trkpt>
      <trkpt lat="48.08438" lon="-4.25712">
        <ele>90.020629882812</ele>
        <time>2017-04-22T13:26:53Z</time>
      </trkpt>
      <trkpt lat="48.08439" lon="-4.25723">
        <ele>86.656005859375</ele>
        <time>2017-04-22T13:26:57Z</time>
      </trkpt>
      <trkpt lat="48.08439" lon="-4.25729">
        <ele>84.7333984375</ele>
        <time>2017-04-22T13:27:01Z</time>
      </trkpt>
      <trkpt lat="48.0844" lon="-4.25737">
        <ele>84.7333984375</ele>
        <time>2017-04-22T13:27:06Z</time>
      </trkpt>
      <trkpt lat="48.08443" lon="-4.25746">
        <ele>83.77197265625</ele>
        <time>2017-04-22T13:27:13Z</time>
      </trkpt>
      <trkpt lat="48.08445" lon="-4.25756">
        <ele>83.77197265625</ele>
        <time>2017-04-22T13:27:20Z</time>
      </trkpt>
      <trkpt lat="48.08446" lon="-4.25759">
        <ele>84.252685546875</ele>
        <time>2017-04-22T13:27:22Z</time>
      </trkpt>
      <trkpt lat="48.08447" lon="-4.25761">
        <ele>86.17529296875</ele>
        <time>2017-04-22T13:27:24Z</time>
      </trkpt>
      <trkpt lat="48.08449" lon="-4.25772">
        <ele>85.213989257812</ele>
        <time>2017-04-22T13:27:30Z</time>
      </trkpt>
      <trkpt lat="48.08451" lon="-4.25782">
        <ele>81.849365234375</ele>
        <time>2017-04-22T13:27:36Z</time>
      </trkpt>
      <trkpt lat="48.08456" lon="-4.2579">
        <ele>78.965454101562</ele>
        <time>2017-04-22T13:27:42Z</time>
      </trkpt>
      <trkpt lat="48.08459" lon="-4.25798">
        <ele>78.004028320312</ele>
        <time>2017-04-22T13:27:46Z</time>
      </trkpt>
      <trkpt lat="48.08459" lon="-4.25801">
        <ele>77.5234375</ele>
        <time>2017-04-22T13:27:48Z</time>
      </trkpt>
      <trkpt lat="48.08462" lon="-4.25809">
        <ele>76.562133789062</ele>
        <time>2017-04-22T13:27:53Z</time>
      </trkpt>
      <trkpt lat="48.08467" lon="-4.2582">
        <ele>77.042846679688</ele>
        <time>2017-04-22T13:28:00Z</time>
      </trkpt>
      <trkpt lat="48.0847" lon="-4.25827">
        <ele>78.004028320312</ele>
        <time>2017-04-22T13:28:04Z</time>
      </trkpt>
      <trkpt lat="48.08472" lon="-4.25837">
        <ele>77.5234375</ele>
        <time>2017-04-22T13:28:10Z</time>
      </trkpt>
      <trkpt lat="48.08475" lon="-4.25843">
        <ele>77.5234375</ele>
        <time>2017-04-22T13:28:14Z</time>
      </trkpt>
      <trkpt lat="48.08477" lon="-4.25852">
        <ele>77.042846679688</ele>
        <time>2017-04-22T13:28:19Z</time>
      </trkpt>
      <trkpt lat="48.08481" lon="-4.25863">
        <ele>78.004028320312</ele>
        <time>2017-04-22T13:28:26Z</time>
      </trkpt>
      <trkpt lat="48.08484" lon="-4.25872">
        <ele>77.042846679688</ele>
        <time>2017-04-22T13:28:32Z</time>
      </trkpt>
      <trkpt lat="48.08488" lon="-4.25879">
        <ele>76.081420898438</ele>
        <time>2017-04-22T13:28:37Z</time>
      </trkpt>
      <trkpt lat="48.08491" lon="-4.25883">
        <ele>75.120239257812</ele>
        <time>2017-04-22T13:28:41Z</time>
      </trkpt>
      <trkpt lat="48.08495" lon="-4.25891">
        <ele>75.120239257812</ele>
        <time>2017-04-22T13:28:47Z</time>
      </trkpt>
      <trkpt lat="48.08502" lon="-4.25894">
        <ele>75.120239257812</ele>
        <time>2017-04-22T13:28:52Z</time>
      </trkpt>
      <trkpt lat="48.08505" lon="-4.25897">
        <ele>73.67822265625</ele>
        <time>2017-04-22T13:28:55Z</time>
      </trkpt>
      <trkpt lat="48.08509" lon="-4.25899">
        <ele>73.67822265625</ele>
        <time>2017-04-22T13:28:58Z</time>
      </trkpt>
      <trkpt lat="48.08516" lon="-4.25907">
        <ele>73.197631835938</ele>
        <time>2017-04-22T13:29:04Z</time>
      </trkpt>
      <trkpt lat="48.08522" lon="-4.25913">
        <ele>73.197631835938</ele>
        <time>2017-04-22T13:29:11Z</time>
      </trkpt>
      <trkpt lat="48.08531" lon="-4.25922">
        <ele>73.197631835938</ele>
        <time>2017-04-22T13:29:19Z</time>
      </trkpt>
      <trkpt lat="48.08537" lon="-4.25924">
        <ele>74.639526367188</ele>
        <time>2017-04-22T13:29:25Z</time>
      </trkpt>
      <trkpt lat="48.08539" lon="-4.25925">
        <ele>75.600830078125</ele>
        <time>2017-04-22T13:29:27Z</time>
      </trkpt>
      <trkpt lat="48.08546" lon="-4.25931">
        <ele>76.562133789062</ele>
        <time>2017-04-22T13:29:32Z</time>
      </trkpt>
      <trkpt lat="48.0855" lon="-4.25934">
        <ele>77.042846679688</ele>
        <time>2017-04-22T13:29:37Z</time>
      </trkpt>
      <trkpt lat="48.08552" lon="-4.25935">
        <ele>76.562133789062</ele>
        <time>2017-04-22T13:29:39Z</time>
      </trkpt>
      <trkpt lat="48.08554" lon="-4.25938">
        <ele>76.081420898438</ele>
        <time>2017-04-22T13:29:42Z</time>
      </trkpt>
      <trkpt lat="48.08559" lon="-4.2594">
        <ele>78.004028320312</ele>
        <time>2017-04-22T13:29:48Z</time>
      </trkpt>
      <trkpt lat="48.08566" lon="-4.25942">
        <ele>82.330078125</ele>
        <time>2017-04-22T13:29:53Z</time>
      </trkpt>
      <trkpt lat="48.08567" lon="-4.25943">
        <ele>82.810791015625</ele>
        <time>2017-04-22T13:29:55Z</time>
      </trkpt>
      <trkpt lat="48.08571" lon="-4.25944">
        <ele>83.77197265625</ele>
        <time>2017-04-22T13:30:00Z</time>
      </trkpt>
      <trkpt lat="48.08576" lon="-4.25947">
        <ele>84.7333984375</ele>
        <time>2017-04-22T13:30:05Z</time>
      </trkpt>
      <trkpt lat="48.08582" lon="-4.25952">
        <ele>79.926635742188</ele>
        <time>2017-04-22T13:30:12Z</time>
      </trkpt>
      <trkpt lat="48.08587" lon="-4.25951">
        <ele>78.484741210938</ele>
        <time>2017-04-22T13:30:17Z</time>
      </trkpt>
      <trkpt lat="48.08591" lon="-4.25946">
        <ele>76.081420898438</ele>
        <time>2017-04-22T13:30:22Z</time>
      </trkpt>
      <trkpt lat="48.08597" lon="-4.25939">
        <ele>78.004028320312</ele>
        <time>2017-04-22T13:30:27Z</time>
      </trkpt>
      <trkpt lat="48.08602" lon="-4.25931">
        <ele>78.484741210938</ele>
        <time>2017-04-22T13:30:33Z</time>
      </trkpt>
      <trkpt lat="48.08606" lon="-4.25923">
        <ele>82.330078125</ele>
        <time>2017-04-22T13:30:38Z</time>
      </trkpt>
      <trkpt lat="48.08607" lon="-4.2592">
        <ele>84.252685546875</ele>
        <time>2017-04-22T13:30:40Z</time>
      </trkpt>
      <trkpt lat="48.08612" lon="-4.25908">
        <ele>87.6171875</ele>
        <time>2017-04-22T13:30:47Z</time>
      </trkpt>
      <trkpt lat="48.08611" lon="-4.25898">
        <ele>89.059326171875</ele>
        <time>2017-04-22T13:30:52Z</time>
      </trkpt>
      <trkpt lat="48.08613" lon="-4.25891">
        <ele>89.539916992188</ele>
        <time>2017-04-22T13:30:56Z</time>
      </trkpt>
      <trkpt lat="48.08617" lon="-4.25883">
        <ele>89.059326171875</ele>
        <time>2017-04-22T13:31:02Z</time>
      </trkpt>
      <trkpt lat="48.0862" lon="-4.25877">
        <ele>90.98193359375</ele>
        <time>2017-04-22T13:31:06Z</time>
      </trkpt>
      <trkpt lat="48.08622" lon="-4.25874">
        <ele>92.423950195312</ele>
        <time>2017-04-22T13:31:08Z</time>
      </trkpt>
      <trkpt lat="48.08623" lon="-4.25869">
        <ele>92.423950195312</ele>
        <time>2017-04-22T13:31:12Z</time>
      </trkpt>
      <trkpt lat="48.08625" lon="-4.25865">
        <ele>92.904541015625</ele>
        <time>2017-04-22T13:31:16Z</time>
      </trkpt>
      <trkpt lat="48.08628" lon="-4.25864">
        <ele>92.904541015625</ele>
        <time>2017-04-22T13:31:18Z</time>
      </trkpt>
      <trkpt lat="48.08632" lon="-4.2586">
        <ele>93.865844726562</ele>
        <time>2017-04-22T13:31:23Z</time>
      </trkpt>
      <trkpt lat="48.08636" lon="-4.25857">
        <ele>92.423950195312</ele>
        <time>2017-04-22T13:31:27Z</time>
      </trkpt>
      <trkpt lat="48.08642" lon="-4.25853">
        <ele>89.059326171875</ele>
        <time>2017-04-22T13:31:34Z</time>
      </trkpt>
      <trkpt lat="48.08649" lon="-4.25845">
        <ele>88.098022460938</ele>
        <time>2017-04-22T13:31:39Z</time>
      </trkpt>
      <trkpt lat="48.08652" lon="-4.25841">
        <ele>84.7333984375</ele>
        <time>2017-04-22T13:31:44Z</time>
      </trkpt>
      <trkpt lat="48.08656" lon="-4.25833">
        <ele>82.330078125</ele>
        <time>2017-04-22T13:31:51Z</time>
      </trkpt>
      <trkpt lat="48.0866" lon="-4.2583">
        <ele>85.213989257812</ele>
        <time>2017-04-22T13:31:56Z</time>
      </trkpt>
      <trkpt lat="48.08665" lon="-4.25828">
        <ele>85.213989257812</ele>
        <time>2017-04-22T13:31:59Z</time>
      </trkpt>
      <trkpt lat="48.0867" lon="-4.2582">
        <ele>86.17529296875</ele>
        <time>2017-04-22T13:32:05Z</time>
      </trkpt>
      <trkpt lat="48.08674" lon="-4.25818">
        <ele>87.6171875</ele>
        <time>2017-04-22T13:32:08Z</time>
      </trkpt>
      <trkpt lat="48.08679" lon="-4.25815">
        <ele>90.020629882812</ele>
        <time>2017-04-22T13:32:13Z</time>
      </trkpt>
      <trkpt lat="48.0868" lon="-4.25816">
        <ele>90.501342773438</ele>
        <time>2017-04-22T13:32:15Z</time>
      </trkpt>
      <trkpt lat="48.08682" lon="-4.25818">
        <ele>89.059326171875</ele>
        <time>2017-04-22T13:32:17Z</time>
      </trkpt>
      <trkpt lat="48.08685" lon="-4.25825">
        <ele>87.6171875</ele>
        <time>2017-04-22T13:32:22Z</time>
      </trkpt>
      <trkpt lat="48.08686" lon="-4.25827">
        <ele>87.136596679688</ele>
        <time>2017-04-22T13:32:24Z</time>
      </trkpt>
      <trkpt lat="48.0869" lon="-4.25832">
        <ele>85.694580078125</ele>
        <time>2017-04-22T13:32:28Z</time>
      </trkpt>
      <trkpt lat="48.08692" lon="-4.2584">
        <ele>83.291381835938</ele>
        <time>2017-04-22T13:32:34Z</time>
      </trkpt>
      <trkpt lat="48.08692" lon="-4.25843">
        <ele>82.810791015625</ele>
        <time>2017-04-22T13:32:36Z</time>
      </trkpt>
      <trkpt lat="48.08696" lon="-4.2585">
        <ele>80.407470703125</ele>
        <time>2017-04-22T13:32:43Z</time>
      </trkpt>
      <trkpt lat="48.08699" lon="-4.25858">
        <ele>80.407470703125</ele>
        <time>2017-04-22T13:32:48Z</time>
      </trkpt>
      <trkpt lat="48.087" lon="-4.25863">
        <ele>81.368774414062</ele>
        <time>2017-04-22T13:32:52Z</time>
      </trkpt>
      <trkpt lat="48.08703" lon="-4.2587">
        <ele>83.291381835938</ele>
        <time>2017-04-22T13:32:57Z</time>
      </trkpt>
      <trkpt lat="48.08705" lon="-4.25876">
        <ele>82.810791015625</ele>
        <time>2017-04-22T13:33:02Z</time>
      </trkpt>
      <trkpt lat="48.08707" lon="-4.25876">
        <ele>82.330078125</ele>
        <time>2017-04-22T13:33:04Z</time>
      </trkpt>
      <trkpt lat="48.0871" lon="-4.25879">
        <ele>80.88818359375</ele>
        <time>2017-04-22T13:33:08Z</time>
      </trkpt>
      <trkpt lat="48.08714" lon="-4.25892">
        <ele>81.849365234375</ele>
        <time>2017-04-22T13:33:15Z</time>
      </trkpt>
      <trkpt lat="48.08717" lon="-4.25896">
        <ele>82.330078125</ele>
        <time>2017-04-22T13:33:19Z</time>
      </trkpt>
      <trkpt lat="48.08722" lon="-4.25901">
        <ele>82.810791015625</ele>
        <time>2017-04-22T13:33:25Z</time>
      </trkpt>
      <trkpt lat="48.08726" lon="-4.25903">
        <ele>84.252685546875</ele>
        <time>2017-04-22T13:33:30Z</time>
      </trkpt>
      <trkpt lat="48.08732" lon="-4.25908">
        <ele>82.810791015625</ele>
        <time>2017-04-22T13:33:36Z</time>
      </trkpt>
      <trkpt lat="48.08736" lon="-4.25912">
        <ele>83.291381835938</ele>
        <time>2017-04-22T13:33:42Z</time>
      </trkpt>
      <trkpt lat="48.0874" lon="-4.25915">
        <ele>82.810791015625</ele>
        <time>2017-04-22T13:33:47Z</time>
      </trkpt>
      <trkpt lat="48.08745" lon="-4.25915">
        <ele>85.694580078125</ele>
        <time>2017-04-22T13:33:52Z</time>
      </trkpt>
      <trkpt lat="48.08746" lon="-4.25915">
        <ele>85.694580078125</ele>
        <time>2017-04-22T13:33:53Z</time>
      </trkpt>
      <trkpt lat="48.0875" lon="-4.25916">
        <ele>86.656005859375</ele>
        <time>2017-04-22T13:33:56Z</time>
      </trkpt>
      <trkpt lat="48.08756" lon="-4.25918">
        <ele>87.136596679688</ele>
        <time>2017-04-22T13:34:04Z</time>
      </trkpt>
      <trkpt lat="48.08764" lon="-4.25918">
        <ele>89.539916992188</ele>
        <time>2017-04-22T13:34:11Z</time>
      </trkpt>
      <trkpt lat="48.0877" lon="-4.25918">
        <ele>90.98193359375</ele>
        <time>2017-04-22T13:34:17Z</time>
      </trkpt>
      <trkpt lat="48.08774" lon="-4.25919">
        <ele>91.943237304688</ele>
        <time>2017-04-22T13:34:24Z</time>
      </trkpt>
      <trkpt lat="48.0878" lon="-4.25922">
        <ele>91.943237304688</ele>
        <time>2017-04-22T13:34:31Z</time>
      </trkpt>
      <trkpt lat="48.08783" lon="-4.25923">
        <ele>92.423950195312</ele>
        <time>2017-04-22T13:34:33Z</time>
      </trkpt>
      <trkpt lat="48.08792" lon="-4.25922">
        <ele>92.904541015625</ele>
        <time>2017-04-22T13:34:41Z</time>
      </trkpt>
      <trkpt lat="48.08797" lon="-4.25925">
        <ele>93.865844726562</ele>
        <time>2017-04-22T13:34:46Z</time>
      </trkpt>
      <trkpt lat="48.08808" lon="-4.25927">
        <ele>93.865844726562</ele>
        <time>2017-04-22T13:34:55Z</time>
      </trkpt>
      <trkpt lat="48.08816" lon="-4.25929">
        <ele>94.8271484375</ele>
        <time>2017-04-22T13:35:02Z</time>
      </trkpt>
      <trkpt lat="48.08823" lon="-4.25933">
        <ele>95.788452148438</ele>
        <time>2017-04-22T13:35:08Z</time>
      </trkpt>
      <trkpt lat="48.08828" lon="-4.25937">
        <ele>95.307739257812</ele>
        <time>2017-04-22T13:35:14Z</time>
      </trkpt>
      <trkpt lat="48.08835" lon="-4.2594">
        <ele>94.8271484375</ele>
        <time>2017-04-22T13:35:20Z</time>
      </trkpt>
      <trkpt lat="48.0884" lon="-4.25944">
        <ele>95.307739257812</ele>
        <time>2017-04-22T13:35:25Z</time>
      </trkpt>
      <trkpt lat="48.08845" lon="-4.25947">
        <ele>95.307739257812</ele>
        <time>2017-04-22T13:35:29Z</time>
      </trkpt>
      <trkpt lat="48.0885" lon="-4.2595">
        <ele>94.8271484375</ele>
        <time>2017-04-22T13:35:33Z</time>
      </trkpt>
      <trkpt lat="48.08856" lon="-4.25955">
        <ele>95.307739257812</ele>
        <time>2017-04-22T13:35:39Z</time>
      </trkpt>
      <trkpt lat="48.08863" lon="-4.25962">
        <ele>95.307739257812</ele>
        <time>2017-04-22T13:35:46Z</time>
      </trkpt>
      <trkpt lat="48.08865" lon="-4.2597">
        <ele>94.346557617188</ele>
        <time>2017-04-22T13:35:50Z</time>
      </trkpt>
      <trkpt lat="48.08869" lon="-4.25975">
        <ele>93.385131835938</ele>
        <time>2017-04-22T13:35:54Z</time>
      </trkpt>
      <trkpt lat="48.08871" lon="-4.25979">
        <ele>92.904541015625</ele>
        <time>2017-04-22T13:35:56Z</time>
      </trkpt>
      <trkpt lat="48.08875" lon="-4.25986">
        <ele>90.98193359375</ele>
        <time>2017-04-22T13:36:01Z</time>
      </trkpt>
      <trkpt lat="48.08874" lon="-4.25994">
        <ele>91.462524414062</ele>
        <time>2017-04-22T13:36:05Z</time>
      </trkpt>
      <trkpt lat="48.08874" lon="-4.25998">
        <ele>91.462524414062</ele>
        <time>2017-04-22T13:36:07Z</time>
      </trkpt>
      <trkpt lat="48.08877" lon="-4.26003">
        <ele>90.501342773438</ele>
        <time>2017-04-22T13:36:11Z</time>
      </trkpt>
      <trkpt lat="48.08876" lon="-4.26013">
        <ele>91.943237304688</ele>
        <time>2017-04-22T13:36:16Z</time>
      </trkpt>
      <trkpt lat="48.08875" lon="-4.2602">
        <ele>93.865844726562</ele>
        <time>2017-04-22T13:36:19Z</time>
      </trkpt>
      <trkpt lat="48.08877" lon="-4.26029">
        <ele>97.23046875</ele>
        <time>2017-04-22T13:36:24Z</time>
      </trkpt>
      <trkpt lat="48.08879" lon="-4.26032">
        <ele>98.19189453125</ele>
        <time>2017-04-22T13:36:26Z</time>
      </trkpt>
      <trkpt lat="48.08883" lon="-4.26045">
        <ele>99.153076171875</ele>
        <time>2017-04-22T13:36:33Z</time>
      </trkpt>
      <trkpt lat="48.08883" lon="-4.26046">
        <ele>98.672485351562</ele>
        <time>2017-04-22T13:36:34Z</time>
      </trkpt>
      <trkpt lat="48.08885" lon="-4.26055">
        <ele>98.672485351562</ele>
        <time>2017-04-22T13:36:40Z</time>
      </trkpt>
      <trkpt lat="48.08886" lon="-4.26058">
        <ele>99.153076171875</ele>
        <time>2017-04-22T13:36:42Z</time>
      </trkpt>
      <trkpt lat="48.08888" lon="-4.26074">
        <ele>99.6337890625</ele>
        <time>2017-04-22T13:36:50Z</time>
      </trkpt>
      <trkpt lat="48.0889" lon="-4.26085">
        <ele>98.672485351562</ele>
        <time>2017-04-22T13:36:55Z</time>
      </trkpt>
      <trkpt lat="48.08891" lon="-4.26088">
        <ele>98.672485351562</ele>
        <time>2017-04-22T13:36:57Z</time>
      </trkpt>
      <trkpt lat="48.08892" lon="-4.26091">
        <ele>98.19189453125</ele>
        <time>2017-04-22T13:37:04Z</time>
      </trkpt>
      <trkpt lat="48.08892" lon="-4.26097">
        <ele>97.23046875</ele>
        <time>2017-04-22T13:37:09Z</time>
      </trkpt>
      <trkpt lat="48.08893" lon="-4.26103">
        <ele>97.711181640625</ele>
        <time>2017-04-22T13:37:13Z</time>
      </trkpt>
      <trkpt lat="48.08895" lon="-4.26118">
        <ele>99.6337890625</ele>
        <time>2017-04-22T13:37:21Z</time>
      </trkpt>
      <trkpt lat="48.08897" lon="-4.26132">
        <ele>101.07568359375</ele>
        <time>2017-04-22T13:37:28Z</time>
      </trkpt>
      <trkpt lat="48.08898" lon="-4.26136">
        <ele>100.59509277344</ele>
        <time>2017-04-22T13:37:31Z</time>
      </trkpt>
      <trkpt lat="48.08901" lon="-4.2615">
        <ele>100.11450195312</ele>
        <time>2017-04-22T13:37:39Z</time>
      </trkpt>
      <trkpt lat="48.08903" lon="-4.26156">
        <ele>99.6337890625</ele>
        <time>2017-04-22T13:37:42Z</time>
      </trkpt>
      <trkpt lat="48.08905" lon="-4.26166">
        <ele>99.153076171875</ele>
        <time>2017-04-22T13:37:48Z</time>
      </trkpt>
      <trkpt lat="48.08905" lon="-4.26179">
        <ele>98.19189453125</ele>
        <time>2017-04-22T13:37:55Z</time>
      </trkpt>
      <trkpt lat="48.08902" lon="-4.26188">
        <ele>98.672485351562</ele>
        <time>2017-04-22T13:37:59Z</time>
      </trkpt>
      <trkpt lat="48.08908" lon="-4.26196">
        <ele>102.51770019531</ele>
        <time>2017-04-22T13:38:05Z</time>
      </trkpt>
      <trkpt lat="48.08908" lon="-4.262">
        <ele>104.4404296875</ele>
        <time>2017-04-22T13:38:07Z</time>
      </trkpt>
      <trkpt lat="48.0891" lon="-4.26208">
        <ele>106.36303710938</ele>
        <time>2017-04-22T13:38:11Z</time>
      </trkpt>
      <trkpt lat="48.08913" lon="-4.26211">
        <ele>106.84362792969</ele>
        <time>2017-04-22T13:38:13Z</time>
      </trkpt>
      <trkpt lat="48.08917" lon="-4.2622">
        <ele>104.4404296875</ele>
        <time>2017-04-22T13:38:19Z</time>
      </trkpt>
      <trkpt lat="48.08926" lon="-4.26225">
        <ele>103.95971679688</ele>
        <time>2017-04-22T13:38:26Z</time>
      </trkpt>
      <trkpt lat="48.08935" lon="-4.26227">
        <ele>103.95971679688</ele>
        <time>2017-04-22T13:38:33Z</time>
      </trkpt>
      <trkpt lat="48.08945" lon="-4.26228">
        <ele>103.95971679688</ele>
        <time>2017-04-22T13:38:41Z</time>
      </trkpt>
      <trkpt lat="48.08954" lon="-4.26228">
        <ele>104.4404296875</ele>
        <time>2017-04-22T13:38:48Z</time>
      </trkpt>
      <trkpt lat="48.08963" lon="-4.26229">
        <ele>102.99829101562</ele>
        <time>2017-04-22T13:38:55Z</time>
      </trkpt>
      <trkpt lat="48.08972" lon="-4.2623">
        <ele>102.51770019531</ele>
        <time>2017-04-22T13:39:03Z</time>
      </trkpt>
      <trkpt lat="48.0898" lon="-4.26231">
        <ele>102.51770019531</ele>
        <time>2017-04-22T13:39:09Z</time>
      </trkpt>
      <trkpt lat="48.08987" lon="-4.26232">
        <ele>102.51770019531</ele>
        <time>2017-04-22T13:39:15Z</time>
      </trkpt>
      <trkpt lat="48.08998" lon="-4.26233">
        <ele>100.11450195312</ele>
        <time>2017-04-22T13:39:24Z</time>
      </trkpt>
      <trkpt lat="48.09003" lon="-4.26234">
        <ele>100.11450195312</ele>
        <time>2017-04-22T13:39:28Z</time>
      </trkpt>
      <trkpt lat="48.09007" lon="-4.26234">
        <ele>100.59509277344</ele>
        <time>2017-04-22T13:39:31Z</time>
      </trkpt>
      <trkpt lat="48.09015" lon="-4.26237">
        <ele>99.153076171875</ele>
        <time>2017-04-22T13:39:39Z</time>
      </trkpt>
      <trkpt lat="48.09021" lon="-4.26239">
        <ele>99.153076171875</ele>
        <time>2017-04-22T13:39:44Z</time>
      </trkpt>
      <trkpt lat="48.09026" lon="-4.26239">
        <ele>98.19189453125</ele>
        <time>2017-04-22T13:39:48Z</time>
      </trkpt>
      <trkpt lat="48.09032" lon="-4.2624">
        <ele>95.307739257812</ele>
        <time>2017-04-22T13:39:55Z</time>
      </trkpt>
      <trkpt lat="48.09037" lon="-4.2624">
        <ele>95.307739257812</ele>
        <time>2017-04-22T13:39:59Z</time>
      </trkpt>
      <trkpt lat="48.09043" lon="-4.26243">
        <ele>95.788452148438</ele>
        <time>2017-04-22T13:40:03Z</time>
      </trkpt>
      <trkpt lat="48.09048" lon="-4.26245">
        <ele>95.307739257812</ele>
        <time>2017-04-22T13:40:07Z</time>
      </trkpt>
      <trkpt lat="48.09054" lon="-4.26247">
        <ele>91.462524414062</ele>
        <time>2017-04-22T13:40:14Z</time>
      </trkpt>
      <trkpt lat="48.09066" lon="-4.26252">
        <ele>92.423950195312</ele>
        <time>2017-04-22T13:40:21Z</time>
      </trkpt>
      <trkpt lat="48.09074" lon="-4.26254">
        <ele>90.98193359375</ele>
        <time>2017-04-22T13:40:27Z</time>
      </trkpt>
      <trkpt lat="48.09081" lon="-4.26257">
        <ele>90.501342773438</ele>
        <time>2017-04-22T13:40:33Z</time>
      </trkpt>
      <trkpt lat="48.09084" lon="-4.26255">
        <ele>89.059326171875</ele>
        <time>2017-04-22T13:40:37Z</time>
      </trkpt>
      <trkpt lat="48.09089" lon="-4.2625">
        <ele>90.020629882812</ele>
        <time>2017-04-22T13:40:44Z</time>
      </trkpt>
      <trkpt lat="48.09094" lon="-4.26253">
        <ele>90.020629882812</ele>
        <time>2017-04-22T13:40:49Z</time>
      </trkpt>
      <trkpt lat="48.09098" lon="-4.26257">
        <ele>90.020629882812</ele>
        <time>2017-04-22T13:40:55Z</time>
      </trkpt>
      <trkpt lat="48.09106" lon="-4.26261">
        <ele>90.98193359375</ele>
        <time>2017-04-22T13:41:02Z</time>
      </trkpt>
      <trkpt lat="48.09109" lon="-4.26262">
        <ele>90.98193359375</ele>
        <time>2017-04-22T13:41:04Z</time>
      </trkpt>
      <trkpt lat="48.09115" lon="-4.26264">
        <ele>91.943237304688</ele>
        <time>2017-04-22T13:41:09Z</time>
      </trkpt>
      <trkpt lat="48.09117" lon="-4.26264">
        <ele>90.501342773438</ele>
        <time>2017-04-22T13:41:11Z</time>
      </trkpt>
      <trkpt lat="48.09126" lon="-4.26261">
        <ele>88.578735351562</ele>
        <time>2017-04-22T13:41:17Z</time>
      </trkpt>
      <trkpt lat="48.09136" lon="-4.26259">
        <ele>90.020629882812</ele>
        <time>2017-04-22T13:41:24Z</time>
      </trkpt>
      <trkpt lat="48.09146" lon="-4.26263">
        <ele>90.98193359375</ele>
        <time>2017-04-22T13:41:31Z</time>
      </trkpt>
      <trkpt lat="48.09148" lon="-4.26264">
        <ele>90.501342773438</ele>
        <time>2017-04-22T13:41:33Z</time>
      </trkpt>
      <trkpt lat="48.09153" lon="-4.2627">
        <ele>88.098022460938</ele>
        <time>2017-04-22T13:41:38Z</time>
      </trkpt>
      <trkpt lat="48.09151" lon="-4.26274">
        <ele>87.6171875</ele>
        <time>2017-04-22T13:41:42Z</time>
      </trkpt>
      <trkpt lat="48.09149" lon="-4.26277">
        <ele>86.656005859375</ele>
        <time>2017-04-22T13:41:44Z</time>
      </trkpt>
      <trkpt lat="48.09146" lon="-4.26282">
        <ele>86.656005859375</ele>
        <time>2017-04-22T13:41:47Z</time>
      </trkpt>
      <trkpt lat="48.09143" lon="-4.26287">
        <ele>86.17529296875</ele>
        <time>2017-04-22T13:41:51Z</time>
      </trkpt>
      <trkpt lat="48.0914" lon="-4.26294">
        <ele>86.656005859375</ele>
        <time>2017-04-22T13:41:56Z</time>
      </trkpt>
      <trkpt lat="48.09137" lon="-4.26306">
        <ele>86.656005859375</ele>
        <time>2017-04-22T13:42:02Z</time>
      </trkpt>
      <trkpt lat="48.09133" lon="-4.26318">
        <ele>86.17529296875</ele>
        <time>2017-04-22T13:42:09Z</time>
      </trkpt>
      <trkpt lat="48.09133" lon="-4.26319">
        <ele>86.17529296875</ele>
        <time>2017-04-22T13:42:10Z</time>
      </trkpt>
      <trkpt lat="48.09134" lon="-4.2633">
        <ele>88.578735351562</ele>
        <time>2017-04-22T13:42:15Z</time>
      </trkpt>
      <trkpt lat="48.09135" lon="-4.26343">
        <ele>91.943237304688</ele>
        <time>2017-04-22T13:42:21Z</time>
      </trkpt>
      <trkpt lat="48.09135" lon="-4.26349">
        <ele>92.904541015625</ele>
        <time>2017-04-22T13:42:24Z</time>
      </trkpt>
      <trkpt lat="48.09137" lon="-4.2636">
        <ele>92.423950195312</ele>
        <time>2017-04-22T13:42:31Z</time>
      </trkpt>
      <trkpt lat="48.09137" lon="-4.26372">
        <ele>92.904541015625</ele>
        <time>2017-04-22T13:42:38Z</time>
      </trkpt>
      <trkpt lat="48.09136" lon="-4.26377">
        <ele>92.904541015625</ele>
        <time>2017-04-22T13:42:40Z</time>
      </trkpt>
      <trkpt lat="48.09134" lon="-4.26394">
        <ele>94.8271484375</ele>
        <time>2017-04-22T13:42:48Z</time>
      </trkpt>
      <trkpt lat="48.09131" lon="-4.26402">
        <ele>95.307739257812</ele>
        <time>2017-04-22T13:42:52Z</time>
      </trkpt>
      <trkpt lat="48.09131" lon="-4.26406">
        <ele>95.307739257812</ele>
        <time>2017-04-22T13:42:54Z</time>
      </trkpt>
      <trkpt lat="48.09132" lon="-4.26413">
        <ele>97.23046875</ele>
        <time>2017-04-22T13:42:58Z</time>
      </trkpt>
      <trkpt lat="48.0913" lon="-4.26428">
        <ele>99.6337890625</ele>
        <time>2017-04-22T13:43:06Z</time>
      </trkpt>
      <trkpt lat="48.09131" lon="-4.26438">
        <ele>102.037109375</ele>
        <time>2017-04-22T13:43:11Z</time>
      </trkpt>
      <trkpt lat="48.0913" lon="-4.26447">
        <ele>101.55639648438</ele>
        <time>2017-04-22T13:43:16Z</time>
      </trkpt>
      <trkpt lat="48.09129" lon="-4.26454">
        <ele>100.59509277344</ele>
        <time>2017-04-22T13:43:21Z</time>
      </trkpt>
      <trkpt lat="48.09127" lon="-4.26467">
        <ele>101.07568359375</ele>
        <time>2017-04-22T13:43:28Z</time>
      </trkpt>
      <trkpt lat="48.09125" lon="-4.26475">
        <ele>98.19189453125</ele>
        <time>2017-04-22T13:43:33Z</time>
      </trkpt>
      <trkpt lat="48.09125" lon="-4.26476">
        <ele>99.153076171875</ele>
        <time>2017-04-22T13:43:34Z</time>
      </trkpt>
      <trkpt lat="48.09126" lon="-4.2648">
        <ele>98.672485351562</ele>
        <time>2017-04-22T13:43:36Z</time>
      </trkpt>
      <trkpt lat="48.09125" lon="-4.26495">
        <ele>98.19189453125</ele>
        <time>2017-04-22T13:43:43Z</time>
      </trkpt>
      <trkpt lat="48.09125" lon="-4.26496">
        <ele>98.19189453125</ele>
        <time>2017-04-22T13:43:44Z</time>
      </trkpt>
      <trkpt lat="48.09127" lon="-4.26513">
        <ele>101.07568359375</ele>
        <time>2017-04-22T13:43:52Z</time>
      </trkpt>
      <trkpt lat="48.0913" lon="-4.26522">
        <ele>101.55639648438</ele>
        <time>2017-04-22T13:43:57Z</time>
      </trkpt>
      <trkpt lat="48.09134" lon="-4.26536">
        <ele>101.07568359375</ele>
        <time>2017-04-22T13:44:05Z</time>
      </trkpt>
      <trkpt lat="48.09134" lon="-4.26544">
        <ele>100.59509277344</ele>
        <time>2017-04-22T13:44:09Z</time>
      </trkpt>
      <trkpt lat="48.09135" lon="-4.26558">
        <ele>100.11450195312</ele>
        <time>2017-04-22T13:44:17Z</time>
      </trkpt>
      <trkpt lat="48.09135" lon="-4.26569">
        <ele>100.11450195312</ele>
        <time>2017-04-22T13:44:23Z</time>
      </trkpt>
      <trkpt lat="48.09135" lon="-4.26578">
        <ele>100.11450195312</ele>
        <time>2017-04-22T13:44:28Z</time>
      </trkpt>
      <trkpt lat="48.09134" lon="-4.26596">
        <ele>101.07568359375</ele>
        <time>2017-04-22T13:44:36Z</time>
      </trkpt>
      <trkpt lat="48.09134" lon="-4.26607">
        <ele>101.55639648438</ele>
        <time>2017-04-22T13:44:42Z</time>
      </trkpt>
      <trkpt lat="48.09133" lon="-4.26622">
        <ele>101.55639648438</ele>
        <time>2017-04-22T13:44:50Z</time>
      </trkpt>
      <trkpt lat="48.09131" lon="-4.26634">
        <ele>102.037109375</ele>
        <time>2017-04-22T13:44:57Z</time>
      </trkpt>
      <trkpt lat="48.09128" lon="-4.26644">
        <ele>102.51770019531</ele>
        <time>2017-04-22T13:45:03Z</time>
      </trkpt>
      <trkpt lat="48.09127" lon="-4.26657">
        <ele>102.99829101562</ele>
        <time>2017-04-22T13:45:10Z</time>
      </trkpt>
      <trkpt lat="48.09126" lon="-4.26664">
        <ele>102.51770019531</ele>
        <time>2017-04-22T13:45:14Z</time>
      </trkpt>
      <trkpt lat="48.09127" lon="-4.26678">
        <ele>100.11450195312</ele>
        <time>2017-04-22T13:45:22Z</time>
      </trkpt>
      <trkpt lat="48.09126" lon="-4.2668">
        <ele>99.6337890625</ele>
        <time>2017-04-22T13:45:23Z</time>
      </trkpt>
      <trkpt lat="48.09127" lon="-4.26691">
        <ele>98.19189453125</ele>
        <time>2017-04-22T13:45:29Z</time>
      </trkpt>
      <trkpt lat="48.09127" lon="-4.267">
        <ele>96.749877929688</ele>
        <time>2017-04-22T13:45:34Z</time>
      </trkpt>
      <trkpt lat="48.09127" lon="-4.2671">
        <ele>96.749877929688</ele>
        <time>2017-04-22T13:45:39Z</time>
      </trkpt>
      <trkpt lat="48.09126" lon="-4.26719">
        <ele>96.749877929688</ele>
        <time>2017-04-22T13:45:44Z</time>
      </trkpt>
      <trkpt lat="48.09127" lon="-4.26726">
        <ele>96.749877929688</ele>
        <time>2017-04-22T13:45:48Z</time>
      </trkpt>
      <trkpt lat="48.09127" lon="-4.26728">
        <ele>96.749877929688</ele>
        <time>2017-04-22T13:45:49Z</time>
      </trkpt>
      <trkpt lat="48.09126" lon="-4.26737">
        <ele>94.346557617188</ele>
        <time>2017-04-22T13:45:55Z</time>
      </trkpt>
      <trkpt lat="48.09127" lon="-4.26744">
        <ele>93.385131835938</ele>
        <time>2017-04-22T13:46:00Z</time>
      </trkpt>
      <trkpt lat="48.09126" lon="-4.26754">
        <ele>94.346557617188</ele>
        <time>2017-04-22T13:46:06Z</time>
      </trkpt>
      <trkpt lat="48.09127" lon="-4.26765">
        <ele>94.8271484375</ele>
        <time>2017-04-22T13:46:11Z</time>
      </trkpt>
      <trkpt lat="48.09126" lon="-4.26776">
        <ele>94.8271484375</ele>
        <time>2017-04-22T13:46:17Z</time>
      </trkpt>
      <trkpt lat="48.09125" lon="-4.2678">
        <ele>94.346557617188</ele>
        <time>2017-04-22T13:46:19Z</time>
      </trkpt>
      <trkpt lat="48.09124" lon="-4.26789">
        <ele>94.346557617188</ele>
        <time>2017-04-22T13:46:24Z</time>
      </trkpt>
      <trkpt lat="48.09122" lon="-4.26797">
        <ele>94.346557617188</ele>
        <time>2017-04-22T13:46:29Z</time>
      </trkpt>
      <trkpt lat="48.09121" lon="-4.26802">
        <ele>94.8271484375</ele>
        <time>2017-04-22T13:46:32Z</time>
      </trkpt>
      <trkpt lat="48.09117" lon="-4.26815">
        <ele>96.269287109375</ele>
        <time>2017-04-22T13:46:38Z</time>
      </trkpt>
      <trkpt lat="48.09113" lon="-4.26829">
        <ele>97.711181640625</ele>
        <time>2017-04-22T13:46:45Z</time>
      </trkpt>
      <trkpt lat="48.09111" lon="-4.26838">
        <ele>98.672485351562</ele>
        <time>2017-04-22T13:46:50Z</time>
      </trkpt>
      <trkpt lat="48.0911" lon="-4.26849">
        <ele>100.11450195312</ele>
        <time>2017-04-22T13:46:56Z</time>
      </trkpt>
      <trkpt lat="48.09107" lon="-4.26859">
        <ele>99.153076171875</ele>
        <time>2017-04-22T13:47:01Z</time>
      </trkpt>
      <trkpt lat="48.09102" lon="-4.26869">
        <ele>99.153076171875</ele>
        <time>2017-04-22T13:47:07Z</time>
      </trkpt>
      <trkpt lat="48.09101" lon="-4.26876">
        <ele>97.711181640625</ele>
        <time>2017-04-22T13:47:11Z</time>
      </trkpt>
      <trkpt lat="48.09101" lon="-4.26877">
        <ele>97.711181640625</ele>
        <time>2017-04-22T13:47:12Z</time>
      </trkpt>
      <trkpt lat="48.09101" lon="-4.26887">
        <ele>98.19189453125</ele>
        <time>2017-04-22T13:47:17Z</time>
      </trkpt>
      <trkpt lat="48.09099" lon="-4.26898">
        <ele>98.672485351562</ele>
        <time>2017-04-22T13:47:23Z</time>
      </trkpt>
      <trkpt lat="48.09098" lon="-4.26902">
        <ele>98.672485351562</ele>
        <time>2017-04-22T13:47:26Z</time>
      </trkpt>
      <trkpt lat="48.09098" lon="-4.26912">
        <ele>96.749877929688</ele>
        <time>2017-04-22T13:47:31Z</time>
      </trkpt>
      <trkpt lat="48.09098" lon="-4.26916">
        <ele>95.788452148438</ele>
        <time>2017-04-22T13:47:33Z</time>
      </trkpt>
      <trkpt lat="48.09098" lon="-4.26919">
        <ele>95.788452148438</ele>
        <time>2017-04-22T13:47:36Z</time>
      </trkpt>
      <trkpt lat="48.09098" lon="-4.26923">
        <ele>95.307739257812</ele>
        <time>2017-04-22T13:47:38Z</time>
      </trkpt>
      <trkpt lat="48.09098" lon="-4.26928">
        <ele>95.307739257812</ele>
        <time>2017-04-22T13:47:41Z</time>
      </trkpt>
      <trkpt lat="48.09097" lon="-4.26936">
        <ele>94.8271484375</ele>
        <time>2017-04-22T13:47:46Z</time>
      </trkpt>
      <trkpt lat="48.09096" lon="-4.26948">
        <ele>94.346557617188</ele>
        <time>2017-04-22T13:47:52Z</time>
      </trkpt>
      <trkpt lat="48.09095" lon="-4.26956">
        <ele>93.385131835938</ele>
        <time>2017-04-22T13:47:57Z</time>
      </trkpt>
      <trkpt lat="48.09092" lon="-4.26967">
        <ele>91.943237304688</ele>
        <time>2017-04-22T13:48:04Z</time>
      </trkpt>
      <trkpt lat="48.09091" lon="-4.26974">
        <ele>92.423950195312</ele>
        <time>2017-04-22T13:48:08Z</time>
      </trkpt>
      <trkpt lat="48.09088" lon="-4.26991">
        <ele>94.8271484375</ele>
        <time>2017-04-22T13:48:16Z</time>
      </trkpt>
      <trkpt lat="48.09086" lon="-4.27006">
        <ele>96.269287109375</ele>
        <time>2017-04-22T13:48:22Z</time>
      </trkpt>
      <trkpt lat="48.09085" lon="-4.27014">
        <ele>95.307739257812</ele>
        <time>2017-04-22T13:48:27Z</time>
      </trkpt>
      <trkpt lat="48.09083" lon="-4.27026">
        <ele>94.8271484375</ele>
        <time>2017-04-22T13:48:34Z</time>
      </trkpt>
      <trkpt lat="48.09081" lon="-4.27029">
        <ele>94.346557617188</ele>
        <time>2017-04-22T13:48:36Z</time>
      </trkpt>
      <trkpt lat="48.09079" lon="-4.27037">
        <ele>91.943237304688</ele>
        <time>2017-04-22T13:48:41Z</time>
      </trkpt>
      <trkpt lat="48.0908" lon="-4.27037">
        <ele>90.501342773438</ele>
        <time>2017-04-22T13:48:45Z</time>
      </trkpt>
      <trkpt lat="48.09084" lon="-4.27048">
        <ele>90.020629882812</ele>
        <time>2017-04-22T13:48:52Z</time>
      </trkpt>
      <trkpt lat="48.09084" lon="-4.27057">
        <ele>90.98193359375</ele>
        <time>2017-04-22T13:48:56Z</time>
      </trkpt>
      <trkpt lat="48.09081" lon="-4.27063">
        <ele>92.423950195312</ele>
        <time>2017-04-22T13:49:00Z</time>
      </trkpt>
      <trkpt lat="48.09081" lon="-4.27065">
        <ele>92.904541015625</ele>
        <time>2017-04-22T13:49:01Z</time>
      </trkpt>
      <trkpt lat="48.09079" lon="-4.27079">
        <ele>95.307739257812</ele>
        <time>2017-04-22T13:49:09Z</time>
      </trkpt>
      <trkpt lat="48.09076" lon="-4.27092">
        <ele>97.711181640625</ele>
        <time>2017-04-22T13:49:16Z</time>
      </trkpt>
      <trkpt lat="48.09074" lon="-4.27105">
        <ele>98.672485351562</ele>
        <time>2017-04-22T13:49:23Z</time>
      </trkpt>
      <trkpt lat="48.09073" lon="-4.27114">
        <ele>99.153076171875</ele>
        <time>2017-04-22T13:49:28Z</time>
      </trkpt>
      <trkpt lat="48.09071" lon="-4.27127">
        <ele>100.11450195312</ele>
        <time>2017-04-22T13:49:34Z</time>
      </trkpt>
      <trkpt lat="48.09069" lon="-4.2714">
        <ele>100.59509277344</ele>
        <time>2017-04-22T13:49:41Z</time>
      </trkpt>
      <trkpt lat="48.0907" lon="-4.27155">
        <ele>99.153076171875</ele>
        <time>2017-04-22T13:49:49Z</time>
      </trkpt>
      <trkpt lat="48.09072" lon="-4.27171">
        <ele>97.23046875</ele>
        <time>2017-04-22T13:49:57Z</time>
      </trkpt>
      <trkpt lat="48.09072" lon="-4.27175">
        <ele>96.749877929688</ele>
        <time>2017-04-22T13:49:59Z</time>
      </trkpt>
      <trkpt lat="48.09072" lon="-4.27178">
        <ele>97.711181640625</ele>
        <time>2017-04-22T13:50:01Z</time>
      </trkpt>
      <trkpt lat="48.09074" lon="-4.27189">
        <ele>97.711181640625</ele>
        <time>2017-04-22T13:50:07Z</time>
      </trkpt>
      <trkpt lat="48.09079" lon="-4.27204">
        <ele>92.423950195312</ele>
        <time>2017-04-22T13:50:15Z</time>
      </trkpt>
      <trkpt lat="48.09084" lon="-4.27218">
        <ele>89.059326171875</ele>
        <time>2017-04-22T13:50:23Z</time>
      </trkpt>
      <trkpt lat="48.0909" lon="-4.27232">
        <ele>86.656005859375</ele>
        <time>2017-04-22T13:50:32Z</time>
      </trkpt>
      <trkpt lat="48.09097" lon="-4.27241">
        <ele>86.17529296875</ele>
        <time>2017-04-22T13:50:39Z</time>
      </trkpt>
      <trkpt lat="48.09102" lon="-4.27248">
        <ele>86.17529296875</ele>
        <time>2017-04-22T13:50:44Z</time>
      </trkpt>
      <trkpt lat="48.09107" lon="-4.27251">
        <ele>85.213989257812</ele>
        <time>2017-04-22T13:50:49Z</time>
      </trkpt>
      <trkpt lat="48.09112" lon="-4.27253">
        <ele>84.7333984375</ele>
        <time>2017-04-22T13:50:55Z</time>
      </trkpt>
      <trkpt lat="48.09118" lon="-4.27257">
        <ele>83.77197265625</ele>
        <time>2017-04-22T13:51:01Z</time>
      </trkpt>
      <trkpt lat="48.09125" lon="-4.27261">
        <ele>85.213989257812</ele>
        <time>2017-04-22T13:51:06Z</time>
      </trkpt>
      <trkpt lat="48.09132" lon="-4.27266">
        <ele>85.213989257812</ele>
        <time>2017-04-22T13:51:13Z</time>
      </trkpt>
      <trkpt lat="48.09139" lon="-4.27272">
        <ele>82.810791015625</ele>
        <time>2017-04-22T13:51:20Z</time>
      </trkpt>
      <trkpt lat="48.09144" lon="-4.27275">
        <ele>81.849365234375</ele>
        <time>2017-04-22T13:51:25Z</time>
      </trkpt>
      <trkpt lat="48.0915" lon="-4.27281">
        <ele>81.368774414062</ele>
        <time>2017-04-22T13:51:30Z</time>
      </trkpt>
      <trkpt lat="48.09155" lon="-4.27294">
        <ele>83.291381835938</ele>
        <time>2017-04-22T13:51:37Z</time>
      </trkpt>
      <trkpt lat="48.09157" lon="-4.27301">
        <ele>84.7333984375</ele>
        <time>2017-04-22T13:51:41Z</time>
      </trkpt>
      <trkpt lat="48.0916" lon="-4.27306">
        <ele>84.252685546875</ele>
        <time>2017-04-22T13:51:44Z</time>
      </trkpt>
      <trkpt lat="48.09163" lon="-4.27312">
        <ele>84.7333984375</ele>
        <time>2017-04-22T13:51:48Z</time>
      </trkpt>
      <trkpt lat="48.09171" lon="-4.27318">
        <ele>84.7333984375</ele>
        <time>2017-04-22T13:51:56Z</time>
      </trkpt>
      <trkpt lat="48.09172" lon="-4.27319">
        <ele>84.7333984375</ele>
        <time>2017-04-22T13:51:57Z</time>
      </trkpt>
      <trkpt lat="48.09177" lon="-4.2732">
        <ele>84.7333984375</ele>
        <time>2017-04-22T13:52:01Z</time>
      </trkpt>
      <trkpt lat="48.09183" lon="-4.27319">
        <ele>84.7333984375</ele>
        <time>2017-04-22T13:52:07Z</time>
      </trkpt>
      <trkpt lat="48.0919" lon="-4.27319">
        <ele>84.252685546875</ele>
        <time>2017-04-22T13:52:13Z</time>
      </trkpt>
      <trkpt lat="48.092" lon="-4.27319">
        <ele>84.252685546875</ele>
        <time>2017-04-22T13:52:21Z</time>
      </trkpt>
      <trkpt lat="48.09207" lon="-4.2732">
        <ele>85.213989257812</ele>
        <time>2017-04-22T13:52:27Z</time>
      </trkpt>
      <trkpt lat="48.09212" lon="-4.27321">
        <ele>86.17529296875</ele>
        <time>2017-04-22T13:52:32Z</time>
      </trkpt>
      <trkpt lat="48.09219" lon="-4.27324">
        <ele>85.694580078125</ele>
        <time>2017-04-22T13:52:37Z</time>
      </trkpt>
      <trkpt lat="48.09225" lon="-4.27325">
        <ele>85.694580078125</ele>
        <time>2017-04-22T13:52:42Z</time>
      </trkpt>
      <trkpt lat="48.09234" lon="-4.27327">
        <ele>84.7333984375</ele>
        <time>2017-04-22T13:52:49Z</time>
      </trkpt>
      <trkpt lat="48.09239" lon="-4.27328">
        <ele>85.213989257812</ele>
        <time>2017-04-22T13:52:53Z</time>
      </trkpt>
      <trkpt lat="48.09246" lon="-4.27331">
        <ele>85.213989257812</ele>
        <time>2017-04-22T13:52:59Z</time>
      </trkpt>
      <trkpt lat="48.09255" lon="-4.27335">
        <ele>85.213989257812</ele>
        <time>2017-04-22T13:53:06Z</time>
      </trkpt>
      <trkpt lat="48.09262" lon="-4.27341">
        <ele>83.291381835938</ele>
        <time>2017-04-22T13:53:12Z</time>
      </trkpt>
      <trkpt lat="48.09269" lon="-4.27347">
        <ele>82.330078125</ele>
        <time>2017-04-22T13:53:18Z</time>
      </trkpt>
      <trkpt lat="48.09277" lon="-4.27356">
        <ele>81.849365234375</ele>
        <time>2017-04-22T13:53:26Z</time>
      </trkpt>
      <trkpt lat="48.09283" lon="-4.27362">
        <ele>81.849365234375</ele>
        <time>2017-04-22T13:53:32Z</time>
      </trkpt>
      <trkpt lat="48.09289" lon="-4.2737">
        <ele>80.88818359375</ele>
        <time>2017-04-22T13:53:39Z</time>
      </trkpt>
      <trkpt lat="48.09297" lon="-4.2738">
        <ele>80.88818359375</ele>
        <time>2017-04-22T13:53:47Z</time>
      </trkpt>
      <trkpt lat="48.09303" lon="-4.27388">
        <ele>80.88818359375</ele>
        <time>2017-04-22T13:53:53Z</time>
      </trkpt>
      <trkpt lat="48.09306" lon="-4.2739">
        <ele>79.926635742188</ele>
        <time>2017-04-22T13:53:56Z</time>
      </trkpt>
      <trkpt lat="48.09316" lon="-4.27395">
        <ele>79.446044921875</ele>
        <time>2017-04-22T13:54:04Z</time>
      </trkpt>
      <trkpt lat="48.09322" lon="-4.27397">
        <ele>79.926635742188</ele>
        <time>2017-04-22T13:54:10Z</time>
      </trkpt>
      <trkpt lat="48.09323" lon="-4.27398">
        <ele>79.926635742188</ele>
        <time>2017-04-22T13:54:11Z</time>
      </trkpt>
      <trkpt lat="48.09328" lon="-4.27399">
        <ele>80.407470703125</ele>
        <time>2017-04-22T13:54:15Z</time>
      </trkpt>
      <trkpt lat="48.09337" lon="-4.27402">
        <ele>81.368774414062</ele>
        <time>2017-04-22T13:54:21Z</time>
      </trkpt>
      <trkpt lat="48.09339" lon="-4.27403">
        <ele>81.849365234375</ele>
        <time>2017-04-22T13:54:23Z</time>
      </trkpt>
      <trkpt lat="48.09347" lon="-4.27408">
        <ele>82.810791015625</ele>
        <time>2017-04-22T13:54:30Z</time>
      </trkpt>
      <trkpt lat="48.09356" lon="-4.27412">
        <ele>82.810791015625</ele>
        <time>2017-04-22T13:54:38Z</time>
      </trkpt>
      <trkpt lat="48.09362" lon="-4.27415">
        <ele>82.810791015625</ele>
        <time>2017-04-22T13:54:43Z</time>
      </trkpt>
      <trkpt lat="48.0937" lon="-4.2742">
        <ele>82.810791015625</ele>
        <time>2017-04-22T13:54:50Z</time>
      </trkpt>
      <trkpt lat="48.09372" lon="-4.27421">
        <ele>82.810791015625</ele>
        <time>2017-04-22T13:54:52Z</time>
      </trkpt>
      <trkpt lat="48.09377" lon="-4.27422">
        <ele>81.849365234375</ele>
        <time>2017-04-22T13:54:56Z</time>
      </trkpt>
      <trkpt lat="48.09384" lon="-4.27425">
        <ele>82.810791015625</ele>
        <time>2017-04-22T13:55:02Z</time>
      </trkpt>
      <trkpt lat="48.09394" lon="-4.27429">
        <ele>82.810791015625</ele>
        <time>2017-04-22T13:55:10Z</time>
      </trkpt>
      <trkpt lat="48.09401" lon="-4.2743">
        <ele>82.810791015625</ele>
        <time>2017-04-22T13:55:15Z</time>
      </trkpt>
      <trkpt lat="48.09405" lon="-4.27431">
        <ele>82.330078125</ele>
        <time>2017-04-22T13:55:18Z</time>
      </trkpt>
      <trkpt lat="48.09414" lon="-4.27435">
        <ele>82.330078125</ele>
        <time>2017-04-22T13:55:26Z</time>
      </trkpt>
      <trkpt lat="48.09418" lon="-4.27435">
        <ele>82.330078125</ele>
        <time>2017-04-22T13:55:29Z</time>
      </trkpt>
      <trkpt lat="48.0943" lon="-4.27442">
        <ele>82.330078125</ele>
        <time>2017-04-22T13:55:39Z</time>
      </trkpt>
      <trkpt lat="48.0944" lon="-4.27447">
        <ele>82.810791015625</ele>
        <time>2017-04-22T13:55:47Z</time>
      </trkpt>
      <trkpt lat="48.09443" lon="-4.27449">
        <ele>83.291381835938</ele>
        <time>2017-04-22T13:55:50Z</time>
      </trkpt>
      <trkpt lat="48.09449" lon="-4.27451">
        <ele>82.330078125</ele>
        <time>2017-04-22T13:55:55Z</time>
      </trkpt>
      <trkpt lat="48.09455" lon="-4.27453">
        <ele>82.330078125</ele>
        <time>2017-04-22T13:56:00Z</time>
      </trkpt>
      <trkpt lat="48.09464" lon="-4.27458">
        <ele>82.810791015625</ele>
        <time>2017-04-22T13:56:07Z</time>
      </trkpt>
      <trkpt lat="48.09469" lon="-4.2746">
        <ele>82.330078125</ele>
        <time>2017-04-22T13:56:11Z</time>
      </trkpt>
      <trkpt lat="48.09479" lon="-4.27463">
        <ele>81.849365234375</ele>
        <time>2017-04-22T13:56:19Z</time>
      </trkpt>
      <trkpt lat="48.09481" lon="-4.27464">
        <ele>81.368774414062</ele>
        <time>2017-04-22T13:56:21Z</time>
      </trkpt>
      <trkpt lat="48.09488" lon="-4.27466">
        <ele>81.368774414062</ele>
        <time>2017-04-22T13:56:27Z</time>
      </trkpt>
      <trkpt lat="48.0949" lon="-4.27467">
        <ele>81.849365234375</ele>
        <time>2017-04-22T13:56:29Z</time>
      </trkpt>
      <trkpt lat="48.095" lon="-4.27472">
        <ele>81.849365234375</ele>
        <time>2017-04-22T13:56:38Z</time>
      </trkpt>
      <trkpt lat="48.09508" lon="-4.27477">
        <ele>81.368774414062</ele>
        <time>2017-04-22T13:56:45Z</time>
      </trkpt>
      <trkpt lat="48.09516" lon="-4.27481">
        <ele>80.407470703125</ele>
        <time>2017-04-22T13:56:52Z</time>
      </trkpt>
      <trkpt lat="48.09519" lon="-4.27488">
        <ele>80.88818359375</ele>
        <time>2017-04-22T13:56:57Z</time>
      </trkpt>
      <trkpt lat="48.0952" lon="-4.2749">
        <ele>80.88818359375</ele>
        <time>2017-04-22T13:56:58Z</time>
      </trkpt>
      <trkpt lat="48.09523" lon="-4.27496">
        <ele>81.849365234375</ele>
        <time>2017-04-22T13:57:03Z</time>
      </trkpt>
      <trkpt lat="48.09525" lon="-4.27505">
        <ele>84.252685546875</ele>
        <time>2017-04-22T13:57:08Z</time>
      </trkpt>
      <trkpt lat="48.0953" lon="-4.27519">
        <ele>86.656005859375</ele>
        <time>2017-04-22T13:57:15Z</time>
      </trkpt>
      <trkpt lat="48.09534" lon="-4.27526">
        <ele>86.656005859375</ele>
        <time>2017-04-22T13:57:19Z</time>
      </trkpt>
      <trkpt lat="48.09541" lon="-4.27538">
        <ele>85.213989257812</ele>
        <time>2017-04-22T13:57:28Z</time>
      </trkpt>
      <trkpt lat="48.09546" lon="-4.27539">
        <ele>82.810791015625</ele>
        <time>2017-04-22T13:57:33Z</time>
      </trkpt>
      <trkpt lat="48.09547" lon="-4.27539">
        <ele>82.330078125</ele>
        <time>2017-04-22T13:57:34Z</time>
      </trkpt>
      <trkpt lat="48.09553" lon="-4.27538">
        <ele>80.407470703125</ele>
        <time>2017-04-22T13:57:39Z</time>
      </trkpt>
      <trkpt lat="48.09557" lon="-4.27538">
        <ele>79.446044921875</ele>
        <time>2017-04-22T13:57:43Z</time>
      </trkpt>
      <trkpt lat="48.09558" lon="-4.27537">
        <ele>78.965454101562</ele>
        <time>2017-04-22T13:57:45Z</time>
      </trkpt>
      <trkpt lat="48.09568" lon="-4.27537">
        <ele>78.004028320312</ele>
        <time>2017-04-22T13:57:53Z</time>
      </trkpt>
      <trkpt lat="48.09577" lon="-4.27537">
        <ele>77.5234375</ele>
        <time>2017-04-22T13:57:59Z</time>
      </trkpt>
      <trkpt lat="48.09585" lon="-4.27537">
        <ele>78.004028320312</ele>
        <time>2017-04-22T13:58:05Z</time>
      </trkpt>
      <trkpt lat="48.09594" lon="-4.27537">
        <ele>78.484741210938</ele>
        <time>2017-04-22T13:58:11Z</time>
      </trkpt>
      <trkpt lat="48.09599" lon="-4.27537">
        <ele>78.484741210938</ele>
        <time>2017-04-22T13:58:15Z</time>
      </trkpt>
      <trkpt lat="48.09601" lon="-4.27537">
        <ele>78.484741210938</ele>
        <time>2017-04-22T13:58:17Z</time>
      </trkpt>
      <trkpt lat="48.09609" lon="-4.27537">
        <ele>78.004028320312</ele>
        <time>2017-04-22T13:58:24Z</time>
      </trkpt>
      <trkpt lat="48.09617" lon="-4.27534">
        <ele>75.600830078125</ele>
        <time>2017-04-22T13:58:30Z</time>
      </trkpt>
      <trkpt lat="48.09624" lon="-4.27533">
        <ele>73.197631835938</ele>
        <time>2017-04-22T13:58:36Z</time>
      </trkpt>
      <trkpt lat="48.09631" lon="-4.27535">
        <ele>73.67822265625</ele>
        <time>2017-04-22T13:58:41Z</time>
      </trkpt>
      <trkpt lat="48.09632" lon="-4.27534">
        <ele>73.67822265625</ele>
        <time>2017-04-22T13:58:42Z</time>
      </trkpt>
      <trkpt lat="48.09638" lon="-4.27535">
        <ele>74.158813476562</ele>
        <time>2017-04-22T13:58:47Z</time>
      </trkpt>
      <trkpt lat="48.09642" lon="-4.27534">
        <ele>74.639526367188</ele>
        <time>2017-04-22T13:58:50Z</time>
      </trkpt>
      <trkpt lat="48.09652" lon="-4.27534">
        <ele>75.120239257812</ele>
        <time>2017-04-22T13:58:58Z</time>
      </trkpt>
      <trkpt lat="48.09657" lon="-4.27533">
        <ele>75.600830078125</ele>
        <time>2017-04-22T13:59:01Z</time>
      </trkpt>
      <trkpt lat="48.09663" lon="-4.27535">
        <ele>74.639526367188</ele>
        <time>2017-04-22T13:59:06Z</time>
      </trkpt>
      <trkpt lat="48.09667" lon="-4.27534">
        <ele>73.197631835938</ele>
        <time>2017-04-22T13:59:10Z</time>
      </trkpt>
      <trkpt lat="48.09672" lon="-4.27534">
        <ele>72.236206054688</ele>
        <time>2017-04-22T13:59:15Z</time>
      </trkpt>
      <trkpt lat="48.09683" lon="-4.27532">
        <ele>69.832885742188</ele>
        <time>2017-04-22T13:59:24Z</time>
      </trkpt>
      <trkpt lat="48.09685" lon="-4.27533">
        <ele>69.352294921875</ele>
        <time>2017-04-22T13:59:25Z</time>
      </trkpt>
      <trkpt lat="48.09693" lon="-4.27531">
        <ele>65.987670898438</ele>
        <time>2017-04-22T13:59:32Z</time>
      </trkpt>
      <trkpt lat="48.09694" lon="-4.27531">
        <ele>65.0263671875</ele>
        <time>2017-04-22T13:59:34Z</time>
      </trkpt>
      <trkpt lat="48.09702" lon="-4.2753">
        <ele>62.622924804688</ele>
        <time>2017-04-22T13:59:41Z</time>
      </trkpt>
      <trkpt lat="48.09707" lon="-4.27529">
        <ele>62.142333984375</ele>
        <time>2017-04-22T13:59:46Z</time>
      </trkpt>
      <trkpt lat="48.09718" lon="-4.27528">
        <ele>64.065063476562</ele>
        <time>2017-04-22T13:59:54Z</time>
      </trkpt>
      <trkpt lat="48.09725" lon="-4.27528">
        <ele>65.507080078125</ele>
        <time>2017-04-22T13:59:59Z</time>
      </trkpt>
      <trkpt lat="48.09735" lon="-4.27526">
        <ele>64.545654296875</ele>
        <time>2017-04-22T14:00:06Z</time>
      </trkpt>
      <trkpt lat="48.09742" lon="-4.27523">
        <ele>63.584350585938</ele>
        <time>2017-04-22T14:00:12Z</time>
      </trkpt>
      <trkpt lat="48.09747" lon="-4.2752">
        <ele>62.142333984375</ele>
        <time>2017-04-22T14:00:16Z</time>
      </trkpt>
      <trkpt lat="48.09748" lon="-4.27519">
        <ele>61.661743164062</ele>
        <time>2017-04-22T14:00:17Z</time>
      </trkpt>
      <trkpt lat="48.09753" lon="-4.27514">
        <ele>59.739135742188</ele>
        <time>2017-04-22T14:00:21Z</time>
      </trkpt>
      <trkpt lat="48.09759" lon="-4.27506">
        <ele>57.816528320312</ele>
        <time>2017-04-22T14:00:28Z</time>
      </trkpt>
      <trkpt lat="48.09764" lon="-4.275">
        <ele>56.37451171875</ele>
        <time>2017-04-22T14:00:35Z</time>
      </trkpt>
      <trkpt lat="48.09768" lon="-4.27497">
        <ele>55.893798828125</ele>
        <time>2017-04-22T14:00:39Z</time>
      </trkpt>
      <trkpt lat="48.09774" lon="-4.27492">
        <ele>53.009765625</ele>
        <time>2017-04-22T14:00:46Z</time>
      </trkpt>
      <trkpt lat="48.09779" lon="-4.27488">
        <ele>49.645263671875</ele>
        <time>2017-04-22T14:00:54Z</time>
      </trkpt>
      <trkpt lat="48.09782" lon="-4.27491">
        <ele>48.203369140625</ele>
        <time>2017-04-22T14:00:59Z</time>
      </trkpt>
      <trkpt lat="48.09784" lon="-4.27494">
        <ele>47.241821289062</ele>
        <time>2017-04-22T14:01:03Z</time>
      </trkpt>
      <trkpt lat="48.09786" lon="-4.27498">
        <ele>46.280639648438</ele>
        <time>2017-04-22T14:01:06Z</time>
      </trkpt>
      <trkpt lat="48.09788" lon="-4.27507">
        <ele>45.319213867188</ele>
        <time>2017-04-22T14:01:12Z</time>
      </trkpt>
      <trkpt lat="48.09789" lon="-4.27514">
        <ele>44.838623046875</ele>
        <time>2017-04-22T14:01:16Z</time>
      </trkpt>
      <trkpt lat="48.09789" lon="-4.27515">
        <ele>45.319213867188</ele>
        <time>2017-04-22T14:01:17Z</time>
      </trkpt>
      <trkpt lat="48.09792" lon="-4.27525">
        <ele>43.396606445312</ele>
        <time>2017-04-22T14:01:23Z</time>
      </trkpt>
      <trkpt lat="48.09793" lon="-4.27526">
        <ele>43.396606445312</ele>
        <time>2017-04-22T14:01:24Z</time>
      </trkpt>
      <trkpt lat="48.09794" lon="-4.27531">
        <ele>41.954711914062</ele>
        <time>2017-04-22T14:01:29Z</time>
      </trkpt>
      <trkpt lat="48.09794" lon="-4.27534">
        <ele>41.473999023438</ele>
        <time>2017-04-22T14:01:31Z</time>
      </trkpt>
      <trkpt lat="48.09796" lon="-4.27547">
        <ele>42.916015625</ele>
        <time>2017-04-22T14:01:38Z</time>
      </trkpt>
      <trkpt lat="48.09796" lon="-4.27549">
        <ele>43.396606445312</ele>
        <time>2017-04-22T14:01:39Z</time>
      </trkpt>
      <trkpt lat="48.09794" lon="-4.27559">
        <ele>45.319213867188</ele>
        <time>2017-04-22T14:01:45Z</time>
      </trkpt>
      <trkpt lat="48.09795" lon="-4.27561">
        <ele>45.799926757812</ele>
        <time>2017-04-22T14:01:47Z</time>
      </trkpt>
      <trkpt lat="48.09796" lon="-4.27571">
        <ele>44.838623046875</ele>
        <time>2017-04-22T14:01:53Z</time>
      </trkpt>
      <trkpt lat="48.09798" lon="-4.27582">
        <ele>46.280639648438</ele>
        <time>2017-04-22T14:01:59Z</time>
      </trkpt>
      <trkpt lat="48.09799" lon="-4.27594">
        <ele>49.645263671875</ele>
        <time>2017-04-22T14:02:05Z</time>
      </trkpt>
      <trkpt lat="48.09799" lon="-4.27599">
        <ele>50.606567382812</ele>
        <time>2017-04-22T14:02:08Z</time>
      </trkpt>
      <trkpt lat="48.098" lon="-4.27607">
        <ele>49.16455078125</ele>
        <time>2017-04-22T14:02:13Z</time>
      </trkpt>
      <trkpt lat="48.09799" lon="-4.27623">
        <ele>49.16455078125</ele>
        <time>2017-04-22T14:02:21Z</time>
      </trkpt>
      <trkpt lat="48.098" lon="-4.27638">
        <ele>49.16455078125</ele>
        <time>2017-04-22T14:02:29Z</time>
      </trkpt>
      <trkpt lat="48.098" lon="-4.27646">
        <ele>47.241821289062</ele>
        <time>2017-04-22T14:02:33Z</time>
      </trkpt>
      <trkpt lat="48.098" lon="-4.27658">
        <ele>46.76123046875</ele>
        <time>2017-04-22T14:02:40Z</time>
      </trkpt>
      <trkpt lat="48.098" lon="-4.27671">
        <ele>46.280639648438</ele>
        <time>2017-04-22T14:02:47Z</time>
      </trkpt>
      <trkpt lat="48.09799" lon="-4.27683">
        <ele>44.838623046875</ele>
        <time>2017-04-22T14:02:54Z</time>
      </trkpt>
      <trkpt lat="48.09798" lon="-4.27694">
        <ele>44.358032226562</ele>
        <time>2017-04-22T14:03:02Z</time>
      </trkpt>
      <trkpt lat="48.09798" lon="-4.27702">
        <ele>44.838623046875</ele>
        <time>2017-04-22T14:03:07Z</time>
      </trkpt>
      <trkpt lat="48.09798" lon="-4.27709">
        <ele>42.435424804688</ele>
        <time>2017-04-22T14:03:11Z</time>
      </trkpt>
      <trkpt lat="48.098" lon="-4.27719">
        <ele>40.032104492188</ele>
        <time>2017-04-22T14:03:18Z</time>
      </trkpt>
      <trkpt lat="48.098" lon="-4.27731">
        <ele>37.148071289062</ele>
        <time>2017-04-22T14:03:26Z</time>
      </trkpt>
      <trkpt lat="48.098" lon="-4.27734">
        <ele>36.66748046875</ele>
        <time>2017-04-22T14:03:28Z</time>
      </trkpt>
      <trkpt lat="48.09804" lon="-4.27742">
        <ele>37.148071289062</ele>
        <time>2017-04-22T14:03:34Z</time>
      </trkpt>
      <trkpt lat="48.09806" lon="-4.27747">
        <ele>41.473999023438</ele>
        <time>2017-04-22T14:03:39Z</time>
      </trkpt>
      <trkpt lat="48.09813" lon="-4.27755">
        <ele>43.396606445312</ele>
        <time>2017-04-22T14:03:46Z</time>
      </trkpt>
      <trkpt lat="48.09814" lon="-4.27756">
        <ele>43.396606445312</ele>
        <time>2017-04-22T14:03:47Z</time>
      </trkpt>
      <trkpt lat="48.09817" lon="-4.27763">
        <ele>41.954711914062</ele>
        <time>2017-04-22T14:03:51Z</time>
      </trkpt>
      <trkpt lat="48.09823" lon="-4.27767">
        <ele>40.512817382812</ele>
        <time>2017-04-22T14:03:57Z</time>
      </trkpt>
      <trkpt lat="48.09826" lon="-4.27766">
        <ele>40.512817382812</ele>
        <time>2017-04-22T14:03:59Z</time>
      </trkpt>
      <trkpt lat="48.09833" lon="-4.27761">
        <ele>40.993408203125</ele>
        <time>2017-04-22T14:04:05Z</time>
      </trkpt>
      <trkpt lat="48.09837" lon="-4.27759">
        <ele>40.032104492188</ele>
        <time>2017-04-22T14:04:08Z</time>
      </trkpt>
      <trkpt lat="48.09842" lon="-4.27755">
        <ele>39.070678710938</ele>
        <time>2017-04-22T14:04:12Z</time>
      </trkpt>
      <trkpt lat="48.09844" lon="-4.27753">
        <ele>38.590087890625</ele>
        <time>2017-04-22T14:04:14Z</time>
      </trkpt>
      <trkpt lat="48.09852" lon="-4.27745">
        <ele>40.032104492188</ele>
        <time>2017-04-22T14:04:21Z</time>
      </trkpt>
      <trkpt lat="48.09857" lon="-4.2774">
        <ele>39.070678710938</ele>
        <time>2017-04-22T14:04:26Z</time>
      </trkpt>
      <trkpt lat="48.0986" lon="-4.27738">
        <ele>39.070678710938</ele>
        <time>2017-04-22T14:04:28Z</time>
      </trkpt>
      <trkpt lat="48.09866" lon="-4.27731">
        <ele>40.032104492188</ele>
        <time>2017-04-22T14:04:35Z</time>
      </trkpt>
      <trkpt lat="48.09874" lon="-4.27721">
        <ele>40.512817382812</ele>
        <time>2017-04-22T14:04:43Z</time>
      </trkpt>
      <trkpt lat="48.09876" lon="-4.27717">
        <ele>40.032104492188</ele>
        <time>2017-04-22T14:04:46Z</time>
      </trkpt>
      <trkpt lat="48.09883" lon="-4.27711">
        <ele>40.032104492188</ele>
        <time>2017-04-22T14:04:53Z</time>
      </trkpt>
      <trkpt lat="48.09885" lon="-4.27708">
        <ele>40.032104492188</ele>
        <time>2017-04-22T14:04:56Z</time>
      </trkpt>
      <trkpt lat="48.09891" lon="-4.27701">
        <ele>40.993408203125</ele>
        <time>2017-04-22T14:05:05Z</time>
      </trkpt>
      <trkpt lat="48.09897" lon="-4.27698">
        <ele>42.435424804688</ele>
        <time>2017-04-22T14:05:12Z</time>
      </trkpt>
      <trkpt lat="48.099" lon="-4.27701">
        <ele>41.473999023438</ele>
        <time>2017-04-22T14:05:16Z</time>
      </trkpt>
      <trkpt lat="48.09901" lon="-4.27705">
        <ele>40.512817382812</ele>
        <time>2017-04-22T14:05:18Z</time>
      </trkpt>
      <trkpt lat="48.09904" lon="-4.27711">
        <ele>39.55126953125</ele>
        <time>2017-04-22T14:05:23Z</time>
      </trkpt>
      <trkpt lat="48.09905" lon="-4.2772">
        <ele>37.628662109375</ele>
        <time>2017-04-22T14:05:28Z</time>
      </trkpt>
      <trkpt lat="48.09906" lon="-4.27721">
        <ele>37.628662109375</ele>
        <time>2017-04-22T14:05:29Z</time>
      </trkpt>
      <trkpt lat="48.0991" lon="-4.2773">
        <ele>35.7060546875</ele>
        <time>2017-04-22T14:05:35Z</time>
      </trkpt>
      <trkpt lat="48.09911" lon="-4.2774">
        <ele>38.590087890625</ele>
        <time>2017-04-22T14:05:41Z</time>
      </trkpt>
      <trkpt lat="48.09912" lon="-4.2775">
        <ele>39.55126953125</ele>
        <time>2017-04-22T14:05:46Z</time>
      </trkpt>
      <trkpt lat="48.09914" lon="-4.27757">
        <ele>39.55126953125</ele>
        <time>2017-04-22T14:05:51Z</time>
      </trkpt>
      <trkpt lat="48.09918" lon="-4.27764">
        <ele>39.55126953125</ele>
        <time>2017-04-22T14:05:56Z</time>
      </trkpt>
      <trkpt lat="48.09925" lon="-4.27773">
        <ele>35.7060546875</ele>
        <time>2017-04-22T14:06:03Z</time>
      </trkpt>
      <trkpt lat="48.09929" lon="-4.2778">
        <ele>33.783447265625</ele>
        <time>2017-04-22T14:06:09Z</time>
      </trkpt>
      <trkpt lat="48.09935" lon="-4.27785">
        <ele>32.822265625</ele>
        <time>2017-04-22T14:06:13Z</time>
      </trkpt>
      <trkpt lat="48.09936" lon="-4.27786">
        <ele>32.341552734375</ele>
        <time>2017-04-22T14:06:14Z</time>
      </trkpt>
      <trkpt lat="48.09942" lon="-4.27797">
        <ele>33.783447265625</ele>
        <time>2017-04-22T14:06:23Z</time>
      </trkpt>
      <trkpt lat="48.09947" lon="-4.27804">
        <ele>34.744873046875</ele>
        <time>2017-04-22T14:06:29Z</time>
      </trkpt>
      <trkpt lat="48.09948" lon="-4.27805">
        <ele>35.225463867188</ele>
        <time>2017-04-22T14:06:30Z</time>
      </trkpt>
      <trkpt lat="48.09952" lon="-4.27812">
        <ele>36.186767578125</ele>
        <time>2017-04-22T14:06:36Z</time>
      </trkpt>
      <trkpt lat="48.09958" lon="-4.27817">
        <ele>38.109375</ele>
        <time>2017-04-22T14:06:43Z</time>
      </trkpt>
      <trkpt lat="48.0996" lon="-4.27817">
        <ele>38.590087890625</ele>
        <time>2017-04-22T14:06:45Z</time>
      </trkpt>
      <trkpt lat="48.09966" lon="-4.27814">
        <ele>39.070678710938</ele>
        <time>2017-04-22T14:06:51Z</time>
      </trkpt>
      <trkpt lat="48.09974" lon="-4.27809">
        <ele>40.512817382812</ele>
        <time>2017-04-22T14:06:58Z</time>
      </trkpt>
      <trkpt lat="48.0998" lon="-4.27811">
        <ele>41.473999023438</ele>
        <time>2017-04-22T14:07:03Z</time>
      </trkpt>
      <trkpt lat="48.09985" lon="-4.27812">
        <ele>41.954711914062</ele>
        <time>2017-04-22T14:07:07Z</time>
      </trkpt>
      <trkpt lat="48.09992" lon="-4.27813">
        <ele>41.954711914062</ele>
        <time>2017-04-22T14:07:13Z</time>
      </trkpt>
      <trkpt lat="48.09993" lon="-4.27813">
        <ele>41.954711914062</ele>
        <time>2017-04-22T14:07:14Z</time>
      </trkpt>
      <trkpt lat="48.09998" lon="-4.27814">
        <ele>42.435424804688</ele>
        <time>2017-04-22T14:07:18Z</time>
      </trkpt>
      <trkpt lat="48.1" lon="-4.27814">
        <ele>42.435424804688</ele>
        <time>2017-04-22T14:07:20Z</time>
      </trkpt>
      <trkpt lat="48.10008" lon="-4.27813">
        <ele>42.916015625</ele>
        <time>2017-04-22T14:07:27Z</time>
      </trkpt>
      <trkpt lat="48.1001" lon="-4.27812">
        <ele>41.954711914062</ele>
        <time>2017-04-22T14:07:28Z</time>
      </trkpt>
      <trkpt lat="48.10015" lon="-4.27812">
        <ele>42.435424804688</ele>
        <time>2017-04-22T14:07:33Z</time>
      </trkpt>
      <trkpt lat="48.10022" lon="-4.27812">
        <ele>43.396606445312</ele>
        <time>2017-04-22T14:07:39Z</time>
      </trkpt>
      <trkpt lat="48.10031" lon="-4.27811">
        <ele>44.838623046875</ele>
        <time>2017-04-22T14:07:47Z</time>
      </trkpt>
      <trkpt lat="48.10032" lon="-4.27811">
        <ele>44.838623046875</ele>
        <time>2017-04-22T14:07:48Z</time>
      </trkpt>
      <trkpt lat="48.10042" lon="-4.27812">
        <ele>46.76123046875</ele>
        <time>2017-04-22T14:07:56Z</time>
      </trkpt>
      <trkpt lat="48.10048" lon="-4.2781">
        <ele>46.280639648438</ele>
        <time>2017-04-22T14:08:01Z</time>
      </trkpt>
      <trkpt lat="48.10053" lon="-4.27811">
        <ele>47.722534179688</ele>
        <time>2017-04-22T14:08:06Z</time>
      </trkpt>
      <trkpt lat="48.10055" lon="-4.27811">
        <ele>48.203369140625</ele>
        <time>2017-04-22T14:08:07Z</time>
      </trkpt>
      <trkpt lat="48.1006" lon="-4.27812">
        <ele>49.16455078125</ele>
        <time>2017-04-22T14:08:10Z</time>
      </trkpt>
      <trkpt lat="48.10065" lon="-4.27812">
        <ele>50.1259765625</ele>
        <time>2017-04-22T14:08:14Z</time>
      </trkpt>
      <trkpt lat="48.10067" lon="-4.27812">
        <ele>49.645263671875</ele>
        <time>2017-04-22T14:08:16Z</time>
      </trkpt>
      <trkpt lat="48.10069" lon="-4.2781">
        <ele>49.16455078125</ele>
        <time>2017-04-22T14:08:18Z</time>
      </trkpt>
      <trkpt lat="48.10077" lon="-4.27809">
        <ele>49.16455078125</ele>
        <time>2017-04-22T14:08:26Z</time>
      </trkpt>
      <trkpt lat="48.10084" lon="-4.27807">
        <ele>49.645263671875</ele>
        <time>2017-04-22T14:08:31Z</time>
      </trkpt>
      <trkpt lat="48.10088" lon="-4.27808">
        <ele>49.16455078125</ele>
        <time>2017-04-22T14:08:36Z</time>
      </trkpt>
      <trkpt lat="48.10095" lon="-4.2781">
        <ele>50.606567382812</ele>
        <time>2017-04-22T14:08:42Z</time>
      </trkpt>
      <trkpt lat="48.10097" lon="-4.27817">
        <ele>50.606567382812</ele>
        <time>2017-04-22T14:08:47Z</time>
      </trkpt>
      <trkpt lat="48.10098" lon="-4.27828">
        <ele>53.009765625</ele>
        <time>2017-04-22T14:08:53Z</time>
      </trkpt>
      <trkpt lat="48.10098" lon="-4.27837">
        <ele>53.490478515625</ele>
        <time>2017-04-22T14:08:58Z</time>
      </trkpt>
      <trkpt lat="48.10099" lon="-4.27848">
        <ele>54.451782226562</ele>
        <time>2017-04-22T14:09:04Z</time>
      </trkpt>
      <trkpt lat="48.10098" lon="-4.2786">
        <ele>54.932373046875</ele>
        <time>2017-04-22T14:09:10Z</time>
      </trkpt>
      <trkpt lat="48.10099" lon="-4.27869">
        <ele>53.490478515625</ele>
        <time>2017-04-22T14:09:16Z</time>
      </trkpt>
      <trkpt lat="48.10099" lon="-4.27882">
        <ele>50.606567382812</ele>
        <time>2017-04-22T14:09:23Z</time>
      </trkpt>
      <trkpt lat="48.10101" lon="-4.27887">
        <ele>49.16455078125</ele>
        <time>2017-04-22T14:09:27Z</time>
      </trkpt>
      <trkpt lat="48.10103" lon="-4.27901">
        <ele>45.799926757812</ele>
        <time>2017-04-22T14:09:36Z</time>
      </trkpt>
      <trkpt lat="48.10103" lon="-4.27909">
        <ele>44.358032226562</ele>
        <time>2017-04-22T14:09:41Z</time>
      </trkpt>
      <trkpt lat="48.10103" lon="-4.27914">
        <ele>44.358032226562</ele>
        <time>2017-04-22T14:09:44Z</time>
      </trkpt>
      <trkpt lat="48.10104" lon="-4.27921">
        <ele>42.916015625</ele>
        <time>2017-04-22T14:09:49Z</time>
      </trkpt>
      <trkpt lat="48.10101" lon="-4.27934">
        <ele>43.396606445312</ele>
        <time>2017-04-22T14:09:54Z</time>
      </trkpt>
      <trkpt lat="48.10102" lon="-4.27945">
        <ele>43.396606445312</ele>
        <time>2017-04-22T14:10:00Z</time>
      </trkpt>
      <trkpt lat="48.10103" lon="-4.27952">
        <ele>41.954711914062</ele>
        <time>2017-04-22T14:10:05Z</time>
      </trkpt>
      <trkpt lat="48.10108" lon="-4.27962">
        <ele>40.032104492188</ele>
        <time>2017-04-22T14:10:12Z</time>
      </trkpt>
      <trkpt lat="48.10109" lon="-4.27966">
        <ele>38.590087890625</ele>
        <time>2017-04-22T14:10:15Z</time>
      </trkpt>
      <trkpt lat="48.10112" lon="-4.27972">
        <ele>38.109375</ele>
        <time>2017-04-22T14:10:19Z</time>
      </trkpt>
      <trkpt lat="48.10114" lon="-4.27978">
        <ele>36.186767578125</ele>
        <time>2017-04-22T14:10:23Z</time>
      </trkpt>
      <trkpt lat="48.10118" lon="-4.27987">
        <ele>33.783447265625</ele>
        <time>2017-04-22T14:10:30Z</time>
      </trkpt>
      <trkpt lat="48.1012" lon="-4.27993">
        <ele>32.822265625</ele>
        <time>2017-04-22T14:10:35Z</time>
      </trkpt>
      <trkpt lat="48.10123" lon="-4.28">
        <ele>31.380126953125</ele>
        <time>2017-04-22T14:10:40Z</time>
      </trkpt>
      <trkpt lat="48.10126" lon="-4.28006">
        <ele>30.418823242188</ele>
        <time>2017-04-22T14:10:44Z</time>
      </trkpt>
      <trkpt lat="48.10129" lon="-4.2801">
        <ele>29.45751953125</ele>
        <time>2017-04-22T14:10:47Z</time>
      </trkpt>
      <trkpt lat="48.10134" lon="-4.28017">
        <ele>27.534912109375</ele>
        <time>2017-04-22T14:10:53Z</time>
      </trkpt>
      <trkpt lat="48.10137" lon="-4.28025">
        <ele>27.054321289062</ele>
        <time>2017-04-22T14:10:57Z</time>
      </trkpt>
      <trkpt lat="48.10142" lon="-4.28034">
        <ele>28.015502929688</ele>
        <time>2017-04-22T14:11:03Z</time>
      </trkpt>
      <trkpt lat="48.10144" lon="-4.28039">
        <ele>27.534912109375</ele>
        <time>2017-04-22T14:11:07Z</time>
      </trkpt>
      <trkpt lat="48.10149" lon="-4.28051">
        <ele>33.783447265625</ele>
        <time>2017-04-22T14:11:15Z</time>
      </trkpt>
      <trkpt lat="48.10151" lon="-4.28063">
        <ele>34.744873046875</ele>
        <time>2017-04-22T14:11:21Z</time>
      </trkpt>
      <trkpt lat="48.10155" lon="-4.28074">
        <ele>34.26416015625</ele>
        <time>2017-04-22T14:11:28Z</time>
      </trkpt>
      <trkpt lat="48.10157" lon="-4.28084">
        <ele>33.302856445312</ele>
        <time>2017-04-22T14:11:35Z</time>
      </trkpt>
      <trkpt lat="48.10163" lon="-4.28098">
        <ele>31.380126953125</ele>
        <time>2017-04-22T14:11:45Z</time>
      </trkpt>
      <trkpt lat="48.10169" lon="-4.28108">
        <ele>32.341552734375</ele>
        <time>2017-04-22T14:11:52Z</time>
      </trkpt>
      <trkpt lat="48.10175" lon="-4.28114">
        <ele>32.822265625</ele>
        <time>2017-04-22T14:11:58Z</time>
      </trkpt>
      <trkpt lat="48.1018" lon="-4.28122">
        <ele>33.302856445312</ele>
        <time>2017-04-22T14:12:05Z</time>
      </trkpt>
      <trkpt lat="48.10183" lon="-4.28126">
        <ele>33.302856445312</ele>
        <time>2017-04-22T14:12:08Z</time>
      </trkpt>
      <trkpt lat="48.10188" lon="-4.2813">
        <ele>33.783447265625</ele>
        <time>2017-04-22T14:12:14Z</time>
      </trkpt>
      <trkpt lat="48.10195" lon="-4.28133">
        <ele>34.744873046875</ele>
        <time>2017-04-22T14:12:20Z</time>
      </trkpt>
      <trkpt lat="48.10203" lon="-4.28136">
        <ele>35.7060546875</ele>
        <time>2017-04-22T14:12:27Z</time>
      </trkpt>
      <trkpt lat="48.10206" lon="-4.28136">
        <ele>36.66748046875</ele>
        <time>2017-04-22T14:12:29Z</time>
      </trkpt>
      <trkpt lat="48.10216" lon="-4.28139">
        <ele>37.628662109375</ele>
        <time>2017-04-22T14:12:37Z</time>
      </trkpt>
      <trkpt lat="48.10217" lon="-4.28139">
        <ele>38.590087890625</ele>
        <time>2017-04-22T14:12:39Z</time>
      </trkpt>
      <trkpt lat="48.10221" lon="-4.2814">
        <ele>40.032104492188</ele>
        <time>2017-04-22T14:12:43Z</time>
      </trkpt>
      <trkpt lat="48.10228" lon="-4.28141">
        <ele>40.512817382812</ele>
        <time>2017-04-22T14:12:49Z</time>
      </trkpt>
      <trkpt lat="48.10236" lon="-4.28143">
        <ele>40.993408203125</ele>
        <time>2017-04-22T14:12:55Z</time>
      </trkpt>
      <trkpt lat="48.10241" lon="-4.28144">
        <ele>40.993408203125</ele>
        <time>2017-04-22T14:13:01Z</time>
      </trkpt>
      <trkpt lat="48.10248" lon="-4.28144">
        <ele>43.396606445312</ele>
        <time>2017-04-22T14:13:07Z</time>
      </trkpt>
      <trkpt lat="48.10252" lon="-4.28145">
        <ele>43.877319335938</ele>
        <time>2017-04-22T14:13:11Z</time>
      </trkpt>
      <trkpt lat="48.10257" lon="-4.28145">
        <ele>43.877319335938</ele>
        <time>2017-04-22T14:13:17Z</time>
      </trkpt>
      <trkpt lat="48.10261" lon="-4.28146">
        <ele>44.358032226562</ele>
        <time>2017-04-22T14:13:21Z</time>
      </trkpt>
      <trkpt lat="48.10267" lon="-4.28147">
        <ele>43.877319335938</ele>
        <time>2017-04-22T14:13:27Z</time>
      </trkpt>
      <trkpt lat="48.10272" lon="-4.28149">
        <ele>43.877319335938</ele>
        <time>2017-04-22T14:13:31Z</time>
      </trkpt>
      <trkpt lat="48.10278" lon="-4.2815">
        <ele>42.916015625</ele>
        <time>2017-04-22T14:13:37Z</time>
      </trkpt>
      <trkpt lat="48.1028" lon="-4.28151">
        <ele>43.396606445312</ele>
        <time>2017-04-22T14:13:39Z</time>
      </trkpt>
      <trkpt lat="48.10284" lon="-4.28152">
        <ele>42.916015625</ele>
        <time>2017-04-22T14:13:43Z</time>
      </trkpt>
      <trkpt lat="48.1029" lon="-4.28152">
        <ele>43.877319335938</ele>
        <time>2017-04-22T14:13:49Z</time>
      </trkpt>
      <trkpt lat="48.10296" lon="-4.28154">
        <ele>44.358032226562</ele>
        <time>2017-04-22T14:13:54Z</time>
      </trkpt>
      <trkpt lat="48.10298" lon="-4.28155">
        <ele>44.358032226562</ele>
        <time>2017-04-22T14:13:55Z</time>
      </trkpt>
      <trkpt lat="48.10301" lon="-4.28156">
        <ele>44.358032226562</ele>
        <time>2017-04-22T14:13:57Z</time>
      </trkpt>
      <trkpt lat="48.10304" lon="-4.28159">
        <ele>44.358032226562</ele>
        <time>2017-04-22T14:14:02Z</time>
      </trkpt>
      <trkpt lat="48.1031" lon="-4.28161">
        <ele>43.877319335938</ele>
        <time>2017-04-22T14:14:07Z</time>
      </trkpt>
      <trkpt lat="48.10323" lon="-4.28169">
        <ele>42.916015625</ele>
        <time>2017-04-22T14:14:19Z</time>
      </trkpt>
      <trkpt lat="48.10324" lon="-4.28174">
        <ele>43.877319335938</ele>
        <time>2017-04-22T14:14:48Z</time>
      </trkpt>
      <trkpt lat="48.10335" lon="-4.28179">
        <ele>41.473999023438</ele>
        <time>2017-04-22T14:14:58Z</time>
      </trkpt>
      <trkpt lat="48.10342" lon="-4.28182">
        <ele>40.512817382812</ele>
        <time>2017-04-22T14:15:04Z</time>
      </trkpt>
      <trkpt lat="48.1035" lon="-4.28184">
        <ele>41.473999023438</ele>
        <time>2017-04-22T14:15:10Z</time>
      </trkpt>
      <trkpt lat="48.10357" lon="-4.28184">
        <ele>41.954711914062</ele>
        <time>2017-04-22T14:15:16Z</time>
      </trkpt>
      <trkpt lat="48.10364" lon="-4.28178">
        <ele>42.435424804688</ele>
        <time>2017-04-22T14:15:22Z</time>
      </trkpt>
      <trkpt lat="48.10372" lon="-4.28171">
        <ele>43.396606445312</ele>
        <time>2017-04-22T14:15:30Z</time>
      </trkpt>
      <trkpt lat="48.10378" lon="-4.28165">
        <ele>43.877319335938</ele>
        <time>2017-04-22T14:15:36Z</time>
      </trkpt>
      <trkpt lat="48.10384" lon="-4.2816">
        <ele>42.916015625</ele>
        <time>2017-04-22T14:15:41Z</time>
      </trkpt>
      <trkpt lat="48.1039" lon="-4.28156">
        <ele>42.435424804688</ele>
        <time>2017-04-22T14:15:46Z</time>
      </trkpt>
      <trkpt lat="48.10391" lon="-4.28155">
        <ele>42.916015625</ele>
        <time>2017-04-22T14:15:47Z</time>
      </trkpt>
      <trkpt lat="48.10399" lon="-4.28149">
        <ele>43.877319335938</ele>
        <time>2017-04-22T14:15:54Z</time>
      </trkpt>
      <trkpt lat="48.10406" lon="-4.28145">
        <ele>44.358032226562</ele>
        <time>2017-04-22T14:16:00Z</time>
      </trkpt>
      <trkpt lat="48.10411" lon="-4.28143">
        <ele>44.838623046875</ele>
        <time>2017-04-22T14:16:05Z</time>
      </trkpt>
      <trkpt lat="48.10415" lon="-4.28148">
        <ele>45.799926757812</ele>
        <time>2017-04-22T14:16:12Z</time>
      </trkpt>
      <trkpt lat="48.10416" lon="-4.28151">
        <ele>45.319213867188</ele>
        <time>2017-04-22T14:16:14Z</time>
      </trkpt>
      <trkpt lat="48.10418" lon="-4.28161">
        <ele>45.799926757812</ele>
        <time>2017-04-22T14:16:20Z</time>
      </trkpt>
      <trkpt lat="48.10419" lon="-4.28172">
        <ele>45.319213867188</ele>
        <time>2017-04-22T14:16:26Z</time>
      </trkpt>
      <trkpt lat="48.1042" lon="-4.28178">
        <ele>45.319213867188</ele>
        <time>2017-04-22T14:16:30Z</time>
      </trkpt>
      <trkpt lat="48.10421" lon="-4.28183">
        <ele>45.319213867188</ele>
        <time>2017-04-22T14:16:32Z</time>
      </trkpt>
      <trkpt lat="48.10422" lon="-4.28192">
        <ele>46.280639648438</ele>
        <time>2017-04-22T14:16:38Z</time>
      </trkpt>
      <trkpt lat="48.10424" lon="-4.28196">
        <ele>45.799926757812</ele>
        <time>2017-04-22T14:16:41Z</time>
      </trkpt>
      <trkpt lat="48.10427" lon="-4.28207">
        <ele>42.916015625</ele>
        <time>2017-04-22T14:16:47Z</time>
      </trkpt>
      <trkpt lat="48.10428" lon="-4.28213">
        <ele>42.916015625</ele>
        <time>2017-04-22T14:16:50Z</time>
      </trkpt>
      <trkpt lat="48.1043" lon="-4.28224">
        <ele>42.916015625</ele>
        <time>2017-04-22T14:16:57Z</time>
      </trkpt>
      <trkpt lat="48.10432" lon="-4.28231">
        <ele>42.435424804688</ele>
        <time>2017-04-22T14:17:01Z</time>
      </trkpt>
      <trkpt lat="48.10435" lon="-4.28247">
        <ele>41.954711914062</ele>
        <time>2017-04-22T14:17:10Z</time>
      </trkpt>
      <trkpt lat="48.10437" lon="-4.28258">
        <ele>41.473999023438</ele>
        <time>2017-04-22T14:17:17Z</time>
      </trkpt>
      <trkpt lat="48.10438" lon="-4.28261">
        <ele>40.993408203125</ele>
        <time>2017-04-22T14:17:19Z</time>
      </trkpt>
      <trkpt lat="48.10438" lon="-4.2827">
        <ele>40.993408203125</ele>
        <time>2017-04-22T14:17:25Z</time>
      </trkpt>
      <trkpt lat="48.1044" lon="-4.2828">
        <ele>40.032104492188</ele>
        <time>2017-04-22T14:17:32Z</time>
      </trkpt>
      <trkpt lat="48.1044" lon="-4.28282">
        <ele>40.032104492188</ele>
        <time>2017-04-22T14:17:33Z</time>
      </trkpt>
      <trkpt lat="48.10444" lon="-4.28297">
        <ele>39.070678710938</ele>
        <time>2017-04-22T14:17:41Z</time>
      </trkpt>
      <trkpt lat="48.10444" lon="-4.283">
        <ele>38.590087890625</ele>
        <time>2017-04-22T14:17:43Z</time>
      </trkpt>
      <trkpt lat="48.10447" lon="-4.28312">
        <ele>36.186767578125</ele>
        <time>2017-04-22T14:17:50Z</time>
      </trkpt>
      <trkpt lat="48.10448" lon="-4.28318">
        <ele>36.66748046875</ele>
        <time>2017-04-22T14:17:53Z</time>
      </trkpt>
      <trkpt lat="48.10449" lon="-4.28326">
        <ele>36.186767578125</ele>
        <time>2017-04-22T14:17:57Z</time>
      </trkpt>
      <trkpt lat="48.10452" lon="-4.28332">
        <ele>34.744873046875</ele>
        <time>2017-04-22T14:18:01Z</time>
      </trkpt>
      <trkpt lat="48.10454" lon="-4.28343">
        <ele>33.783447265625</ele>
        <time>2017-04-22T14:18:07Z</time>
      </trkpt>
      <trkpt lat="48.10458" lon="-4.28354">
        <ele>31.380126953125</ele>
        <time>2017-04-22T14:18:14Z</time>
      </trkpt>
      <trkpt lat="48.10459" lon="-4.28365">
        <ele>30.899536132812</ele>
        <time>2017-04-22T14:18:20Z</time>
      </trkpt>
      <trkpt lat="48.10463" lon="-4.28382">
        <ele>28.976928710938</ele>
        <time>2017-04-22T14:18:30Z</time>
      </trkpt>
      <trkpt lat="48.10465" lon="-4.28394">
        <ele>28.976928710938</ele>
        <time>2017-04-22T14:18:37Z</time>
      </trkpt>
      <trkpt lat="48.10468" lon="-4.28408">
        <ele>28.015502929688</ele>
        <time>2017-04-22T14:18:45Z</time>
      </trkpt>
      <trkpt lat="48.1047" lon="-4.28412">
        <ele>26.092895507812</ele>
        <time>2017-04-22T14:18:48Z</time>
      </trkpt>
      <trkpt lat="48.10472" lon="-4.28424">
        <ele>23.208984375</ele>
        <time>2017-04-22T14:18:55Z</time>
      </trkpt>
      <trkpt lat="48.10474" lon="-4.2843">
        <ele>22.24755859375</ele>
        <time>2017-04-22T14:18:59Z</time>
      </trkpt>
      <trkpt lat="48.10475" lon="-4.28435">
        <ele>21.286376953125</ele>
        <time>2017-04-22T14:19:02Z</time>
      </trkpt>
      <trkpt lat="48.10475" lon="-4.28443">
        <ele>19.36376953125</ele>
        <time>2017-04-22T14:19:07Z</time>
      </trkpt>
      <trkpt lat="48.10478" lon="-4.28454">
        <ele>19.844360351562</ele>
        <time>2017-04-22T14:19:13Z</time>
      </trkpt>
      <trkpt lat="48.10479" lon="-4.28461">
        <ele>18.40234375</ele>
        <time>2017-04-22T14:19:18Z</time>
      </trkpt>
      <trkpt lat="48.10482" lon="-4.28472">
        <ele>15.9990234375</ele>
        <time>2017-04-22T14:19:25Z</time>
      </trkpt>
      <trkpt lat="48.10484" lon="-4.28481">
        <ele>14.076416015625</ele>
        <time>2017-04-22T14:19:31Z</time>
      </trkpt>
      <trkpt lat="48.1049" lon="-4.28488">
        <ele>13.115112304688</ele>
        <time>2017-04-22T14:19:38Z</time>
      </trkpt>
      <trkpt lat="48.10489" lon="-4.28488">
        <ele>12.15380859375</ele>
        <time>2017-04-22T14:19:42Z</time>
      </trkpt>
      <trkpt lat="48.10486" lon="-4.28488">
        <ele>12.15380859375</ele>
        <time>2017-04-22T14:19:44Z</time>
      </trkpt>
      <trkpt lat="48.10483" lon="-4.28487">
        <ele>11.673217773438</ele>
        <time>2017-04-22T14:19:47Z</time>
      </trkpt>
      <trkpt lat="48.10478" lon="-4.28488">
        <ele>9.7506103515625</ele>
        <time>2017-04-22T14:19:53Z</time>
      </trkpt>
      <trkpt lat="48.10476" lon="-4.28489">
        <ele>9.2698974609375</ele>
        <time>2017-04-22T14:19:55Z</time>
      </trkpt>
      <trkpt lat="48.10472" lon="-4.28493">
        <ele>9.7506103515625</ele>
        <time>2017-04-22T14:19:59Z</time>
      </trkpt>
      <trkpt lat="48.10471" lon="-4.28498">
        <ele>9.7506103515625</ele>
        <time>2017-04-22T14:20:02Z</time>
      </trkpt>
      <trkpt lat="48.10472" lon="-4.28506">
        <ele>9.7506103515625</ele>
        <time>2017-04-22T14:20:07Z</time>
      </trkpt>
      <trkpt lat="48.10472" lon="-4.28512">
        <ele>9.2698974609375</ele>
        <time>2017-04-22T14:20:10Z</time>
      </trkpt>
      <trkpt lat="48.10472" lon="-4.28515">
        <ele>9.2698974609375</ele>
        <time>2017-04-22T14:20:12Z</time>
      </trkpt>
      <trkpt lat="48.10471" lon="-4.28528">
        <ele>10.231201171875</ele>
        <time>2017-04-22T14:20:19Z</time>
      </trkpt>
      <trkpt lat="48.10468" lon="-4.2854">
        <ele>10.231201171875</ele>
        <time>2017-04-22T14:20:26Z</time>
      </trkpt>
      <trkpt lat="48.10466" lon="-4.28545">
        <ele>11.192504882812</ele>
        <time>2017-04-22T14:20:30Z</time>
      </trkpt>
      <trkpt lat="48.10462" lon="-4.28552">
        <ele>11.192504882812</ele>
        <time>2017-04-22T14:20:36Z</time>
      </trkpt>
      <trkpt lat="48.10461" lon="-4.28563">
        <ele>11.192504882812</ele>
        <time>2017-04-22T14:20:43Z</time>
      </trkpt>
      <trkpt lat="48.10459" lon="-4.28566">
        <ele>10.711791992188</ele>
        <time>2017-04-22T14:20:46Z</time>
      </trkpt>
      <trkpt lat="48.10454" lon="-4.2857">
        <ele>11.192504882812</ele>
        <time>2017-04-22T14:20:52Z</time>
      </trkpt>
      <trkpt lat="48.10448" lon="-4.28573">
        <ele>10.231201171875</ele>
        <time>2017-04-22T14:20:58Z</time>
      </trkpt>
      <trkpt lat="48.10448" lon="-4.28576">
        <ele>10.711791992188</ele>
        <time>2017-04-22T14:21:03Z</time>
      </trkpt>
      <trkpt lat="48.10447" lon="-4.28577">
        <ele>7.827880859375</ele>
        <time>2017-04-22T14:21:18Z</time>
      </trkpt>
      <trkpt lat="48.10444" lon="-4.2858">
        <ele>7.827880859375</ele>
        <time>2017-04-22T14:21:22Z</time>
      </trkpt>
      <trkpt lat="48.10437" lon="-4.28582">
        <ele>8.30859375</ele>
        <time>2017-04-22T14:21:28Z</time>
      </trkpt>
      <trkpt lat="48.10433" lon="-4.28584">
        <ele>8.7891845703125</ele>
        <time>2017-04-22T14:21:32Z</time>
      </trkpt>
      <trkpt lat="48.10424" lon="-4.28586">
        <ele>10.231201171875</ele>
        <time>2017-04-22T14:21:39Z</time>
      </trkpt>
      <trkpt lat="48.10417" lon="-4.28587">
        <ele>12.15380859375</ele>
        <time>2017-04-22T14:21:45Z</time>
      </trkpt>
      <trkpt lat="48.1041" lon="-4.28588">
        <ele>13.595825195312</ele>
        <time>2017-04-22T14:21:51Z</time>
      </trkpt>
      <trkpt lat="48.10409" lon="-4.28588">
        <ele>13.595825195312</ele>
        <time>2017-04-22T14:21:52Z</time>
      </trkpt>
      <trkpt lat="48.10403" lon="-4.28591">
        <ele>14.076416015625</ele>
        <time>2017-04-22T14:21:57Z</time>
      </trkpt>
      <trkpt lat="48.10396" lon="-4.28593">
        <ele>16.479736328125</ele>
        <time>2017-04-22T14:22:03Z</time>
      </trkpt>
      <trkpt lat="48.10392" lon="-4.28596">
        <ele>16.479736328125</ele>
        <time>2017-04-22T14:22:07Z</time>
      </trkpt>
      <trkpt lat="48.10386" lon="-4.28596">
        <ele>15.518432617188</ele>
        <time>2017-04-22T14:22:13Z</time>
      </trkpt>
      <trkpt lat="48.10382" lon="-4.28595">
        <ele>15.037719726562</ele>
        <time>2017-04-22T14:22:16Z</time>
      </trkpt>
      <trkpt lat="48.10379" lon="-4.28599">
        <ele>14.076416015625</ele>
        <time>2017-04-22T14:22:21Z</time>
      </trkpt>
      <trkpt lat="48.10374" lon="-4.28607">
        <ele>14.076416015625</ele>
        <time>2017-04-22T14:22:27Z</time>
      </trkpt>
      <trkpt lat="48.10369" lon="-4.28616">
        <ele>13.115112304688</ele>
        <time>2017-04-22T14:22:34Z</time>
      </trkpt>
      <trkpt lat="48.10363" lon="-4.28621">
        <ele>13.595825195312</ele>
        <time>2017-04-22T14:22:40Z</time>
      </trkpt>
      <trkpt lat="48.10357" lon="-4.28628">
        <ele>13.595825195312</ele>
        <time>2017-04-22T14:22:47Z</time>
      </trkpt>
      <trkpt lat="48.10349" lon="-4.28632">
        <ele>13.595825195312</ele>
        <time>2017-04-22T14:22:54Z</time>
      </trkpt>
      <trkpt lat="48.10343" lon="-4.28636">
        <ele>14.557006835938</ele>
        <time>2017-04-22T14:23:01Z</time>
      </trkpt>
      <trkpt lat="48.10341" lon="-4.28637">
        <ele>14.076416015625</ele>
        <time>2017-04-22T14:23:03Z</time>
      </trkpt>
      <trkpt lat="48.10339" lon="-4.28639">
        <ele>14.076416015625</ele>
        <time>2017-04-22T14:23:09Z</time>
      </trkpt>
      <trkpt lat="48.10338" lon="-4.28641">
        <ele>13.595825195312</ele>
        <time>2017-04-22T14:23:15Z</time>
      </trkpt>
      <trkpt lat="48.10336" lon="-4.2864">
        <ele>13.115112304688</ele>
        <time>2017-04-22T14:23:18Z</time>
      </trkpt>
      <trkpt lat="48.10331" lon="-4.28636">
        <ele>13.595825195312</ele>
        <time>2017-04-22T14:23:24Z</time>
      </trkpt>
      <trkpt lat="48.10326" lon="-4.28631">
        <ele>13.595825195312</ele>
        <time>2017-04-22T14:23:30Z</time>
      </trkpt>
      <trkpt lat="48.10324" lon="-4.28629">
        <ele>13.595825195312</ele>
        <time>2017-04-22T14:23:32Z</time>
      </trkpt>
      <trkpt lat="48.1032" lon="-4.28625">
        <ele>14.076416015625</ele>
        <time>2017-04-22T14:23:37Z</time>
      </trkpt>
      <trkpt lat="48.10318" lon="-4.28627">
        <ele>15.518432617188</ele>
        <time>2017-04-22T14:23:45Z</time>
      </trkpt>
      <trkpt lat="48.10314" lon="-4.28633">
        <ele>17.441162109375</ele>
        <time>2017-04-22T14:23:52Z</time>
      </trkpt>
      <trkpt lat="48.10309" lon="-4.28641">
        <ele>18.40234375</ele>
        <time>2017-04-22T14:23:59Z</time>
      </trkpt>
      <trkpt lat="48.10306" lon="-4.28647">
        <ele>19.36376953125</ele>
        <time>2017-04-22T14:24:04Z</time>
      </trkpt>
      <trkpt lat="48.10302" lon="-4.28657">
        <ele>20.324951171875</ele>
        <time>2017-04-22T14:24:11Z</time>
      </trkpt>
      <trkpt lat="48.10299" lon="-4.28664">
        <ele>20.324951171875</ele>
        <time>2017-04-22T14:24:15Z</time>
      </trkpt>
      <trkpt lat="48.10296" lon="-4.2867">
        <ele>19.844360351562</ele>
        <time>2017-04-22T14:24:22Z</time>
      </trkpt>
      <trkpt lat="48.10289" lon="-4.28677">
        <ele>20.324951171875</ele>
        <time>2017-04-22T14:24:29Z</time>
      </trkpt>
      <trkpt lat="48.10286" lon="-4.28678">
        <ele>21.286376953125</ele>
        <time>2017-04-22T14:24:35Z</time>
      </trkpt>
      <trkpt lat="48.10284" lon="-4.28679">
        <ele>22.24755859375</ele>
        <time>2017-04-22T14:24:40Z</time>
      </trkpt>
      <trkpt lat="48.10281" lon="-4.28681">
        <ele>24.651000976562</ele>
        <time>2017-04-22T14:24:47Z</time>
      </trkpt>
      <trkpt lat="48.10278" lon="-4.28683">
        <ele>26.573608398438</ele>
        <time>2017-04-22T14:24:54Z</time>
      </trkpt>
      <trkpt lat="48.10275" lon="-4.28687">
        <ele>28.015502929688</ele>
        <time>2017-04-22T14:25:00Z</time>
      </trkpt>
      <trkpt lat="48.10271" lon="-4.28691">
        <ele>28.976928710938</ele>
        <time>2017-04-22T14:25:06Z</time>
      </trkpt>
      <trkpt lat="48.10266" lon="-4.28695">
        <ele>28.976928710938</ele>
        <time>2017-04-22T14:25:13Z</time>
      </trkpt>
      <trkpt lat="48.10261" lon="-4.28701">
        <ele>29.45751953125</ele>
        <time>2017-04-22T14:25:19Z</time>
      </trkpt>
      <trkpt lat="48.10258" lon="-4.28707">
        <ele>29.938110351562</ele>
        <time>2017-04-22T14:25:24Z</time>
      </trkpt>
      <trkpt lat="48.10255" lon="-4.28714">
        <ele>29.938110351562</ele>
        <time>2017-04-22T14:25:29Z</time>
      </trkpt>
      <trkpt lat="48.10249" lon="-4.28725">
        <ele>30.899536132812</ele>
        <time>2017-04-22T14:25:37Z</time>
      </trkpt>
      <trkpt lat="48.10249" lon="-4.28727">
        <ele>31.380126953125</ele>
        <time>2017-04-22T14:25:38Z</time>
      </trkpt>
      <trkpt lat="48.10245" lon="-4.28736">
        <ele>32.822265625</ele>
        <time>2017-04-22T14:25:44Z</time>
      </trkpt>
      <trkpt lat="48.10243" lon="-4.28742">
        <ele>33.302856445312</ele>
        <time>2017-04-22T14:25:48Z</time>
      </trkpt>
      <trkpt lat="48.10238" lon="-4.28748">
        <ele>33.783447265625</ele>
        <time>2017-04-22T14:25:53Z</time>
      </trkpt>
      <trkpt lat="48.10237" lon="-4.28751">
        <ele>34.26416015625</ele>
        <time>2017-04-22T14:25:55Z</time>
      </trkpt>
      <trkpt lat="48.10232" lon="-4.2876">
        <ele>35.225463867188</ele>
        <time>2017-04-22T14:26:01Z</time>
      </trkpt>
      <trkpt lat="48.10232" lon="-4.28762">
        <ele>35.225463867188</ele>
        <time>2017-04-22T14:26:02Z</time>
      </trkpt>
      <trkpt lat="48.10228" lon="-4.28769">
        <ele>35.225463867188</ele>
        <time>2017-04-22T14:26:07Z</time>
      </trkpt>
      <trkpt lat="48.10222" lon="-4.28779">
        <ele>35.225463867188</ele>
        <time>2017-04-22T14:26:14Z</time>
      </trkpt>
      <trkpt lat="48.10221" lon="-4.28782">
        <ele>34.744873046875</ele>
        <time>2017-04-22T14:26:16Z</time>
      </trkpt>
      <trkpt lat="48.10216" lon="-4.28788">
        <ele>34.26416015625</ele>
        <time>2017-04-22T14:26:21Z</time>
      </trkpt>
      <trkpt lat="48.10211" lon="-4.28798">
        <ele>33.302856445312</ele>
        <time>2017-04-22T14:26:28Z</time>
      </trkpt>
      <trkpt lat="48.1021" lon="-4.28799">
        <ele>33.302856445312</ele>
        <time>2017-04-22T14:26:29Z</time>
      </trkpt>
      <trkpt lat="48.10207" lon="-4.28802">
        <ele>33.783447265625</ele>
        <time>2017-04-22T14:26:32Z</time>
      </trkpt>
      <trkpt lat="48.10203" lon="-4.28807">
        <ele>33.783447265625</ele>
        <time>2017-04-22T14:26:36Z</time>
      </trkpt>
      <trkpt lat="48.10197" lon="-4.28816">
        <ele>33.302856445312</ele>
        <time>2017-04-22T14:26:43Z</time>
      </trkpt>
      <trkpt lat="48.10194" lon="-4.28819">
        <ele>33.783447265625</ele>
        <time>2017-04-22T14:26:46Z</time>
      </trkpt>
      <trkpt lat="48.10191" lon="-4.28823">
        <ele>33.302856445312</ele>
        <time>2017-04-22T14:26:50Z</time>
      </trkpt>
      <trkpt lat="48.10187" lon="-4.28828">
        <ele>33.783447265625</ele>
        <time>2017-04-22T14:26:54Z</time>
      </trkpt>
      <trkpt lat="48.10182" lon="-4.28833">
        <ele>33.783447265625</ele>
        <time>2017-04-22T14:26:59Z</time>
      </trkpt>
      <trkpt lat="48.10174" lon="-4.28842">
        <ele>34.744873046875</ele>
        <time>2017-04-22T14:27:07Z</time>
      </trkpt>
      <trkpt lat="48.10168" lon="-4.28849">
        <ele>35.7060546875</ele>
        <time>2017-04-22T14:27:13Z</time>
      </trkpt>
      <trkpt lat="48.10165" lon="-4.28854">
        <ele>35.7060546875</ele>
        <time>2017-04-22T14:27:17Z</time>
      </trkpt>
      <trkpt lat="48.10158" lon="-4.28864">
        <ele>35.7060546875</ele>
        <time>2017-04-22T14:27:24Z</time>
      </trkpt>
      <trkpt lat="48.10151" lon="-4.2887">
        <ele>38.109375</ele>
        <time>2017-04-22T14:27:31Z</time>
      </trkpt>
      <trkpt lat="48.10149" lon="-4.28873">
        <ele>38.109375</ele>
        <time>2017-04-22T14:27:33Z</time>
      </trkpt>
      <trkpt lat="48.10145" lon="-4.28878">
        <ele>38.109375</ele>
        <time>2017-04-22T14:27:38Z</time>
      </trkpt>
      <trkpt lat="48.10138" lon="-4.28883">
        <ele>36.66748046875</ele>
        <time>2017-04-22T14:27:45Z</time>
      </trkpt>
      <trkpt lat="48.10131" lon="-4.28887">
        <ele>36.66748046875</ele>
        <time>2017-04-22T14:27:51Z</time>
      </trkpt>
      <trkpt lat="48.10124" lon="-4.28889">
        <ele>37.148071289062</ele>
        <time>2017-04-22T14:27:57Z</time>
      </trkpt>
      <trkpt lat="48.10116" lon="-4.2889">
        <ele>38.109375</ele>
        <time>2017-04-22T14:28:03Z</time>
      </trkpt>
      <trkpt lat="48.10107" lon="-4.2889">
        <ele>38.109375</ele>
        <time>2017-04-22T14:28:10Z</time>
      </trkpt>
      <trkpt lat="48.10102" lon="-4.2889">
        <ele>38.590087890625</ele>
        <time>2017-04-22T14:28:15Z</time>
      </trkpt>
      <trkpt lat="48.10096" lon="-4.28891">
        <ele>39.070678710938</ele>
        <time>2017-04-22T14:28:20Z</time>
      </trkpt>
      <trkpt lat="48.10086" lon="-4.28891">
        <ele>39.55126953125</ele>
        <time>2017-04-22T14:28:28Z</time>
      </trkpt>
      <trkpt lat="48.1008" lon="-4.28893">
        <ele>39.070678710938</ele>
        <time>2017-04-22T14:28:33Z</time>
      </trkpt>
      <trkpt lat="48.10075" lon="-4.28897">
        <ele>38.109375</ele>
        <time>2017-04-22T14:28:38Z</time>
      </trkpt>
      <trkpt lat="48.10067" lon="-4.28901">
        <ele>37.628662109375</ele>
        <time>2017-04-22T14:28:45Z</time>
      </trkpt>
      <trkpt lat="48.10065" lon="-4.28902">
        <ele>38.109375</ele>
        <time>2017-04-22T14:28:47Z</time>
      </trkpt>
      <trkpt lat="48.10061" lon="-4.28905">
        <ele>38.109375</ele>
        <time>2017-04-22T14:28:51Z</time>
      </trkpt>
      <trkpt lat="48.10059" lon="-4.28907">
        <ele>38.590087890625</ele>
        <time>2017-04-22T14:28:53Z</time>
      </trkpt>
      <trkpt lat="48.10054" lon="-4.28913">
        <ele>37.148071289062</ele>
        <time>2017-04-22T14:28:59Z</time>
      </trkpt>
      <trkpt lat="48.10047" lon="-4.2892">
        <ele>34.744873046875</ele>
        <time>2017-04-22T14:29:07Z</time>
      </trkpt>
      <trkpt lat="48.10044" lon="-4.28925">
        <ele>33.783447265625</ele>
        <time>2017-04-22T14:29:11Z</time>
      </trkpt>
      <trkpt lat="48.1004" lon="-4.28932">
        <ele>32.341552734375</ele>
        <time>2017-04-22T14:29:16Z</time>
      </trkpt>
      <trkpt lat="48.10033" lon="-4.28946">
        <ele>30.418823242188</ele>
        <time>2017-04-22T14:29:25Z</time>
      </trkpt>
      <trkpt lat="48.10029" lon="-4.28958">
        <ele>30.899536132812</ele>
        <time>2017-04-22T14:29:32Z</time>
      </trkpt>
      <trkpt lat="48.10025" lon="-4.28966">
        <ele>31.860717773438</ele>
        <time>2017-04-22T14:29:39Z</time>
      </trkpt>
      <trkpt lat="48.10024" lon="-4.28973">
        <ele>33.302856445312</ele>
        <time>2017-04-22T14:29:45Z</time>
      </trkpt>
      <trkpt lat="48.10026" lon="-4.28981">
        <ele>32.822265625</ele>
        <time>2017-04-22T14:29:51Z</time>
      </trkpt>
      <trkpt lat="48.10028" lon="-4.28983">
        <ele>32.822265625</ele>
        <time>2017-04-22T14:29:53Z</time>
      </trkpt>
      <trkpt lat="48.10036" lon="-4.28995">
        <ele>33.302856445312</ele>
        <time>2017-04-22T14:30:02Z</time>
      </trkpt>
      <trkpt lat="48.10043" lon="-4.29007">
        <ele>33.302856445312</ele>
        <time>2017-04-22T14:30:11Z</time>
      </trkpt>
      <trkpt lat="48.10047" lon="-4.29019">
        <ele>32.341552734375</ele>
        <time>2017-04-22T14:30:18Z</time>
      </trkpt>
      <trkpt lat="48.10048" lon="-4.2903">
        <ele>31.860717773438</ele>
        <time>2017-04-22T14:30:24Z</time>
      </trkpt>
      <trkpt lat="48.10046" lon="-4.29042">
        <ele>32.822265625</ele>
        <time>2017-04-22T14:30:31Z</time>
      </trkpt>
      <trkpt lat="48.10044" lon="-4.29046">
        <ele>33.302856445312</ele>
        <time>2017-04-22T14:30:34Z</time>
      </trkpt>
      <trkpt lat="48.10042" lon="-4.29052">
        <ele>33.783447265625</ele>
        <time>2017-04-22T14:30:38Z</time>
      </trkpt>
      <trkpt lat="48.10038" lon="-4.29059">
        <ele>34.26416015625</ele>
        <time>2017-04-22T14:30:44Z</time>
      </trkpt>
      <trkpt lat="48.10037" lon="-4.29061">
        <ele>34.744873046875</ele>
        <time>2017-04-22T14:30:45Z</time>
      </trkpt>
      <trkpt lat="48.10033" lon="-4.29065">
        <ele>35.225463867188</ele>
        <time>2017-04-22T14:30:50Z</time>
      </trkpt>
      <trkpt lat="48.10026" lon="-4.29071">
        <ele>35.7060546875</ele>
        <time>2017-04-22T14:30:59Z</time>
      </trkpt>
      <trkpt lat="48.10019" lon="-4.29074">
        <ele>36.66748046875</ele>
        <time>2017-04-22T14:31:06Z</time>
      </trkpt>
      <trkpt lat="48.10013" lon="-4.2908">
        <ele>37.148071289062</ele>
        <time>2017-04-22T14:31:13Z</time>
      </trkpt>
      <trkpt lat="48.10007" lon="-4.29084">
        <ele>38.109375</ele>
        <time>2017-04-22T14:31:20Z</time>
      </trkpt>
      <trkpt lat="48.10001" lon="-4.2909">
        <ele>39.070678710938</ele>
        <time>2017-04-22T14:31:27Z</time>
      </trkpt>
      <trkpt lat="48.09996" lon="-4.29095">
        <ele>39.55126953125</ele>
        <time>2017-04-22T14:31:33Z</time>
      </trkpt>
      <trkpt lat="48.09993" lon="-4.29103">
        <ele>40.032104492188</ele>
        <time>2017-04-22T14:31:39Z</time>
      </trkpt>
      <trkpt lat="48.09988" lon="-4.29111">
        <ele>40.993408203125</ele>
        <time>2017-04-22T14:31:45Z</time>
      </trkpt>
      <trkpt lat="48.09988" lon="-4.29113">
        <ele>40.993408203125</ele>
        <time>2017-04-22T14:31:46Z</time>
      </trkpt>
      <trkpt lat="48.09985" lon="-4.29119">
        <ele>41.954711914062</ele>
        <time>2017-04-22T14:31:51Z</time>
      </trkpt>
      <trkpt lat="48.09984" lon="-4.29121">
        <ele>42.435424804688</ele>
        <time>2017-04-22T14:31:53Z</time>
      </trkpt>
      <trkpt lat="48.09977" lon="-4.29128">
        <ele>43.877319335938</ele>
        <time>2017-04-22T14:32:00Z</time>
      </trkpt>
      <trkpt lat="48.09972" lon="-4.29134">
        <ele>44.838623046875</ele>
        <time>2017-04-22T14:32:07Z</time>
      </trkpt>
      <trkpt lat="48.09966" lon="-4.29141">
        <ele>46.280639648438</ele>
        <time>2017-04-22T14:32:14Z</time>
      </trkpt>
      <trkpt lat="48.09961" lon="-4.29148">
        <ele>47.722534179688</ele>
        <time>2017-04-22T14:32:21Z</time>
      </trkpt>
      <trkpt lat="48.09956" lon="-4.29154">
        <ele>48.683959960938</ele>
        <time>2017-04-22T14:32:27Z</time>
      </trkpt>
      <trkpt lat="48.09951" lon="-4.2916">
        <ele>49.645263671875</ele>
        <time>2017-04-22T14:32:33Z</time>
      </trkpt>
      <trkpt lat="48.0995" lon="-4.29161">
        <ele>49.645263671875</ele>
        <time>2017-04-22T14:32:34Z</time>
      </trkpt>
      <trkpt lat="48.09947" lon="-4.29164">
        <ele>50.1259765625</ele>
        <time>2017-04-22T14:32:37Z</time>
      </trkpt>
      <trkpt lat="48.09941" lon="-4.29168">
        <ele>51.56787109375</ele>
        <time>2017-04-22T14:32:44Z</time>
      </trkpt>
      <trkpt lat="48.09937" lon="-4.29168">
        <ele>50.606567382812</ele>
        <time>2017-04-22T14:32:50Z</time>
      </trkpt>
      <trkpt lat="48.09936" lon="-4.29168">
        <ele>50.1259765625</ele>
        <time>2017-04-22T14:32:55Z</time>
      </trkpt>
      <trkpt lat="48.09937" lon="-4.29169">
        <ele>50.1259765625</ele>
        <time>2017-04-22T14:33:02Z</time>
      </trkpt>
      <trkpt lat="48.09937" lon="-4.29168">
        <ele>48.683959960938</ele>
        <time>2017-04-22T14:33:10Z</time>
      </trkpt>
      <trkpt lat="48.09937" lon="-4.29168">
        <ele>48.203369140625</ele>
        <time>2017-04-22T14:33:16Z</time>
      </trkpt>
      <trkpt lat="48.09937" lon="-4.29167">
        <ele>46.280639648438</ele>
        <time>2017-04-22T14:33:53Z</time>
      </trkpt>
      <trkpt lat="48.09937" lon="-4.29166">
        <ele>44.838623046875</ele>
        <time>2017-04-22T14:34:42Z</time>
      </trkpt>
      <trkpt lat="48.09937" lon="-4.29166">
        <ele>45.319213867188</ele>
        <time>2017-04-22T14:34:54Z</time>
      </trkpt>
      <trkpt lat="48.09937" lon="-4.29166">
        <ele>45.799926757812</ele>
        <time>2017-04-22T14:35:00Z</time>
      </trkpt>
      <trkpt lat="48.09937" lon="-4.29167">
        <ele>45.319213867188</ele>
        <time>2017-04-22T14:35:14Z</time>
      </trkpt>
      <trkpt lat="48.09937" lon="-4.29168">
        <ele>44.358032226562</ele>
        <time>2017-04-22T14:35:27Z</time>
      </trkpt>
      <trkpt lat="48.09937" lon="-4.29168">
        <ele>44.838623046875</ele>
        <time>2017-04-22T14:35:35Z</time>
      </trkpt>
      <trkpt lat="48.09937" lon="-4.29167">
        <ele>45.799926757812</ele>
        <time>2017-04-22T14:35:49Z</time>
      </trkpt>
      <trkpt lat="48.09937" lon="-4.29166">
        <ele>46.280639648438</ele>
        <time>2017-04-22T14:35:54Z</time>
      </trkpt>
      <trkpt lat="48.09937" lon="-4.29167">
        <ele>46.76123046875</ele>
        <time>2017-04-22T14:35:59Z</time>
      </trkpt>
      <trkpt lat="48.09938" lon="-4.29166">
        <ele>46.76123046875</ele>
        <time>2017-04-22T14:36:04Z</time>
      </trkpt>
      <trkpt lat="48.09937" lon="-4.29167">
        <ele>46.280639648438</ele>
        <time>2017-04-22T14:36:18Z</time>
      </trkpt>
      <trkpt lat="48.09939" lon="-4.29176">
        <ele>46.76123046875</ele>
        <time>2017-04-22T14:36:24Z</time>
      </trkpt>
      <trkpt lat="48.09938" lon="-4.29178">
        <ele>46.76123046875</ele>
        <time>2017-04-22T14:36:25Z</time>
      </trkpt>
      <trkpt lat="48.09938" lon="-4.29185">
        <ele>47.241821289062</ele>
        <time>2017-04-22T14:36:29Z</time>
      </trkpt>
      <trkpt lat="48.09939" lon="-4.29193">
        <ele>47.241821289062</ele>
        <time>2017-04-22T14:36:33Z</time>
      </trkpt>
      <trkpt lat="48.09939" lon="-4.29204">
        <ele>46.76123046875</ele>
        <time>2017-04-22T14:36:39Z</time>
      </trkpt>
      <trkpt lat="48.0994" lon="-4.2922">
        <ele>45.799926757812</ele>
        <time>2017-04-22T14:36:48Z</time>
      </trkpt>
      <trkpt lat="48.09942" lon="-4.29241">
        <ele>43.396606445312</ele>
        <time>2017-04-22T14:37:00Z</time>
      </trkpt>
      <trkpt lat="48.09942" lon="-4.29245">
        <ele>43.396606445312</ele>
        <time>2017-04-22T14:37:02Z</time>
      </trkpt>
      <trkpt lat="48.09942" lon="-4.29252">
        <ele>42.916015625</ele>
        <time>2017-04-22T14:37:06Z</time>
      </trkpt>
      <trkpt lat="48.09944" lon="-4.29269">
        <ele>42.435424804688</ele>
        <time>2017-04-22T14:37:15Z</time>
      </trkpt>
      <trkpt lat="48.09946" lon="-4.29282">
        <ele>42.435424804688</ele>
        <time>2017-04-22T14:37:22Z</time>
      </trkpt>
      <trkpt lat="48.09949" lon="-4.29298">
        <ele>42.435424804688</ele>
        <time>2017-04-22T14:37:31Z</time>
      </trkpt>
      <trkpt lat="48.09952" lon="-4.29315">
        <ele>41.473999023438</ele>
        <time>2017-04-22T14:37:41Z</time>
      </trkpt>
      <trkpt lat="48.09956" lon="-4.2933">
        <ele>38.590087890625</ele>
        <time>2017-04-22T14:37:51Z</time>
      </trkpt>
      <trkpt lat="48.09953" lon="-4.2934">
        <ele>37.628662109375</ele>
        <time>2017-04-22T14:37:58Z</time>
      </trkpt>
      <trkpt lat="48.09948" lon="-4.29347">
        <ele>36.66748046875</ele>
        <time>2017-04-22T14:38:04Z</time>
      </trkpt>
      <trkpt lat="48.09944" lon="-4.2935">
        <ele>37.148071289062</ele>
        <time>2017-04-22T14:38:08Z</time>
      </trkpt>
      <trkpt lat="48.09935" lon="-4.29356">
        <ele>37.628662109375</ele>
        <time>2017-04-22T14:38:16Z</time>
      </trkpt>
      <trkpt lat="48.09925" lon="-4.29363">
        <ele>39.070678710938</ele>
        <time>2017-04-22T14:38:25Z</time>
      </trkpt>
      <trkpt lat="48.09915" lon="-4.29369">
        <ele>39.55126953125</ele>
        <time>2017-04-22T14:38:33Z</time>
      </trkpt>
      <trkpt lat="48.09905" lon="-4.29375">
        <ele>39.55126953125</ele>
        <time>2017-04-22T14:38:42Z</time>
      </trkpt>
      <trkpt lat="48.09896" lon="-4.29379">
        <ele>39.55126953125</ele>
        <time>2017-04-22T14:38:49Z</time>
      </trkpt>
      <trkpt lat="48.09887" lon="-4.29383">
        <ele>40.032104492188</ele>
        <time>2017-04-22T14:38:57Z</time>
      </trkpt>
      <trkpt lat="48.09881" lon="-4.29383">
        <ele>40.512817382812</ele>
        <time>2017-04-22T14:39:02Z</time>
      </trkpt>
      <trkpt lat="48.09875" lon="-4.29383">
        <ele>40.032104492188</ele>
        <time>2017-04-22T14:39:09Z</time>
      </trkpt>
      <trkpt lat="48.09869" lon="-4.29379">
        <ele>40.512817382812</ele>
        <time>2017-04-22T14:39:16Z</time>
      </trkpt>
      <trkpt lat="48.09863" lon="-4.29375">
        <ele>40.512817382812</ele>
        <time>2017-04-22T14:39:23Z</time>
      </trkpt>
      <trkpt lat="48.09857" lon="-4.29371">
        <ele>41.473999023438</ele>
        <time>2017-04-22T14:39:30Z</time>
      </trkpt>
      <trkpt lat="48.09851" lon="-4.29368">
        <ele>42.916015625</ele>
        <time>2017-04-22T14:39:37Z</time>
      </trkpt>
      <trkpt lat="48.09847" lon="-4.29369">
        <ele>43.396606445312</ele>
        <time>2017-04-22T14:39:41Z</time>
      </trkpt>
      <trkpt lat="48.09841" lon="-4.2937">
        <ele>44.838623046875</ele>
        <time>2017-04-22T14:39:46Z</time>
      </trkpt>
      <trkpt lat="48.0983" lon="-4.29373">
        <ele>45.799926757812</ele>
        <time>2017-04-22T14:39:55Z</time>
      </trkpt>
      <trkpt lat="48.09822" lon="-4.29378">
        <ele>46.280639648438</ele>
        <time>2017-04-22T14:40:02Z</time>
      </trkpt>
      <trkpt lat="48.09813" lon="-4.29382">
        <ele>46.280639648438</ele>
        <time>2017-04-22T14:40:09Z</time>
      </trkpt>
      <trkpt lat="48.09803" lon="-4.29386">
        <ele>47.722534179688</ele>
        <time>2017-04-22T14:40:17Z</time>
      </trkpt>
      <trkpt lat="48.09795" lon="-4.29389">
        <ele>48.683959960938</ele>
        <time>2017-04-22T14:40:24Z</time>
      </trkpt>
      <trkpt lat="48.09786" lon="-4.29392">
        <ele>49.16455078125</ele>
        <time>2017-04-22T14:40:31Z</time>
      </trkpt>
      <trkpt lat="48.09777" lon="-4.29394">
        <ele>50.606567382812</ele>
        <time>2017-04-22T14:40:38Z</time>
      </trkpt>
      <trkpt lat="48.09776" lon="-4.29395">
        <ele>50.606567382812</ele>
        <time>2017-04-22T14:40:39Z</time>
      </trkpt>
      <trkpt lat="48.09769" lon="-4.29397">
        <ele>52.529174804688</ele>
        <time>2017-04-22T14:40:45Z</time>
      </trkpt>
      <trkpt lat="48.09763" lon="-4.29399">
        <ele>53.490478515625</ele>
        <time>2017-04-22T14:40:49Z</time>
      </trkpt>
      <trkpt lat="48.09757" lon="-4.294">
        <ele>55.893798828125</ele>
        <time>2017-04-22T14:40:54Z</time>
      </trkpt>
      <trkpt lat="48.09747" lon="-4.29403">
        <ele>56.855102539062</ele>
        <time>2017-04-22T14:41:02Z</time>
      </trkpt>
      <trkpt lat="48.0974" lon="-4.29405">
        <ele>58.297119140625</ele>
        <time>2017-04-22T14:41:08Z</time>
      </trkpt>
      <trkpt lat="48.09731" lon="-4.29408">
        <ele>57.335815429688</ele>
        <time>2017-04-22T14:41:15Z</time>
      </trkpt>
      <trkpt lat="48.09728" lon="-4.29411">
        <ele>55.893798828125</ele>
        <time>2017-04-22T14:41:18Z</time>
      </trkpt>
      <trkpt lat="48.09722" lon="-4.29414">
        <ele>55.4130859375</ele>
        <time>2017-04-22T14:41:23Z</time>
      </trkpt>
      <trkpt lat="48.09718" lon="-4.2942">
        <ele>53.009765625</ele>
        <time>2017-04-22T14:41:27Z</time>
      </trkpt>
      <trkpt lat="48.09716" lon="-4.29428">
        <ele>51.087158203125</ele>
        <time>2017-04-22T14:41:31Z</time>
      </trkpt>
      <trkpt lat="48.09715" lon="-4.29439">
        <ele>46.76123046875</ele>
        <time>2017-04-22T14:41:37Z</time>
      </trkpt>
      <trkpt lat="48.0971" lon="-4.29446">
        <ele>44.358032226562</ele>
        <time>2017-04-22T14:41:42Z</time>
      </trkpt>
      <trkpt lat="48.09701" lon="-4.29459">
        <ele>43.877319335938</ele>
        <time>2017-04-22T14:41:51Z</time>
      </trkpt>
      <trkpt lat="48.09693" lon="-4.29469">
        <ele>43.396606445312</ele>
        <time>2017-04-22T14:41:59Z</time>
      </trkpt>
      <trkpt lat="48.09689" lon="-4.29482">
        <ele>42.916015625</ele>
        <time>2017-04-22T14:42:06Z</time>
      </trkpt>
      <trkpt lat="48.09688" lon="-4.29494">
        <ele>40.993408203125</ele>
        <time>2017-04-22T14:42:12Z</time>
      </trkpt>
      <trkpt lat="48.09685" lon="-4.29507">
        <ele>37.148071289062</ele>
        <time>2017-04-22T14:42:19Z</time>
      </trkpt>
      <trkpt lat="48.09682" lon="-4.29516">
        <ele>32.822265625</ele>
        <time>2017-04-22T14:42:23Z</time>
      </trkpt>
      <trkpt lat="48.0968" lon="-4.29527">
        <ele>26.092895507812</ele>
        <time>2017-04-22T14:42:29Z</time>
      </trkpt>
      <trkpt lat="48.09679" lon="-4.29537">
        <ele>21.766967773438</ele>
        <time>2017-04-22T14:42:35Z</time>
      </trkpt>
      <trkpt lat="48.09677" lon="-4.29546">
        <ele>19.36376953125</ele>
        <time>2017-04-22T14:42:40Z</time>
      </trkpt>
      <trkpt lat="48.09675" lon="-4.29559">
        <ele>18.883056640625</ele>
        <time>2017-04-22T14:42:47Z</time>
      </trkpt>
      <trkpt lat="48.09675" lon="-4.29572">
        <ele>18.40234375</ele>
        <time>2017-04-22T14:42:54Z</time>
      </trkpt>
      <trkpt lat="48.09672" lon="-4.29583">
        <ele>20.8056640625</ele>
        <time>2017-04-22T14:43:01Z</time>
      </trkpt>
      <trkpt lat="48.09666" lon="-4.29588">
        <ele>23.208984375</ele>
        <time>2017-04-22T14:43:07Z</time>
      </trkpt>
      <trkpt lat="48.09659" lon="-4.29593">
        <ele>24.651000976562</ele>
        <time>2017-04-22T14:43:13Z</time>
      </trkpt>
      <trkpt lat="48.09653" lon="-4.29602">
        <ele>24.651000976562</ele>
        <time>2017-04-22T14:43:21Z</time>
      </trkpt>
      <trkpt lat="48.09644" lon="-4.2961">
        <ele>25.131713867188</ele>
        <time>2017-04-22T14:43:30Z</time>
      </trkpt>
      <trkpt lat="48.09642" lon="-4.29611">
        <ele>25.6123046875</ele>
        <time>2017-04-22T14:43:31Z</time>
      </trkpt>
      <trkpt lat="48.09636" lon="-4.29618">
        <ele>25.6123046875</ele>
        <time>2017-04-22T14:43:38Z</time>
      </trkpt>
      <trkpt lat="48.09632" lon="-4.29622">
        <ele>26.573608398438</ele>
        <time>2017-04-22T14:43:43Z</time>
      </trkpt>
      <trkpt lat="48.09626" lon="-4.29625">
        <ele>28.015502929688</ele>
        <time>2017-04-22T14:43:49Z</time>
      </trkpt>
      <trkpt lat="48.09621" lon="-4.29629">
        <ele>29.45751953125</ele>
        <time>2017-04-22T14:43:55Z</time>
      </trkpt>
      <trkpt lat="48.09615" lon="-4.29633">
        <ele>30.418823242188</ele>
        <time>2017-04-22T14:44:01Z</time>
      </trkpt>
      <trkpt lat="48.09608" lon="-4.29638">
        <ele>31.380126953125</ele>
        <time>2017-04-22T14:44:08Z</time>
      </trkpt>
      <trkpt lat="48.09601" lon="-4.2964">
        <ele>32.822265625</ele>
        <time>2017-04-22T14:44:15Z</time>
      </trkpt>
      <trkpt lat="48.09596" lon="-4.2964">
        <ele>33.783447265625</ele>
        <time>2017-04-22T14:44:21Z</time>
      </trkpt>
      <trkpt lat="48.0959" lon="-4.29643">
        <ele>34.744873046875</ele>
        <time>2017-04-22T14:44:27Z</time>
      </trkpt>
      <trkpt lat="48.09583" lon="-4.29649">
        <ele>34.744873046875</ele>
        <time>2017-04-22T14:44:34Z</time>
      </trkpt>
      <trkpt lat="48.09577" lon="-4.29653">
        <ele>35.7060546875</ele>
        <time>2017-04-22T14:44:40Z</time>
      </trkpt>
      <trkpt lat="48.09572" lon="-4.2966">
        <ele>35.7060546875</ele>
        <time>2017-04-22T14:44:46Z</time>
      </trkpt>
      <trkpt lat="48.0957" lon="-4.2967">
        <ele>35.7060546875</ele>
        <time>2017-04-22T14:44:52Z</time>
      </trkpt>
      <trkpt lat="48.09567" lon="-4.29679">
        <ele>35.7060546875</ele>
        <time>2017-04-22T14:44:59Z</time>
      </trkpt>
      <trkpt lat="48.09566" lon="-4.29681">
        <ele>35.7060546875</ele>
        <time>2017-04-22T14:45:01Z</time>
      </trkpt>
      <trkpt lat="48.09561" lon="-4.29685">
        <ele>35.7060546875</ele>
        <time>2017-04-22T14:45:06Z</time>
      </trkpt>
      <trkpt lat="48.09559" lon="-4.29686">
        <ele>36.186767578125</ele>
        <time>2017-04-22T14:45:07Z</time>
      </trkpt>
      <trkpt lat="48.09552" lon="-4.29692">
        <ele>36.186767578125</ele>
        <time>2017-04-22T14:45:14Z</time>
      </trkpt>
      <trkpt lat="48.0955" lon="-4.29693">
        <ele>36.66748046875</ele>
        <time>2017-04-22T14:45:16Z</time>
      </trkpt>
      <trkpt lat="48.09547" lon="-4.29697">
        <ele>36.66748046875</ele>
        <time>2017-04-22T14:45:20Z</time>
      </trkpt>
      <trkpt lat="48.09539" lon="-4.29702">
        <ele>37.148071289062</ele>
        <time>2017-04-22T14:45:27Z</time>
      </trkpt>
      <trkpt lat="48.09532" lon="-4.29706">
        <ele>37.628662109375</ele>
        <time>2017-04-22T14:45:34Z</time>
      </trkpt>
      <trkpt lat="48.09526" lon="-4.29712">
        <ele>37.628662109375</ele>
        <time>2017-04-22T14:45:40Z</time>
      </trkpt>
      <trkpt lat="48.0952" lon="-4.29715">
        <ele>38.109375</ele>
        <time>2017-04-22T14:45:46Z</time>
      </trkpt>
      <trkpt lat="48.09513" lon="-4.2972">
        <ele>38.109375</ele>
        <time>2017-04-22T14:45:53Z</time>
      </trkpt>
      <trkpt lat="48.09505" lon="-4.29725">
        <ele>38.109375</ele>
        <time>2017-04-22T14:46:00Z</time>
      </trkpt>
      <trkpt lat="48.09496" lon="-4.29732">
        <ele>38.109375</ele>
        <time>2017-04-22T14:46:08Z</time>
      </trkpt>
      <trkpt lat="48.09487" lon="-4.29739">
        <ele>37.628662109375</ele>
        <time>2017-04-22T14:46:17Z</time>
      </trkpt>
      <trkpt lat="48.09479" lon="-4.29744">
        <ele>38.109375</ele>
        <time>2017-04-22T14:46:24Z</time>
      </trkpt>
      <trkpt lat="48.09478" lon="-4.29745">
        <ele>38.109375</ele>
        <time>2017-04-22T14:46:25Z</time>
      </trkpt>
      <trkpt lat="48.09472" lon="-4.2975">
        <ele>37.148071289062</ele>
        <time>2017-04-22T14:46:31Z</time>
      </trkpt>
      <trkpt lat="48.09466" lon="-4.29753">
        <ele>37.628662109375</ele>
        <time>2017-04-22T14:46:36Z</time>
      </trkpt>
      <trkpt lat="48.09465" lon="-4.2975">
        <ele>37.628662109375</ele>
        <time>2017-04-22T14:46:38Z</time>
      </trkpt>
      <trkpt lat="48.09464" lon="-4.2974">
        <ele>37.628662109375</ele>
        <time>2017-04-22T14:46:44Z</time>
      </trkpt>
      <trkpt lat="48.09463" lon="-4.29729">
        <ele>38.109375</ele>
        <time>2017-04-22T14:46:51Z</time>
      </trkpt>
      <trkpt lat="48.09462" lon="-4.29718">
        <ele>38.590087890625</ele>
        <time>2017-04-22T14:46:58Z</time>
      </trkpt>
      <trkpt lat="48.09461" lon="-4.29707">
        <ele>39.55126953125</ele>
        <time>2017-04-22T14:47:05Z</time>
      </trkpt>
      <trkpt lat="48.0946" lon="-4.29695">
        <ele>40.512817382812</ele>
        <time>2017-04-22T14:47:12Z</time>
      </trkpt>
      <trkpt lat="48.09459" lon="-4.29686">
        <ele>40.993408203125</ele>
        <time>2017-04-22T14:47:18Z</time>
      </trkpt>
      <trkpt lat="48.09458" lon="-4.29674">
        <ele>41.473999023438</ele>
        <time>2017-04-22T14:47:25Z</time>
      </trkpt>
      <trkpt lat="48.09457" lon="-4.29663">
        <ele>42.435424804688</ele>
        <time>2017-04-22T14:47:32Z</time>
      </trkpt>
      <trkpt lat="48.09457" lon="-4.29654">
        <ele>42.916015625</ele>
        <time>2017-04-22T14:47:38Z</time>
      </trkpt>
      <trkpt lat="48.09455" lon="-4.29642">
        <ele>43.396606445312</ele>
        <time>2017-04-22T14:47:45Z</time>
      </trkpt>
      <trkpt lat="48.09454" lon="-4.2963">
        <ele>44.358032226562</ele>
        <time>2017-04-22T14:47:53Z</time>
      </trkpt>
      <trkpt lat="48.09452" lon="-4.29617">
        <ele>44.838623046875</ele>
        <time>2017-04-22T14:48:01Z</time>
      </trkpt>
      <trkpt lat="48.09451" lon="-4.29606">
        <ele>45.799926757812</ele>
        <time>2017-04-22T14:48:08Z</time>
      </trkpt>
      <trkpt lat="48.09451" lon="-4.29596">
        <ele>46.280639648438</ele>
        <time>2017-04-22T14:48:14Z</time>
      </trkpt>
      <trkpt lat="48.09451" lon="-4.29595">
        <ele>46.76123046875</ele>
        <time>2017-04-22T14:48:15Z</time>
      </trkpt>
      <trkpt lat="48.0945" lon="-4.29591">
        <ele>46.76123046875</ele>
        <time>2017-04-22T14:48:17Z</time>
      </trkpt>
      <trkpt lat="48.09449" lon="-4.29584">
        <ele>47.241821289062</ele>
        <time>2017-04-22T14:48:21Z</time>
      </trkpt>
      <trkpt lat="48.09447" lon="-4.2957">
        <ele>46.76123046875</ele>
        <time>2017-04-22T14:48:29Z</time>
      </trkpt>
      <trkpt lat="48.09446" lon="-4.29568">
        <ele>46.76123046875</ele>
        <time>2017-04-22T14:48:30Z</time>
      </trkpt>
      <trkpt lat="48.09445" lon="-4.29557">
        <ele>46.76123046875</ele>
        <time>2017-04-22T14:48:37Z</time>
      </trkpt>
      <trkpt lat="48.09445" lon="-4.29554">
        <ele>46.76123046875</ele>
        <time>2017-04-22T14:48:39Z</time>
      </trkpt>
      <trkpt lat="48.09444" lon="-4.29545">
        <ele>46.280639648438</ele>
        <time>2017-04-22T14:48:45Z</time>
      </trkpt>
      <trkpt lat="48.09442" lon="-4.29535">
        <ele>46.280639648438</ele>
        <time>2017-04-22T14:48:51Z</time>
      </trkpt>
      <trkpt lat="48.09441" lon="-4.29525">
        <ele>46.76123046875</ele>
        <time>2017-04-22T14:48:57Z</time>
      </trkpt>
      <trkpt lat="48.09439" lon="-4.29513">
        <ele>47.722534179688</ele>
        <time>2017-04-22T14:49:04Z</time>
      </trkpt>
      <trkpt lat="48.09438" lon="-4.29501">
        <ele>48.683959960938</ele>
        <time>2017-04-22T14:49:11Z</time>
      </trkpt>
      <trkpt lat="48.09437" lon="-4.29491">
        <ele>49.16455078125</ele>
        <time>2017-04-22T14:49:17Z</time>
      </trkpt>
      <trkpt lat="48.09436" lon="-4.29479">
        <ele>49.16455078125</ele>
        <time>2017-04-22T14:49:24Z</time>
      </trkpt>
      <trkpt lat="48.09434" lon="-4.29467">
        <ele>49.645263671875</ele>
        <time>2017-04-22T14:49:31Z</time>
      </trkpt>
      <trkpt lat="48.09433" lon="-4.29462">
        <ele>49.645263671875</ele>
        <time>2017-04-22T14:49:34Z</time>
      </trkpt>
      <trkpt lat="48.09432" lon="-4.29456">
        <ele>49.645263671875</ele>
        <time>2017-04-22T14:49:38Z</time>
      </trkpt>
      <trkpt lat="48.09429" lon="-4.29454">
        <ele>49.16455078125</ele>
        <time>2017-04-22T14:49:42Z</time>
      </trkpt>
      <trkpt lat="48.09428" lon="-4.29453">
        <ele>49.16455078125</ele>
        <time>2017-04-22T14:49:43Z</time>
      </trkpt>
      <trkpt lat="48.09421" lon="-4.29454">
        <ele>48.203369140625</ele>
        <time>2017-04-22T14:49:50Z</time>
      </trkpt>
      <trkpt lat="48.09413" lon="-4.2946">
        <ele>48.203369140625</ele>
        <time>2017-04-22T14:49:57Z</time>
      </trkpt>
      <trkpt lat="48.09407" lon="-4.29464">
        <ele>47.241821289062</ele>
        <time>2017-04-22T14:50:03Z</time>
      </trkpt>
      <trkpt lat="48.094" lon="-4.29469">
        <ele>44.838623046875</ele>
        <time>2017-04-22T14:50:10Z</time>
      </trkpt>
      <trkpt lat="48.09395" lon="-4.29472">
        <ele>44.838623046875</ele>
        <time>2017-04-22T14:50:14Z</time>
      </trkpt>
      <trkpt lat="48.09394" lon="-4.29472">
        <ele>44.838623046875</ele>
        <time>2017-04-22T14:50:15Z</time>
      </trkpt>
      <trkpt lat="48.09388" lon="-4.29476">
        <ele>44.838623046875</ele>
        <time>2017-04-22T14:50:21Z</time>
      </trkpt>
      <trkpt lat="48.09377" lon="-4.29476">
        <ele>45.799926757812</ele>
        <time>2017-04-22T14:50:30Z</time>
      </trkpt>
      <trkpt lat="48.09371" lon="-4.29475">
        <ele>45.319213867188</ele>
        <time>2017-04-22T14:50:36Z</time>
      </trkpt>
      <trkpt lat="48.09365" lon="-4.29471">
        <ele>44.358032226562</ele>
        <time>2017-04-22T14:50:42Z</time>
      </trkpt>
      <trkpt lat="48.0936" lon="-4.29464">
        <ele>43.396606445312</ele>
        <time>2017-04-22T14:50:49Z</time>
      </trkpt>
      <trkpt lat="48.09357" lon="-4.29455">
        <ele>40.993408203125</ele>
        <time>2017-04-22T14:50:56Z</time>
      </trkpt>
      <trkpt lat="48.09356" lon="-4.2945">
        <ele>40.032104492188</ele>
        <time>2017-04-22T14:50:59Z</time>
      </trkpt>
      <trkpt lat="48.09357" lon="-4.29441">
        <ele>39.070678710938</ele>
        <time>2017-04-22T14:51:04Z</time>
      </trkpt>
      <trkpt lat="48.09355" lon="-4.29424">
        <ele>39.070678710938</ele>
        <time>2017-04-22T14:51:13Z</time>
      </trkpt>
      <trkpt lat="48.09354" lon="-4.29411">
        <ele>39.070678710938</ele>
        <time>2017-04-22T14:51:20Z</time>
      </trkpt>
      <trkpt lat="48.09352" lon="-4.29395">
        <ele>39.070678710938</ele>
        <time>2017-04-22T14:51:28Z</time>
      </trkpt>
      <trkpt lat="48.0935" lon="-4.29378">
        <ele>39.55126953125</ele>
        <time>2017-04-22T14:51:37Z</time>
      </trkpt>
      <trkpt lat="48.09348" lon="-4.29363">
        <ele>40.032104492188</ele>
        <time>2017-04-22T14:51:45Z</time>
      </trkpt>
      <trkpt lat="48.09347" lon="-4.29348">
        <ele>41.473999023438</ele>
        <time>2017-04-22T14:51:53Z</time>
      </trkpt>
      <trkpt lat="48.09346" lon="-4.29341">
        <ele>41.473999023438</ele>
        <time>2017-04-22T14:51:57Z</time>
      </trkpt>
      <trkpt lat="48.09345" lon="-4.29333">
        <ele>42.916015625</ele>
        <time>2017-04-22T14:52:01Z</time>
      </trkpt>
      <trkpt lat="48.09344" lon="-4.29319">
        <ele>43.396606445312</ele>
        <time>2017-04-22T14:52:08Z</time>
      </trkpt>
      <trkpt lat="48.09341" lon="-4.29313">
        <ele>43.396606445312</ele>
        <time>2017-04-22T14:52:11Z</time>
      </trkpt>
      <trkpt lat="48.09338" lon="-4.29302">
        <ele>43.396606445312</ele>
        <time>2017-04-22T14:52:18Z</time>
      </trkpt>
      <trkpt lat="48.09336" lon="-4.29297">
        <ele>42.916015625</ele>
        <time>2017-04-22T14:52:21Z</time>
      </trkpt>
      <trkpt lat="48.09329" lon="-4.29295">
        <ele>41.473999023438</ele>
        <time>2017-04-22T14:52:28Z</time>
      </trkpt>
      <trkpt lat="48.09324" lon="-4.29299">
        <ele>40.032104492188</ele>
        <time>2017-04-22T14:52:33Z</time>
      </trkpt>
      <trkpt lat="48.0932" lon="-4.29306">
        <ele>38.590087890625</ele>
        <time>2017-04-22T14:52:39Z</time>
      </trkpt>
      <trkpt lat="48.09314" lon="-4.29315">
        <ele>37.148071289062</ele>
        <time>2017-04-22T14:52:46Z</time>
      </trkpt>
      <trkpt lat="48.09309" lon="-4.2932">
        <ele>35.225463867188</ele>
        <time>2017-04-22T14:52:50Z</time>
      </trkpt>
      <trkpt lat="48.09303" lon="-4.29329">
        <ele>32.822265625</ele>
        <time>2017-04-22T14:52:59Z</time>
      </trkpt>
      <trkpt lat="48.09299" lon="-4.29336">
        <ele>32.341552734375</ele>
        <time>2017-04-22T14:53:05Z</time>
      </trkpt>
      <trkpt lat="48.09294" lon="-4.29346">
        <ele>30.418823242188</ele>
        <time>2017-04-22T14:53:14Z</time>
      </trkpt>
      <trkpt lat="48.0929" lon="-4.29353">
        <ele>29.45751953125</ele>
        <time>2017-04-22T14:53:20Z</time>
      </trkpt>
      <trkpt lat="48.09289" lon="-4.29354">
        <ele>29.45751953125</ele>
        <time>2017-04-22T14:53:21Z</time>
      </trkpt>
      <trkpt lat="48.09283" lon="-4.29363">
        <ele>27.534912109375</ele>
        <time>2017-04-22T14:53:29Z</time>
      </trkpt>
      <trkpt lat="48.09277" lon="-4.29374">
        <ele>27.054321289062</ele>
        <time>2017-04-22T14:53:37Z</time>
      </trkpt>
      <trkpt lat="48.09271" lon="-4.29384">
        <ele>25.6123046875</ele>
        <time>2017-04-22T14:53:45Z</time>
      </trkpt>
      <trkpt lat="48.09266" lon="-4.29391">
        <ele>25.131713867188</ele>
        <time>2017-04-22T14:53:51Z</time>
      </trkpt>
      <trkpt lat="48.09262" lon="-4.29402">
        <ele>24.170288085938</ele>
        <time>2017-04-22T14:53:59Z</time>
      </trkpt>
      <trkpt lat="48.09257" lon="-4.29413">
        <ele>23.208984375</ele>
        <time>2017-04-22T14:54:07Z</time>
      </trkpt>
      <trkpt lat="48.09252" lon="-4.29426">
        <ele>22.24755859375</ele>
        <time>2017-04-22T14:54:16Z</time>
      </trkpt>
      <trkpt lat="48.0925" lon="-4.29432">
        <ele>22.24755859375</ele>
        <time>2017-04-22T14:54:20Z</time>
      </trkpt>
      <trkpt lat="48.09247" lon="-4.29443">
        <ele>20.8056640625</ele>
        <time>2017-04-22T14:54:27Z</time>
      </trkpt>
      <trkpt lat="48.09246" lon="-4.29446">
        <ele>20.324951171875</ele>
        <time>2017-04-22T14:54:29Z</time>
      </trkpt>
      <trkpt lat="48.09244" lon="-4.29453">
        <ele>18.40234375</ele>
        <time>2017-04-22T14:54:34Z</time>
      </trkpt>
      <trkpt lat="48.0924" lon="-4.29464">
        <ele>17.921752929688</ele>
        <time>2017-04-22T14:54:40Z</time>
      </trkpt>
      <trkpt lat="48.09237" lon="-4.29472">
        <ele>17.441162109375</ele>
        <time>2017-04-22T14:54:45Z</time>
      </trkpt>
      <trkpt lat="48.09235" lon="-4.29477">
        <ele>16.479736328125</ele>
        <time>2017-04-22T14:54:48Z</time>
      </trkpt>
      <trkpt lat="48.09235" lon="-4.29488">
        <ele>12.634399414062</ele>
        <time>2017-04-22T14:54:55Z</time>
      </trkpt>
      <trkpt lat="48.09236" lon="-4.2949">
        <ele>12.15380859375</ele>
        <time>2017-04-22T14:54:56Z</time>
      </trkpt>
      <trkpt lat="48.09235" lon="-4.29501">
        <ele>8.30859375</ele>
        <time>2017-04-22T14:55:03Z</time>
      </trkpt>
      <trkpt lat="48.09235" lon="-4.29503">
        <ele>8.30859375</ele>
        <time>2017-04-22T14:55:04Z</time>
      </trkpt>
      <trkpt lat="48.09235" lon="-4.29516">
        <ele>8.30859375</ele>
        <time>2017-04-22T14:55:11Z</time>
      </trkpt>
      <trkpt lat="48.09234" lon="-4.29529">
        <ele>8.7891845703125</ele>
        <time>2017-04-22T14:55:18Z</time>
      </trkpt>
      <trkpt lat="48.09233" lon="-4.29534">
        <ele>8.30859375</ele>
        <time>2017-04-22T14:55:21Z</time>
      </trkpt>
      <trkpt lat="48.09233" lon="-4.29548">
        <ele>8.30859375</ele>
        <time>2017-04-22T14:55:28Z</time>
      </trkpt>
      <trkpt lat="48.09233" lon="-4.29553">
        <ele>8.7891845703125</ele>
        <time>2017-04-22T14:55:31Z</time>
      </trkpt>
      <trkpt lat="48.09231" lon="-4.29567">
        <ele>8.7891845703125</ele>
        <time>2017-04-22T14:55:39Z</time>
      </trkpt>
      <trkpt lat="48.0923" lon="-4.29572">
        <ele>8.7891845703125</ele>
        <time>2017-04-22T14:55:42Z</time>
      </trkpt>
      <trkpt lat="48.09228" lon="-4.29579">
        <ele>8.7891845703125</ele>
        <time>2017-04-22T14:55:46Z</time>
      </trkpt>
      <trkpt lat="48.09227" lon="-4.29588">
        <ele>8.7891845703125</ele>
        <time>2017-04-22T14:55:51Z</time>
      </trkpt>
      <trkpt lat="48.09224" lon="-4.29598">
        <ele>8.30859375</ele>
        <time>2017-04-22T14:55:57Z</time>
      </trkpt>
      <trkpt lat="48.09221" lon="-4.29606">
        <ele>7.827880859375</ele>
        <time>2017-04-22T14:56:02Z</time>
      </trkpt>
      <trkpt lat="48.09219" lon="-4.29609">
        <ele>7.34716796875</ele>
        <time>2017-04-22T14:56:04Z</time>
      </trkpt>
      <trkpt lat="48.09217" lon="-4.29614">
        <ele>6.866455078125</ele>
        <time>2017-04-22T14:56:08Z</time>
      </trkpt>
      <trkpt lat="48.09213" lon="-4.29623">
        <ele>6.866455078125</ele>
        <time>2017-04-22T14:56:14Z</time>
      </trkpt>
      <trkpt lat="48.09208" lon="-4.29635">
        <ele>8.30859375</ele>
        <time>2017-04-22T14:56:21Z</time>
      </trkpt>
      <trkpt lat="48.09205" lon="-4.29641">
        <ele>8.30859375</ele>
        <time>2017-04-22T14:56:25Z</time>
      </trkpt>
      <trkpt lat="48.09202" lon="-4.29647">
        <ele>8.30859375</ele>
        <time>2017-04-22T14:56:29Z</time>
      </trkpt>
      <trkpt lat="48.092" lon="-4.29654">
        <ele>7.827880859375</ele>
        <time>2017-04-22T14:56:34Z</time>
      </trkpt>
      <trkpt lat="48.09194" lon="-4.29664">
        <ele>8.30859375</ele>
        <time>2017-04-22T14:56:41Z</time>
      </trkpt>
      <trkpt lat="48.09187" lon="-4.29674">
        <ele>9.2698974609375</ele>
        <time>2017-04-22T14:56:49Z</time>
      </trkpt>
      <trkpt lat="48.09183" lon="-4.29682">
        <ele>8.7891845703125</ele>
        <time>2017-04-22T14:56:55Z</time>
      </trkpt>
      <trkpt lat="48.09178" lon="-4.29694">
        <ele>7.827880859375</ele>
        <time>2017-04-22T14:57:03Z</time>
      </trkpt>
      <trkpt lat="48.09173" lon="-4.29701">
        <ele>8.30859375</ele>
        <time>2017-04-22T14:57:09Z</time>
      </trkpt>
      <trkpt lat="48.09169" lon="-4.29709">
        <ele>9.2698974609375</ele>
        <time>2017-04-22T14:57:15Z</time>
      </trkpt>
      <trkpt lat="48.09164" lon="-4.29716">
        <ele>9.2698974609375</ele>
        <time>2017-04-22T14:57:21Z</time>
      </trkpt>
      <trkpt lat="48.09161" lon="-4.29719">
        <ele>9.7506103515625</ele>
        <time>2017-04-22T14:57:24Z</time>
      </trkpt>
      <trkpt lat="48.09158" lon="-4.29724">
        <ele>10.231201171875</ele>
        <time>2017-04-22T14:57:28Z</time>
      </trkpt>
      <trkpt lat="48.09152" lon="-4.29732">
        <ele>12.15380859375</ele>
        <time>2017-04-22T14:57:35Z</time>
      </trkpt>
      <trkpt lat="48.0915" lon="-4.29735">
        <ele>12.634399414062</ele>
        <time>2017-04-22T14:57:38Z</time>
      </trkpt>
      <trkpt lat="48.09144" lon="-4.2974">
        <ele>12.634399414062</ele>
        <time>2017-04-22T14:57:44Z</time>
      </trkpt>
      <trkpt lat="48.09138" lon="-4.29742">
        <ele>12.15380859375</ele>
        <time>2017-04-22T14:57:49Z</time>
      </trkpt>
      <trkpt lat="48.09136" lon="-4.29744">
        <ele>12.15380859375</ele>
        <time>2017-04-22T14:57:51Z</time>
      </trkpt>
      <trkpt lat="48.09131" lon="-4.29747">
        <ele>13.115112304688</ele>
        <time>2017-04-22T14:57:55Z</time>
      </trkpt>
      <trkpt lat="48.09127" lon="-4.29752">
        <ele>13.115112304688</ele>
        <time>2017-04-22T14:58:00Z</time>
      </trkpt>
      <trkpt lat="48.09124" lon="-4.2976">
        <ele>12.634399414062</ele>
        <time>2017-04-22T14:58:05Z</time>
      </trkpt>
      <trkpt lat="48.09122" lon="-4.29767">
        <ele>11.673217773438</ele>
        <time>2017-04-22T14:58:09Z</time>
      </trkpt>
      <trkpt lat="48.09119" lon="-4.29772">
        <ele>11.192504882812</ele>
        <time>2017-04-22T14:58:13Z</time>
      </trkpt>
      <trkpt lat="48.09111" lon="-4.29783">
        <ele>14.076416015625</ele>
        <time>2017-04-22T14:58:22Z</time>
      </trkpt>
      <trkpt lat="48.09103" lon="-4.2979">
        <ele>15.037719726562</ele>
        <time>2017-04-22T14:58:29Z</time>
      </trkpt>
      <trkpt lat="48.09098" lon="-4.29798">
        <ele>16.479736328125</ele>
        <time>2017-04-22T14:58:36Z</time>
      </trkpt>
      <trkpt lat="48.0909" lon="-4.29807">
        <ele>16.96044921875</ele>
        <time>2017-04-22T14:58:44Z</time>
      </trkpt>
      <trkpt lat="48.09085" lon="-4.29812">
        <ele>17.921752929688</ele>
        <time>2017-04-22T14:58:49Z</time>
      </trkpt>
      <trkpt lat="48.09078" lon="-4.2982">
        <ele>17.921752929688</ele>
        <time>2017-04-22T14:58:57Z</time>
      </trkpt>
      <trkpt lat="48.09077" lon="-4.29821">
        <ele>17.921752929688</ele>
        <time>2017-04-22T14:58:58Z</time>
      </trkpt>
      <trkpt lat="48.09072" lon="-4.29827">
        <ele>17.441162109375</ele>
        <time>2017-04-22T14:59:04Z</time>
      </trkpt>
      <trkpt lat="48.09068" lon="-4.29832">
        <ele>17.921752929688</ele>
        <time>2017-04-22T14:59:09Z</time>
      </trkpt>
      <trkpt lat="48.09062" lon="-4.2984">
        <ele>17.921752929688</ele>
        <time>2017-04-22T14:59:16Z</time>
      </trkpt>
      <trkpt lat="48.09058" lon="-4.29845">
        <ele>18.40234375</ele>
        <time>2017-04-22T14:59:20Z</time>
      </trkpt>
      <trkpt lat="48.09056" lon="-4.29847">
        <ele>17.921752929688</ele>
        <time>2017-04-22T14:59:23Z</time>
      </trkpt>
      <trkpt lat="48.09051" lon="-4.29853">
        <ele>17.441162109375</ele>
        <time>2017-04-22T14:59:29Z</time>
      </trkpt>
      <trkpt lat="48.09046" lon="-4.29863">
        <ele>16.96044921875</ele>
        <time>2017-04-22T14:59:36Z</time>
      </trkpt>
      <trkpt lat="48.09043" lon="-4.29871">
        <ele>17.441162109375</ele>
        <time>2017-04-22T14:59:42Z</time>
      </trkpt>
      <trkpt lat="48.09042" lon="-4.29873">
        <ele>16.96044921875</ele>
        <time>2017-04-22T14:59:43Z</time>
      </trkpt>
      <trkpt lat="48.0904" lon="-4.29879">
        <ele>17.441162109375</ele>
        <time>2017-04-22T14:59:47Z</time>
      </trkpt>
      <trkpt lat="48.0904" lon="-4.29885">
        <ele>17.441162109375</ele>
        <time>2017-04-22T14:59:50Z</time>
      </trkpt>
      <trkpt lat="48.0904" lon="-4.29899">
        <ele>20.324951171875</ele>
        <time>2017-04-22T14:59:57Z</time>
      </trkpt>
      <trkpt lat="48.09039" lon="-4.29902">
        <ele>20.324951171875</ele>
        <time>2017-04-22T14:59:59Z</time>
      </trkpt>
      <trkpt lat="48.09038" lon="-4.29909">
        <ele>17.441162109375</ele>
        <time>2017-04-22T15:00:06Z</time>
      </trkpt>
      <trkpt lat="48.09036" lon="-4.29916">
        <ele>16.479736328125</ele>
        <time>2017-04-22T15:00:11Z</time>
      </trkpt>
      <trkpt lat="48.09036" lon="-4.29921">
        <ele>15.9990234375</ele>
        <time>2017-04-22T15:00:14Z</time>
      </trkpt>
      <trkpt lat="48.09035" lon="-4.29929">
        <ele>15.518432617188</ele>
        <time>2017-04-22T15:00:19Z</time>
      </trkpt>
      <trkpt lat="48.09033" lon="-4.29936">
        <ele>15.9990234375</ele>
        <time>2017-04-22T15:00:24Z</time>
      </trkpt>
      <trkpt lat="48.09027" lon="-4.29938">
        <ele>18.883056640625</ele>
        <time>2017-04-22T15:00:30Z</time>
      </trkpt>
      <trkpt lat="48.09023" lon="-4.29937">
        <ele>20.324951171875</ele>
        <time>2017-04-22T15:00:36Z</time>
      </trkpt>
      <trkpt lat="48.09018" lon="-4.29939">
        <ele>20.8056640625</ele>
        <time>2017-04-22T15:00:41Z</time>
      </trkpt>
      <trkpt lat="48.09017" lon="-4.29941">
        <ele>20.8056640625</ele>
        <time>2017-04-22T15:00:43Z</time>
      </trkpt>
      <trkpt lat="48.09015" lon="-4.29956">
        <ele>23.208984375</ele>
        <time>2017-04-22T15:00:51Z</time>
      </trkpt>
      <trkpt lat="48.09015" lon="-4.29966">
        <ele>23.689575195312</ele>
        <time>2017-04-22T15:00:57Z</time>
      </trkpt>
      <trkpt lat="48.09014" lon="-4.29976">
        <ele>24.651000976562</ele>
        <time>2017-04-22T15:01:03Z</time>
      </trkpt>
      <trkpt lat="48.09013" lon="-4.2999">
        <ele>24.651000976562</ele>
        <time>2017-04-22T15:01:11Z</time>
      </trkpt>
      <trkpt lat="48.09012" lon="-4.29995">
        <ele>25.131713867188</ele>
        <time>2017-04-22T15:01:14Z</time>
      </trkpt>
      <trkpt lat="48.09009" lon="-4.30006">
        <ele>26.573608398438</ele>
        <time>2017-04-22T15:01:20Z</time>
      </trkpt>
      <trkpt lat="48.09009" lon="-4.30007">
        <ele>26.573608398438</ele>
        <time>2017-04-22T15:01:21Z</time>
      </trkpt>
      <trkpt lat="48.09012" lon="-4.30014">
        <ele>27.054321289062</ele>
        <time>2017-04-22T15:01:25Z</time>
      </trkpt>
      <trkpt lat="48.0901" lon="-4.30021">
        <ele>26.092895507812</ele>
        <time>2017-04-22T15:01:29Z</time>
      </trkpt>
      <trkpt lat="48.09008" lon="-4.30029">
        <ele>25.6123046875</ele>
        <time>2017-04-22T15:01:34Z</time>
      </trkpt>
      <trkpt lat="48.09008" lon="-4.30032">
        <ele>25.131713867188</ele>
        <time>2017-04-22T15:01:37Z</time>
      </trkpt>
      <trkpt lat="48.09003" lon="-4.30028">
        <ele>26.092895507812</ele>
        <time>2017-04-22T15:01:43Z</time>
      </trkpt>
      <trkpt lat="48.09" lon="-4.30021">
        <ele>29.938110351562</ele>
        <time>2017-04-22T15:01:50Z</time>
      </trkpt>
      <trkpt lat="48.08998" lon="-4.30018">
        <ele>30.418823242188</ele>
        <time>2017-04-22T15:01:54Z</time>
      </trkpt>
      <trkpt lat="48.08995" lon="-4.30016">
        <ele>31.380126953125</ele>
        <time>2017-04-22T15:01:58Z</time>
      </trkpt>
      <trkpt lat="48.08992" lon="-4.30012">
        <ele>29.938110351562</ele>
        <time>2017-04-22T15:02:03Z</time>
      </trkpt>
      <trkpt lat="48.08989" lon="-4.30005">
        <ele>31.380126953125</ele>
        <time>2017-04-22T15:02:09Z</time>
      </trkpt>
      <trkpt lat="48.08986" lon="-4.29999">
        <ele>33.783447265625</ele>
        <time>2017-04-22T15:02:14Z</time>
      </trkpt>
      <trkpt lat="48.08982" lon="-4.29994">
        <ele>34.744873046875</ele>
        <time>2017-04-22T15:02:18Z</time>
      </trkpt>
      <trkpt lat="48.08978" lon="-4.29992">
        <ele>35.225463867188</ele>
        <time>2017-04-22T15:02:23Z</time>
      </trkpt>
      <trkpt lat="48.08975" lon="-4.29991">
        <ele>35.225463867188</ele>
        <time>2017-04-22T15:02:28Z</time>
      </trkpt>
      <trkpt lat="48.08973" lon="-4.29991">
        <ele>34.26416015625</ele>
        <time>2017-04-22T15:02:34Z</time>
      </trkpt>
      <trkpt lat="48.08972" lon="-4.29993">
        <ele>33.783447265625</ele>
        <time>2017-04-22T15:02:39Z</time>
      </trkpt>
      <trkpt lat="48.08972" lon="-4.29992">
        <ele>32.822265625</ele>
        <time>2017-04-22T15:02:49Z</time>
      </trkpt>
      <trkpt lat="48.08971" lon="-4.2999">
        <ele>34.744873046875</ele>
        <time>2017-04-22T15:02:55Z</time>
      </trkpt>
      <trkpt lat="48.08969" lon="-4.29989">
        <ele>35.225463867188</ele>
        <time>2017-04-22T15:02:57Z</time>
      </trkpt>
      <trkpt lat="48.08961" lon="-4.29983">
        <ele>38.590087890625</ele>
        <time>2017-04-22T15:03:05Z</time>
      </trkpt>
      <trkpt lat="48.08957" lon="-4.29983">
        <ele>39.070678710938</ele>
        <time>2017-04-22T15:03:10Z</time>
      </trkpt>
      <trkpt lat="48.08952" lon="-4.29982">
        <ele>37.628662109375</ele>
        <time>2017-04-22T15:03:16Z</time>
      </trkpt>
      <trkpt lat="48.08944" lon="-4.29979">
        <ele>38.590087890625</ele>
        <time>2017-04-22T15:03:23Z</time>
      </trkpt>
      <trkpt lat="48.08941" lon="-4.29979">
        <ele>38.590087890625</ele>
        <time>2017-04-22T15:03:29Z</time>
      </trkpt>
      <trkpt lat="48.08936" lon="-4.29978">
        <ele>39.070678710938</ele>
        <time>2017-04-22T15:03:35Z</time>
      </trkpt>
      <trkpt lat="48.08932" lon="-4.29979">
        <ele>40.032104492188</ele>
        <time>2017-04-22T15:03:40Z</time>
      </trkpt>
      <trkpt lat="48.08927" lon="-4.29981">
        <ele>39.070678710938</ele>
        <time>2017-04-22T15:03:47Z</time>
      </trkpt>
      <trkpt lat="48.08923" lon="-4.29982">
        <ele>38.590087890625</ele>
        <time>2017-04-22T15:03:52Z</time>
      </trkpt>
      <trkpt lat="48.08919" lon="-4.29984">
        <ele>39.070678710938</ele>
        <time>2017-04-22T15:03:57Z</time>
      </trkpt>
      <trkpt lat="48.08915" lon="-4.29988">
        <ele>40.512817382812</ele>
        <time>2017-04-22T15:04:02Z</time>
      </trkpt>
      <trkpt lat="48.08912" lon="-4.29991">
        <ele>40.032104492188</ele>
        <time>2017-04-22T15:04:07Z</time>
      </trkpt>
      <trkpt lat="48.08908" lon="-4.29992">
        <ele>40.512817382812</ele>
        <time>2017-04-22T15:04:11Z</time>
      </trkpt>
      <trkpt lat="48.08904" lon="-4.29995">
        <ele>40.512817382812</ele>
        <time>2017-04-22T15:04:17Z</time>
      </trkpt>
      <trkpt lat="48.08901" lon="-4.29998">
        <ele>41.473999023438</ele>
        <time>2017-04-22T15:04:22Z</time>
      </trkpt>
      <trkpt lat="48.08899" lon="-4.3">
        <ele>42.435424804688</ele>
        <time>2017-04-22T15:04:27Z</time>
      </trkpt>
      <trkpt lat="48.08893" lon="-4.30005">
        <ele>45.319213867188</ele>
        <time>2017-04-22T15:04:34Z</time>
      </trkpt>
      <trkpt lat="48.08889" lon="-4.30008">
        <ele>45.799926757812</ele>
        <time>2017-04-22T15:04:38Z</time>
      </trkpt>
      <trkpt lat="48.08886" lon="-4.3001">
        <ele>42.916015625</ele>
        <time>2017-04-22T15:04:44Z</time>
      </trkpt>
      <trkpt lat="48.08881" lon="-4.30013">
        <ele>42.435424804688</ele>
        <time>2017-04-22T15:04:50Z</time>
      </trkpt>
      <trkpt lat="48.08874" lon="-4.30016">
        <ele>42.435424804688</ele>
        <time>2017-04-22T15:04:57Z</time>
      </trkpt>
      <trkpt lat="48.0887" lon="-4.30018">
        <ele>42.435424804688</ele>
        <time>2017-04-22T15:05:02Z</time>
      </trkpt>
      <trkpt lat="48.08866" lon="-4.30022">
        <ele>42.916015625</ele>
        <time>2017-04-22T15:05:07Z</time>
      </trkpt>
      <trkpt lat="48.08862" lon="-4.30025">
        <ele>44.358032226562</ele>
        <time>2017-04-22T15:05:12Z</time>
      </trkpt>
      <trkpt lat="48.08856" lon="-4.30026">
        <ele>44.838623046875</ele>
        <time>2017-04-22T15:05:18Z</time>
      </trkpt>
      <trkpt lat="48.08853" lon="-4.3003">
        <ele>47.241821289062</ele>
        <time>2017-04-22T15:05:23Z</time>
      </trkpt>
      <trkpt lat="48.08847" lon="-4.30033">
        <ele>48.203369140625</ele>
        <time>2017-04-22T15:05:28Z</time>
      </trkpt>
      <trkpt lat="48.08842" lon="-4.30036">
        <ele>48.203369140625</ele>
        <time>2017-04-22T15:05:34Z</time>
      </trkpt>
      <trkpt lat="48.08838" lon="-4.30036">
        <ele>48.683959960938</ele>
        <time>2017-04-22T15:05:38Z</time>
      </trkpt>
      <trkpt lat="48.08834" lon="-4.30038">
        <ele>49.645263671875</ele>
        <time>2017-04-22T15:05:42Z</time>
      </trkpt>
      <trkpt lat="48.08832" lon="-4.3004">
        <ele>50.1259765625</ele>
        <time>2017-04-22T15:05:46Z</time>
      </trkpt>
      <trkpt lat="48.08828" lon="-4.30041">
        <ele>49.645263671875</ele>
        <time>2017-04-22T15:05:51Z</time>
      </trkpt>
      <trkpt lat="48.08823" lon="-4.30043">
        <ele>53.97119140625</ele>
        <time>2017-04-22T15:06:00Z</time>
      </trkpt>
      <trkpt lat="48.08821" lon="-4.30044">
        <ele>56.37451171875</ele>
        <time>2017-04-22T15:06:17Z</time>
      </trkpt>
      <trkpt lat="48.08821" lon="-4.30044">
        <ele>56.37451171875</ele>
        <time>2017-04-22T15:06:26Z</time>
      </trkpt>
      <trkpt lat="48.08821" lon="-4.30042">
        <ele>59.258422851562</ele>
        <time>2017-04-22T15:06:43Z</time>
      </trkpt>
      <trkpt lat="48.0882" lon="-4.30041">
        <ele>59.739135742188</ele>
        <time>2017-04-22T15:06:49Z</time>
      </trkpt>
      <trkpt lat="48.08819" lon="-4.30039">
        <ele>59.258422851562</ele>
        <time>2017-04-22T15:06:53Z</time>
      </trkpt>
      <trkpt lat="48.08819" lon="-4.30039">
        <ele>58.297119140625</ele>
        <time>2017-04-22T15:06:57Z</time>
      </trkpt>
      <trkpt lat="48.08821" lon="-4.30041">
        <ele>57.816528320312</ele>
        <time>2017-04-22T15:07:18Z</time>
      </trkpt>
      <trkpt lat="48.0882" lon="-4.30041">
        <ele>55.4130859375</ele>
        <time>2017-04-22T15:07:29Z</time>
      </trkpt>
      <trkpt lat="48.08818" lon="-4.30042">
        <ele>53.490478515625</ele>
        <time>2017-04-22T15:07:36Z</time>
      </trkpt>
      <trkpt lat="48.08817" lon="-4.30041">
        <ele>55.893798828125</ele>
        <time>2017-04-22T15:07:48Z</time>
      </trkpt>
      <trkpt lat="48.08816" lon="-4.3004">
        <ele>54.932373046875</ele>
        <time>2017-04-22T15:07:57Z</time>
      </trkpt>
      <trkpt lat="48.08817" lon="-4.30039">
        <ele>56.37451171875</ele>
        <time>2017-04-22T15:08:16Z</time>
      </trkpt>
      <trkpt lat="48.08817" lon="-4.30037">
        <ele>60.2197265625</ele>
        <time>2017-04-22T15:08:23Z</time>
      </trkpt>
      <trkpt lat="48.08816" lon="-4.30036">
        <ele>60.700317382812</ele>
        <time>2017-04-22T15:08:24Z</time>
      </trkpt>
      <trkpt lat="48.08814" lon="-4.30038">
        <ele>61.181030273438</ele>
        <time>2017-04-22T15:08:29Z</time>
      </trkpt>
      <trkpt lat="48.08814" lon="-4.3004">
        <ele>53.009765625</ele>
        <time>2017-04-22T15:09:01Z</time>
      </trkpt>
      <trkpt lat="48.08814" lon="-4.3004">
        <ele>52.529174804688</ele>
        <time>2017-04-22T15:09:16Z</time>
      </trkpt>
      <trkpt lat="48.08811" lon="-4.3004">
        <ele>52.529174804688</ele>
        <time>2017-04-22T15:09:20Z</time>
      </trkpt>
      <trkpt lat="48.08806" lon="-4.30038">
        <ele>52.529174804688</ele>
        <time>2017-04-22T15:09:25Z</time>
      </trkpt>
      <trkpt lat="48.08801" lon="-4.30035">
        <ele>53.97119140625</ele>
        <time>2017-04-22T15:09:31Z</time>
      </trkpt>
      <trkpt lat="48.08796" lon="-4.30034">
        <ele>53.490478515625</ele>
        <time>2017-04-22T15:09:36Z</time>
      </trkpt>
      <trkpt lat="48.08793" lon="-4.30033">
        <ele>53.97119140625</ele>
        <time>2017-04-22T15:09:41Z</time>
      </trkpt>
      <trkpt lat="48.08784" lon="-4.3003">
        <ele>57.335815429688</ele>
        <time>2017-04-22T15:09:50Z</time>
      </trkpt>
      <trkpt lat="48.08776" lon="-4.30029">
        <ele>56.855102539062</ele>
        <time>2017-04-22T15:09:55Z</time>
      </trkpt>
      <trkpt lat="48.08773" lon="-4.30029">
        <ele>57.816528320312</ele>
        <time>2017-04-22T15:10:00Z</time>
      </trkpt>
      <trkpt lat="48.0877" lon="-4.30026">
        <ele>60.700317382812</ele>
        <time>2017-04-22T15:10:06Z</time>
      </trkpt>
      <trkpt lat="48.08766" lon="-4.30025">
        <ele>61.661743164062</ele>
        <time>2017-04-22T15:10:11Z</time>
      </trkpt>
      <trkpt lat="48.08763" lon="-4.30023">
        <ele>61.661743164062</ele>
        <time>2017-04-22T15:10:14Z</time>
      </trkpt>
      <trkpt lat="48.08756" lon="-4.30021">
        <ele>62.142333984375</ele>
        <time>2017-04-22T15:10:20Z</time>
      </trkpt>
      <trkpt lat="48.08753" lon="-4.30016">
        <ele>62.142333984375</ele>
        <time>2017-04-22T15:10:24Z</time>
      </trkpt>
      <trkpt lat="48.08748" lon="-4.30009">
        <ele>62.622924804688</ele>
        <time>2017-04-22T15:10:30Z</time>
      </trkpt>
      <trkpt lat="48.08742" lon="-4.30002">
        <ele>65.0263671875</ele>
        <time>2017-04-22T15:10:36Z</time>
      </trkpt>
      <trkpt lat="48.08731" lon="-4.29995">
        <ele>64.545654296875</ele>
        <time>2017-04-22T15:10:44Z</time>
      </trkpt>
      <trkpt lat="48.08723" lon="-4.29992">
        <ele>65.0263671875</ele>
        <time>2017-04-22T15:10:51Z</time>
      </trkpt>
      <trkpt lat="48.08716" lon="-4.29991">
        <ele>65.987670898438</ele>
        <time>2017-04-22T15:10:57Z</time>
      </trkpt>
      <trkpt lat="48.08711" lon="-4.29992">
        <ele>67.4296875</ele>
        <time>2017-04-22T15:11:02Z</time>
      </trkpt>
      <trkpt lat="48.08707" lon="-4.29992">
        <ele>69.352294921875</ele>
        <time>2017-04-22T15:11:08Z</time>
      </trkpt>
      <trkpt lat="48.08704" lon="-4.29995">
        <ele>71.27490234375</ele>
        <time>2017-04-22T15:11:15Z</time>
      </trkpt>
      <trkpt lat="48.08699" lon="-4.29996">
        <ele>71.755493164062</ele>
        <time>2017-04-22T15:11:20Z</time>
      </trkpt>
      <trkpt lat="48.08697" lon="-4.30001">
        <ele>74.639526367188</ele>
        <time>2017-04-22T15:11:26Z</time>
      </trkpt>
      <trkpt lat="48.08693" lon="-4.29998">
        <ele>74.639526367188</ele>
        <time>2017-04-22T15:11:33Z</time>
      </trkpt>
      <trkpt lat="48.08691" lon="-4.29994">
        <ele>73.67822265625</ele>
        <time>2017-04-22T15:11:37Z</time>
      </trkpt>
      <trkpt lat="48.08687" lon="-4.29989">
        <ele>73.197631835938</ele>
        <time>2017-04-22T15:11:41Z</time>
      </trkpt>
      <trkpt lat="48.08682" lon="-4.29982">
        <ele>73.197631835938</ele>
        <time>2017-04-22T15:11:48Z</time>
      </trkpt>
      <trkpt lat="48.08678" lon="-4.29978">
        <ele>75.600830078125</ele>
        <time>2017-04-22T15:11:53Z</time>
      </trkpt>
      <trkpt lat="48.08675" lon="-4.29973">
        <ele>75.120239257812</ele>
        <time>2017-04-22T15:11:57Z</time>
      </trkpt>
      <trkpt lat="48.08668" lon="-4.29963">
        <ele>76.562133789062</ele>
        <time>2017-04-22T15:12:05Z</time>
      </trkpt>
      <trkpt lat="48.08661" lon="-4.29953">
        <ele>74.158813476562</ele>
        <time>2017-04-22T15:12:11Z</time>
      </trkpt>
      <trkpt lat="48.08658" lon="-4.29948">
        <ele>73.197631835938</ele>
        <time>2017-04-22T15:12:15Z</time>
      </trkpt>
      <trkpt lat="48.08654" lon="-4.29942">
        <ele>71.27490234375</ele>
        <time>2017-04-22T15:12:21Z</time>
      </trkpt>
      <trkpt lat="48.08653" lon="-4.2994">
        <ele>70.794189453125</ele>
        <time>2017-04-22T15:12:23Z</time>
      </trkpt>
      <trkpt lat="48.08646" lon="-4.29933">
        <ele>70.3134765625</ele>
        <time>2017-04-22T15:12:30Z</time>
      </trkpt>
      <trkpt lat="48.08641" lon="-4.29926">
        <ele>69.832885742188</ele>
        <time>2017-04-22T15:12:36Z</time>
      </trkpt>
      <trkpt lat="48.08636" lon="-4.29919">
        <ele>68.87158203125</ele>
        <time>2017-04-22T15:12:42Z</time>
      </trkpt>
      <trkpt lat="48.08636" lon="-4.29918">
        <ele>69.832885742188</ele>
        <time>2017-04-22T15:12:44Z</time>
      </trkpt>
      <trkpt lat="48.08632" lon="-4.29911">
        <ele>72.236206054688</ele>
        <time>2017-04-22T15:12:49Z</time>
      </trkpt>
      <trkpt lat="48.08626" lon="-4.29903">
        <ele>73.67822265625</ele>
        <time>2017-04-22T15:12:54Z</time>
      </trkpt>
      <trkpt lat="48.08622" lon="-4.29894">
        <ele>73.197631835938</ele>
        <time>2017-04-22T15:13:00Z</time>
      </trkpt>
      <trkpt lat="48.08618" lon="-4.29886">
        <ele>72.716918945312</ele>
        <time>2017-04-22T15:13:06Z</time>
      </trkpt>
      <trkpt lat="48.08614" lon="-4.29879">
        <ele>73.197631835938</ele>
        <time>2017-04-22T15:13:11Z</time>
      </trkpt>
      <trkpt lat="48.08613" lon="-4.29876">
        <ele>72.716918945312</ele>
        <time>2017-04-22T15:13:13Z</time>
      </trkpt>
      <trkpt lat="48.08612" lon="-4.29874">
        <ele>74.158813476562</ele>
        <time>2017-04-22T15:13:19Z</time>
      </trkpt>
      <trkpt lat="48.08614" lon="-4.29872">
        <ele>74.639526367188</ele>
        <time>2017-04-22T15:13:21Z</time>
      </trkpt>
      <trkpt lat="48.08619" lon="-4.29873">
        <ele>74.158813476562</ele>
        <time>2017-04-22T15:13:27Z</time>
      </trkpt>
      <trkpt lat="48.0862" lon="-4.29873">
        <ele>74.158813476562</ele>
        <time>2017-04-22T15:13:28Z</time>
      </trkpt>
    </trkseg>
  </trk>
</gpx>